<?xml version="1.0" encoding="UTF-8" standalone="no" ?>
<gpx xmlns="http://www.topografix.com/GPX/1/1" xmlns:xsi="http://www.w3.org/2001/XMLSchema-instance" xsi:schemaLocation="http://www.topografix.com/GPX/1/1 http://www.topografix.com/GPX/1/1/gpx.xsd" version="1.1" creator="VisuGPX - https://www.visugpx.com">
  <metadata>
    <name>Rando Serquigny2014</name>
    <desc><![CDATA[Rando VTT Serquigny 24-08-2014]]></desc>
  </metadata>
  <trk>
    <name><![CDATA[Serquigny14 complet]]></name>
    <trkseg>
      <trkpt lat="49.10916" lon="0.70991">
        <ele>80</ele>
        <time>2014-08-24T06:27:28Z</time>
      </trkpt>
      <trkpt lat="49.10916" lon="0.70991">
        <ele>80</ele>
        <time>2014-08-24T06:27:29Z</time>
      </trkpt>
      <trkpt lat="49.10923" lon="0.70991">
        <ele>80</ele>
        <time>2014-08-24T06:27:34Z</time>
      </trkpt>
      <trkpt lat="49.10928" lon="0.70988">
        <ele>80</ele>
        <time>2014-08-24T06:27:36Z</time>
      </trkpt>
      <trkpt lat="49.10932" lon="0.70975">
        <ele>80</ele>
        <time>2014-08-24T06:27:39Z</time>
      </trkpt>
      <trkpt lat="49.10928" lon="0.70969">
        <ele>80</ele>
        <time>2014-08-24T06:27:40Z</time>
      </trkpt>
      <trkpt lat="49.10924" lon="0.70957">
        <ele>80</ele>
        <time>2014-08-24T06:27:42Z</time>
      </trkpt>
      <trkpt lat="49.10917" lon="0.70938">
        <ele>80</ele>
        <time>2014-08-24T06:27:45Z</time>
      </trkpt>
      <trkpt lat="49.10914" lon="0.70932">
        <ele>80</ele>
        <time>2014-08-24T06:27:46Z</time>
      </trkpt>
      <trkpt lat="49.10906" lon="0.70913">
        <ele>80</ele>
        <time>2014-08-24T06:27:49Z</time>
      </trkpt>
      <trkpt lat="49.109" lon="0.70899">
        <ele>80</ele>
        <time>2014-08-24T06:27:51Z</time>
      </trkpt>
      <trkpt lat="49.10898" lon="0.70891">
        <ele>80</ele>
        <time>2014-08-24T06:27:52Z</time>
      </trkpt>
      <trkpt lat="49.10888" lon="0.70861">
        <ele>80</ele>
        <time>2014-08-24T06:27:56Z</time>
      </trkpt>
      <trkpt lat="49.10887" lon="0.70854">
        <ele>80</ele>
        <time>2014-08-24T06:27:57Z</time>
      </trkpt>
      <trkpt lat="49.10877" lon="0.70826">
        <ele>80</ele>
        <time>2014-08-24T06:28:01Z</time>
      </trkpt>
      <trkpt lat="49.10871" lon="0.70813">
        <ele>81</ele>
        <time>2014-08-24T06:28:03Z</time>
      </trkpt>
      <trkpt lat="49.1086" lon="0.70784">
        <ele>81</ele>
        <time>2014-08-24T06:28:07Z</time>
      </trkpt>
      <trkpt lat="49.10839" lon="0.70727">
        <ele>81</ele>
        <time>2014-08-24T06:28:15Z</time>
      </trkpt>
      <trkpt lat="49.10833" lon="0.70713">
        <ele>81</ele>
        <time>2014-08-24T06:28:17Z</time>
      </trkpt>
      <trkpt lat="49.10822" lon="0.70695">
        <ele>81</ele>
        <time>2014-08-24T06:28:20Z</time>
      </trkpt>
      <trkpt lat="49.10811" lon="0.70678">
        <ele>81</ele>
        <time>2014-08-24T06:28:23Z</time>
      </trkpt>
      <trkpt lat="49.10778" lon="0.70635">
        <ele>81</ele>
        <time>2014-08-24T06:28:31Z</time>
      </trkpt>
      <trkpt lat="49.10776" lon="0.70628">
        <ele>81</ele>
        <time>2014-08-24T06:28:32Z</time>
      </trkpt>
      <trkpt lat="49.10781" lon="0.70612">
        <ele>81</ele>
        <time>2014-08-24T06:28:34Z</time>
      </trkpt>
      <trkpt lat="49.1079" lon="0.706">
        <ele>81</ele>
        <time>2014-08-24T06:28:36Z</time>
      </trkpt>
      <trkpt lat="49.10795" lon="0.70595">
        <ele>81</ele>
        <time>2014-08-24T06:28:37Z</time>
      </trkpt>
      <trkpt lat="49.10799" lon="0.7059">
        <ele>81</ele>
        <time>2014-08-24T06:28:38Z</time>
      </trkpt>
      <trkpt lat="49.10803" lon="0.70585">
        <ele>81</ele>
        <time>2014-08-24T06:28:39Z</time>
      </trkpt>
      <trkpt lat="49.10807" lon="0.7058">
        <ele>81</ele>
        <time>2014-08-24T06:28:40Z</time>
      </trkpt>
      <trkpt lat="49.10837" lon="0.70542">
        <ele>81</ele>
        <time>2014-08-24T06:28:48Z</time>
      </trkpt>
      <trkpt lat="49.10867" lon="0.70502">
        <ele>81</ele>
        <time>2014-08-24T06:28:57Z</time>
      </trkpt>
      <trkpt lat="49.10871" lon="0.70497">
        <ele>81</ele>
        <time>2014-08-24T06:28:58Z</time>
      </trkpt>
      <trkpt lat="49.10874" lon="0.70493">
        <ele>81</ele>
        <time>2014-08-24T06:28:59Z</time>
      </trkpt>
      <trkpt lat="49.10878" lon="0.70488">
        <ele>81</ele>
        <time>2014-08-24T06:29:00Z</time>
      </trkpt>
      <trkpt lat="49.10882" lon="0.70483">
        <ele>81</ele>
        <time>2014-08-24T06:29:01Z</time>
      </trkpt>
      <trkpt lat="49.10889" lon="0.70474">
        <ele>81</ele>
        <time>2014-08-24T06:29:03Z</time>
      </trkpt>
      <trkpt lat="49.10907" lon="0.70449">
        <ele>82</ele>
        <time>2014-08-24T06:29:08Z</time>
      </trkpt>
      <trkpt lat="49.10922" lon="0.7043">
        <ele>82</ele>
        <time>2014-08-24T06:29:12Z</time>
      </trkpt>
      <trkpt lat="49.10926" lon="0.70425">
        <ele>82</ele>
        <time>2014-08-24T06:29:13Z</time>
      </trkpt>
      <trkpt lat="49.1093" lon="0.7042">
        <ele>82</ele>
        <time>2014-08-24T06:29:14Z</time>
      </trkpt>
      <trkpt lat="49.10933" lon="0.70416">
        <ele>83</ele>
        <time>2014-08-24T06:29:15Z</time>
      </trkpt>
      <trkpt lat="49.10937" lon="0.70411">
        <ele>83</ele>
        <time>2014-08-24T06:29:16Z</time>
      </trkpt>
      <trkpt lat="49.10971" lon="0.70365">
        <ele>88</ele>
        <time>2014-08-24T06:29:26Z</time>
      </trkpt>
      <trkpt lat="49.10974" lon="0.70361">
        <ele>89</ele>
        <time>2014-08-24T06:29:27Z</time>
      </trkpt>
      <trkpt lat="49.10977" lon="0.70357">
        <ele>89</ele>
        <time>2014-08-24T06:29:28Z</time>
      </trkpt>
      <trkpt lat="49.1098" lon="0.70353">
        <ele>90</ele>
        <time>2014-08-24T06:29:29Z</time>
      </trkpt>
      <trkpt lat="49.10983" lon="0.70349">
        <ele>90</ele>
        <time>2014-08-24T06:29:30Z</time>
      </trkpt>
      <trkpt lat="49.1099" lon="0.70336">
        <ele>91</ele>
        <time>2014-08-24T06:29:33Z</time>
      </trkpt>
      <trkpt lat="49.10992" lon="0.70332">
        <ele>91</ele>
        <time>2014-08-24T06:29:34Z</time>
      </trkpt>
      <trkpt lat="49.10993" lon="0.70328">
        <ele>92</ele>
        <time>2014-08-24T06:29:35Z</time>
      </trkpt>
      <trkpt lat="49.10995" lon="0.70323">
        <ele>92</ele>
        <time>2014-08-24T06:29:36Z</time>
      </trkpt>
      <trkpt lat="49.10996" lon="0.70319">
        <ele>92</ele>
        <time>2014-08-24T06:29:37Z</time>
      </trkpt>
      <trkpt lat="49.10998" lon="0.70296">
        <ele>93</ele>
        <time>2014-08-24T06:29:42Z</time>
      </trkpt>
      <trkpt lat="49.10998" lon="0.70292">
        <ele>94</ele>
        <time>2014-08-24T06:29:43Z</time>
      </trkpt>
      <trkpt lat="49.10998" lon="0.70288">
        <ele>94</ele>
        <time>2014-08-24T06:29:44Z</time>
      </trkpt>
      <trkpt lat="49.10997" lon="0.70284">
        <ele>94</ele>
        <time>2014-08-24T06:29:45Z</time>
      </trkpt>
      <trkpt lat="49.10997" lon="0.70279">
        <ele>94</ele>
        <time>2014-08-24T06:29:46Z</time>
      </trkpt>
      <trkpt lat="49.10996" lon="0.70276">
        <ele>95</ele>
        <time>2014-08-24T06:29:47Z</time>
      </trkpt>
      <trkpt lat="49.10992" lon="0.70263">
        <ele>95</ele>
        <time>2014-08-24T06:29:50Z</time>
      </trkpt>
      <trkpt lat="49.1099" lon="0.70255">
        <ele>96</ele>
        <time>2014-08-24T06:29:52Z</time>
      </trkpt>
      <trkpt lat="49.10988" lon="0.70251">
        <ele>96</ele>
        <time>2014-08-24T06:29:53Z</time>
      </trkpt>
      <trkpt lat="49.10987" lon="0.70247">
        <ele>96</ele>
        <time>2014-08-24T06:29:54Z</time>
      </trkpt>
      <trkpt lat="49.10986" lon="0.70243">
        <ele>96</ele>
        <time>2014-08-24T06:29:55Z</time>
      </trkpt>
      <trkpt lat="49.10985" lon="0.7024">
        <ele>97</ele>
        <time>2014-08-24T06:29:56Z</time>
      </trkpt>
      <trkpt lat="49.10982" lon="0.70224">
        <ele>97</ele>
        <time>2014-08-24T06:30:00Z</time>
      </trkpt>
      <trkpt lat="49.10985" lon="0.70209">
        <ele>99</ele>
        <time>2014-08-24T06:30:04Z</time>
      </trkpt>
      <trkpt lat="49.10986" lon="0.70206">
        <ele>100</ele>
        <time>2014-08-24T06:30:05Z</time>
      </trkpt>
      <trkpt lat="49.10987" lon="0.70203">
        <ele>100</ele>
        <time>2014-08-24T06:30:06Z</time>
      </trkpt>
      <trkpt lat="49.10988" lon="0.702">
        <ele>100</ele>
        <time>2014-08-24T06:30:07Z</time>
      </trkpt>
      <trkpt lat="49.10988" lon="0.70197">
        <ele>101</ele>
        <time>2014-08-24T06:30:08Z</time>
      </trkpt>
      <trkpt lat="49.10989" lon="0.70194">
        <ele>101</ele>
        <time>2014-08-24T06:30:09Z</time>
      </trkpt>
      <trkpt lat="49.10992" lon="0.70185">
        <ele>102</ele>
        <time>2014-08-24T06:30:13Z</time>
      </trkpt>
      <trkpt lat="49.10992" lon="0.70183">
        <ele>103</ele>
        <time>2014-08-24T06:30:14Z</time>
      </trkpt>
      <trkpt lat="49.10993" lon="0.70181">
        <ele>103</ele>
        <time>2014-08-24T06:30:15Z</time>
      </trkpt>
      <trkpt lat="49.10993" lon="0.70179">
        <ele>103</ele>
        <time>2014-08-24T06:30:16Z</time>
      </trkpt>
      <trkpt lat="49.10994" lon="0.70176">
        <ele>104</ele>
        <time>2014-08-24T06:30:17Z</time>
      </trkpt>
      <trkpt lat="49.10995" lon="0.70173">
        <ele>104</ele>
        <time>2014-08-24T06:30:18Z</time>
      </trkpt>
      <trkpt lat="49.10997" lon="0.70168">
        <ele>105</ele>
        <time>2014-08-24T06:30:20Z</time>
      </trkpt>
      <trkpt lat="49.10997" lon="0.70164">
        <ele>105</ele>
        <time>2014-08-24T06:30:21Z</time>
      </trkpt>
      <trkpt lat="49.10997" lon="0.70161">
        <ele>105</ele>
        <time>2014-08-24T06:30:22Z</time>
      </trkpt>
      <trkpt lat="49.10999" lon="0.70154">
        <ele>106</ele>
        <time>2014-08-24T06:30:24Z</time>
      </trkpt>
      <trkpt lat="49.11001" lon="0.70141">
        <ele>108</ele>
        <time>2014-08-24T06:30:28Z</time>
      </trkpt>
      <trkpt lat="49.11002" lon="0.70137">
        <ele>108</ele>
        <time>2014-08-24T06:30:29Z</time>
      </trkpt>
      <trkpt lat="49.11001" lon="0.70135">
        <ele>108</ele>
        <time>2014-08-24T06:30:30Z</time>
      </trkpt>
      <trkpt lat="49.11002" lon="0.70131">
        <ele>109</ele>
        <time>2014-08-24T06:30:31Z</time>
      </trkpt>
      <trkpt lat="49.11002" lon="0.70127">
        <ele>109</ele>
        <time>2014-08-24T06:30:33Z</time>
      </trkpt>
      <trkpt lat="49.11002" lon="0.70125">
        <ele>109</ele>
        <time>2014-08-24T06:30:34Z</time>
      </trkpt>
      <trkpt lat="49.11003" lon="0.70121">
        <ele>110</ele>
        <time>2014-08-24T06:30:35Z</time>
      </trkpt>
      <trkpt lat="49.11004" lon="0.70118">
        <ele>110</ele>
        <time>2014-08-24T06:30:36Z</time>
      </trkpt>
      <trkpt lat="49.11004" lon="0.70115">
        <ele>110</ele>
        <time>2014-08-24T06:30:37Z</time>
      </trkpt>
      <trkpt lat="49.11004" lon="0.70113">
        <ele>110</ele>
        <time>2014-08-24T06:30:38Z</time>
      </trkpt>
      <trkpt lat="49.11005" lon="0.70097">
        <ele>112</ele>
        <time>2014-08-24T06:30:42Z</time>
      </trkpt>
      <trkpt lat="49.11006" lon="0.70094">
        <ele>112</ele>
        <time>2014-08-24T06:30:43Z</time>
      </trkpt>
      <trkpt lat="49.11006" lon="0.70093">
        <ele>112</ele>
        <time>2014-08-24T06:30:44Z</time>
      </trkpt>
      <trkpt lat="49.11006" lon="0.70092">
        <ele>113</ele>
        <time>2014-08-24T06:30:45Z</time>
      </trkpt>
      <trkpt lat="49.11006" lon="0.7009">
        <ele>113</ele>
        <time>2014-08-24T06:30:46Z</time>
      </trkpt>
      <trkpt lat="49.11008" lon="0.7008">
        <ele>114</ele>
        <time>2014-08-24T06:30:50Z</time>
      </trkpt>
      <trkpt lat="49.11008" lon="0.70078">
        <ele>114</ele>
        <time>2014-08-24T06:30:51Z</time>
      </trkpt>
      <trkpt lat="49.11008" lon="0.70074">
        <ele>114</ele>
        <time>2014-08-24T06:30:52Z</time>
      </trkpt>
      <trkpt lat="49.11009" lon="0.70072">
        <ele>115</ele>
        <time>2014-08-24T06:30:53Z</time>
      </trkpt>
      <trkpt lat="49.11009" lon="0.70069">
        <ele>115</ele>
        <time>2014-08-24T06:30:54Z</time>
      </trkpt>
      <trkpt lat="49.11009" lon="0.70065">
        <ele>116</ele>
        <time>2014-08-24T06:30:55Z</time>
      </trkpt>
      <trkpt lat="49.11011" lon="0.70058">
        <ele>117</ele>
        <time>2014-08-24T06:30:58Z</time>
      </trkpt>
      <trkpt lat="49.11011" lon="0.70055">
        <ele>117</ele>
        <time>2014-08-24T06:30:59Z</time>
      </trkpt>
      <trkpt lat="49.11012" lon="0.70052">
        <ele>117</ele>
        <time>2014-08-24T06:31:00Z</time>
      </trkpt>
      <trkpt lat="49.11012" lon="0.70049">
        <ele>118</ele>
        <time>2014-08-24T06:31:01Z</time>
      </trkpt>
      <trkpt lat="49.11012" lon="0.70047">
        <ele>118</ele>
        <time>2014-08-24T06:31:02Z</time>
      </trkpt>
      <trkpt lat="49.11013" lon="0.70045">
        <ele>118</ele>
        <time>2014-08-24T06:31:03Z</time>
      </trkpt>
      <trkpt lat="49.11014" lon="0.70034">
        <ele>120</ele>
        <time>2014-08-24T06:31:07Z</time>
      </trkpt>
      <trkpt lat="49.11014" lon="0.70032">
        <ele>120</ele>
        <time>2014-08-24T06:31:08Z</time>
      </trkpt>
      <trkpt lat="49.11014" lon="0.70031">
        <ele>120</ele>
        <time>2014-08-24T06:31:09Z</time>
      </trkpt>
      <trkpt lat="49.11014" lon="0.70029">
        <ele>120</ele>
        <time>2014-08-24T06:31:10Z</time>
      </trkpt>
      <trkpt lat="49.11014" lon="0.70027">
        <ele>121</ele>
        <time>2014-08-24T06:31:11Z</time>
      </trkpt>
      <trkpt lat="49.11016" lon="0.70019">
        <ele>122</ele>
        <time>2014-08-24T06:31:14Z</time>
      </trkpt>
      <trkpt lat="49.11018" lon="0.70011">
        <ele>123</ele>
        <time>2014-08-24T06:31:17Z</time>
      </trkpt>
      <trkpt lat="49.11018" lon="0.70009">
        <ele>124</ele>
        <time>2014-08-24T06:31:18Z</time>
      </trkpt>
      <trkpt lat="49.11017" lon="0.70006">
        <ele>124</ele>
        <time>2014-08-24T06:31:19Z</time>
      </trkpt>
      <trkpt lat="49.11017" lon="0.70002">
        <ele>125</ele>
        <time>2014-08-24T06:31:20Z</time>
      </trkpt>
      <trkpt lat="49.11017" lon="0.69997">
        <ele>126</ele>
        <time>2014-08-24T06:31:21Z</time>
      </trkpt>
      <trkpt lat="49.11016" lon="0.69989">
        <ele>127</ele>
        <time>2014-08-24T06:31:24Z</time>
      </trkpt>
      <trkpt lat="49.11015" lon="0.69985">
        <ele>128</ele>
        <time>2014-08-24T06:31:25Z</time>
      </trkpt>
      <trkpt lat="49.11015" lon="0.69982">
        <ele>128</ele>
        <time>2014-08-24T06:31:26Z</time>
      </trkpt>
      <trkpt lat="49.11014" lon="0.6998">
        <ele>128</ele>
        <time>2014-08-24T06:31:27Z</time>
      </trkpt>
      <trkpt lat="49.11013" lon="0.69979">
        <ele>128</ele>
        <time>2014-08-24T06:31:28Z</time>
      </trkpt>
      <trkpt lat="49.11004" lon="0.69965">
        <ele>130</ele>
        <time>2014-08-24T06:31:34Z</time>
      </trkpt>
      <trkpt lat="49.11002" lon="0.69962">
        <ele>130</ele>
        <time>2014-08-24T06:31:35Z</time>
      </trkpt>
      <trkpt lat="49.11001" lon="0.69961">
        <ele>130</ele>
        <time>2014-08-24T06:31:36Z</time>
      </trkpt>
      <trkpt lat="49.11" lon="0.69959">
        <ele>131</ele>
        <time>2014-08-24T06:31:37Z</time>
      </trkpt>
      <trkpt lat="49.10998" lon="0.69957">
        <ele>131</ele>
        <time>2014-08-24T06:31:38Z</time>
      </trkpt>
      <trkpt lat="49.10995" lon="0.69948">
        <ele>132</ele>
        <time>2014-08-24T06:31:41Z</time>
      </trkpt>
      <trkpt lat="49.10994" lon="0.69945">
        <ele>132</ele>
        <time>2014-08-24T06:31:42Z</time>
      </trkpt>
      <trkpt lat="49.10992" lon="0.69942">
        <ele>132</ele>
        <time>2014-08-24T06:31:43Z</time>
      </trkpt>
      <trkpt lat="49.10991" lon="0.6994">
        <ele>133</ele>
        <time>2014-08-24T06:31:44Z</time>
      </trkpt>
      <trkpt lat="49.10989" lon="0.69938">
        <ele>133</ele>
        <time>2014-08-24T06:31:45Z</time>
      </trkpt>
      <trkpt lat="49.10988" lon="0.69935">
        <ele>133</ele>
        <time>2014-08-24T06:31:46Z</time>
      </trkpt>
      <trkpt lat="49.10981" lon="0.69923">
        <ele>134</ele>
        <time>2014-08-24T06:31:50Z</time>
      </trkpt>
      <trkpt lat="49.10978" lon="0.69917">
        <ele>134</ele>
        <time>2014-08-24T06:31:52Z</time>
      </trkpt>
      <trkpt lat="49.10976" lon="0.69915">
        <ele>134</ele>
        <time>2014-08-24T06:31:53Z</time>
      </trkpt>
      <trkpt lat="49.10974" lon="0.69914">
        <ele>134</ele>
        <time>2014-08-24T06:31:54Z</time>
      </trkpt>
      <trkpt lat="49.10972" lon="0.69912">
        <ele>134</ele>
        <time>2014-08-24T06:31:55Z</time>
      </trkpt>
      <trkpt lat="49.10971" lon="0.6991">
        <ele>134</ele>
        <time>2014-08-24T06:31:56Z</time>
      </trkpt>
      <trkpt lat="49.1096" lon="0.69892">
        <ele>136</ele>
        <time>2014-08-24T06:32:04Z</time>
      </trkpt>
      <trkpt lat="49.10959" lon="0.69889">
        <ele>136</ele>
        <time>2014-08-24T06:32:05Z</time>
      </trkpt>
      <trkpt lat="49.10957" lon="0.69888">
        <ele>136</ele>
        <time>2014-08-24T06:32:06Z</time>
      </trkpt>
      <trkpt lat="49.10956" lon="0.69887">
        <ele>136</ele>
        <time>2014-08-24T06:32:07Z</time>
      </trkpt>
      <trkpt lat="49.10955" lon="0.69885">
        <ele>136</ele>
        <time>2014-08-24T06:32:08Z</time>
      </trkpt>
      <trkpt lat="49.10947" lon="0.69876">
        <ele>137</ele>
        <time>2014-08-24T06:32:13Z</time>
      </trkpt>
      <trkpt lat="49.10942" lon="0.69871">
        <ele>137</ele>
        <time>2014-08-24T06:32:15Z</time>
      </trkpt>
      <trkpt lat="49.1094" lon="0.69869">
        <ele>137</ele>
        <time>2014-08-24T06:32:16Z</time>
      </trkpt>
      <trkpt lat="49.10938" lon="0.69867">
        <ele>137</ele>
        <time>2014-08-24T06:32:17Z</time>
      </trkpt>
      <trkpt lat="49.10937" lon="0.69866">
        <ele>137</ele>
        <time>2014-08-24T06:32:18Z</time>
      </trkpt>
      <trkpt lat="49.10934" lon="0.69864">
        <ele>137</ele>
        <time>2014-08-24T06:32:19Z</time>
      </trkpt>
      <trkpt lat="49.10923" lon="0.69858">
        <ele>136</ele>
        <time>2014-08-24T06:32:25Z</time>
      </trkpt>
      <trkpt lat="49.10921" lon="0.69856">
        <ele>136</ele>
        <time>2014-08-24T06:32:26Z</time>
      </trkpt>
      <trkpt lat="49.1092" lon="0.69854">
        <ele>136</ele>
        <time>2014-08-24T06:32:27Z</time>
      </trkpt>
      <trkpt lat="49.10919" lon="0.69851">
        <ele>137</ele>
        <time>2014-08-24T06:32:28Z</time>
      </trkpt>
      <trkpt lat="49.10918" lon="0.69849">
        <ele>137</ele>
        <time>2014-08-24T06:32:29Z</time>
      </trkpt>
      <trkpt lat="49.10912" lon="0.6984">
        <ele>137</ele>
        <time>2014-08-24T06:32:34Z</time>
      </trkpt>
      <trkpt lat="49.10911" lon="0.69839">
        <ele>137</ele>
        <time>2014-08-24T06:32:35Z</time>
      </trkpt>
      <trkpt lat="49.1091" lon="0.69836">
        <ele>138</ele>
        <time>2014-08-24T06:32:36Z</time>
      </trkpt>
      <trkpt lat="49.10911" lon="0.69835">
        <ele>138</ele>
        <time>2014-08-24T06:32:37Z</time>
      </trkpt>
      <trkpt lat="49.1091" lon="0.69837">
        <ele>137</ele>
        <time>2014-08-24T06:32:38Z</time>
      </trkpt>
      <trkpt lat="49.10913" lon="0.69838">
        <ele>138</ele>
        <time>2014-08-24T06:32:44Z</time>
      </trkpt>
      <trkpt lat="49.10914" lon="0.69838">
        <ele>138</ele>
        <time>2014-08-24T06:32:45Z</time>
      </trkpt>
      <trkpt lat="49.10914" lon="0.69839">
        <ele>137</ele>
        <time>2014-08-24T06:32:46Z</time>
      </trkpt>
      <trkpt lat="49.10914" lon="0.6984">
        <ele>137</ele>
        <time>2014-08-24T06:32:47Z</time>
      </trkpt>
      <trkpt lat="49.10916" lon="0.69842">
        <ele>137</ele>
        <time>2014-08-24T06:32:48Z</time>
      </trkpt>
      <trkpt lat="49.1092" lon="0.69842">
        <ele>138</ele>
        <time>2014-08-24T06:32:50Z</time>
      </trkpt>
      <trkpt lat="49.10921" lon="0.69838">
        <ele>138</ele>
        <time>2014-08-24T06:32:52Z</time>
      </trkpt>
      <trkpt lat="49.10922" lon="0.69839">
        <ele>138</ele>
        <time>2014-08-24T06:32:53Z</time>
      </trkpt>
      <trkpt lat="49.10924" lon="0.69839">
        <ele>138</ele>
        <time>2014-08-24T06:32:54Z</time>
      </trkpt>
      <trkpt lat="49.10925" lon="0.69838">
        <ele>139</ele>
        <time>2014-08-24T06:32:55Z</time>
      </trkpt>
      <trkpt lat="49.10927" lon="0.69839">
        <ele>139</ele>
        <time>2014-08-24T06:32:56Z</time>
      </trkpt>
      <trkpt lat="49.10934" lon="0.69837">
        <ele>139</ele>
        <time>2014-08-24T06:33:02Z</time>
      </trkpt>
      <trkpt lat="49.10935" lon="0.69836">
        <ele>140</ele>
        <time>2014-08-24T06:33:04Z</time>
      </trkpt>
      <trkpt lat="49.10937" lon="0.69835">
        <ele>140</ele>
        <time>2014-08-24T06:33:05Z</time>
      </trkpt>
      <trkpt lat="49.10938" lon="0.69834">
        <ele>140</ele>
        <time>2014-08-24T06:33:06Z</time>
      </trkpt>
      <trkpt lat="49.10941" lon="0.69832">
        <ele>140</ele>
        <time>2014-08-24T06:33:07Z</time>
      </trkpt>
      <trkpt lat="49.10945" lon="0.69831">
        <ele>141</ele>
        <time>2014-08-24T06:33:08Z</time>
      </trkpt>
      <trkpt lat="49.10949" lon="0.69828">
        <ele>141</ele>
        <time>2014-08-24T06:33:10Z</time>
      </trkpt>
      <trkpt lat="49.10964" lon="0.69823">
        <ele>143</ele>
        <time>2014-08-24T06:33:16Z</time>
      </trkpt>
      <trkpt lat="49.10982" lon="0.6982">
        <ele>144</ele>
        <time>2014-08-24T06:33:21Z</time>
      </trkpt>
      <trkpt lat="49.10983" lon="0.6982">
        <ele>144</ele>
        <time>2014-08-24T06:33:22Z</time>
      </trkpt>
      <trkpt lat="49.10985" lon="0.69819">
        <ele>144</ele>
        <time>2014-08-24T06:33:23Z</time>
      </trkpt>
      <trkpt lat="49.10987" lon="0.69819">
        <ele>144</ele>
        <time>2014-08-24T06:33:24Z</time>
      </trkpt>
      <trkpt lat="49.1099" lon="0.69818">
        <ele>144</ele>
        <time>2014-08-24T06:33:25Z</time>
      </trkpt>
      <trkpt lat="49.11005" lon="0.69815">
        <ele>144</ele>
        <time>2014-08-24T06:33:30Z</time>
      </trkpt>
      <trkpt lat="49.11013" lon="0.69811">
        <ele>145</ele>
        <time>2014-08-24T06:33:33Z</time>
      </trkpt>
      <trkpt lat="49.11015" lon="0.6981">
        <ele>145</ele>
        <time>2014-08-24T06:33:34Z</time>
      </trkpt>
      <trkpt lat="49.11018" lon="0.69808">
        <ele>145</ele>
        <time>2014-08-24T06:33:35Z</time>
      </trkpt>
      <trkpt lat="49.1102" lon="0.69806">
        <ele>145</ele>
        <time>2014-08-24T06:33:36Z</time>
      </trkpt>
      <trkpt lat="49.11022" lon="0.69805">
        <ele>145</ele>
        <time>2014-08-24T06:33:37Z</time>
      </trkpt>
      <trkpt lat="49.11033" lon="0.69803">
        <ele>146</ele>
        <time>2014-08-24T06:33:41Z</time>
      </trkpt>
      <trkpt lat="49.11037" lon="0.69804">
        <ele>146</ele>
        <time>2014-08-24T06:33:42Z</time>
      </trkpt>
      <trkpt lat="49.11055" lon="0.69823">
        <ele>146</ele>
        <time>2014-08-24T06:33:49Z</time>
      </trkpt>
      <trkpt lat="49.11069" lon="0.69832">
        <ele>146</ele>
        <time>2014-08-24T06:33:54Z</time>
      </trkpt>
      <trkpt lat="49.11087" lon="0.69852">
        <ele>146</ele>
        <time>2014-08-24T06:34:00Z</time>
      </trkpt>
      <trkpt lat="49.11099" lon="0.69871">
        <ele>146</ele>
        <time>2014-08-24T06:34:05Z</time>
      </trkpt>
      <trkpt lat="49.11103" lon="0.69875">
        <ele>146</ele>
        <time>2014-08-24T06:34:06Z</time>
      </trkpt>
      <trkpt lat="49.11105" lon="0.69878">
        <ele>146</ele>
        <time>2014-08-24T06:34:07Z</time>
      </trkpt>
      <trkpt lat="49.11107" lon="0.6988">
        <ele>146</ele>
        <time>2014-08-24T06:34:08Z</time>
      </trkpt>
      <trkpt lat="49.11109" lon="0.69883">
        <ele>146</ele>
        <time>2014-08-24T06:34:09Z</time>
      </trkpt>
      <trkpt lat="49.11111" lon="0.69887">
        <ele>146</ele>
        <time>2014-08-24T06:34:10Z</time>
      </trkpt>
      <trkpt lat="49.11127" lon="0.69909">
        <ele>146</ele>
        <time>2014-08-24T06:34:16Z</time>
      </trkpt>
      <trkpt lat="49.11149" lon="0.69934">
        <ele>146</ele>
        <time>2014-08-24T06:34:22Z</time>
      </trkpt>
      <trkpt lat="49.11167" lon="0.69956">
        <ele>147</ele>
        <time>2014-08-24T06:34:26Z</time>
      </trkpt>
      <trkpt lat="49.11179" lon="0.69975">
        <ele>147</ele>
        <time>2014-08-24T06:34:31Z</time>
      </trkpt>
      <trkpt lat="49.1118" lon="0.69978">
        <ele>147</ele>
        <time>2014-08-24T06:34:32Z</time>
      </trkpt>
      <trkpt lat="49.11184" lon="0.69982">
        <ele>147</ele>
        <time>2014-08-24T06:34:33Z</time>
      </trkpt>
      <trkpt lat="49.11187" lon="0.69985">
        <ele>147</ele>
        <time>2014-08-24T06:34:34Z</time>
      </trkpt>
      <trkpt lat="49.11188" lon="0.69989">
        <ele>147</ele>
        <time>2014-08-24T06:34:35Z</time>
      </trkpt>
      <trkpt lat="49.1119" lon="0.69993">
        <ele>147</ele>
        <time>2014-08-24T06:34:36Z</time>
      </trkpt>
      <trkpt lat="49.11192" lon="0.69998">
        <ele>147</ele>
        <time>2014-08-24T06:34:37Z</time>
      </trkpt>
      <trkpt lat="49.11203" lon="0.70026">
        <ele>147</ele>
        <time>2014-08-24T06:34:44Z</time>
      </trkpt>
      <trkpt lat="49.11216" lon="0.70046">
        <ele>148</ele>
        <time>2014-08-24T06:34:50Z</time>
      </trkpt>
      <trkpt lat="49.11233" lon="0.70073">
        <ele>149</ele>
        <time>2014-08-24T06:34:55Z</time>
      </trkpt>
      <trkpt lat="49.11247" lon="0.70087">
        <ele>149</ele>
        <time>2014-08-24T06:35:01Z</time>
      </trkpt>
      <trkpt lat="49.11249" lon="0.70082">
        <ele>150</ele>
        <time>2014-08-24T06:35:02Z</time>
      </trkpt>
      <trkpt lat="49.1125" lon="0.7008">
        <ele>150</ele>
        <time>2014-08-24T06:35:03Z</time>
      </trkpt>
      <trkpt lat="49.11251" lon="0.70077">
        <ele>150</ele>
        <time>2014-08-24T06:35:04Z</time>
      </trkpt>
      <trkpt lat="49.11252" lon="0.70076">
        <ele>150</ele>
        <time>2014-08-24T06:35:05Z</time>
      </trkpt>
      <trkpt lat="49.11254" lon="0.70073">
        <ele>150</ele>
        <time>2014-08-24T06:35:06Z</time>
      </trkpt>
      <trkpt lat="49.11254" lon="0.70069">
        <ele>150</ele>
        <time>2014-08-24T06:35:07Z</time>
      </trkpt>
      <trkpt lat="49.11252" lon="0.70061">
        <ele>150</ele>
        <time>2014-08-24T06:35:10Z</time>
      </trkpt>
      <trkpt lat="49.1125" lon="0.70056">
        <ele>150</ele>
        <time>2014-08-24T06:35:11Z</time>
      </trkpt>
      <trkpt lat="49.11251" lon="0.70043">
        <ele>150</ele>
        <time>2014-08-24T06:35:14Z</time>
      </trkpt>
      <trkpt lat="49.11255" lon="0.70033">
        <ele>150</ele>
        <time>2014-08-24T06:35:17Z</time>
      </trkpt>
      <trkpt lat="49.11257" lon="0.70027">
        <ele>150</ele>
        <time>2014-08-24T06:35:19Z</time>
      </trkpt>
      <trkpt lat="49.11258" lon="0.69995">
        <ele>150</ele>
        <time>2014-08-24T06:35:26Z</time>
      </trkpt>
      <trkpt lat="49.11255" lon="0.69961">
        <ele>149</ele>
        <time>2014-08-24T06:35:32Z</time>
      </trkpt>
      <trkpt lat="49.1125" lon="0.69929">
        <ele>149</ele>
        <time>2014-08-24T06:35:37Z</time>
      </trkpt>
      <trkpt lat="49.11242" lon="0.69909">
        <ele>149</ele>
        <time>2014-08-24T06:35:40Z</time>
      </trkpt>
      <trkpt lat="49.1124" lon="0.69898">
        <ele>149</ele>
        <time>2014-08-24T06:35:42Z</time>
      </trkpt>
      <trkpt lat="49.1123" lon="0.69855">
        <ele>149</ele>
        <time>2014-08-24T06:35:49Z</time>
      </trkpt>
      <trkpt lat="49.1123" lon="0.69846">
        <ele>149</ele>
        <time>2014-08-24T06:35:50Z</time>
      </trkpt>
      <trkpt lat="49.11223" lon="0.69804">
        <ele>149</ele>
        <time>2014-08-24T06:35:54Z</time>
      </trkpt>
      <trkpt lat="49.11205" lon="0.69751">
        <ele>149</ele>
        <time>2014-08-24T06:36:00Z</time>
      </trkpt>
      <trkpt lat="49.11187" lon="0.69713">
        <ele>149</ele>
        <time>2014-08-24T06:36:06Z</time>
      </trkpt>
      <trkpt lat="49.11178" lon="0.69689">
        <ele>149</ele>
        <time>2014-08-24T06:36:10Z</time>
      </trkpt>
      <trkpt lat="49.11161" lon="0.69648">
        <ele>149</ele>
        <time>2014-08-24T06:36:17Z</time>
      </trkpt>
      <trkpt lat="49.11158" lon="0.69643">
        <ele>149</ele>
        <time>2014-08-24T06:36:18Z</time>
      </trkpt>
      <trkpt lat="49.11144" lon="0.69624">
        <ele>149</ele>
        <time>2014-08-24T06:36:22Z</time>
      </trkpt>
      <trkpt lat="49.11134" lon="0.69618">
        <ele>149</ele>
        <time>2014-08-24T06:36:24Z</time>
      </trkpt>
      <trkpt lat="49.11123" lon="0.69614">
        <ele>149</ele>
        <time>2014-08-24T06:36:26Z</time>
      </trkpt>
      <trkpt lat="49.11108" lon="0.69609">
        <ele>149</ele>
        <time>2014-08-24T06:36:29Z</time>
      </trkpt>
      <trkpt lat="49.11072" lon="0.69595">
        <ele>149</ele>
        <time>2014-08-24T06:36:36Z</time>
      </trkpt>
      <trkpt lat="49.11061" lon="0.69592">
        <ele>148</ele>
        <time>2014-08-24T06:36:38Z</time>
      </trkpt>
      <trkpt lat="49.11027" lon="0.69582">
        <ele>148</ele>
        <time>2014-08-24T06:36:44Z</time>
      </trkpt>
      <trkpt lat="49.11021" lon="0.6958">
        <ele>147</ele>
        <time>2014-08-24T06:36:45Z</time>
      </trkpt>
      <trkpt lat="49.11015" lon="0.69578">
        <ele>147</ele>
        <time>2014-08-24T06:36:46Z</time>
      </trkpt>
      <trkpt lat="49.11009" lon="0.69576">
        <ele>147</ele>
        <time>2014-08-24T06:36:47Z</time>
      </trkpt>
      <trkpt lat="49.11003" lon="0.69574">
        <ele>147</ele>
        <time>2014-08-24T06:36:48Z</time>
      </trkpt>
      <trkpt lat="49.10983" lon="0.69567">
        <ele>147</ele>
        <time>2014-08-24T06:36:51Z</time>
      </trkpt>
      <trkpt lat="49.10957" lon="0.69557">
        <ele>146</ele>
        <time>2014-08-24T06:36:55Z</time>
      </trkpt>
      <trkpt lat="49.10923" lon="0.69548">
        <ele>145</ele>
        <time>2014-08-24T06:37:00Z</time>
      </trkpt>
      <trkpt lat="49.10914" lon="0.69533">
        <ele>145</ele>
        <time>2014-08-24T06:37:02Z</time>
      </trkpt>
      <trkpt lat="49.1091" lon="0.69525">
        <ele>145</ele>
        <time>2014-08-24T06:37:03Z</time>
      </trkpt>
      <trkpt lat="49.10908" lon="0.69515">
        <ele>145</ele>
        <time>2014-08-24T06:37:04Z</time>
      </trkpt>
      <trkpt lat="49.10907" lon="0.69505">
        <ele>145</ele>
        <time>2014-08-24T06:37:05Z</time>
      </trkpt>
      <trkpt lat="49.10904" lon="0.69496">
        <ele>145</ele>
        <time>2014-08-24T06:37:06Z</time>
      </trkpt>
      <trkpt lat="49.10894" lon="0.69461">
        <ele>146</ele>
        <time>2014-08-24T06:37:10Z</time>
      </trkpt>
      <trkpt lat="49.10891" lon="0.69452">
        <ele>146</ele>
        <time>2014-08-24T06:37:11Z</time>
      </trkpt>
      <trkpt lat="49.10862" lon="0.69376">
        <ele>145</ele>
        <time>2014-08-24T06:37:20Z</time>
      </trkpt>
      <trkpt lat="49.10859" lon="0.69368">
        <ele>145</ele>
        <time>2014-08-24T06:37:21Z</time>
      </trkpt>
      <trkpt lat="49.10829" lon="0.69296">
        <ele>145</ele>
        <time>2014-08-24T06:37:30Z</time>
      </trkpt>
      <trkpt lat="49.10821" lon="0.69284">
        <ele>145</ele>
        <time>2014-08-24T06:37:32Z</time>
      </trkpt>
      <trkpt lat="49.10797" lon="0.69249">
        <ele>145</ele>
        <time>2014-08-24T06:37:38Z</time>
      </trkpt>
      <trkpt lat="49.10776" lon="0.69192">
        <ele>145</ele>
        <time>2014-08-24T06:37:46Z</time>
      </trkpt>
      <trkpt lat="49.1076" lon="0.69152">
        <ele>146</ele>
        <time>2014-08-24T06:37:52Z</time>
      </trkpt>
      <trkpt lat="49.10733" lon="0.69086">
        <ele>146</ele>
        <time>2014-08-24T06:38:01Z</time>
      </trkpt>
      <trkpt lat="49.10701" lon="0.69017">
        <ele>145</ele>
        <time>2014-08-24T06:38:11Z</time>
      </trkpt>
      <trkpt lat="49.10693" lon="0.69005">
        <ele>145</ele>
        <time>2014-08-24T06:38:13Z</time>
      </trkpt>
      <trkpt lat="49.10652" lon="0.68956">
        <ele>144</ele>
        <time>2014-08-24T06:38:22Z</time>
      </trkpt>
      <trkpt lat="49.10612" lon="0.68907">
        <ele>144</ele>
        <time>2014-08-24T06:38:30Z</time>
      </trkpt>
      <trkpt lat="49.106" lon="0.68899">
        <ele>144</ele>
        <time>2014-08-24T06:38:32Z</time>
      </trkpt>
      <trkpt lat="49.10588" lon="0.68903">
        <ele>143</ele>
        <time>2014-08-24T06:38:34Z</time>
      </trkpt>
      <trkpt lat="49.10575" lon="0.68919">
        <ele>143</ele>
        <time>2014-08-24T06:38:37Z</time>
      </trkpt>
      <trkpt lat="49.10571" lon="0.68924">
        <ele>143</ele>
        <time>2014-08-24T06:38:38Z</time>
      </trkpt>
      <trkpt lat="49.10568" lon="0.68926">
        <ele>143</ele>
        <time>2014-08-24T06:38:39Z</time>
      </trkpt>
      <trkpt lat="49.10565" lon="0.68929">
        <ele>142</ele>
        <time>2014-08-24T06:38:40Z</time>
      </trkpt>
      <trkpt lat="49.10562" lon="0.68934">
        <ele>142</ele>
        <time>2014-08-24T06:38:41Z</time>
      </trkpt>
      <trkpt lat="49.10559" lon="0.68939">
        <ele>142</ele>
        <time>2014-08-24T06:38:42Z</time>
      </trkpt>
      <trkpt lat="49.10543" lon="0.68967">
        <ele>141</ele>
        <time>2014-08-24T06:38:47Z</time>
      </trkpt>
      <trkpt lat="49.10539" lon="0.68974">
        <ele>141</ele>
        <time>2014-08-24T06:38:48Z</time>
      </trkpt>
      <trkpt lat="49.10536" lon="0.6898">
        <ele>141</ele>
        <time>2014-08-24T06:38:49Z</time>
      </trkpt>
      <trkpt lat="49.10533" lon="0.68986">
        <ele>141</ele>
        <time>2014-08-24T06:38:50Z</time>
      </trkpt>
      <trkpt lat="49.10529" lon="0.68994">
        <ele>140</ele>
        <time>2014-08-24T06:38:51Z</time>
      </trkpt>
      <trkpt lat="49.10525" lon="0.69001">
        <ele>140</ele>
        <time>2014-08-24T06:38:52Z</time>
      </trkpt>
      <trkpt lat="49.10522" lon="0.69009">
        <ele>140</ele>
        <time>2014-08-24T06:38:53Z</time>
      </trkpt>
      <trkpt lat="49.10518" lon="0.69018">
        <ele>139</ele>
        <time>2014-08-24T06:38:54Z</time>
      </trkpt>
      <trkpt lat="49.10515" lon="0.69025">
        <ele>139</ele>
        <time>2014-08-24T06:38:55Z</time>
      </trkpt>
      <trkpt lat="49.10512" lon="0.69032">
        <ele>139</ele>
        <time>2014-08-24T06:38:56Z</time>
      </trkpt>
      <trkpt lat="49.1051" lon="0.69037">
        <ele>139</ele>
        <time>2014-08-24T06:38:57Z</time>
      </trkpt>
      <trkpt lat="49.10507" lon="0.69043">
        <ele>138</ele>
        <time>2014-08-24T06:38:58Z</time>
      </trkpt>
      <trkpt lat="49.10505" lon="0.6905">
        <ele>138</ele>
        <time>2014-08-24T06:38:59Z</time>
      </trkpt>
      <trkpt lat="49.10503" lon="0.69055">
        <ele>137</ele>
        <time>2014-08-24T06:39:00Z</time>
      </trkpt>
      <trkpt lat="49.10501" lon="0.69062">
        <ele>137</ele>
        <time>2014-08-24T06:39:01Z</time>
      </trkpt>
      <trkpt lat="49.10498" lon="0.69068">
        <ele>136</ele>
        <time>2014-08-24T06:39:02Z</time>
      </trkpt>
      <trkpt lat="49.10493" lon="0.69072">
        <ele>135</ele>
        <time>2014-08-24T06:39:03Z</time>
      </trkpt>
      <trkpt lat="49.10487" lon="0.69078">
        <ele>134</ele>
        <time>2014-08-24T06:39:04Z</time>
      </trkpt>
      <trkpt lat="49.10482" lon="0.69082">
        <ele>133</ele>
        <time>2014-08-24T06:39:05Z</time>
      </trkpt>
      <trkpt lat="49.10475" lon="0.69088">
        <ele>131</ele>
        <time>2014-08-24T06:39:06Z</time>
      </trkpt>
      <trkpt lat="49.10466" lon="0.69092">
        <ele>130</ele>
        <time>2014-08-24T06:39:07Z</time>
      </trkpt>
      <trkpt lat="49.10461" lon="0.69094">
        <ele>128</ele>
        <time>2014-08-24T06:39:08Z</time>
      </trkpt>
      <trkpt lat="49.10455" lon="0.691">
        <ele>127</ele>
        <time>2014-08-24T06:39:09Z</time>
      </trkpt>
      <trkpt lat="49.10452" lon="0.69104">
        <ele>126</ele>
        <time>2014-08-24T06:39:10Z</time>
      </trkpt>
      <trkpt lat="49.1045" lon="0.69111">
        <ele>125</ele>
        <time>2014-08-24T06:39:11Z</time>
      </trkpt>
      <trkpt lat="49.1045" lon="0.69128">
        <ele>123</ele>
        <time>2014-08-24T06:39:13Z</time>
      </trkpt>
      <trkpt lat="49.1045" lon="0.69136">
        <ele>122</ele>
        <time>2014-08-24T06:39:14Z</time>
      </trkpt>
      <trkpt lat="49.10451" lon="0.69146">
        <ele>121</ele>
        <time>2014-08-24T06:39:15Z</time>
      </trkpt>
      <trkpt lat="49.10451" lon="0.69159">
        <ele>120</ele>
        <time>2014-08-24T06:39:16Z</time>
      </trkpt>
      <trkpt lat="49.1045" lon="0.69169">
        <ele>119</ele>
        <time>2014-08-24T06:39:17Z</time>
      </trkpt>
      <trkpt lat="49.1045" lon="0.69182">
        <ele>117</ele>
        <time>2014-08-24T06:39:18Z</time>
      </trkpt>
      <trkpt lat="49.10448" lon="0.69198">
        <ele>115</ele>
        <time>2014-08-24T06:39:20Z</time>
      </trkpt>
      <trkpt lat="49.10446" lon="0.69207">
        <ele>113</ele>
        <time>2014-08-24T06:39:21Z</time>
      </trkpt>
      <trkpt lat="49.10444" lon="0.69211">
        <ele>112</ele>
        <time>2014-08-24T06:39:22Z</time>
      </trkpt>
      <trkpt lat="49.10442" lon="0.69212">
        <ele>111</ele>
        <time>2014-08-24T06:39:23Z</time>
      </trkpt>
      <trkpt lat="49.1044" lon="0.69214">
        <ele>111</ele>
        <time>2014-08-24T06:39:24Z</time>
      </trkpt>
      <trkpt lat="49.10438" lon="0.69215">
        <ele>110</ele>
        <time>2014-08-24T06:39:25Z</time>
      </trkpt>
      <trkpt lat="49.10436" lon="0.69213">
        <ele>109</ele>
        <time>2014-08-24T06:39:26Z</time>
      </trkpt>
      <trkpt lat="49.1043" lon="0.69209">
        <ele>107</ele>
        <time>2014-08-24T06:39:29Z</time>
      </trkpt>
      <trkpt lat="49.10421" lon="0.69201">
        <ele>105</ele>
        <time>2014-08-24T06:39:33Z</time>
      </trkpt>
      <trkpt lat="49.1041" lon="0.6919">
        <ele>104</ele>
        <time>2014-08-24T06:39:38Z</time>
      </trkpt>
      <trkpt lat="49.10396" lon="0.69165">
        <ele>106</ele>
        <time>2014-08-24T06:39:44Z</time>
      </trkpt>
      <trkpt lat="49.10377" lon="0.69139">
        <ele>106</ele>
        <time>2014-08-24T06:39:51Z</time>
      </trkpt>
      <trkpt lat="49.10374" lon="0.69129">
        <ele>106</ele>
        <time>2014-08-24T06:39:53Z</time>
      </trkpt>
      <trkpt lat="49.10372" lon="0.69124">
        <ele>106</ele>
        <time>2014-08-24T06:39:54Z</time>
      </trkpt>
      <trkpt lat="49.10369" lon="0.69121">
        <ele>106</ele>
        <time>2014-08-24T06:39:55Z</time>
      </trkpt>
      <trkpt lat="49.10366" lon="0.69116">
        <ele>106</ele>
        <time>2014-08-24T06:39:56Z</time>
      </trkpt>
      <trkpt lat="49.10361" lon="0.69104">
        <ele>107</ele>
        <time>2014-08-24T06:39:57Z</time>
      </trkpt>
      <trkpt lat="49.10346" lon="0.69074">
        <ele>107</ele>
        <time>2014-08-24T06:40:02Z</time>
      </trkpt>
      <trkpt lat="49.10321" lon="0.69034">
        <ele>105</ele>
        <time>2014-08-24T06:40:08Z</time>
      </trkpt>
      <trkpt lat="49.10299" lon="0.68991">
        <ele>105</ele>
        <time>2014-08-24T06:40:16Z</time>
      </trkpt>
      <trkpt lat="49.10288" lon="0.68959">
        <ele>107</ele>
        <time>2014-08-24T06:40:22Z</time>
      </trkpt>
      <trkpt lat="49.10287" lon="0.68945">
        <ele>108</ele>
        <time>2014-08-24T06:40:25Z</time>
      </trkpt>
      <trkpt lat="49.10286" lon="0.6894">
        <ele>108</ele>
        <time>2014-08-24T06:40:26Z</time>
      </trkpt>
      <trkpt lat="49.10285" lon="0.68936">
        <ele>108</ele>
        <time>2014-08-24T06:40:27Z</time>
      </trkpt>
      <trkpt lat="49.10284" lon="0.68932">
        <ele>108</ele>
        <time>2014-08-24T06:40:28Z</time>
      </trkpt>
      <trkpt lat="49.10284" lon="0.68928">
        <ele>109</ele>
        <time>2014-08-24T06:40:29Z</time>
      </trkpt>
      <trkpt lat="49.10279" lon="0.68901">
        <ele>110</ele>
        <time>2014-08-24T06:40:34Z</time>
      </trkpt>
      <trkpt lat="49.10278" lon="0.68898">
        <ele>110</ele>
        <time>2014-08-24T06:40:35Z</time>
      </trkpt>
      <trkpt lat="49.10277" lon="0.68895">
        <ele>110</ele>
        <time>2014-08-24T06:40:36Z</time>
      </trkpt>
      <trkpt lat="49.10276" lon="0.68891">
        <ele>110</ele>
        <time>2014-08-24T06:40:37Z</time>
      </trkpt>
      <trkpt lat="49.10275" lon="0.68887">
        <ele>110</ele>
        <time>2014-08-24T06:40:38Z</time>
      </trkpt>
      <trkpt lat="49.10271" lon="0.68872">
        <ele>111</ele>
        <time>2014-08-24T06:40:42Z</time>
      </trkpt>
      <trkpt lat="49.10269" lon="0.68865">
        <ele>112</ele>
        <time>2014-08-24T06:40:44Z</time>
      </trkpt>
      <trkpt lat="49.10268" lon="0.68862">
        <ele>112</ele>
        <time>2014-08-24T06:40:45Z</time>
      </trkpt>
      <trkpt lat="49.10266" lon="0.68861">
        <ele>112</ele>
        <time>2014-08-24T06:40:46Z</time>
      </trkpt>
      <trkpt lat="49.10265" lon="0.68858">
        <ele>112</ele>
        <time>2014-08-24T06:40:47Z</time>
      </trkpt>
      <trkpt lat="49.10263" lon="0.68856">
        <ele>112</ele>
        <time>2014-08-24T06:40:48Z</time>
      </trkpt>
      <trkpt lat="49.10259" lon="0.68847">
        <ele>112</ele>
        <time>2014-08-24T06:40:51Z</time>
      </trkpt>
      <trkpt lat="49.10246" lon="0.68818">
        <ele>113</ele>
        <time>2014-08-24T06:40:59Z</time>
      </trkpt>
      <trkpt lat="49.10244" lon="0.68815">
        <ele>113</ele>
        <time>2014-08-24T06:41:00Z</time>
      </trkpt>
      <trkpt lat="49.10242" lon="0.68812">
        <ele>113</ele>
        <time>2014-08-24T06:41:01Z</time>
      </trkpt>
      <trkpt lat="49.1024" lon="0.68807">
        <ele>114</ele>
        <time>2014-08-24T06:41:02Z</time>
      </trkpt>
      <trkpt lat="49.10238" lon="0.68802">
        <ele>114</ele>
        <time>2014-08-24T06:41:03Z</time>
      </trkpt>
      <trkpt lat="49.10231" lon="0.68789">
        <ele>114</ele>
        <time>2014-08-24T06:41:07Z</time>
      </trkpt>
      <trkpt lat="49.10216" lon="0.68765">
        <ele>116</ele>
        <time>2014-08-24T06:41:13Z</time>
      </trkpt>
      <trkpt lat="49.10205" lon="0.68754">
        <ele>116</ele>
        <time>2014-08-24T06:41:18Z</time>
      </trkpt>
      <trkpt lat="49.10192" lon="0.68741">
        <ele>117</ele>
        <time>2014-08-24T06:41:24Z</time>
      </trkpt>
      <trkpt lat="49.10188" lon="0.68738">
        <ele>116</ele>
        <time>2014-08-24T06:41:25Z</time>
      </trkpt>
      <trkpt lat="49.1017" lon="0.68733">
        <ele>114</ele>
        <time>2014-08-24T06:41:30Z</time>
      </trkpt>
      <trkpt lat="49.10153" lon="0.6873">
        <ele>112</ele>
        <time>2014-08-24T06:41:36Z</time>
      </trkpt>
      <trkpt lat="49.10129" lon="0.68716">
        <ele>109</ele>
        <time>2014-08-24T06:41:41Z</time>
      </trkpt>
      <trkpt lat="49.10125" lon="0.68715">
        <ele>109</ele>
        <time>2014-08-24T06:41:43Z</time>
      </trkpt>
      <trkpt lat="49.10122" lon="0.68714">
        <ele>108</ele>
        <time>2014-08-24T06:41:44Z</time>
      </trkpt>
      <trkpt lat="49.1012" lon="0.68713">
        <ele>108</ele>
        <time>2014-08-24T06:41:45Z</time>
      </trkpt>
      <trkpt lat="49.10118" lon="0.68713">
        <ele>108</ele>
        <time>2014-08-24T06:41:46Z</time>
      </trkpt>
      <trkpt lat="49.10116" lon="0.6871">
        <ele>108</ele>
        <time>2014-08-24T06:41:47Z</time>
      </trkpt>
      <trkpt lat="49.10114" lon="0.68709">
        <ele>108</ele>
        <time>2014-08-24T06:41:48Z</time>
      </trkpt>
      <trkpt lat="49.10111" lon="0.68706">
        <ele>107</ele>
        <time>2014-08-24T06:41:49Z</time>
      </trkpt>
      <trkpt lat="49.10106" lon="0.68701">
        <ele>107</ele>
        <time>2014-08-24T06:41:51Z</time>
      </trkpt>
      <trkpt lat="49.10099" lon="0.68687">
        <ele>107</ele>
        <time>2014-08-24T06:41:56Z</time>
      </trkpt>
      <trkpt lat="49.10087" lon="0.68674">
        <ele>107</ele>
        <time>2014-08-24T06:42:01Z</time>
      </trkpt>
      <trkpt lat="49.10068" lon="0.68655">
        <ele>107</ele>
        <time>2014-08-24T06:42:08Z</time>
      </trkpt>
      <trkpt lat="49.10057" lon="0.68642">
        <ele>108</ele>
        <time>2014-08-24T06:42:13Z</time>
      </trkpt>
      <trkpt lat="49.10055" lon="0.68641">
        <ele>108</ele>
        <time>2014-08-24T06:42:14Z</time>
      </trkpt>
      <trkpt lat="49.10053" lon="0.68639">
        <ele>108</ele>
        <time>2014-08-24T06:42:15Z</time>
      </trkpt>
      <trkpt lat="49.1005" lon="0.68637">
        <ele>108</ele>
        <time>2014-08-24T06:42:16Z</time>
      </trkpt>
      <trkpt lat="49.10047" lon="0.68637">
        <ele>108</ele>
        <time>2014-08-24T06:42:17Z</time>
      </trkpt>
      <trkpt lat="49.10037" lon="0.68626">
        <ele>108</ele>
        <time>2014-08-24T06:42:21Z</time>
      </trkpt>
      <trkpt lat="49.10018" lon="0.68607">
        <ele>108</ele>
        <time>2014-08-24T06:42:29Z</time>
      </trkpt>
      <trkpt lat="49.10009" lon="0.68589">
        <ele>110</ele>
        <time>2014-08-24T06:42:34Z</time>
      </trkpt>
      <trkpt lat="49.10005" lon="0.68578">
        <ele>111</ele>
        <time>2014-08-24T06:42:37Z</time>
      </trkpt>
      <trkpt lat="49.09997" lon="0.68576">
        <ele>110</ele>
        <time>2014-08-24T06:42:39Z</time>
      </trkpt>
      <trkpt lat="49.09987" lon="0.68593">
        <ele>108</ele>
        <time>2014-08-24T06:42:41Z</time>
      </trkpt>
      <trkpt lat="49.09978" lon="0.68599">
        <ele>107</ele>
        <time>2014-08-24T06:42:43Z</time>
      </trkpt>
      <trkpt lat="49.09965" lon="0.68627">
        <ele>104</ele>
        <time>2014-08-24T06:42:46Z</time>
      </trkpt>
      <trkpt lat="49.09945" lon="0.68665">
        <ele>103</ele>
        <time>2014-08-24T06:42:50Z</time>
      </trkpt>
      <trkpt lat="49.09939" lon="0.68675">
        <ele>102</ele>
        <time>2014-08-24T06:42:51Z</time>
      </trkpt>
      <trkpt lat="49.09933" lon="0.68685">
        <ele>101</ele>
        <time>2014-08-24T06:42:52Z</time>
      </trkpt>
      <trkpt lat="49.09927" lon="0.68696">
        <ele>101</ele>
        <time>2014-08-24T06:42:53Z</time>
      </trkpt>
      <trkpt lat="49.0992" lon="0.68704">
        <ele>100</ele>
        <time>2014-08-24T06:42:54Z</time>
      </trkpt>
      <trkpt lat="49.09914" lon="0.68715">
        <ele>100</ele>
        <time>2014-08-24T06:42:55Z</time>
      </trkpt>
      <trkpt lat="49.09906" lon="0.6873">
        <ele>99</ele>
        <time>2014-08-24T06:42:56Z</time>
      </trkpt>
      <trkpt lat="49.09899" lon="0.68739">
        <ele>98</ele>
        <time>2014-08-24T06:42:57Z</time>
      </trkpt>
      <trkpt lat="49.09892" lon="0.68751">
        <ele>98</ele>
        <time>2014-08-24T06:42:58Z</time>
      </trkpt>
      <trkpt lat="49.09883" lon="0.68763">
        <ele>96</ele>
        <time>2014-08-24T06:42:59Z</time>
      </trkpt>
      <trkpt lat="49.09876" lon="0.68773">
        <ele>95</ele>
        <time>2014-08-24T06:43:00Z</time>
      </trkpt>
      <trkpt lat="49.09867" lon="0.68784">
        <ele>94</ele>
        <time>2014-08-24T06:43:01Z</time>
      </trkpt>
      <trkpt lat="49.09858" lon="0.68795">
        <ele>93</ele>
        <time>2014-08-24T06:43:02Z</time>
      </trkpt>
      <trkpt lat="49.09847" lon="0.68806">
        <ele>91</ele>
        <time>2014-08-24T06:43:03Z</time>
      </trkpt>
      <trkpt lat="49.09838" lon="0.68817">
        <ele>90</ele>
        <time>2014-08-24T06:43:04Z</time>
      </trkpt>
      <trkpt lat="49.09829" lon="0.68829">
        <ele>90</ele>
        <time>2014-08-24T06:43:05Z</time>
      </trkpt>
      <trkpt lat="49.09821" lon="0.68841">
        <ele>89</ele>
        <time>2014-08-24T06:43:06Z</time>
      </trkpt>
      <trkpt lat="49.09806" lon="0.68866">
        <ele>87</ele>
        <time>2014-08-24T06:43:08Z</time>
      </trkpt>
      <trkpt lat="49.09802" lon="0.68874">
        <ele>87</ele>
        <time>2014-08-24T06:43:09Z</time>
      </trkpt>
      <trkpt lat="49.09798" lon="0.68875">
        <ele>86</ele>
        <time>2014-08-24T06:43:10Z</time>
      </trkpt>
      <trkpt lat="49.09793" lon="0.68872">
        <ele>86</ele>
        <time>2014-08-24T06:43:11Z</time>
      </trkpt>
      <trkpt lat="49.09789" lon="0.6887">
        <ele>86</ele>
        <time>2014-08-24T06:43:12Z</time>
      </trkpt>
      <trkpt lat="49.0978" lon="0.68857">
        <ele>87</ele>
        <time>2014-08-24T06:43:15Z</time>
      </trkpt>
      <trkpt lat="49.09765" lon="0.68838">
        <ele>87</ele>
        <time>2014-08-24T06:43:20Z</time>
      </trkpt>
      <trkpt lat="49.09756" lon="0.68827">
        <ele>87</ele>
        <time>2014-08-24T06:43:23Z</time>
      </trkpt>
      <trkpt lat="49.09738" lon="0.68809">
        <ele>87</ele>
        <time>2014-08-24T06:43:30Z</time>
      </trkpt>
      <trkpt lat="49.09733" lon="0.68803">
        <ele>87</ele>
        <time>2014-08-24T06:43:32Z</time>
      </trkpt>
      <trkpt lat="49.09731" lon="0.688">
        <ele>87</ele>
        <time>2014-08-24T06:43:33Z</time>
      </trkpt>
      <trkpt lat="49.0973" lon="0.68797">
        <ele>87</ele>
        <time>2014-08-24T06:43:34Z</time>
      </trkpt>
      <trkpt lat="49.09728" lon="0.68793">
        <ele>88</ele>
        <time>2014-08-24T06:43:35Z</time>
      </trkpt>
      <trkpt lat="49.09727" lon="0.68788">
        <ele>88</ele>
        <time>2014-08-24T06:43:36Z</time>
      </trkpt>
      <trkpt lat="49.0973" lon="0.68777">
        <ele>89</ele>
        <time>2014-08-24T06:43:38Z</time>
      </trkpt>
      <trkpt lat="49.09734" lon="0.68766">
        <ele>90</ele>
        <time>2014-08-24T06:43:41Z</time>
      </trkpt>
      <trkpt lat="49.09734" lon="0.6876">
        <ele>90</ele>
        <time>2014-08-24T06:43:43Z</time>
      </trkpt>
      <trkpt lat="49.09734" lon="0.68753">
        <ele>91</ele>
        <time>2014-08-24T06:43:45Z</time>
      </trkpt>
      <trkpt lat="49.09735" lon="0.68748">
        <ele>91</ele>
        <time>2014-08-24T06:43:46Z</time>
      </trkpt>
      <trkpt lat="49.09737" lon="0.68735">
        <ele>92</ele>
        <time>2014-08-24T06:43:52Z</time>
      </trkpt>
      <trkpt lat="49.09738" lon="0.68732">
        <ele>93</ele>
        <time>2014-08-24T06:43:53Z</time>
      </trkpt>
      <trkpt lat="49.09742" lon="0.68722">
        <ele>94</ele>
        <time>2014-08-24T06:43:57Z</time>
      </trkpt>
      <trkpt lat="49.09744" lon="0.68716">
        <ele>94</ele>
        <time>2014-08-24T06:43:59Z</time>
      </trkpt>
      <trkpt lat="49.09745" lon="0.68713">
        <ele>94</ele>
        <time>2014-08-24T06:44:00Z</time>
      </trkpt>
      <trkpt lat="49.09746" lon="0.6871">
        <ele>95</ele>
        <time>2014-08-24T06:44:01Z</time>
      </trkpt>
      <trkpt lat="49.0975" lon="0.68698">
        <ele>96</ele>
        <time>2014-08-24T06:44:06Z</time>
      </trkpt>
      <trkpt lat="49.0975" lon="0.68696">
        <ele>96</ele>
        <time>2014-08-24T06:44:07Z</time>
      </trkpt>
      <trkpt lat="49.09751" lon="0.68694">
        <ele>96</ele>
        <time>2014-08-24T06:44:08Z</time>
      </trkpt>
      <trkpt lat="49.09751" lon="0.68692">
        <ele>96</ele>
        <time>2014-08-24T06:44:09Z</time>
      </trkpt>
      <trkpt lat="49.09752" lon="0.6869">
        <ele>96</ele>
        <time>2014-08-24T06:44:10Z</time>
      </trkpt>
      <trkpt lat="49.09755" lon="0.68685">
        <ele>97</ele>
        <time>2014-08-24T06:44:13Z</time>
      </trkpt>
      <trkpt lat="49.09756" lon="0.68683">
        <ele>97</ele>
        <time>2014-08-24T06:44:14Z</time>
      </trkpt>
      <trkpt lat="49.09756" lon="0.68681">
        <ele>97</ele>
        <time>2014-08-24T06:44:15Z</time>
      </trkpt>
      <trkpt lat="49.09757" lon="0.68679">
        <ele>97</ele>
        <time>2014-08-24T06:44:16Z</time>
      </trkpt>
      <trkpt lat="49.09759" lon="0.68677">
        <ele>98</ele>
        <time>2014-08-24T06:44:17Z</time>
      </trkpt>
      <trkpt lat="49.0976" lon="0.68673">
        <ele>98</ele>
        <time>2014-08-24T06:44:19Z</time>
      </trkpt>
      <trkpt lat="49.09761" lon="0.68669">
        <ele>99</ele>
        <time>2014-08-24T06:44:21Z</time>
      </trkpt>
      <trkpt lat="49.09762" lon="0.68667">
        <ele>99</ele>
        <time>2014-08-24T06:44:22Z</time>
      </trkpt>
      <trkpt lat="49.09762" lon="0.68665">
        <ele>99</ele>
        <time>2014-08-24T06:44:23Z</time>
      </trkpt>
      <trkpt lat="49.09763" lon="0.68663">
        <ele>100</ele>
        <time>2014-08-24T06:44:24Z</time>
      </trkpt>
      <trkpt lat="49.09764" lon="0.68661">
        <ele>100</ele>
        <time>2014-08-24T06:44:25Z</time>
      </trkpt>
      <trkpt lat="49.09768" lon="0.6865">
        <ele>102</ele>
        <time>2014-08-24T06:44:30Z</time>
      </trkpt>
      <trkpt lat="49.09769" lon="0.68648">
        <ele>102</ele>
        <time>2014-08-24T06:44:31Z</time>
      </trkpt>
      <trkpt lat="49.09769" lon="0.68647">
        <ele>102</ele>
        <time>2014-08-24T06:44:32Z</time>
      </trkpt>
      <trkpt lat="49.0977" lon="0.68645">
        <ele>102</ele>
        <time>2014-08-24T06:44:33Z</time>
      </trkpt>
      <trkpt lat="49.09771" lon="0.68643">
        <ele>103</ele>
        <time>2014-08-24T06:44:34Z</time>
      </trkpt>
      <trkpt lat="49.09772" lon="0.6864">
        <ele>103</ele>
        <time>2014-08-24T06:44:35Z</time>
      </trkpt>
      <trkpt lat="49.09774" lon="0.68633">
        <ele>104</ele>
        <time>2014-08-24T06:44:38Z</time>
      </trkpt>
      <trkpt lat="49.09776" lon="0.68628">
        <ele>105</ele>
        <time>2014-08-24T06:44:40Z</time>
      </trkpt>
      <trkpt lat="49.09777" lon="0.68626">
        <ele>105</ele>
        <time>2014-08-24T06:44:41Z</time>
      </trkpt>
      <trkpt lat="49.09777" lon="0.68624">
        <ele>105</ele>
        <time>2014-08-24T06:44:42Z</time>
      </trkpt>
      <trkpt lat="49.09778" lon="0.68622">
        <ele>106</ele>
        <time>2014-08-24T06:44:43Z</time>
      </trkpt>
      <trkpt lat="49.09779" lon="0.6862">
        <ele>106</ele>
        <time>2014-08-24T06:44:44Z</time>
      </trkpt>
      <trkpt lat="49.09781" lon="0.68615">
        <ele>107</ele>
        <time>2014-08-24T06:44:46Z</time>
      </trkpt>
      <trkpt lat="49.09782" lon="0.68611">
        <ele>107</ele>
        <time>2014-08-24T06:44:48Z</time>
      </trkpt>
      <trkpt lat="49.09783" lon="0.68609">
        <ele>107</ele>
        <time>2014-08-24T06:44:49Z</time>
      </trkpt>
      <trkpt lat="49.09784" lon="0.68607">
        <ele>108</ele>
        <time>2014-08-24T06:44:50Z</time>
      </trkpt>
      <trkpt lat="49.09784" lon="0.68605">
        <ele>108</ele>
        <time>2014-08-24T06:44:51Z</time>
      </trkpt>
      <trkpt lat="49.09785" lon="0.68603">
        <ele>108</ele>
        <time>2014-08-24T06:44:52Z</time>
      </trkpt>
      <trkpt lat="49.09788" lon="0.68595">
        <ele>109</ele>
        <time>2014-08-24T06:44:57Z</time>
      </trkpt>
      <trkpt lat="49.09789" lon="0.6859">
        <ele>109</ele>
        <time>2014-08-24T06:44:59Z</time>
      </trkpt>
      <trkpt lat="49.09789" lon="0.68588">
        <ele>109</ele>
        <time>2014-08-24T06:45:00Z</time>
      </trkpt>
      <trkpt lat="49.0979" lon="0.68586">
        <ele>110</ele>
        <time>2014-08-24T06:45:01Z</time>
      </trkpt>
      <trkpt lat="49.09791" lon="0.68584">
        <ele>110</ele>
        <time>2014-08-24T06:45:02Z</time>
      </trkpt>
      <trkpt lat="49.09792" lon="0.68582">
        <ele>110</ele>
        <time>2014-08-24T06:45:03Z</time>
      </trkpt>
      <trkpt lat="49.09793" lon="0.6858">
        <ele>110</ele>
        <time>2014-08-24T06:45:04Z</time>
      </trkpt>
      <trkpt lat="49.09794" lon="0.68575">
        <ele>111</ele>
        <time>2014-08-24T06:45:06Z</time>
      </trkpt>
      <trkpt lat="49.09795" lon="0.68573">
        <ele>111</ele>
        <time>2014-08-24T06:45:07Z</time>
      </trkpt>
      <trkpt lat="49.09796" lon="0.6857">
        <ele>111</ele>
        <time>2014-08-24T06:45:08Z</time>
      </trkpt>
      <trkpt lat="49.09797" lon="0.68568">
        <ele>111</ele>
        <time>2014-08-24T06:45:09Z</time>
      </trkpt>
      <trkpt lat="49.09798" lon="0.68565">
        <ele>111</ele>
        <time>2014-08-24T06:45:10Z</time>
      </trkpt>
      <trkpt lat="49.09799" lon="0.68561">
        <ele>112</ele>
        <time>2014-08-24T06:45:12Z</time>
      </trkpt>
      <trkpt lat="49.09803" lon="0.68552">
        <ele>113</ele>
        <time>2014-08-24T06:45:16Z</time>
      </trkpt>
      <trkpt lat="49.09804" lon="0.68549">
        <ele>113</ele>
        <time>2014-08-24T06:45:17Z</time>
      </trkpt>
      <trkpt lat="49.09804" lon="0.68547">
        <ele>113</ele>
        <time>2014-08-24T06:45:18Z</time>
      </trkpt>
      <trkpt lat="49.09805" lon="0.68544">
        <ele>113</ele>
        <time>2014-08-24T06:45:19Z</time>
      </trkpt>
      <trkpt lat="49.09807" lon="0.6854">
        <ele>114</ele>
        <time>2014-08-24T06:45:21Z</time>
      </trkpt>
      <trkpt lat="49.09812" lon="0.68524">
        <ele>115</ele>
        <time>2014-08-24T06:45:28Z</time>
      </trkpt>
      <trkpt lat="49.09815" lon="0.68512">
        <ele>115</ele>
        <time>2014-08-24T06:45:33Z</time>
      </trkpt>
      <trkpt lat="49.09816" lon="0.6851">
        <ele>115</ele>
        <time>2014-08-24T06:45:34Z</time>
      </trkpt>
      <trkpt lat="49.09816" lon="0.68509">
        <ele>116</ele>
        <time>2014-08-24T06:45:35Z</time>
      </trkpt>
      <trkpt lat="49.09817" lon="0.68506">
        <ele>116</ele>
        <time>2014-08-24T06:45:36Z</time>
      </trkpt>
      <trkpt lat="49.09818" lon="0.68504">
        <ele>116</ele>
        <time>2014-08-24T06:45:37Z</time>
      </trkpt>
      <trkpt lat="49.09822" lon="0.68493">
        <ele>116</ele>
        <time>2014-08-24T06:45:42Z</time>
      </trkpt>
      <trkpt lat="49.09823" lon="0.68491">
        <ele>117</ele>
        <time>2014-08-24T06:45:43Z</time>
      </trkpt>
      <trkpt lat="49.09824" lon="0.68489">
        <ele>117</ele>
        <time>2014-08-24T06:45:44Z</time>
      </trkpt>
      <trkpt lat="49.09825" lon="0.68486">
        <ele>117</ele>
        <time>2014-08-24T06:45:45Z</time>
      </trkpt>
      <trkpt lat="49.09826" lon="0.68484">
        <ele>117</ele>
        <time>2014-08-24T06:45:46Z</time>
      </trkpt>
      <trkpt lat="49.09831" lon="0.68469">
        <ele>118</ele>
        <time>2014-08-24T06:45:51Z</time>
      </trkpt>
      <trkpt lat="49.09832" lon="0.68464">
        <ele>118</ele>
        <time>2014-08-24T06:45:53Z</time>
      </trkpt>
      <trkpt lat="49.09832" lon="0.68463">
        <ele>118</ele>
        <time>2014-08-24T06:45:54Z</time>
      </trkpt>
      <trkpt lat="49.09833" lon="0.6846">
        <ele>118</ele>
        <time>2014-08-24T06:45:55Z</time>
      </trkpt>
      <trkpt lat="49.09834" lon="0.68458">
        <ele>118</ele>
        <time>2014-08-24T06:45:56Z</time>
      </trkpt>
      <trkpt lat="49.09835" lon="0.68456">
        <ele>118</ele>
        <time>2014-08-24T06:45:57Z</time>
      </trkpt>
      <trkpt lat="49.09836" lon="0.68451">
        <ele>119</ele>
        <time>2014-08-24T06:45:59Z</time>
      </trkpt>
      <trkpt lat="49.0984" lon="0.68443">
        <ele>119</ele>
        <time>2014-08-24T06:46:04Z</time>
      </trkpt>
      <trkpt lat="49.0984" lon="0.68441">
        <ele>119</ele>
        <time>2014-08-24T06:46:05Z</time>
      </trkpt>
      <trkpt lat="49.09841" lon="0.68439">
        <ele>119</ele>
        <time>2014-08-24T06:46:06Z</time>
      </trkpt>
      <trkpt lat="49.09842" lon="0.68436">
        <ele>119</ele>
        <time>2014-08-24T06:46:07Z</time>
      </trkpt>
      <trkpt lat="49.09842" lon="0.68434">
        <ele>119</ele>
        <time>2014-08-24T06:46:08Z</time>
      </trkpt>
      <trkpt lat="49.09848" lon="0.68422">
        <ele>120</ele>
        <time>2014-08-24T06:46:12Z</time>
      </trkpt>
      <trkpt lat="49.09854" lon="0.6841">
        <ele>120</ele>
        <time>2014-08-24T06:46:16Z</time>
      </trkpt>
      <trkpt lat="49.09855" lon="0.68407">
        <ele>120</ele>
        <time>2014-08-24T06:46:17Z</time>
      </trkpt>
      <trkpt lat="49.09857" lon="0.68403">
        <ele>120</ele>
        <time>2014-08-24T06:46:18Z</time>
      </trkpt>
      <trkpt lat="49.09858" lon="0.68398">
        <ele>121</ele>
        <time>2014-08-24T06:46:19Z</time>
      </trkpt>
      <trkpt lat="49.09859" lon="0.68395">
        <ele>121</ele>
        <time>2014-08-24T06:46:20Z</time>
      </trkpt>
      <trkpt lat="49.09866" lon="0.68373">
        <ele>122</ele>
        <time>2014-08-24T06:46:26Z</time>
      </trkpt>
      <trkpt lat="49.09873" lon="0.68354">
        <ele>124</ele>
        <time>2014-08-24T06:46:31Z</time>
      </trkpt>
      <trkpt lat="49.09875" lon="0.68347">
        <ele>124</ele>
        <time>2014-08-24T06:46:33Z</time>
      </trkpt>
      <trkpt lat="49.09876" lon="0.68343">
        <ele>125</ele>
        <time>2014-08-24T06:46:34Z</time>
      </trkpt>
      <trkpt lat="49.09878" lon="0.6834">
        <ele>125</ele>
        <time>2014-08-24T06:46:35Z</time>
      </trkpt>
      <trkpt lat="49.0988" lon="0.68336">
        <ele>125</ele>
        <time>2014-08-24T06:46:36Z</time>
      </trkpt>
      <trkpt lat="49.09882" lon="0.68332">
        <ele>126</ele>
        <time>2014-08-24T06:46:37Z</time>
      </trkpt>
      <trkpt lat="49.09887" lon="0.68314">
        <ele>127</ele>
        <time>2014-08-24T06:46:43Z</time>
      </trkpt>
      <trkpt lat="49.0989" lon="0.68307">
        <ele>128</ele>
        <time>2014-08-24T06:46:46Z</time>
      </trkpt>
      <trkpt lat="49.09891" lon="0.68304">
        <ele>128</ele>
        <time>2014-08-24T06:46:47Z</time>
      </trkpt>
      <trkpt lat="49.09892" lon="0.68302">
        <ele>128</ele>
        <time>2014-08-24T06:46:48Z</time>
      </trkpt>
      <trkpt lat="49.09893" lon="0.68299">
        <ele>129</ele>
        <time>2014-08-24T06:46:49Z</time>
      </trkpt>
      <trkpt lat="49.09894" lon="0.68297">
        <ele>129</ele>
        <time>2014-08-24T06:46:50Z</time>
      </trkpt>
      <trkpt lat="49.09894" lon="0.68295">
        <ele>129</ele>
        <time>2014-08-24T06:46:51Z</time>
      </trkpt>
      <trkpt lat="49.09898" lon="0.6828">
        <ele>130</ele>
        <time>2014-08-24T06:46:57Z</time>
      </trkpt>
      <trkpt lat="49.09899" lon="0.68277">
        <ele>131</ele>
        <time>2014-08-24T06:46:58Z</time>
      </trkpt>
      <trkpt lat="49.099" lon="0.68275">
        <ele>131</ele>
        <time>2014-08-24T06:46:59Z</time>
      </trkpt>
      <trkpt lat="49.099" lon="0.68273">
        <ele>131</ele>
        <time>2014-08-24T06:47:00Z</time>
      </trkpt>
      <trkpt lat="49.099" lon="0.68271">
        <ele>131</ele>
        <time>2014-08-24T06:47:01Z</time>
      </trkpt>
      <trkpt lat="49.09908" lon="0.68251">
        <ele>133</ele>
        <time>2014-08-24T06:47:09Z</time>
      </trkpt>
      <trkpt lat="49.0991" lon="0.68245">
        <ele>134</ele>
        <time>2014-08-24T06:47:11Z</time>
      </trkpt>
      <trkpt lat="49.09911" lon="0.68242">
        <ele>134</ele>
        <time>2014-08-24T06:47:12Z</time>
      </trkpt>
      <trkpt lat="49.09912" lon="0.68239">
        <ele>134</ele>
        <time>2014-08-24T06:47:13Z</time>
      </trkpt>
      <trkpt lat="49.09913" lon="0.68236">
        <ele>135</ele>
        <time>2014-08-24T06:47:14Z</time>
      </trkpt>
      <trkpt lat="49.09914" lon="0.68234">
        <ele>135</ele>
        <time>2014-08-24T06:47:15Z</time>
      </trkpt>
      <trkpt lat="49.09917" lon="0.68227">
        <ele>135</ele>
        <time>2014-08-24T06:47:17Z</time>
      </trkpt>
      <trkpt lat="49.09921" lon="0.68213">
        <ele>136</ele>
        <time>2014-08-24T06:47:21Z</time>
      </trkpt>
      <trkpt lat="49.09922" lon="0.68209">
        <ele>137</ele>
        <time>2014-08-24T06:47:22Z</time>
      </trkpt>
      <trkpt lat="49.09923" lon="0.68206">
        <ele>137</ele>
        <time>2014-08-24T06:47:23Z</time>
      </trkpt>
      <trkpt lat="49.09924" lon="0.68202">
        <ele>137</ele>
        <time>2014-08-24T06:47:24Z</time>
      </trkpt>
      <trkpt lat="49.09925" lon="0.682">
        <ele>137</ele>
        <time>2014-08-24T06:47:25Z</time>
      </trkpt>
      <trkpt lat="49.09927" lon="0.68192">
        <ele>138</ele>
        <time>2014-08-24T06:47:28Z</time>
      </trkpt>
      <trkpt lat="49.09935" lon="0.68174">
        <ele>138</ele>
        <time>2014-08-24T06:47:34Z</time>
      </trkpt>
      <trkpt lat="49.09938" lon="0.68166">
        <ele>139</ele>
        <time>2014-08-24T06:47:36Z</time>
      </trkpt>
      <trkpt lat="49.09938" lon="0.68162">
        <ele>139</ele>
        <time>2014-08-24T06:47:37Z</time>
      </trkpt>
      <trkpt lat="49.0994" lon="0.68159">
        <ele>139</ele>
        <time>2014-08-24T06:47:38Z</time>
      </trkpt>
      <trkpt lat="49.09941" lon="0.68156">
        <ele>139</ele>
        <time>2014-08-24T06:47:39Z</time>
      </trkpt>
      <trkpt lat="49.09943" lon="0.6815">
        <ele>139</ele>
        <time>2014-08-24T06:47:41Z</time>
      </trkpt>
      <trkpt lat="49.09953" lon="0.68126">
        <ele>140</ele>
        <time>2014-08-24T06:47:49Z</time>
      </trkpt>
      <trkpt lat="49.0996" lon="0.68103">
        <ele>140</ele>
        <time>2014-08-24T06:47:55Z</time>
      </trkpt>
      <trkpt lat="49.09966" lon="0.6809">
        <ele>141</ele>
        <time>2014-08-24T06:47:58Z</time>
      </trkpt>
      <trkpt lat="49.09967" lon="0.68085">
        <ele>141</ele>
        <time>2014-08-24T06:47:59Z</time>
      </trkpt>
      <trkpt lat="49.09968" lon="0.68082">
        <ele>141</ele>
        <time>2014-08-24T06:48:00Z</time>
      </trkpt>
      <trkpt lat="49.0997" lon="0.68077">
        <ele>141</ele>
        <time>2014-08-24T06:48:01Z</time>
      </trkpt>
      <trkpt lat="49.09971" lon="0.68072">
        <ele>141</ele>
        <time>2014-08-24T06:48:02Z</time>
      </trkpt>
      <trkpt lat="49.09982" lon="0.68037">
        <ele>141</ele>
        <time>2014-08-24T06:48:10Z</time>
      </trkpt>
      <trkpt lat="49.09987" lon="0.68018">
        <ele>142</ele>
        <time>2014-08-24T06:48:13Z</time>
      </trkpt>
      <trkpt lat="49.09989" lon="0.68012">
        <ele>142</ele>
        <time>2014-08-24T06:48:14Z</time>
      </trkpt>
      <trkpt lat="49.09991" lon="0.68007">
        <ele>142</ele>
        <time>2014-08-24T06:48:15Z</time>
      </trkpt>
      <trkpt lat="49.09993" lon="0.68002">
        <ele>142</ele>
        <time>2014-08-24T06:48:16Z</time>
      </trkpt>
      <trkpt lat="49.09995" lon="0.67996">
        <ele>142</ele>
        <time>2014-08-24T06:48:17Z</time>
      </trkpt>
      <trkpt lat="49.10004" lon="0.67962">
        <ele>142</ele>
        <time>2014-08-24T06:48:23Z</time>
      </trkpt>
      <trkpt lat="49.10022" lon="0.67914">
        <ele>142</ele>
        <time>2014-08-24T06:48:31Z</time>
      </trkpt>
      <trkpt lat="49.10034" lon="0.67886">
        <ele>142</ele>
        <time>2014-08-24T06:48:36Z</time>
      </trkpt>
      <trkpt lat="49.10039" lon="0.67872">
        <ele>143</ele>
        <time>2014-08-24T06:48:38Z</time>
      </trkpt>
      <trkpt lat="49.10048" lon="0.67843">
        <ele>143</ele>
        <time>2014-08-24T06:48:43Z</time>
      </trkpt>
      <trkpt lat="49.10063" lon="0.67802">
        <ele>143</ele>
        <time>2014-08-24T06:48:50Z</time>
      </trkpt>
      <trkpt lat="49.10076" lon="0.67765">
        <ele>143</ele>
        <time>2014-08-24T06:48:56Z</time>
      </trkpt>
      <trkpt lat="49.10079" lon="0.67758">
        <ele>143</ele>
        <time>2014-08-24T06:48:57Z</time>
      </trkpt>
      <trkpt lat="49.1009" lon="0.6773">
        <ele>143</ele>
        <time>2014-08-24T06:49:02Z</time>
      </trkpt>
      <trkpt lat="49.10098" lon="0.67707">
        <ele>143</ele>
        <time>2014-08-24T06:49:06Z</time>
      </trkpt>
      <trkpt lat="49.101" lon="0.67702">
        <ele>143</ele>
        <time>2014-08-24T06:49:07Z</time>
      </trkpt>
      <trkpt lat="49.10102" lon="0.67696">
        <ele>143</ele>
        <time>2014-08-24T06:49:08Z</time>
      </trkpt>
      <trkpt lat="49.10104" lon="0.6769">
        <ele>143</ele>
        <time>2014-08-24T06:49:09Z</time>
      </trkpt>
      <trkpt lat="49.10106" lon="0.67684">
        <ele>143</ele>
        <time>2014-08-24T06:49:10Z</time>
      </trkpt>
      <trkpt lat="49.10119" lon="0.67649">
        <ele>143</ele>
        <time>2014-08-24T06:49:16Z</time>
      </trkpt>
      <trkpt lat="49.10134" lon="0.676">
        <ele>143</ele>
        <time>2014-08-24T06:49:24Z</time>
      </trkpt>
      <trkpt lat="49.1015" lon="0.67553">
        <ele>143</ele>
        <time>2014-08-24T06:49:31Z</time>
      </trkpt>
      <trkpt lat="49.10173" lon="0.67493">
        <ele>143</ele>
        <time>2014-08-24T06:49:41Z</time>
      </trkpt>
      <trkpt lat="49.10184" lon="0.67469">
        <ele>142</ele>
        <time>2014-08-24T06:49:46Z</time>
      </trkpt>
      <trkpt lat="49.10189" lon="0.67457">
        <ele>142</ele>
        <time>2014-08-24T06:49:51Z</time>
      </trkpt>
      <trkpt lat="49.10193" lon="0.67443">
        <ele>142</ele>
        <time>2014-08-24T06:49:55Z</time>
      </trkpt>
      <trkpt lat="49.10198" lon="0.67428">
        <ele>142</ele>
        <time>2014-08-24T06:49:59Z</time>
      </trkpt>
      <trkpt lat="49.10205" lon="0.674">
        <ele>142</ele>
        <time>2014-08-24T06:50:04Z</time>
      </trkpt>
      <trkpt lat="49.10217" lon="0.67367">
        <ele>142</ele>
        <time>2014-08-24T06:50:10Z</time>
      </trkpt>
      <trkpt lat="49.10222" lon="0.67354">
        <ele>142</ele>
        <time>2014-08-24T06:50:12Z</time>
      </trkpt>
      <trkpt lat="49.10228" lon="0.67333">
        <ele>142</ele>
        <time>2014-08-24T06:50:15Z</time>
      </trkpt>
      <trkpt lat="49.10242" lon="0.673">
        <ele>142</ele>
        <time>2014-08-24T06:50:20Z</time>
      </trkpt>
      <trkpt lat="49.10248" lon="0.67281">
        <ele>142</ele>
        <time>2014-08-24T06:50:23Z</time>
      </trkpt>
      <trkpt lat="49.10268" lon="0.67237">
        <ele>142</ele>
        <time>2014-08-24T06:50:29Z</time>
      </trkpt>
      <trkpt lat="49.10276" lon="0.67216">
        <ele>142</ele>
        <time>2014-08-24T06:50:32Z</time>
      </trkpt>
      <trkpt lat="49.10278" lon="0.67203">
        <ele>142</ele>
        <time>2014-08-24T06:50:34Z</time>
      </trkpt>
      <trkpt lat="49.10288" lon="0.67176">
        <ele>142</ele>
        <time>2014-08-24T06:50:39Z</time>
      </trkpt>
      <trkpt lat="49.10299" lon="0.67143">
        <ele>142</ele>
        <time>2014-08-24T06:50:44Z</time>
      </trkpt>
      <trkpt lat="49.1031" lon="0.67109">
        <ele>143</ele>
        <time>2014-08-24T06:50:49Z</time>
      </trkpt>
      <trkpt lat="49.10328" lon="0.67062">
        <ele>143</ele>
        <time>2014-08-24T06:50:56Z</time>
      </trkpt>
      <trkpt lat="49.10345" lon="0.67006">
        <ele>144</ele>
        <time>2014-08-24T06:51:03Z</time>
      </trkpt>
      <trkpt lat="49.10368" lon="0.66952">
        <ele>145</ele>
        <time>2014-08-24T06:51:11Z</time>
      </trkpt>
      <trkpt lat="49.10373" lon="0.66942">
        <ele>145</ele>
        <time>2014-08-24T06:51:13Z</time>
      </trkpt>
      <trkpt lat="49.1038" lon="0.66925">
        <ele>145</ele>
        <time>2014-08-24T06:51:16Z</time>
      </trkpt>
      <trkpt lat="49.10394" lon="0.66898">
        <ele>145</ele>
        <time>2014-08-24T06:51:20Z</time>
      </trkpt>
      <trkpt lat="49.10398" lon="0.66891">
        <ele>145</ele>
        <time>2014-08-24T06:51:21Z</time>
      </trkpt>
      <trkpt lat="49.1042" lon="0.66843">
        <ele>144</ele>
        <time>2014-08-24T06:51:28Z</time>
      </trkpt>
      <trkpt lat="49.10423" lon="0.66838">
        <ele>144</ele>
        <time>2014-08-24T06:51:29Z</time>
      </trkpt>
      <trkpt lat="49.10423" lon="0.66823">
        <ele>144</ele>
        <time>2014-08-24T06:51:31Z</time>
      </trkpt>
      <trkpt lat="49.1042" lon="0.66799">
        <ele>144</ele>
        <time>2014-08-24T06:51:34Z</time>
      </trkpt>
      <trkpt lat="49.10421" lon="0.6679">
        <ele>144</ele>
        <time>2014-08-24T06:51:35Z</time>
      </trkpt>
      <trkpt lat="49.10421" lon="0.66746">
        <ele>144</ele>
        <time>2014-08-24T06:51:40Z</time>
      </trkpt>
      <trkpt lat="49.10418" lon="0.66725">
        <ele>144</ele>
        <time>2014-08-24T06:51:43Z</time>
      </trkpt>
      <trkpt lat="49.10417" lon="0.66713">
        <ele>144</ele>
        <time>2014-08-24T06:51:45Z</time>
      </trkpt>
      <trkpt lat="49.1041" lon="0.66665">
        <ele>144</ele>
        <time>2014-08-24T06:51:52Z</time>
      </trkpt>
      <trkpt lat="49.1041" lon="0.66658">
        <ele>144</ele>
        <time>2014-08-24T06:51:53Z</time>
      </trkpt>
      <trkpt lat="49.104" lon="0.66608">
        <ele>144</ele>
        <time>2014-08-24T06:52:00Z</time>
      </trkpt>
      <trkpt lat="49.10391" lon="0.66549">
        <ele>144</ele>
        <time>2014-08-24T06:52:08Z</time>
      </trkpt>
      <trkpt lat="49.1039" lon="0.6652">
        <ele>144</ele>
        <time>2014-08-24T06:52:12Z</time>
      </trkpt>
      <trkpt lat="49.10388" lon="0.66505">
        <ele>144</ele>
        <time>2014-08-24T06:52:14Z</time>
      </trkpt>
      <trkpt lat="49.10386" lon="0.66497">
        <ele>144</ele>
        <time>2014-08-24T06:52:15Z</time>
      </trkpt>
      <trkpt lat="49.10385" lon="0.6649">
        <ele>144</ele>
        <time>2014-08-24T06:52:16Z</time>
      </trkpt>
      <trkpt lat="49.10384" lon="0.66481">
        <ele>144</ele>
        <time>2014-08-24T06:52:17Z</time>
      </trkpt>
      <trkpt lat="49.10377" lon="0.66431">
        <ele>143</ele>
        <time>2014-08-24T06:52:23Z</time>
      </trkpt>
      <trkpt lat="49.10376" lon="0.6641">
        <ele>143</ele>
        <time>2014-08-24T06:52:26Z</time>
      </trkpt>
      <trkpt lat="49.10376" lon="0.66393">
        <ele>143</ele>
        <time>2014-08-24T06:52:28Z</time>
      </trkpt>
      <trkpt lat="49.10376" lon="0.66384">
        <ele>143</ele>
        <time>2014-08-24T06:52:29Z</time>
      </trkpt>
      <trkpt lat="49.10374" lon="0.66358">
        <ele>142</ele>
        <time>2014-08-24T06:52:32Z</time>
      </trkpt>
      <trkpt lat="49.1037" lon="0.66322">
        <ele>142</ele>
        <time>2014-08-24T06:52:36Z</time>
      </trkpt>
      <trkpt lat="49.10368" lon="0.66313">
        <ele>142</ele>
        <time>2014-08-24T06:52:37Z</time>
      </trkpt>
      <trkpt lat="49.10367" lon="0.66304">
        <ele>142</ele>
        <time>2014-08-24T06:52:38Z</time>
      </trkpt>
      <trkpt lat="49.10365" lon="0.66296">
        <ele>141</ele>
        <time>2014-08-24T06:52:39Z</time>
      </trkpt>
      <trkpt lat="49.10364" lon="0.66289">
        <ele>141</ele>
        <time>2014-08-24T06:52:40Z</time>
      </trkpt>
      <trkpt lat="49.10358" lon="0.66258">
        <ele>141</ele>
        <time>2014-08-24T06:52:45Z</time>
      </trkpt>
      <trkpt lat="49.10348" lon="0.66252">
        <ele>141</ele>
        <time>2014-08-24T06:52:49Z</time>
      </trkpt>
      <trkpt lat="49.10337" lon="0.66247">
        <ele>141</ele>
        <time>2014-08-24T06:52:53Z</time>
      </trkpt>
      <trkpt lat="49.10334" lon="0.66246">
        <ele>141</ele>
        <time>2014-08-24T06:52:54Z</time>
      </trkpt>
      <trkpt lat="49.10305" lon="0.66241">
        <ele>140</ele>
        <time>2014-08-24T06:53:02Z</time>
      </trkpt>
      <trkpt lat="49.1028" lon="0.66236">
        <ele>140</ele>
        <time>2014-08-24T06:53:07Z</time>
      </trkpt>
      <trkpt lat="49.10276" lon="0.66237">
        <ele>140</ele>
        <time>2014-08-24T06:53:08Z</time>
      </trkpt>
      <trkpt lat="49.10261" lon="0.66236">
        <ele>140</ele>
        <time>2014-08-24T06:53:11Z</time>
      </trkpt>
      <trkpt lat="49.10257" lon="0.66235">
        <ele>139</ele>
        <time>2014-08-24T06:53:12Z</time>
      </trkpt>
      <trkpt lat="49.10249" lon="0.66235">
        <ele>139</ele>
        <time>2014-08-24T06:53:13Z</time>
      </trkpt>
      <trkpt lat="49.10242" lon="0.66236">
        <ele>139</ele>
        <time>2014-08-24T06:53:14Z</time>
      </trkpt>
      <trkpt lat="49.1023" lon="0.66235">
        <ele>140</ele>
        <time>2014-08-24T06:53:16Z</time>
      </trkpt>
      <trkpt lat="49.10198" lon="0.66233">
        <ele>140</ele>
        <time>2014-08-24T06:53:21Z</time>
      </trkpt>
      <trkpt lat="49.1015" lon="0.66225">
        <ele>140</ele>
        <time>2014-08-24T06:53:29Z</time>
      </trkpt>
      <trkpt lat="49.10145" lon="0.66224">
        <ele>140</ele>
        <time>2014-08-24T06:53:30Z</time>
      </trkpt>
      <trkpt lat="49.10118" lon="0.66214">
        <ele>140</ele>
        <time>2014-08-24T06:53:36Z</time>
      </trkpt>
      <trkpt lat="49.10096" lon="0.66208">
        <ele>139</ele>
        <time>2014-08-24T06:53:40Z</time>
      </trkpt>
      <trkpt lat="49.10087" lon="0.66205">
        <ele>139</ele>
        <time>2014-08-24T06:53:42Z</time>
      </trkpt>
      <trkpt lat="49.10082" lon="0.66203">
        <ele>139</ele>
        <time>2014-08-24T06:53:43Z</time>
      </trkpt>
      <trkpt lat="49.10077" lon="0.66202">
        <ele>139</ele>
        <time>2014-08-24T06:53:44Z</time>
      </trkpt>
      <trkpt lat="49.10072" lon="0.66201">
        <ele>139</ele>
        <time>2014-08-24T06:53:45Z</time>
      </trkpt>
      <trkpt lat="49.10067" lon="0.66201">
        <ele>139</ele>
        <time>2014-08-24T06:53:46Z</time>
      </trkpt>
      <trkpt lat="49.10058" lon="0.66201">
        <ele>139</ele>
        <time>2014-08-24T06:53:48Z</time>
      </trkpt>
      <trkpt lat="49.1003" lon="0.66206">
        <ele>138</ele>
        <time>2014-08-24T06:53:54Z</time>
      </trkpt>
      <trkpt lat="49.10026" lon="0.66207">
        <ele>138</ele>
        <time>2014-08-24T06:53:55Z</time>
      </trkpt>
      <trkpt lat="49.10022" lon="0.66207">
        <ele>138</ele>
        <time>2014-08-24T06:53:56Z</time>
      </trkpt>
      <trkpt lat="49.10016" lon="0.66209">
        <ele>138</ele>
        <time>2014-08-24T06:53:57Z</time>
      </trkpt>
      <trkpt lat="49.10012" lon="0.66211">
        <ele>138</ele>
        <time>2014-08-24T06:53:58Z</time>
      </trkpt>
      <trkpt lat="49.10008" lon="0.66213">
        <ele>138</ele>
        <time>2014-08-24T06:53:59Z</time>
      </trkpt>
      <trkpt lat="49.09998" lon="0.66217">
        <ele>138</ele>
        <time>2014-08-24T06:54:01Z</time>
      </trkpt>
      <trkpt lat="49.09993" lon="0.66219">
        <ele>137</ele>
        <time>2014-08-24T06:54:02Z</time>
      </trkpt>
      <trkpt lat="49.09987" lon="0.66221">
        <ele>137</ele>
        <time>2014-08-24T06:54:03Z</time>
      </trkpt>
      <trkpt lat="49.09982" lon="0.66223">
        <ele>137</ele>
        <time>2014-08-24T06:54:04Z</time>
      </trkpt>
      <trkpt lat="49.09975" lon="0.66227">
        <ele>137</ele>
        <time>2014-08-24T06:54:05Z</time>
      </trkpt>
      <trkpt lat="49.09968" lon="0.66229">
        <ele>137</ele>
        <time>2014-08-24T06:54:06Z</time>
      </trkpt>
      <trkpt lat="49.0996" lon="0.6623">
        <ele>136</ele>
        <time>2014-08-24T06:54:07Z</time>
      </trkpt>
      <trkpt lat="49.09953" lon="0.66231">
        <ele>136</ele>
        <time>2014-08-24T06:54:08Z</time>
      </trkpt>
      <trkpt lat="49.09946" lon="0.66232">
        <ele>136</ele>
        <time>2014-08-24T06:54:09Z</time>
      </trkpt>
      <trkpt lat="49.09939" lon="0.66234">
        <ele>135</ele>
        <time>2014-08-24T06:54:10Z</time>
      </trkpt>
      <trkpt lat="49.09933" lon="0.66238">
        <ele>135</ele>
        <time>2014-08-24T06:54:11Z</time>
      </trkpt>
      <trkpt lat="49.09927" lon="0.66241">
        <ele>134</ele>
        <time>2014-08-24T06:54:12Z</time>
      </trkpt>
      <trkpt lat="49.09921" lon="0.66243">
        <ele>134</ele>
        <time>2014-08-24T06:54:13Z</time>
      </trkpt>
      <trkpt lat="49.09914" lon="0.66246">
        <ele>133</ele>
        <time>2014-08-24T06:54:14Z</time>
      </trkpt>
      <trkpt lat="49.09907" lon="0.66249">
        <ele>133</ele>
        <time>2014-08-24T06:54:15Z</time>
      </trkpt>
      <trkpt lat="49.099" lon="0.66251">
        <ele>132</ele>
        <time>2014-08-24T06:54:16Z</time>
      </trkpt>
      <trkpt lat="49.09895" lon="0.66253">
        <ele>132</ele>
        <time>2014-08-24T06:54:17Z</time>
      </trkpt>
      <trkpt lat="49.09889" lon="0.66255">
        <ele>131</ele>
        <time>2014-08-24T06:54:18Z</time>
      </trkpt>
      <trkpt lat="49.09884" lon="0.66257">
        <ele>131</ele>
        <time>2014-08-24T06:54:19Z</time>
      </trkpt>
      <trkpt lat="49.09878" lon="0.66259">
        <ele>130</ele>
        <time>2014-08-24T06:54:20Z</time>
      </trkpt>
      <trkpt lat="49.09872" lon="0.66261">
        <ele>130</ele>
        <time>2014-08-24T06:54:21Z</time>
      </trkpt>
      <trkpt lat="49.09867" lon="0.66266">
        <ele>129</ele>
        <time>2014-08-24T06:54:22Z</time>
      </trkpt>
      <trkpt lat="49.09861" lon="0.66271">
        <ele>128</ele>
        <time>2014-08-24T06:54:23Z</time>
      </trkpt>
      <trkpt lat="49.09855" lon="0.66276">
        <ele>127</ele>
        <time>2014-08-24T06:54:24Z</time>
      </trkpt>
      <trkpt lat="49.09849" lon="0.6628">
        <ele>126</ele>
        <time>2014-08-24T06:54:25Z</time>
      </trkpt>
      <trkpt lat="49.09843" lon="0.66283">
        <ele>126</ele>
        <time>2014-08-24T06:54:26Z</time>
      </trkpt>
      <trkpt lat="49.09835" lon="0.66289">
        <ele>126</ele>
        <time>2014-08-24T06:54:27Z</time>
      </trkpt>
      <trkpt lat="49.09826" lon="0.66295">
        <ele>126</ele>
        <time>2014-08-24T06:54:28Z</time>
      </trkpt>
      <trkpt lat="49.09816" lon="0.66304">
        <ele>126</ele>
        <time>2014-08-24T06:54:29Z</time>
      </trkpt>
      <trkpt lat="49.09807" lon="0.6631">
        <ele>125</ele>
        <time>2014-08-24T06:54:30Z</time>
      </trkpt>
      <trkpt lat="49.09797" lon="0.66317">
        <ele>124</ele>
        <time>2014-08-24T06:54:31Z</time>
      </trkpt>
      <trkpt lat="49.09785" lon="0.66324">
        <ele>123</ele>
        <time>2014-08-24T06:54:32Z</time>
      </trkpt>
      <trkpt lat="49.09769" lon="0.66331">
        <ele>121</ele>
        <time>2014-08-24T06:54:33Z</time>
      </trkpt>
      <trkpt lat="49.09758" lon="0.66336">
        <ele>119</ele>
        <time>2014-08-24T06:54:34Z</time>
      </trkpt>
      <trkpt lat="49.09743" lon="0.66341">
        <ele>116</ele>
        <time>2014-08-24T06:54:35Z</time>
      </trkpt>
      <trkpt lat="49.09734" lon="0.66347">
        <ele>114</ele>
        <time>2014-08-24T06:54:36Z</time>
      </trkpt>
      <trkpt lat="49.09727" lon="0.66352">
        <ele>112</ele>
        <time>2014-08-24T06:54:37Z</time>
      </trkpt>
      <trkpt lat="49.09721" lon="0.66357">
        <ele>111</ele>
        <time>2014-08-24T06:54:38Z</time>
      </trkpt>
      <trkpt lat="49.09713" lon="0.66362">
        <ele>109</ele>
        <time>2014-08-24T06:54:39Z</time>
      </trkpt>
      <trkpt lat="49.09707" lon="0.66364">
        <ele>108</ele>
        <time>2014-08-24T06:54:40Z</time>
      </trkpt>
      <trkpt lat="49.097" lon="0.66365">
        <ele>107</ele>
        <time>2014-08-24T06:54:41Z</time>
      </trkpt>
      <trkpt lat="49.09694" lon="0.66366">
        <ele>106</ele>
        <time>2014-08-24T06:54:42Z</time>
      </trkpt>
      <trkpt lat="49.09685" lon="0.66368">
        <ele>105</ele>
        <time>2014-08-24T06:54:43Z</time>
      </trkpt>
      <trkpt lat="49.09678" lon="0.6637">
        <ele>104</ele>
        <time>2014-08-24T06:54:44Z</time>
      </trkpt>
      <trkpt lat="49.09667" lon="0.66371">
        <ele>103</ele>
        <time>2014-08-24T06:54:45Z</time>
      </trkpt>
      <trkpt lat="49.09654" lon="0.66374">
        <ele>101</ele>
        <time>2014-08-24T06:54:46Z</time>
      </trkpt>
      <trkpt lat="49.09644" lon="0.66375">
        <ele>100</ele>
        <time>2014-08-24T06:54:47Z</time>
      </trkpt>
      <trkpt lat="49.09635" lon="0.66378">
        <ele>99</ele>
        <time>2014-08-24T06:54:48Z</time>
      </trkpt>
      <trkpt lat="49.09629" lon="0.66383">
        <ele>98</ele>
        <time>2014-08-24T06:54:49Z</time>
      </trkpt>
      <trkpt lat="49.09622" lon="0.66388">
        <ele>97</ele>
        <time>2014-08-24T06:54:50Z</time>
      </trkpt>
      <trkpt lat="49.09614" lon="0.66391">
        <ele>96</ele>
        <time>2014-08-24T06:54:51Z</time>
      </trkpt>
      <trkpt lat="49.09606" lon="0.66394">
        <ele>95</ele>
        <time>2014-08-24T06:54:52Z</time>
      </trkpt>
      <trkpt lat="49.09601" lon="0.66395">
        <ele>95</ele>
        <time>2014-08-24T06:54:53Z</time>
      </trkpt>
      <trkpt lat="49.09595" lon="0.66397">
        <ele>94</ele>
        <time>2014-08-24T06:54:54Z</time>
      </trkpt>
      <trkpt lat="49.09588" lon="0.66398">
        <ele>93</ele>
        <time>2014-08-24T06:54:55Z</time>
      </trkpt>
      <trkpt lat="49.09581" lon="0.66399">
        <ele>92</ele>
        <time>2014-08-24T06:54:56Z</time>
      </trkpt>
      <trkpt lat="49.09573" lon="0.66399">
        <ele>92</ele>
        <time>2014-08-24T06:54:57Z</time>
      </trkpt>
      <trkpt lat="49.09557" lon="0.66398">
        <ele>90</ele>
        <time>2014-08-24T06:54:59Z</time>
      </trkpt>
      <trkpt lat="49.09548" lon="0.66399">
        <ele>90</ele>
        <time>2014-08-24T06:55:00Z</time>
      </trkpt>
      <trkpt lat="49.09541" lon="0.664">
        <ele>90</ele>
        <time>2014-08-24T06:55:01Z</time>
      </trkpt>
      <trkpt lat="49.09536" lon="0.66404">
        <ele>89</ele>
        <time>2014-08-24T06:55:02Z</time>
      </trkpt>
      <trkpt lat="49.09529" lon="0.66407">
        <ele>89</ele>
        <time>2014-08-24T06:55:03Z</time>
      </trkpt>
      <trkpt lat="49.09523" lon="0.6642">
        <ele>88</ele>
        <time>2014-08-24T06:55:05Z</time>
      </trkpt>
      <trkpt lat="49.09519" lon="0.66423">
        <ele>88</ele>
        <time>2014-08-24T06:55:06Z</time>
      </trkpt>
      <trkpt lat="49.09515" lon="0.66425">
        <ele>88</ele>
        <time>2014-08-24T06:55:07Z</time>
      </trkpt>
      <trkpt lat="49.09513" lon="0.66428">
        <ele>88</ele>
        <time>2014-08-24T06:55:08Z</time>
      </trkpt>
      <trkpt lat="49.0951" lon="0.66429">
        <ele>88</ele>
        <time>2014-08-24T06:55:09Z</time>
      </trkpt>
      <trkpt lat="49.09507" lon="0.66431">
        <ele>88</ele>
        <time>2014-08-24T06:55:10Z</time>
      </trkpt>
      <trkpt lat="49.09502" lon="0.66434">
        <ele>88</ele>
        <time>2014-08-24T06:55:11Z</time>
      </trkpt>
      <trkpt lat="49.09497" lon="0.66441">
        <ele>88</ele>
        <time>2014-08-24T06:55:12Z</time>
      </trkpt>
      <trkpt lat="49.09492" lon="0.66456">
        <ele>88</ele>
        <time>2014-08-24T06:55:14Z</time>
      </trkpt>
      <trkpt lat="49.09493" lon="0.66483">
        <ele>88</ele>
        <time>2014-08-24T06:55:17Z</time>
      </trkpt>
      <trkpt lat="49.09494" lon="0.66492">
        <ele>89</ele>
        <time>2014-08-24T06:55:18Z</time>
      </trkpt>
      <trkpt lat="49.09497" lon="0.66555">
        <ele>90</ele>
        <time>2014-08-24T06:55:26Z</time>
      </trkpt>
      <trkpt lat="49.09506" lon="0.66614">
        <ele>90</ele>
        <time>2014-08-24T06:55:33Z</time>
      </trkpt>
      <trkpt lat="49.09508" lon="0.6662">
        <ele>89</ele>
        <time>2014-08-24T06:55:34Z</time>
      </trkpt>
      <trkpt lat="49.09523" lon="0.66633">
        <ele>88</ele>
        <time>2014-08-24T06:55:38Z</time>
      </trkpt>
      <trkpt lat="49.09538" lon="0.66631">
        <ele>88</ele>
        <time>2014-08-24T06:55:41Z</time>
      </trkpt>
      <trkpt lat="49.09542" lon="0.66631">
        <ele>88</ele>
        <time>2014-08-24T06:55:42Z</time>
      </trkpt>
      <trkpt lat="49.09547" lon="0.66631">
        <ele>88</ele>
        <time>2014-08-24T06:55:43Z</time>
      </trkpt>
      <trkpt lat="49.09551" lon="0.66631">
        <ele>88</ele>
        <time>2014-08-24T06:55:44Z</time>
      </trkpt>
      <trkpt lat="49.09554" lon="0.66631">
        <ele>88</ele>
        <time>2014-08-24T06:55:45Z</time>
      </trkpt>
      <trkpt lat="49.09558" lon="0.66632">
        <ele>88</ele>
        <time>2014-08-24T06:55:46Z</time>
      </trkpt>
      <trkpt lat="49.09577" lon="0.66629">
        <ele>88</ele>
        <time>2014-08-24T06:55:52Z</time>
      </trkpt>
      <trkpt lat="49.09593" lon="0.66627">
        <ele>89</ele>
        <time>2014-08-24T06:55:57Z</time>
      </trkpt>
      <trkpt lat="49.09596" lon="0.66626">
        <ele>89</ele>
        <time>2014-08-24T06:55:58Z</time>
      </trkpt>
      <trkpt lat="49.09599" lon="0.66625">
        <ele>89</ele>
        <time>2014-08-24T06:55:59Z</time>
      </trkpt>
      <trkpt lat="49.09602" lon="0.66624">
        <ele>89</ele>
        <time>2014-08-24T06:56:00Z</time>
      </trkpt>
      <trkpt lat="49.09605" lon="0.66623">
        <ele>89</ele>
        <time>2014-08-24T06:56:01Z</time>
      </trkpt>
      <trkpt lat="49.09607" lon="0.66622">
        <ele>89</ele>
        <time>2014-08-24T06:56:02Z</time>
      </trkpt>
      <trkpt lat="49.09626" lon="0.6661">
        <ele>92</ele>
        <time>2014-08-24T06:56:10Z</time>
      </trkpt>
      <trkpt lat="49.09629" lon="0.66609">
        <ele>93</ele>
        <time>2014-08-24T06:56:11Z</time>
      </trkpt>
      <trkpt lat="49.09631" lon="0.66608">
        <ele>94</ele>
        <time>2014-08-24T06:56:12Z</time>
      </trkpt>
      <trkpt lat="49.09633" lon="0.66607">
        <ele>94</ele>
        <time>2014-08-24T06:56:13Z</time>
      </trkpt>
      <trkpt lat="49.09635" lon="0.66606">
        <ele>95</ele>
        <time>2014-08-24T06:56:14Z</time>
      </trkpt>
      <trkpt lat="49.09637" lon="0.66605">
        <ele>95</ele>
        <time>2014-08-24T06:56:15Z</time>
      </trkpt>
      <trkpt lat="49.09647" lon="0.66601">
        <ele>98</ele>
        <time>2014-08-24T06:56:20Z</time>
      </trkpt>
      <trkpt lat="49.09651" lon="0.66601">
        <ele>99</ele>
        <time>2014-08-24T06:56:22Z</time>
      </trkpt>
      <trkpt lat="49.09653" lon="0.66601">
        <ele>99</ele>
        <time>2014-08-24T06:56:23Z</time>
      </trkpt>
      <trkpt lat="49.09655" lon="0.666">
        <ele>100</ele>
        <time>2014-08-24T06:56:24Z</time>
      </trkpt>
      <trkpt lat="49.09657" lon="0.666">
        <ele>100</ele>
        <time>2014-08-24T06:56:25Z</time>
      </trkpt>
      <trkpt lat="49.09659" lon="0.66599">
        <ele>101</ele>
        <time>2014-08-24T06:56:26Z</time>
      </trkpt>
      <trkpt lat="49.09664" lon="0.666">
        <ele>102</ele>
        <time>2014-08-24T06:56:29Z</time>
      </trkpt>
      <trkpt lat="49.09665" lon="0.66602">
        <ele>102</ele>
        <time>2014-08-24T06:56:30Z</time>
      </trkpt>
      <trkpt lat="49.09666" lon="0.66601">
        <ele>102</ele>
        <time>2014-08-24T06:56:31Z</time>
      </trkpt>
      <trkpt lat="49.09667" lon="0.66606">
        <ele>102</ele>
        <time>2014-08-24T06:56:32Z</time>
      </trkpt>
      <trkpt lat="49.09668" lon="0.66611">
        <ele>102</ele>
        <time>2014-08-24T06:56:33Z</time>
      </trkpt>
      <trkpt lat="49.09669" lon="0.66613">
        <ele>102</ele>
        <time>2014-08-24T06:56:34Z</time>
      </trkpt>
      <trkpt lat="49.09671" lon="0.66632">
        <ele>103</ele>
        <time>2014-08-24T06:56:40Z</time>
      </trkpt>
      <trkpt lat="49.09671" lon="0.66655">
        <ele>102</ele>
        <time>2014-08-24T06:56:44Z</time>
      </trkpt>
      <trkpt lat="49.09664" lon="0.66691">
        <ele>101</ele>
        <time>2014-08-24T06:56:50Z</time>
      </trkpt>
      <trkpt lat="49.09659" lon="0.6671">
        <ele>100</ele>
        <time>2014-08-24T06:56:53Z</time>
      </trkpt>
      <trkpt lat="49.09658" lon="0.66715">
        <ele>100</ele>
        <time>2014-08-24T06:56:54Z</time>
      </trkpt>
      <trkpt lat="49.09659" lon="0.66721">
        <ele>100</ele>
        <time>2014-08-24T06:56:55Z</time>
      </trkpt>
      <trkpt lat="49.09659" lon="0.66729">
        <ele>100</ele>
        <time>2014-08-24T06:56:56Z</time>
      </trkpt>
      <trkpt lat="49.09658" lon="0.66736">
        <ele>100</ele>
        <time>2014-08-24T06:56:57Z</time>
      </trkpt>
      <trkpt lat="49.09661" lon="0.66773">
        <ele>101</ele>
        <time>2014-08-24T06:57:02Z</time>
      </trkpt>
      <trkpt lat="49.09661" lon="0.66819">
        <ele>101</ele>
        <time>2014-08-24T06:57:07Z</time>
      </trkpt>
      <trkpt lat="49.09656" lon="0.66846">
        <ele>101</ele>
        <time>2014-08-24T06:57:11Z</time>
      </trkpt>
      <trkpt lat="49.09657" lon="0.66857">
        <ele>102</ele>
        <time>2014-08-24T06:57:12Z</time>
      </trkpt>
      <trkpt lat="49.09656" lon="0.66866">
        <ele>102</ele>
        <time>2014-08-24T06:57:13Z</time>
      </trkpt>
      <trkpt lat="49.09655" lon="0.66875">
        <ele>103</ele>
        <time>2014-08-24T06:57:14Z</time>
      </trkpt>
      <trkpt lat="49.09654" lon="0.66882">
        <ele>102</ele>
        <time>2014-08-24T06:57:15Z</time>
      </trkpt>
      <trkpt lat="49.09652" lon="0.66889">
        <ele>103</ele>
        <time>2014-08-24T06:57:16Z</time>
      </trkpt>
      <trkpt lat="49.09652" lon="0.66894">
        <ele>103</ele>
        <time>2014-08-24T06:57:17Z</time>
      </trkpt>
      <trkpt lat="49.0965" lon="0.66901">
        <ele>103</ele>
        <time>2014-08-24T06:57:18Z</time>
      </trkpt>
      <trkpt lat="49.0965" lon="0.66908">
        <ele>103</ele>
        <time>2014-08-24T06:57:19Z</time>
      </trkpt>
      <trkpt lat="49.09649" lon="0.66915">
        <ele>102</ele>
        <time>2014-08-24T06:57:20Z</time>
      </trkpt>
      <trkpt lat="49.09644" lon="0.66946">
        <ele>100</ele>
        <time>2014-08-24T06:57:25Z</time>
      </trkpt>
      <trkpt lat="49.09639" lon="0.66971">
        <ele>98</ele>
        <time>2014-08-24T06:57:31Z</time>
      </trkpt>
      <trkpt lat="49.09626" lon="0.67009">
        <ele>93</ele>
        <time>2014-08-24T06:57:36Z</time>
      </trkpt>
      <trkpt lat="49.0961" lon="0.67047">
        <ele>92</ele>
        <time>2014-08-24T06:57:40Z</time>
      </trkpt>
      <trkpt lat="49.09605" lon="0.67055">
        <ele>92</ele>
        <time>2014-08-24T06:57:41Z</time>
      </trkpt>
      <trkpt lat="49.09599" lon="0.67064">
        <ele>92</ele>
        <time>2014-08-24T06:57:42Z</time>
      </trkpt>
      <trkpt lat="49.09595" lon="0.67072">
        <ele>92</ele>
        <time>2014-08-24T06:57:43Z</time>
      </trkpt>
      <trkpt lat="49.0959" lon="0.6708">
        <ele>92</ele>
        <time>2014-08-24T06:57:44Z</time>
      </trkpt>
      <trkpt lat="49.09577" lon="0.67097">
        <ele>91</ele>
        <time>2014-08-24T06:57:47Z</time>
      </trkpt>
      <trkpt lat="49.09567" lon="0.67105">
        <ele>90</ele>
        <time>2014-08-24T06:57:49Z</time>
      </trkpt>
      <trkpt lat="49.09556" lon="0.6711">
        <ele>90</ele>
        <time>2014-08-24T06:57:51Z</time>
      </trkpt>
      <trkpt lat="49.09542" lon="0.67112">
        <ele>89</ele>
        <time>2014-08-24T06:57:54Z</time>
      </trkpt>
      <trkpt lat="49.09533" lon="0.67112">
        <ele>89</ele>
        <time>2014-08-24T06:57:56Z</time>
      </trkpt>
      <trkpt lat="49.09525" lon="0.67112">
        <ele>89</ele>
        <time>2014-08-24T06:57:58Z</time>
      </trkpt>
      <trkpt lat="49.09502" lon="0.67108">
        <ele>90</ele>
        <time>2014-08-24T06:58:03Z</time>
      </trkpt>
      <trkpt lat="49.09469" lon="0.67101">
        <ele>90</ele>
        <time>2014-08-24T06:58:11Z</time>
      </trkpt>
      <trkpt lat="49.09452" lon="0.67095">
        <ele>91</ele>
        <time>2014-08-24T06:58:15Z</time>
      </trkpt>
      <trkpt lat="49.09442" lon="0.67092">
        <ele>91</ele>
        <time>2014-08-24T06:58:18Z</time>
      </trkpt>
      <trkpt lat="49.09417" lon="0.67092">
        <ele>90</ele>
        <time>2014-08-24T06:58:25Z</time>
      </trkpt>
      <trkpt lat="49.0939" lon="0.6709">
        <ele>90</ele>
        <time>2014-08-24T06:58:32Z</time>
      </trkpt>
      <trkpt lat="49.09366" lon="0.67097">
        <ele>89</ele>
        <time>2014-08-24T06:58:39Z</time>
      </trkpt>
      <trkpt lat="49.09354" lon="0.67101">
        <ele>89</ele>
        <time>2014-08-24T06:58:42Z</time>
      </trkpt>
      <trkpt lat="49.09343" lon="0.67109">
        <ele>90</ele>
        <time>2014-08-24T06:58:45Z</time>
      </trkpt>
      <trkpt lat="49.09319" lon="0.67119">
        <ele>89</ele>
        <time>2014-08-24T06:58:50Z</time>
      </trkpt>
      <trkpt lat="49.09286" lon="0.6713">
        <ele>89</ele>
        <time>2014-08-24T06:58:56Z</time>
      </trkpt>
      <trkpt lat="49.09255" lon="0.67139">
        <ele>89</ele>
        <time>2014-08-24T06:59:02Z</time>
      </trkpt>
      <trkpt lat="49.09229" lon="0.67148">
        <ele>88</ele>
        <time>2014-08-24T06:59:06Z</time>
      </trkpt>
      <trkpt lat="49.0921" lon="0.6716">
        <ele>88</ele>
        <time>2014-08-24T06:59:09Z</time>
      </trkpt>
      <trkpt lat="49.09199" lon="0.67165">
        <ele>88</ele>
        <time>2014-08-24T06:59:11Z</time>
      </trkpt>
      <trkpt lat="49.09179" lon="0.67182">
        <ele>87</ele>
        <time>2014-08-24T06:59:15Z</time>
      </trkpt>
      <trkpt lat="49.09166" lon="0.67195">
        <ele>87</ele>
        <time>2014-08-24T06:59:18Z</time>
      </trkpt>
      <trkpt lat="49.09161" lon="0.67187">
        <ele>87</ele>
        <time>2014-08-24T06:59:20Z</time>
      </trkpt>
      <trkpt lat="49.09162" lon="0.67171">
        <ele>87</ele>
        <time>2014-08-24T06:59:22Z</time>
      </trkpt>
      <trkpt lat="49.09162" lon="0.67155">
        <ele>87</ele>
        <time>2014-08-24T06:59:24Z</time>
      </trkpt>
      <trkpt lat="49.09161" lon="0.67086">
        <ele>88</ele>
        <time>2014-08-24T06:59:33Z</time>
      </trkpt>
      <trkpt lat="49.09156" lon="0.6702">
        <ele>90</ele>
        <time>2014-08-24T06:59:42Z</time>
      </trkpt>
      <trkpt lat="49.09153" lon="0.67014">
        <ele>90</ele>
        <time>2014-08-24T06:59:43Z</time>
      </trkpt>
      <trkpt lat="49.09139" lon="0.67006">
        <ele>90</ele>
        <time>2014-08-24T06:59:46Z</time>
      </trkpt>
      <trkpt lat="49.09128" lon="0.67009">
        <ele>90</ele>
        <time>2014-08-24T06:59:48Z</time>
      </trkpt>
      <trkpt lat="49.09119" lon="0.67012">
        <ele>90</ele>
        <time>2014-08-24T06:59:50Z</time>
      </trkpt>
      <trkpt lat="49.09106" lon="0.67018">
        <ele>90</ele>
        <time>2014-08-24T06:59:53Z</time>
      </trkpt>
      <trkpt lat="49.09102" lon="0.67019">
        <ele>90</ele>
        <time>2014-08-24T06:59:54Z</time>
      </trkpt>
      <trkpt lat="49.09098" lon="0.67021">
        <ele>90</ele>
        <time>2014-08-24T06:59:55Z</time>
      </trkpt>
      <trkpt lat="49.09094" lon="0.67023">
        <ele>90</ele>
        <time>2014-08-24T06:59:56Z</time>
      </trkpt>
      <trkpt lat="49.0909" lon="0.67025">
        <ele>90</ele>
        <time>2014-08-24T06:59:57Z</time>
      </trkpt>
      <trkpt lat="49.09085" lon="0.67026">
        <ele>90</ele>
        <time>2014-08-24T06:59:58Z</time>
      </trkpt>
      <trkpt lat="49.09066" lon="0.67035">
        <ele>89</ele>
        <time>2014-08-24T07:00:03Z</time>
      </trkpt>
      <trkpt lat="49.09062" lon="0.67037">
        <ele>89</ele>
        <time>2014-08-24T07:00:04Z</time>
      </trkpt>
      <trkpt lat="49.09058" lon="0.67039">
        <ele>89</ele>
        <time>2014-08-24T07:00:05Z</time>
      </trkpt>
      <trkpt lat="49.09054" lon="0.67041">
        <ele>89</ele>
        <time>2014-08-24T07:00:06Z</time>
      </trkpt>
      <trkpt lat="49.0905" lon="0.67043">
        <ele>89</ele>
        <time>2014-08-24T07:00:07Z</time>
      </trkpt>
      <trkpt lat="49.09035" lon="0.67052">
        <ele>89</ele>
        <time>2014-08-24T07:00:10Z</time>
      </trkpt>
      <trkpt lat="49.09016" lon="0.67061">
        <ele>89</ele>
        <time>2014-08-24T07:00:14Z</time>
      </trkpt>
      <trkpt lat="49.09011" lon="0.67063">
        <ele>88</ele>
        <time>2014-08-24T07:00:15Z</time>
      </trkpt>
      <trkpt lat="49.09006" lon="0.67065">
        <ele>88</ele>
        <time>2014-08-24T07:00:16Z</time>
      </trkpt>
      <trkpt lat="49.09001" lon="0.67067">
        <ele>88</ele>
        <time>2014-08-24T07:00:17Z</time>
      </trkpt>
      <trkpt lat="49.08996" lon="0.67069">
        <ele>88</ele>
        <time>2014-08-24T07:00:18Z</time>
      </trkpt>
      <trkpt lat="49.08952" lon="0.67078">
        <ele>86</ele>
        <time>2014-08-24T07:00:25Z</time>
      </trkpt>
      <trkpt lat="49.08937" lon="0.67081">
        <ele>86</ele>
        <time>2014-08-24T07:00:27Z</time>
      </trkpt>
      <trkpt lat="49.0893" lon="0.67082">
        <ele>86</ele>
        <time>2014-08-24T07:00:28Z</time>
      </trkpt>
      <trkpt lat="49.08921" lon="0.67083">
        <ele>86</ele>
        <time>2014-08-24T07:00:29Z</time>
      </trkpt>
      <trkpt lat="49.08913" lon="0.67084">
        <ele>85</ele>
        <time>2014-08-24T07:00:30Z</time>
      </trkpt>
      <trkpt lat="49.08905" lon="0.67086">
        <ele>85</ele>
        <time>2014-08-24T07:00:31Z</time>
      </trkpt>
      <trkpt lat="49.08896" lon="0.67087">
        <ele>85</ele>
        <time>2014-08-24T07:00:32Z</time>
      </trkpt>
      <trkpt lat="49.08887" lon="0.67087">
        <ele>85</ele>
        <time>2014-08-24T07:00:33Z</time>
      </trkpt>
      <trkpt lat="49.08877" lon="0.67088">
        <ele>85</ele>
        <time>2014-08-24T07:00:34Z</time>
      </trkpt>
      <trkpt lat="49.08868" lon="0.67088">
        <ele>85</ele>
        <time>2014-08-24T07:00:35Z</time>
      </trkpt>
      <trkpt lat="49.08858" lon="0.67088">
        <ele>85</ele>
        <time>2014-08-24T07:00:36Z</time>
      </trkpt>
      <trkpt lat="49.08848" lon="0.67086">
        <ele>85</ele>
        <time>2014-08-24T07:00:37Z</time>
      </trkpt>
      <trkpt lat="49.08839" lon="0.67083">
        <ele>85</ele>
        <time>2014-08-24T07:00:38Z</time>
      </trkpt>
      <trkpt lat="49.0883" lon="0.6708">
        <ele>85</ele>
        <time>2014-08-24T07:00:39Z</time>
      </trkpt>
      <trkpt lat="49.08821" lon="0.67076">
        <ele>85</ele>
        <time>2014-08-24T07:00:40Z</time>
      </trkpt>
      <trkpt lat="49.0879" lon="0.67058">
        <ele>85</ele>
        <time>2014-08-24T07:00:44Z</time>
      </trkpt>
      <trkpt lat="49.08778" lon="0.67048">
        <ele>85</ele>
        <time>2014-08-24T07:00:46Z</time>
      </trkpt>
      <trkpt lat="49.08768" lon="0.67041">
        <ele>85</ele>
        <time>2014-08-24T07:00:48Z</time>
      </trkpt>
      <trkpt lat="49.08763" lon="0.67042">
        <ele>86</ele>
        <time>2014-08-24T07:00:49Z</time>
      </trkpt>
      <trkpt lat="49.08745" lon="0.67038">
        <ele>88</ele>
        <time>2014-08-24T07:00:52Z</time>
      </trkpt>
      <trkpt lat="49.08741" lon="0.67032">
        <ele>88</ele>
        <time>2014-08-24T07:00:53Z</time>
      </trkpt>
      <trkpt lat="49.08737" lon="0.67009">
        <ele>89</ele>
        <time>2014-08-24T07:00:56Z</time>
      </trkpt>
      <trkpt lat="49.08739" lon="0.66994">
        <ele>88</ele>
        <time>2014-08-24T07:00:58Z</time>
      </trkpt>
      <trkpt lat="49.0874" lon="0.66987">
        <ele>88</ele>
        <time>2014-08-24T07:00:59Z</time>
      </trkpt>
      <trkpt lat="49.0874" lon="0.66979">
        <ele>88</ele>
        <time>2014-08-24T07:01:00Z</time>
      </trkpt>
      <trkpt lat="49.0874" lon="0.66972">
        <ele>88</ele>
        <time>2014-08-24T07:01:01Z</time>
      </trkpt>
      <trkpt lat="49.0874" lon="0.66964">
        <ele>88</ele>
        <time>2014-08-24T07:01:02Z</time>
      </trkpt>
      <trkpt lat="49.0874" lon="0.66957">
        <ele>88</ele>
        <time>2014-08-24T07:01:03Z</time>
      </trkpt>
      <trkpt lat="49.08739" lon="0.6694">
        <ele>88</ele>
        <time>2014-08-24T07:01:05Z</time>
      </trkpt>
      <trkpt lat="49.08738" lon="0.6693">
        <ele>88</ele>
        <time>2014-08-24T07:01:06Z</time>
      </trkpt>
      <trkpt lat="49.08728" lon="0.66883">
        <ele>88</ele>
        <time>2014-08-24T07:01:11Z</time>
      </trkpt>
      <trkpt lat="49.08721" lon="0.66838">
        <ele>88</ele>
        <time>2014-08-24T07:01:16Z</time>
      </trkpt>
      <trkpt lat="49.08705" lon="0.66777">
        <ele>90</ele>
        <time>2014-08-24T07:01:23Z</time>
      </trkpt>
      <trkpt lat="49.08696" lon="0.66736">
        <ele>91</ele>
        <time>2014-08-24T07:01:28Z</time>
      </trkpt>
      <trkpt lat="49.08695" lon="0.66728">
        <ele>91</ele>
        <time>2014-08-24T07:01:29Z</time>
      </trkpt>
      <trkpt lat="49.08689" lon="0.66706">
        <ele>91</ele>
        <time>2014-08-24T07:01:32Z</time>
      </trkpt>
      <trkpt lat="49.08686" lon="0.667">
        <ele>91</ele>
        <time>2014-08-24T07:01:33Z</time>
      </trkpt>
      <trkpt lat="49.08684" lon="0.66692">
        <ele>91</ele>
        <time>2014-08-24T07:01:34Z</time>
      </trkpt>
      <trkpt lat="49.08683" lon="0.66684">
        <ele>92</ele>
        <time>2014-08-24T07:01:35Z</time>
      </trkpt>
      <trkpt lat="49.0868" lon="0.66677">
        <ele>92</ele>
        <time>2014-08-24T07:01:36Z</time>
      </trkpt>
      <trkpt lat="49.08666" lon="0.66612">
        <ele>92</ele>
        <time>2014-08-24T07:01:45Z</time>
      </trkpt>
      <trkpt lat="49.08664" lon="0.66591">
        <ele>92</ele>
        <time>2014-08-24T07:01:48Z</time>
      </trkpt>
      <trkpt lat="49.08659" lon="0.66575">
        <ele>93</ele>
        <time>2014-08-24T07:01:50Z</time>
      </trkpt>
      <trkpt lat="49.08657" lon="0.66568">
        <ele>93</ele>
        <time>2014-08-24T07:01:51Z</time>
      </trkpt>
      <trkpt lat="49.08656" lon="0.6656">
        <ele>93</ele>
        <time>2014-08-24T07:01:52Z</time>
      </trkpt>
      <trkpt lat="49.08654" lon="0.66552">
        <ele>93</ele>
        <time>2014-08-24T07:01:53Z</time>
      </trkpt>
      <trkpt lat="49.08648" lon="0.66521">
        <ele>93</ele>
        <time>2014-08-24T07:01:57Z</time>
      </trkpt>
      <trkpt lat="49.08637" lon="0.66469">
        <ele>92</ele>
        <time>2014-08-24T07:02:04Z</time>
      </trkpt>
      <trkpt lat="49.08632" lon="0.66449">
        <ele>92</ele>
        <time>2014-08-24T07:02:07Z</time>
      </trkpt>
      <trkpt lat="49.0863" lon="0.6643">
        <ele>92</ele>
        <time>2014-08-24T07:02:10Z</time>
      </trkpt>
      <trkpt lat="49.0863" lon="0.66423">
        <ele>91</ele>
        <time>2014-08-24T07:02:11Z</time>
      </trkpt>
      <trkpt lat="49.08629" lon="0.66416">
        <ele>91</ele>
        <time>2014-08-24T07:02:12Z</time>
      </trkpt>
      <trkpt lat="49.08625" lon="0.6641">
        <ele>91</ele>
        <time>2014-08-24T07:02:13Z</time>
      </trkpt>
      <trkpt lat="49.08623" lon="0.66406">
        <ele>91</ele>
        <time>2014-08-24T07:02:14Z</time>
      </trkpt>
      <trkpt lat="49.08622" lon="0.66405">
        <ele>92</ele>
        <time>2014-08-24T07:02:15Z</time>
      </trkpt>
      <trkpt lat="49.08614" lon="0.6641">
        <ele>93</ele>
        <time>2014-08-24T07:02:19Z</time>
      </trkpt>
      <trkpt lat="49.08611" lon="0.66412">
        <ele>93</ele>
        <time>2014-08-24T07:02:20Z</time>
      </trkpt>
      <trkpt lat="49.08607" lon="0.66417">
        <ele>94</ele>
        <time>2014-08-24T07:02:23Z</time>
      </trkpt>
      <trkpt lat="49.08606" lon="0.66419">
        <ele>94</ele>
        <time>2014-08-24T07:02:24Z</time>
      </trkpt>
      <trkpt lat="49.08605" lon="0.6642">
        <ele>95</ele>
        <time>2014-08-24T07:02:25Z</time>
      </trkpt>
      <trkpt lat="49.08604" lon="0.66422">
        <ele>95</ele>
        <time>2014-08-24T07:02:26Z</time>
      </trkpt>
      <trkpt lat="49.08603" lon="0.66423">
        <ele>95</ele>
        <time>2014-08-24T07:02:27Z</time>
      </trkpt>
      <trkpt lat="49.086" lon="0.66423">
        <ele>95</ele>
        <time>2014-08-24T07:02:29Z</time>
      </trkpt>
      <trkpt lat="49.08598" lon="0.66424">
        <ele>96</ele>
        <time>2014-08-24T07:02:31Z</time>
      </trkpt>
      <trkpt lat="49.08597" lon="0.66425">
        <ele>96</ele>
        <time>2014-08-24T07:02:32Z</time>
      </trkpt>
      <trkpt lat="49.08596" lon="0.66426">
        <ele>96</ele>
        <time>2014-08-24T07:02:33Z</time>
      </trkpt>
      <trkpt lat="49.08594" lon="0.66427">
        <ele>96</ele>
        <time>2014-08-24T07:02:34Z</time>
      </trkpt>
      <trkpt lat="49.08592" lon="0.66428">
        <ele>96</ele>
        <time>2014-08-24T07:02:35Z</time>
      </trkpt>
      <trkpt lat="49.08586" lon="0.66431">
        <ele>97</ele>
        <time>2014-08-24T07:02:39Z</time>
      </trkpt>
      <trkpt lat="49.08583" lon="0.66431">
        <ele>98</ele>
        <time>2014-08-24T07:02:41Z</time>
      </trkpt>
      <trkpt lat="49.08582" lon="0.66432">
        <ele>98</ele>
        <time>2014-08-24T07:02:42Z</time>
      </trkpt>
      <trkpt lat="49.08581" lon="0.66432">
        <ele>98</ele>
        <time>2014-08-24T07:02:43Z</time>
      </trkpt>
      <trkpt lat="49.0858" lon="0.66432">
        <ele>98</ele>
        <time>2014-08-24T07:02:44Z</time>
      </trkpt>
      <trkpt lat="49.08577" lon="0.66433">
        <ele>99</ele>
        <time>2014-08-24T07:02:47Z</time>
      </trkpt>
      <trkpt lat="49.08575" lon="0.66434">
        <ele>99</ele>
        <time>2014-08-24T07:02:48Z</time>
      </trkpt>
      <trkpt lat="49.08575" lon="0.66434">
        <ele>99</ele>
        <time>2014-08-24T07:02:49Z</time>
      </trkpt>
      <trkpt lat="49.08573" lon="0.66436">
        <ele>100</ele>
        <time>2014-08-24T07:02:50Z</time>
      </trkpt>
      <trkpt lat="49.08571" lon="0.66436">
        <ele>100</ele>
        <time>2014-08-24T07:02:51Z</time>
      </trkpt>
      <trkpt lat="49.08569" lon="0.66436">
        <ele>101</ele>
        <time>2014-08-24T07:02:52Z</time>
      </trkpt>
      <trkpt lat="49.08568" lon="0.66437">
        <ele>101</ele>
        <time>2014-08-24T07:02:54Z</time>
      </trkpt>
      <trkpt lat="49.08568" lon="0.66437">
        <ele>101</ele>
        <time>2014-08-24T07:02:55Z</time>
      </trkpt>
      <trkpt lat="49.08506" lon="0.66476">
        <ele>113</ele>
        <time>2014-08-24T07:03:36Z</time>
      </trkpt>
      <trkpt lat="49.08505" lon="0.66478">
        <ele>113</ele>
        <time>2014-08-24T07:03:37Z</time>
      </trkpt>
      <trkpt lat="49.08503" lon="0.66479">
        <ele>114</ele>
        <time>2014-08-24T07:03:38Z</time>
      </trkpt>
      <trkpt lat="49.08501" lon="0.6648">
        <ele>114</ele>
        <time>2014-08-24T07:03:39Z</time>
      </trkpt>
      <trkpt lat="49.08499" lon="0.66481">
        <ele>114</ele>
        <time>2014-08-24T07:03:40Z</time>
      </trkpt>
      <trkpt lat="49.08486" lon="0.66485">
        <ele>117</ele>
        <time>2014-08-24T07:03:49Z</time>
      </trkpt>
      <trkpt lat="49.08484" lon="0.66484">
        <ele>118</ele>
        <time>2014-08-24T07:03:50Z</time>
      </trkpt>
      <trkpt lat="49.08482" lon="0.66485">
        <ele>118</ele>
        <time>2014-08-24T07:03:51Z</time>
      </trkpt>
      <trkpt lat="49.08478" lon="0.66486">
        <ele>119</ele>
        <time>2014-08-24T07:03:52Z</time>
      </trkpt>
      <trkpt lat="49.08475" lon="0.66487">
        <ele>120</ele>
        <time>2014-08-24T07:03:53Z</time>
      </trkpt>
      <trkpt lat="49.08469" lon="0.66491">
        <ele>122</ele>
        <time>2014-08-24T07:03:58Z</time>
      </trkpt>
      <trkpt lat="49.08465" lon="0.66493">
        <ele>123</ele>
        <time>2014-08-24T07:04:00Z</time>
      </trkpt>
      <trkpt lat="49.08464" lon="0.66494">
        <ele>123</ele>
        <time>2014-08-24T07:04:01Z</time>
      </trkpt>
      <trkpt lat="49.08462" lon="0.66495">
        <ele>124</ele>
        <time>2014-08-24T07:04:02Z</time>
      </trkpt>
      <trkpt lat="49.0846" lon="0.66496">
        <ele>125</ele>
        <time>2014-08-24T07:04:03Z</time>
      </trkpt>
      <trkpt lat="49.08458" lon="0.66497">
        <ele>125</ele>
        <time>2014-08-24T07:04:04Z</time>
      </trkpt>
      <trkpt lat="49.08455" lon="0.66499">
        <ele>126</ele>
        <time>2014-08-24T07:04:06Z</time>
      </trkpt>
      <trkpt lat="49.08454" lon="0.66499">
        <ele>126</ele>
        <time>2014-08-24T07:04:07Z</time>
      </trkpt>
      <trkpt lat="49.08453" lon="0.66499">
        <ele>127</ele>
        <time>2014-08-24T07:04:08Z</time>
      </trkpt>
      <trkpt lat="49.08452" lon="0.66499">
        <ele>127</ele>
        <time>2014-08-24T07:04:09Z</time>
      </trkpt>
      <trkpt lat="49.08451" lon="0.66499">
        <ele>127</ele>
        <time>2014-08-24T07:04:10Z</time>
      </trkpt>
      <trkpt lat="49.08447" lon="0.66498">
        <ele>128</ele>
        <time>2014-08-24T07:04:14Z</time>
      </trkpt>
      <trkpt lat="49.08446" lon="0.66499">
        <ele>129</ele>
        <time>2014-08-24T07:04:16Z</time>
      </trkpt>
      <trkpt lat="49.08446" lon="0.66498">
        <ele>129</ele>
        <time>2014-08-24T07:04:17Z</time>
      </trkpt>
      <trkpt lat="49.08442" lon="0.66498">
        <ele>130</ele>
        <time>2014-08-24T07:04:22Z</time>
      </trkpt>
      <trkpt lat="49.08438" lon="0.66498">
        <ele>130</ele>
        <time>2014-08-24T07:04:24Z</time>
      </trkpt>
      <trkpt lat="49.08436" lon="0.66498">
        <ele>131</ele>
        <time>2014-08-24T07:04:25Z</time>
      </trkpt>
      <trkpt lat="49.08434" lon="0.66498">
        <ele>132</ele>
        <time>2014-08-24T07:04:26Z</time>
      </trkpt>
      <trkpt lat="49.08431" lon="0.66498">
        <ele>132</ele>
        <time>2014-08-24T07:04:27Z</time>
      </trkpt>
      <trkpt lat="49.08428" lon="0.66498">
        <ele>133</ele>
        <time>2014-08-24T07:04:28Z</time>
      </trkpt>
      <trkpt lat="49.08426" lon="0.66497">
        <ele>133</ele>
        <time>2014-08-24T07:04:29Z</time>
      </trkpt>
      <trkpt lat="49.08421" lon="0.66495">
        <ele>135</ele>
        <time>2014-08-24T07:04:31Z</time>
      </trkpt>
      <trkpt lat="49.08415" lon="0.66496">
        <ele>136</ele>
        <time>2014-08-24T07:04:35Z</time>
      </trkpt>
      <trkpt lat="49.08412" lon="0.66497">
        <ele>137</ele>
        <time>2014-08-24T07:04:36Z</time>
      </trkpt>
      <trkpt lat="49.08411" lon="0.66498">
        <ele>137</ele>
        <time>2014-08-24T07:04:37Z</time>
      </trkpt>
      <trkpt lat="49.0841" lon="0.66499">
        <ele>137</ele>
        <time>2014-08-24T07:04:38Z</time>
      </trkpt>
      <trkpt lat="49.08409" lon="0.665">
        <ele>137</ele>
        <time>2014-08-24T07:04:39Z</time>
      </trkpt>
      <trkpt lat="49.084" lon="0.66503">
        <ele>139</ele>
        <time>2014-08-24T07:04:44Z</time>
      </trkpt>
      <trkpt lat="49.08397" lon="0.66504">
        <ele>140</ele>
        <time>2014-08-24T07:04:46Z</time>
      </trkpt>
      <trkpt lat="49.08396" lon="0.66504">
        <ele>140</ele>
        <time>2014-08-24T07:04:47Z</time>
      </trkpt>
      <trkpt lat="49.08395" lon="0.66506">
        <ele>140</ele>
        <time>2014-08-24T07:04:48Z</time>
      </trkpt>
      <trkpt lat="49.08394" lon="0.66506">
        <ele>140</ele>
        <time>2014-08-24T07:04:49Z</time>
      </trkpt>
      <trkpt lat="49.08392" lon="0.66507">
        <ele>140</ele>
        <time>2014-08-24T07:04:50Z</time>
      </trkpt>
      <trkpt lat="49.08391" lon="0.66508">
        <ele>140</ele>
        <time>2014-08-24T07:04:52Z</time>
      </trkpt>
      <trkpt lat="49.08389" lon="0.6651">
        <ele>141</ele>
        <time>2014-08-24T07:04:54Z</time>
      </trkpt>
      <trkpt lat="49.08388" lon="0.66511">
        <ele>141</ele>
        <time>2014-08-24T07:04:55Z</time>
      </trkpt>
      <trkpt lat="49.08352" lon="0.66525">
        <ele>145</ele>
        <time>2014-08-24T07:05:22Z</time>
      </trkpt>
      <trkpt lat="49.0835" lon="0.66525">
        <ele>145</ele>
        <time>2014-08-24T07:05:23Z</time>
      </trkpt>
      <trkpt lat="49.08345" lon="0.66526">
        <ele>145</ele>
        <time>2014-08-24T07:05:26Z</time>
      </trkpt>
      <trkpt lat="49.08343" lon="0.66527">
        <ele>145</ele>
        <time>2014-08-24T07:05:27Z</time>
      </trkpt>
      <trkpt lat="49.08342" lon="0.66527">
        <ele>145</ele>
        <time>2014-08-24T07:05:28Z</time>
      </trkpt>
      <trkpt lat="49.08341" lon="0.66528">
        <ele>145</ele>
        <time>2014-08-24T07:05:29Z</time>
      </trkpt>
      <trkpt lat="49.0834" lon="0.66528">
        <ele>145</ele>
        <time>2014-08-24T07:05:30Z</time>
      </trkpt>
      <trkpt lat="49.08336" lon="0.66529">
        <ele>146</ele>
        <time>2014-08-24T07:05:32Z</time>
      </trkpt>
      <trkpt lat="49.08321" lon="0.66529">
        <ele>147</ele>
        <time>2014-08-24T07:05:41Z</time>
      </trkpt>
      <trkpt lat="49.0832" lon="0.66529">
        <ele>147</ele>
        <time>2014-08-24T07:05:42Z</time>
      </trkpt>
      <trkpt lat="49.08318" lon="0.6653">
        <ele>147</ele>
        <time>2014-08-24T07:05:43Z</time>
      </trkpt>
      <trkpt lat="49.08316" lon="0.6653">
        <ele>147</ele>
        <time>2014-08-24T07:05:44Z</time>
      </trkpt>
      <trkpt lat="49.08312" lon="0.66532">
        <ele>147</ele>
        <time>2014-08-24T07:05:45Z</time>
      </trkpt>
      <trkpt lat="49.08309" lon="0.66537">
        <ele>147</ele>
        <time>2014-08-24T07:05:48Z</time>
      </trkpt>
      <trkpt lat="49.08307" lon="0.6654">
        <ele>147</ele>
        <time>2014-08-24T07:05:50Z</time>
      </trkpt>
      <trkpt lat="49.08307" lon="0.66541">
        <ele>147</ele>
        <time>2014-08-24T07:05:51Z</time>
      </trkpt>
      <trkpt lat="49.08308" lon="0.66542">
        <ele>147</ele>
        <time>2014-08-24T07:05:52Z</time>
      </trkpt>
      <trkpt lat="49.08308" lon="0.66543">
        <ele>147</ele>
        <time>2014-08-24T07:05:53Z</time>
      </trkpt>
      <trkpt lat="49.08309" lon="0.66544">
        <ele>147</ele>
        <time>2014-08-24T07:05:54Z</time>
      </trkpt>
      <trkpt lat="49.08309" lon="0.66545">
        <ele>147</ele>
        <time>2014-08-24T07:05:55Z</time>
      </trkpt>
      <trkpt lat="49.08314" lon="0.6656">
        <ele>147</ele>
        <time>2014-08-24T07:06:02Z</time>
      </trkpt>
      <trkpt lat="49.08315" lon="0.66566">
        <ele>147</ele>
        <time>2014-08-24T07:06:04Z</time>
      </trkpt>
      <trkpt lat="49.08316" lon="0.66568">
        <ele>147</ele>
        <time>2014-08-24T07:06:05Z</time>
      </trkpt>
      <trkpt lat="49.08316" lon="0.66571">
        <ele>147</ele>
        <time>2014-08-24T07:06:06Z</time>
      </trkpt>
      <trkpt lat="49.08318" lon="0.66574">
        <ele>147</ele>
        <time>2014-08-24T07:06:07Z</time>
      </trkpt>
      <trkpt lat="49.08319" lon="0.66577">
        <ele>147</ele>
        <time>2014-08-24T07:06:08Z</time>
      </trkpt>
      <trkpt lat="49.08328" lon="0.66595">
        <ele>146</ele>
        <time>2014-08-24T07:06:14Z</time>
      </trkpt>
      <trkpt lat="49.08336" lon="0.66616">
        <ele>146</ele>
        <time>2014-08-24T07:06:20Z</time>
      </trkpt>
      <trkpt lat="49.08338" lon="0.66622">
        <ele>147</ele>
        <time>2014-08-24T07:06:21Z</time>
      </trkpt>
      <trkpt lat="49.08339" lon="0.66626">
        <ele>147</ele>
        <time>2014-08-24T07:06:22Z</time>
      </trkpt>
      <trkpt lat="49.08339" lon="0.66629">
        <ele>147</ele>
        <time>2014-08-24T07:06:23Z</time>
      </trkpt>
      <trkpt lat="49.0834" lon="0.66633">
        <ele>147</ele>
        <time>2014-08-24T07:06:24Z</time>
      </trkpt>
      <trkpt lat="49.0834" lon="0.66637">
        <ele>147</ele>
        <time>2014-08-24T07:06:25Z</time>
      </trkpt>
      <trkpt lat="49.08346" lon="0.66666">
        <ele>149</ele>
        <time>2014-08-24T07:06:31Z</time>
      </trkpt>
      <trkpt lat="49.0835" lon="0.66686">
        <ele>150</ele>
        <time>2014-08-24T07:06:37Z</time>
      </trkpt>
      <trkpt lat="49.0835" lon="0.66689">
        <ele>150</ele>
        <time>2014-08-24T07:06:38Z</time>
      </trkpt>
      <trkpt lat="49.0835" lon="0.66693">
        <ele>150</ele>
        <time>2014-08-24T07:06:39Z</time>
      </trkpt>
      <trkpt lat="49.08351" lon="0.66699">
        <ele>150</ele>
        <time>2014-08-24T07:06:40Z</time>
      </trkpt>
      <trkpt lat="49.08351" lon="0.66702">
        <ele>150</ele>
        <time>2014-08-24T07:06:41Z</time>
      </trkpt>
      <trkpt lat="49.08352" lon="0.66707">
        <ele>150</ele>
        <time>2014-08-24T07:06:42Z</time>
      </trkpt>
      <trkpt lat="49.08356" lon="0.66721">
        <ele>150</ele>
        <time>2014-08-24T07:06:44Z</time>
      </trkpt>
      <trkpt lat="49.08367" lon="0.66766">
        <ele>150</ele>
        <time>2014-08-24T07:06:49Z</time>
      </trkpt>
      <trkpt lat="49.08376" lon="0.66793">
        <ele>150</ele>
        <time>2014-08-24T07:06:53Z</time>
      </trkpt>
      <trkpt lat="49.0838" lon="0.66808">
        <ele>150</ele>
        <time>2014-08-24T07:06:55Z</time>
      </trkpt>
      <trkpt lat="49.08393" lon="0.66853">
        <ele>149</ele>
        <time>2014-08-24T07:07:02Z</time>
      </trkpt>
      <trkpt lat="49.08396" lon="0.6686">
        <ele>149</ele>
        <time>2014-08-24T07:07:03Z</time>
      </trkpt>
      <trkpt lat="49.08406" lon="0.66893">
        <ele>149</ele>
        <time>2014-08-24T07:07:08Z</time>
      </trkpt>
      <trkpt lat="49.08421" lon="0.6693">
        <ele>149</ele>
        <time>2014-08-24T07:07:14Z</time>
      </trkpt>
      <trkpt lat="49.08429" lon="0.6694">
        <ele>148</ele>
        <time>2014-08-24T07:07:16Z</time>
      </trkpt>
      <trkpt lat="49.08439" lon="0.66974">
        <ele>148</ele>
        <time>2014-08-24T07:07:21Z</time>
      </trkpt>
      <trkpt lat="49.08457" lon="0.66987">
        <ele>147</ele>
        <time>2014-08-24T07:07:25Z</time>
      </trkpt>
      <trkpt lat="49.08462" lon="0.66988">
        <ele>147</ele>
        <time>2014-08-24T07:07:26Z</time>
      </trkpt>
      <trkpt lat="49.08467" lon="0.66991">
        <ele>147</ele>
        <time>2014-08-24T07:07:27Z</time>
      </trkpt>
      <trkpt lat="49.08472" lon="0.66993">
        <ele>146</ele>
        <time>2014-08-24T07:07:28Z</time>
      </trkpt>
      <trkpt lat="49.08478" lon="0.66995">
        <ele>146</ele>
        <time>2014-08-24T07:07:29Z</time>
      </trkpt>
      <trkpt lat="49.08484" lon="0.66991">
        <ele>146</ele>
        <time>2014-08-24T07:07:30Z</time>
      </trkpt>
      <trkpt lat="49.08489" lon="0.6699">
        <ele>145</ele>
        <time>2014-08-24T07:07:31Z</time>
      </trkpt>
      <trkpt lat="49.08511" lon="0.6698">
        <ele>144</ele>
        <time>2014-08-24T07:07:36Z</time>
      </trkpt>
      <trkpt lat="49.08515" lon="0.66977">
        <ele>143</ele>
        <time>2014-08-24T07:07:37Z</time>
      </trkpt>
      <trkpt lat="49.0852" lon="0.66979">
        <ele>143</ele>
        <time>2014-08-24T07:07:38Z</time>
      </trkpt>
      <trkpt lat="49.08524" lon="0.66983">
        <ele>143</ele>
        <time>2014-08-24T07:07:39Z</time>
      </trkpt>
      <trkpt lat="49.08525" lon="0.6699">
        <ele>143</ele>
        <time>2014-08-24T07:07:40Z</time>
      </trkpt>
      <trkpt lat="49.08524" lon="0.66995">
        <ele>143</ele>
        <time>2014-08-24T07:07:41Z</time>
      </trkpt>
      <trkpt lat="49.08524" lon="0.67008">
        <ele>143</ele>
        <time>2014-08-24T07:07:43Z</time>
      </trkpt>
      <trkpt lat="49.08525" lon="0.67014">
        <ele>143</ele>
        <time>2014-08-24T07:07:44Z</time>
      </trkpt>
      <trkpt lat="49.08525" lon="0.67019">
        <ele>143</ele>
        <time>2014-08-24T07:07:45Z</time>
      </trkpt>
      <trkpt lat="49.08525" lon="0.67025">
        <ele>143</ele>
        <time>2014-08-24T07:07:46Z</time>
      </trkpt>
      <trkpt lat="49.08525" lon="0.67031">
        <ele>143</ele>
        <time>2014-08-24T07:07:47Z</time>
      </trkpt>
      <trkpt lat="49.08523" lon="0.67037">
        <ele>143</ele>
        <time>2014-08-24T07:07:48Z</time>
      </trkpt>
      <trkpt lat="49.08524" lon="0.67051">
        <ele>143</ele>
        <time>2014-08-24T07:07:50Z</time>
      </trkpt>
      <trkpt lat="49.08525" lon="0.67063">
        <ele>143</ele>
        <time>2014-08-24T07:07:52Z</time>
      </trkpt>
      <trkpt lat="49.08526" lon="0.67071">
        <ele>143</ele>
        <time>2014-08-24T07:07:54Z</time>
      </trkpt>
      <trkpt lat="49.08525" lon="0.67092">
        <ele>144</ele>
        <time>2014-08-24T07:07:58Z</time>
      </trkpt>
      <trkpt lat="49.08523" lon="0.67106">
        <ele>144</ele>
        <time>2014-08-24T07:08:01Z</time>
      </trkpt>
      <trkpt lat="49.0852" lon="0.67119">
        <ele>145</ele>
        <time>2014-08-24T07:08:04Z</time>
      </trkpt>
      <trkpt lat="49.08519" lon="0.67123">
        <ele>145</ele>
        <time>2014-08-24T07:08:05Z</time>
      </trkpt>
      <trkpt lat="49.08517" lon="0.67126">
        <ele>145</ele>
        <time>2014-08-24T07:08:06Z</time>
      </trkpt>
      <trkpt lat="49.08515" lon="0.67129">
        <ele>145</ele>
        <time>2014-08-24T07:08:07Z</time>
      </trkpt>
      <trkpt lat="49.08515" lon="0.6713">
        <ele>145</ele>
        <time>2014-08-24T07:08:08Z</time>
      </trkpt>
      <trkpt lat="49.08505" lon="0.6715">
        <ele>146</ele>
        <time>2014-08-24T07:08:13Z</time>
      </trkpt>
      <trkpt lat="49.08488" lon="0.67183">
        <ele>147</ele>
        <time>2014-08-24T07:08:21Z</time>
      </trkpt>
      <trkpt lat="49.0848" lon="0.67187">
        <ele>148</ele>
        <time>2014-08-24T07:08:25Z</time>
      </trkpt>
      <trkpt lat="49.08478" lon="0.67192">
        <ele>148</ele>
        <time>2014-08-24T07:08:26Z</time>
      </trkpt>
      <trkpt lat="49.08475" lon="0.67196">
        <ele>148</ele>
        <time>2014-08-24T07:08:27Z</time>
      </trkpt>
      <trkpt lat="49.08473" lon="0.672">
        <ele>148</ele>
        <time>2014-08-24T07:08:28Z</time>
      </trkpt>
      <trkpt lat="49.08471" lon="0.67204">
        <ele>148</ele>
        <time>2014-08-24T07:08:29Z</time>
      </trkpt>
      <trkpt lat="49.08463" lon="0.67229">
        <ele>148</ele>
        <time>2014-08-24T07:08:35Z</time>
      </trkpt>
      <trkpt lat="49.0846" lon="0.67256">
        <ele>148</ele>
        <time>2014-08-24T07:08:40Z</time>
      </trkpt>
      <trkpt lat="49.08462" lon="0.67299">
        <ele>148</ele>
        <time>2014-08-24T07:08:45Z</time>
      </trkpt>
      <trkpt lat="49.08459" lon="0.67312">
        <ele>148</ele>
        <time>2014-08-24T07:08:47Z</time>
      </trkpt>
      <trkpt lat="49.08455" lon="0.67332">
        <ele>148</ele>
        <time>2014-08-24T07:08:50Z</time>
      </trkpt>
      <trkpt lat="49.08444" lon="0.67344">
        <ele>148</ele>
        <time>2014-08-24T07:08:52Z</time>
      </trkpt>
      <trkpt lat="49.08433" lon="0.67365">
        <ele>148</ele>
        <time>2014-08-24T07:08:55Z</time>
      </trkpt>
      <trkpt lat="49.08433" lon="0.67373">
        <ele>148</ele>
        <time>2014-08-24T07:08:56Z</time>
      </trkpt>
      <trkpt lat="49.08428" lon="0.67394">
        <ele>148</ele>
        <time>2014-08-24T07:09:00Z</time>
      </trkpt>
      <trkpt lat="49.08422" lon="0.67404">
        <ele>148</ele>
        <time>2014-08-24T07:09:06Z</time>
      </trkpt>
      <trkpt lat="49.0842" lon="0.67406">
        <ele>149</ele>
        <time>2014-08-24T07:09:12Z</time>
      </trkpt>
      <trkpt lat="49.0842" lon="0.67425">
        <ele>148</ele>
        <time>2014-08-24T07:09:18Z</time>
      </trkpt>
      <trkpt lat="49.08429" lon="0.67448">
        <ele>148</ele>
        <time>2014-08-24T07:09:23Z</time>
      </trkpt>
      <trkpt lat="49.08438" lon="0.67459">
        <ele>147</ele>
        <time>2014-08-24T07:09:26Z</time>
      </trkpt>
      <trkpt lat="49.08443" lon="0.67463">
        <ele>146</ele>
        <time>2014-08-24T07:09:27Z</time>
      </trkpt>
      <trkpt lat="49.08446" lon="0.67468">
        <ele>146</ele>
        <time>2014-08-24T07:09:28Z</time>
      </trkpt>
      <trkpt lat="49.08448" lon="0.67472">
        <ele>146</ele>
        <time>2014-08-24T07:09:29Z</time>
      </trkpt>
      <trkpt lat="49.0845" lon="0.67475">
        <ele>146</ele>
        <time>2014-08-24T07:09:30Z</time>
      </trkpt>
      <trkpt lat="49.08454" lon="0.6749">
        <ele>145</ele>
        <time>2014-08-24T07:09:34Z</time>
      </trkpt>
      <trkpt lat="49.08455" lon="0.67494">
        <ele>145</ele>
        <time>2014-08-24T07:09:35Z</time>
      </trkpt>
      <trkpt lat="49.08456" lon="0.67499">
        <ele>145</ele>
        <time>2014-08-24T07:09:36Z</time>
      </trkpt>
      <trkpt lat="49.08457" lon="0.67502">
        <ele>145</ele>
        <time>2014-08-24T07:09:37Z</time>
      </trkpt>
      <trkpt lat="49.08458" lon="0.67503">
        <ele>145</ele>
        <time>2014-08-24T07:09:38Z</time>
      </trkpt>
      <trkpt lat="49.08459" lon="0.67504">
        <ele>144</ele>
        <time>2014-08-24T07:09:39Z</time>
      </trkpt>
      <trkpt lat="49.0846" lon="0.67507">
        <ele>144</ele>
        <time>2014-08-24T07:09:40Z</time>
      </trkpt>
      <trkpt lat="49.08461" lon="0.6751">
        <ele>144</ele>
        <time>2014-08-24T07:09:41Z</time>
      </trkpt>
      <trkpt lat="49.08461" lon="0.67511">
        <ele>144</ele>
        <time>2014-08-24T07:09:42Z</time>
      </trkpt>
      <trkpt lat="49.08461" lon="0.67513">
        <ele>144</ele>
        <time>2014-08-24T07:09:43Z</time>
      </trkpt>
      <trkpt lat="49.08456" lon="0.6752">
        <ele>144</ele>
        <time>2014-08-24T07:09:46Z</time>
      </trkpt>
      <trkpt lat="49.08449" lon="0.67527">
        <ele>144</ele>
        <time>2014-08-24T07:09:49Z</time>
      </trkpt>
      <trkpt lat="49.08447" lon="0.67532">
        <ele>145</ele>
        <time>2014-08-24T07:09:50Z</time>
      </trkpt>
      <trkpt lat="49.08439" lon="0.67542">
        <ele>145</ele>
        <time>2014-08-24T07:09:53Z</time>
      </trkpt>
      <trkpt lat="49.08436" lon="0.67547">
        <ele>145</ele>
        <time>2014-08-24T07:09:54Z</time>
      </trkpt>
      <trkpt lat="49.08434" lon="0.67551">
        <ele>146</ele>
        <time>2014-08-24T07:09:55Z</time>
      </trkpt>
      <trkpt lat="49.08431" lon="0.67555">
        <ele>146</ele>
        <time>2014-08-24T07:09:56Z</time>
      </trkpt>
      <trkpt lat="49.0843" lon="0.67559">
        <ele>146</ele>
        <time>2014-08-24T07:09:57Z</time>
      </trkpt>
      <trkpt lat="49.08428" lon="0.67565">
        <ele>146</ele>
        <time>2014-08-24T07:09:58Z</time>
      </trkpt>
      <trkpt lat="49.08424" lon="0.6758">
        <ele>146</ele>
        <time>2014-08-24T07:10:01Z</time>
      </trkpt>
      <trkpt lat="49.08411" lon="0.67603">
        <ele>146</ele>
        <time>2014-08-24T07:10:06Z</time>
      </trkpt>
      <trkpt lat="49.08396" lon="0.6762">
        <ele>147</ele>
        <time>2014-08-24T07:10:11Z</time>
      </trkpt>
      <trkpt lat="49.08378" lon="0.67639">
        <ele>147</ele>
        <time>2014-08-24T07:10:18Z</time>
      </trkpt>
      <trkpt lat="49.08359" lon="0.67665">
        <ele>147</ele>
        <time>2014-08-24T07:10:24Z</time>
      </trkpt>
      <trkpt lat="49.08348" lon="0.6769">
        <ele>146</ele>
        <time>2014-08-24T07:10:29Z</time>
      </trkpt>
      <trkpt lat="49.08348" lon="0.67717">
        <ele>145</ele>
        <time>2014-08-24T07:10:33Z</time>
      </trkpt>
      <trkpt lat="49.08349" lon="0.67754">
        <ele>144</ele>
        <time>2014-08-24T07:10:38Z</time>
      </trkpt>
      <trkpt lat="49.08347" lon="0.67761">
        <ele>144</ele>
        <time>2014-08-24T07:10:39Z</time>
      </trkpt>
      <trkpt lat="49.08341" lon="0.67783">
        <ele>144</ele>
        <time>2014-08-24T07:10:42Z</time>
      </trkpt>
      <trkpt lat="49.08339" lon="0.67789">
        <ele>144</ele>
        <time>2014-08-24T07:10:43Z</time>
      </trkpt>
      <trkpt lat="49.08333" lon="0.67808">
        <ele>145</ele>
        <time>2014-08-24T07:10:46Z</time>
      </trkpt>
      <trkpt lat="49.08331" lon="0.67817">
        <ele>145</ele>
        <time>2014-08-24T07:10:47Z</time>
      </trkpt>
      <trkpt lat="49.08329" lon="0.67823">
        <ele>145</ele>
        <time>2014-08-24T07:10:48Z</time>
      </trkpt>
      <trkpt lat="49.08329" lon="0.67828">
        <ele>145</ele>
        <time>2014-08-24T07:10:49Z</time>
      </trkpt>
      <trkpt lat="49.08328" lon="0.67834">
        <ele>145</ele>
        <time>2014-08-24T07:10:50Z</time>
      </trkpt>
      <trkpt lat="49.08326" lon="0.67841">
        <ele>145</ele>
        <time>2014-08-24T07:10:51Z</time>
      </trkpt>
      <trkpt lat="49.08322" lon="0.67858">
        <ele>145</ele>
        <time>2014-08-24T07:10:54Z</time>
      </trkpt>
      <trkpt lat="49.08319" lon="0.6787">
        <ele>145</ele>
        <time>2014-08-24T07:10:56Z</time>
      </trkpt>
      <trkpt lat="49.08314" lon="0.67884">
        <ele>146</ele>
        <time>2014-08-24T07:10:59Z</time>
      </trkpt>
      <trkpt lat="49.08308" lon="0.67904">
        <ele>146</ele>
        <time>2014-08-24T07:11:04Z</time>
      </trkpt>
      <trkpt lat="49.08299" lon="0.67929">
        <ele>147</ele>
        <time>2014-08-24T07:11:08Z</time>
      </trkpt>
      <trkpt lat="49.08297" lon="0.67936">
        <ele>147</ele>
        <time>2014-08-24T07:11:09Z</time>
      </trkpt>
      <trkpt lat="49.08293" lon="0.67954">
        <ele>147</ele>
        <time>2014-08-24T07:11:12Z</time>
      </trkpt>
      <trkpt lat="49.08292" lon="0.6796">
        <ele>148</ele>
        <time>2014-08-24T07:11:13Z</time>
      </trkpt>
      <trkpt lat="49.08291" lon="0.67967">
        <ele>148</ele>
        <time>2014-08-24T07:11:14Z</time>
      </trkpt>
      <trkpt lat="49.0829" lon="0.67972">
        <ele>148</ele>
        <time>2014-08-24T07:11:15Z</time>
      </trkpt>
      <trkpt lat="49.08289" lon="0.67977">
        <ele>148</ele>
        <time>2014-08-24T07:11:16Z</time>
      </trkpt>
      <trkpt lat="49.08286" lon="0.67996">
        <ele>148</ele>
        <time>2014-08-24T07:11:19Z</time>
      </trkpt>
      <trkpt lat="49.08287" lon="0.68031">
        <ele>148</ele>
        <time>2014-08-24T07:11:24Z</time>
      </trkpt>
      <trkpt lat="49.08303" lon="0.68072">
        <ele>148</ele>
        <time>2014-08-24T07:11:29Z</time>
      </trkpt>
      <trkpt lat="49.08309" lon="0.68081">
        <ele>148</ele>
        <time>2014-08-24T07:11:30Z</time>
      </trkpt>
      <trkpt lat="49.08314" lon="0.68092">
        <ele>148</ele>
        <time>2014-08-24T07:11:32Z</time>
      </trkpt>
      <trkpt lat="49.08329" lon="0.68124">
        <ele>148</ele>
        <time>2014-08-24T07:11:37Z</time>
      </trkpt>
      <trkpt lat="49.08333" lon="0.6813">
        <ele>148</ele>
        <time>2014-08-24T07:11:38Z</time>
      </trkpt>
      <trkpt lat="49.0835" lon="0.68162">
        <ele>147</ele>
        <time>2014-08-24T07:11:43Z</time>
      </trkpt>
      <trkpt lat="49.08355" lon="0.68171">
        <ele>147</ele>
        <time>2014-08-24T07:11:44Z</time>
      </trkpt>
      <trkpt lat="49.0836" lon="0.68179">
        <ele>146</ele>
        <time>2014-08-24T07:11:45Z</time>
      </trkpt>
      <trkpt lat="49.08365" lon="0.68186">
        <ele>146</ele>
        <time>2014-08-24T07:11:46Z</time>
      </trkpt>
      <trkpt lat="49.08369" lon="0.68192">
        <ele>146</ele>
        <time>2014-08-24T07:11:47Z</time>
      </trkpt>
      <trkpt lat="49.08372" lon="0.68198">
        <ele>146</ele>
        <time>2014-08-24T07:11:48Z</time>
      </trkpt>
      <trkpt lat="49.08375" lon="0.68203">
        <ele>146</ele>
        <time>2014-08-24T07:11:49Z</time>
      </trkpt>
      <trkpt lat="49.08378" lon="0.6821">
        <ele>146</ele>
        <time>2014-08-24T07:11:50Z</time>
      </trkpt>
      <trkpt lat="49.08389" lon="0.68232">
        <ele>145</ele>
        <time>2014-08-24T07:11:53Z</time>
      </trkpt>
      <trkpt lat="49.08392" lon="0.6824">
        <ele>145</ele>
        <time>2014-08-24T07:11:54Z</time>
      </trkpt>
      <trkpt lat="49.08397" lon="0.68249">
        <ele>145</ele>
        <time>2014-08-24T07:11:55Z</time>
      </trkpt>
      <trkpt lat="49.084" lon="0.68257">
        <ele>145</ele>
        <time>2014-08-24T07:11:56Z</time>
      </trkpt>
      <trkpt lat="49.08403" lon="0.68266">
        <ele>144</ele>
        <time>2014-08-24T07:11:57Z</time>
      </trkpt>
      <trkpt lat="49.08405" lon="0.68273">
        <ele>144</ele>
        <time>2014-08-24T07:11:58Z</time>
      </trkpt>
      <trkpt lat="49.08412" lon="0.68289">
        <ele>144</ele>
        <time>2014-08-24T07:12:00Z</time>
      </trkpt>
      <trkpt lat="49.08416" lon="0.68297">
        <ele>144</ele>
        <time>2014-08-24T07:12:01Z</time>
      </trkpt>
      <trkpt lat="49.08418" lon="0.68304">
        <ele>144</ele>
        <time>2014-08-24T07:12:02Z</time>
      </trkpt>
      <trkpt lat="49.08422" lon="0.68311">
        <ele>144</ele>
        <time>2014-08-24T07:12:03Z</time>
      </trkpt>
      <trkpt lat="49.08425" lon="0.68318">
        <ele>144</ele>
        <time>2014-08-24T07:12:04Z</time>
      </trkpt>
      <trkpt lat="49.08434" lon="0.68336">
        <ele>143</ele>
        <time>2014-08-24T07:12:06Z</time>
      </trkpt>
      <trkpt lat="49.08438" lon="0.68344">
        <ele>142</ele>
        <time>2014-08-24T07:12:07Z</time>
      </trkpt>
      <trkpt lat="49.08442" lon="0.68354">
        <ele>141</ele>
        <time>2014-08-24T07:12:08Z</time>
      </trkpt>
      <trkpt lat="49.08446" lon="0.68366">
        <ele>141</ele>
        <time>2014-08-24T07:12:09Z</time>
      </trkpt>
      <trkpt lat="49.08453" lon="0.68376">
        <ele>140</ele>
        <time>2014-08-24T07:12:10Z</time>
      </trkpt>
      <trkpt lat="49.08457" lon="0.68383">
        <ele>139</ele>
        <time>2014-08-24T07:12:11Z</time>
      </trkpt>
      <trkpt lat="49.08462" lon="0.68391">
        <ele>138</ele>
        <time>2014-08-24T07:12:12Z</time>
      </trkpt>
      <trkpt lat="49.08468" lon="0.684">
        <ele>137</ele>
        <time>2014-08-24T07:12:13Z</time>
      </trkpt>
      <trkpt lat="49.08474" lon="0.68411">
        <ele>135</ele>
        <time>2014-08-24T07:12:14Z</time>
      </trkpt>
      <trkpt lat="49.08479" lon="0.68421">
        <ele>134</ele>
        <time>2014-08-24T07:12:15Z</time>
      </trkpt>
      <trkpt lat="49.08483" lon="0.68432">
        <ele>133</ele>
        <time>2014-08-24T07:12:16Z</time>
      </trkpt>
      <trkpt lat="49.08488" lon="0.68443">
        <ele>131</ele>
        <time>2014-08-24T07:12:17Z</time>
      </trkpt>
      <trkpt lat="49.08493" lon="0.68453">
        <ele>130</ele>
        <time>2014-08-24T07:12:18Z</time>
      </trkpt>
      <trkpt lat="49.08497" lon="0.68463">
        <ele>129</ele>
        <time>2014-08-24T07:12:19Z</time>
      </trkpt>
      <trkpt lat="49.08502" lon="0.68473">
        <ele>129</ele>
        <time>2014-08-24T07:12:20Z</time>
      </trkpt>
      <trkpt lat="49.08508" lon="0.68483">
        <ele>128</ele>
        <time>2014-08-24T07:12:21Z</time>
      </trkpt>
      <trkpt lat="49.08516" lon="0.68492">
        <ele>127</ele>
        <time>2014-08-24T07:12:22Z</time>
      </trkpt>
      <trkpt lat="49.08523" lon="0.68498">
        <ele>125</ele>
        <time>2014-08-24T07:12:23Z</time>
      </trkpt>
      <trkpt lat="49.08529" lon="0.68505">
        <ele>124</ele>
        <time>2014-08-24T07:12:24Z</time>
      </trkpt>
      <trkpt lat="49.08535" lon="0.68513">
        <ele>122</ele>
        <time>2014-08-24T07:12:25Z</time>
      </trkpt>
      <trkpt lat="49.08541" lon="0.68521">
        <ele>121</ele>
        <time>2014-08-24T07:12:26Z</time>
      </trkpt>
      <trkpt lat="49.08545" lon="0.68528">
        <ele>120</ele>
        <time>2014-08-24T07:12:27Z</time>
      </trkpt>
      <trkpt lat="49.08548" lon="0.68537">
        <ele>120</ele>
        <time>2014-08-24T07:12:28Z</time>
      </trkpt>
      <trkpt lat="49.0855" lon="0.68546">
        <ele>120</ele>
        <time>2014-08-24T07:12:29Z</time>
      </trkpt>
      <trkpt lat="49.08554" lon="0.68556">
        <ele>120</ele>
        <time>2014-08-24T07:12:30Z</time>
      </trkpt>
      <trkpt lat="49.08559" lon="0.68565">
        <ele>120</ele>
        <time>2014-08-24T07:12:31Z</time>
      </trkpt>
      <trkpt lat="49.08563" lon="0.68575">
        <ele>119</ele>
        <time>2014-08-24T07:12:32Z</time>
      </trkpt>
      <trkpt lat="49.08568" lon="0.68584">
        <ele>119</ele>
        <time>2014-08-24T07:12:33Z</time>
      </trkpt>
      <trkpt lat="49.08572" lon="0.68593">
        <ele>118</ele>
        <time>2014-08-24T07:12:34Z</time>
      </trkpt>
      <trkpt lat="49.08574" lon="0.68605">
        <ele>118</ele>
        <time>2014-08-24T07:12:35Z</time>
      </trkpt>
      <trkpt lat="49.08579" lon="0.68616">
        <ele>116</ele>
        <time>2014-08-24T07:12:36Z</time>
      </trkpt>
      <trkpt lat="49.08583" lon="0.68627">
        <ele>115</ele>
        <time>2014-08-24T07:12:37Z</time>
      </trkpt>
      <trkpt lat="49.08586" lon="0.68639">
        <ele>115</ele>
        <time>2014-08-24T07:12:38Z</time>
      </trkpt>
      <trkpt lat="49.08593" lon="0.6865">
        <ele>113</ele>
        <time>2014-08-24T07:12:39Z</time>
      </trkpt>
      <trkpt lat="49.08595" lon="0.6866">
        <ele>112</ele>
        <time>2014-08-24T07:12:40Z</time>
      </trkpt>
      <trkpt lat="49.08598" lon="0.6867">
        <ele>111</ele>
        <time>2014-08-24T07:12:41Z</time>
      </trkpt>
      <trkpt lat="49.08603" lon="0.6868">
        <ele>110</ele>
        <time>2014-08-24T07:12:42Z</time>
      </trkpt>
      <trkpt lat="49.08609" lon="0.68689">
        <ele>108</ele>
        <time>2014-08-24T07:12:43Z</time>
      </trkpt>
      <trkpt lat="49.08613" lon="0.68694">
        <ele>107</ele>
        <time>2014-08-24T07:12:44Z</time>
      </trkpt>
      <trkpt lat="49.08621" lon="0.68702">
        <ele>106</ele>
        <time>2014-08-24T07:12:45Z</time>
      </trkpt>
      <trkpt lat="49.08628" lon="0.68708">
        <ele>105</ele>
        <time>2014-08-24T07:12:46Z</time>
      </trkpt>
      <trkpt lat="49.08643" lon="0.68722">
        <ele>102</ele>
        <time>2014-08-24T07:12:47Z</time>
      </trkpt>
      <trkpt lat="49.0866" lon="0.68737">
        <ele>100</ele>
        <time>2014-08-24T07:12:48Z</time>
      </trkpt>
      <trkpt lat="49.08674" lon="0.68751">
        <ele>98</ele>
        <time>2014-08-24T07:12:49Z</time>
      </trkpt>
      <trkpt lat="49.08687" lon="0.68761">
        <ele>97</ele>
        <time>2014-08-24T07:12:50Z</time>
      </trkpt>
      <trkpt lat="49.08699" lon="0.68772">
        <ele>96</ele>
        <time>2014-08-24T07:12:51Z</time>
      </trkpt>
      <trkpt lat="49.08713" lon="0.68786">
        <ele>95</ele>
        <time>2014-08-24T07:12:52Z</time>
      </trkpt>
      <trkpt lat="49.08722" lon="0.68796">
        <ele>95</ele>
        <time>2014-08-24T07:12:53Z</time>
      </trkpt>
      <trkpt lat="49.08727" lon="0.68805">
        <ele>95</ele>
        <time>2014-08-24T07:12:54Z</time>
      </trkpt>
      <trkpt lat="49.08732" lon="0.68813">
        <ele>95</ele>
        <time>2014-08-24T07:12:55Z</time>
      </trkpt>
      <trkpt lat="49.08737" lon="0.68822">
        <ele>95</ele>
        <time>2014-08-24T07:12:56Z</time>
      </trkpt>
      <trkpt lat="49.08742" lon="0.6883">
        <ele>95</ele>
        <time>2014-08-24T07:12:57Z</time>
      </trkpt>
      <trkpt lat="49.08747" lon="0.68837">
        <ele>95</ele>
        <time>2014-08-24T07:12:58Z</time>
      </trkpt>
      <trkpt lat="49.08759" lon="0.68861">
        <ele>95</ele>
        <time>2014-08-24T07:13:01Z</time>
      </trkpt>
      <trkpt lat="49.08768" lon="0.68876">
        <ele>94</ele>
        <time>2014-08-24T07:13:03Z</time>
      </trkpt>
      <trkpt lat="49.08776" lon="0.6889">
        <ele>94</ele>
        <time>2014-08-24T07:13:05Z</time>
      </trkpt>
      <trkpt lat="49.08781" lon="0.68898">
        <ele>94</ele>
        <time>2014-08-24T07:13:06Z</time>
      </trkpt>
      <trkpt lat="49.08786" lon="0.68905">
        <ele>94</ele>
        <time>2014-08-24T07:13:07Z</time>
      </trkpt>
      <trkpt lat="49.08792" lon="0.68912">
        <ele>94</ele>
        <time>2014-08-24T07:13:08Z</time>
      </trkpt>
      <trkpt lat="49.08797" lon="0.6892">
        <ele>94</ele>
        <time>2014-08-24T07:13:09Z</time>
      </trkpt>
      <trkpt lat="49.08807" lon="0.68935">
        <ele>94</ele>
        <time>2014-08-24T07:13:11Z</time>
      </trkpt>
      <trkpt lat="49.08814" lon="0.68952">
        <ele>94</ele>
        <time>2014-08-24T07:13:13Z</time>
      </trkpt>
      <trkpt lat="49.08825" lon="0.68975">
        <ele>93</ele>
        <time>2014-08-24T07:13:16Z</time>
      </trkpt>
      <trkpt lat="49.08837" lon="0.68997">
        <ele>93</ele>
        <time>2014-08-24T07:13:19Z</time>
      </trkpt>
      <trkpt lat="49.08841" lon="0.69003">
        <ele>93</ele>
        <time>2014-08-24T07:13:20Z</time>
      </trkpt>
      <trkpt lat="49.08848" lon="0.69017">
        <ele>94</ele>
        <time>2014-08-24T07:13:22Z</time>
      </trkpt>
      <trkpt lat="49.08849" lon="0.69022">
        <ele>94</ele>
        <time>2014-08-24T07:13:23Z</time>
      </trkpt>
      <trkpt lat="49.08852" lon="0.69029">
        <ele>94</ele>
        <time>2014-08-24T07:13:24Z</time>
      </trkpt>
      <trkpt lat="49.08876" lon="0.69065">
        <ele>94</ele>
        <time>2014-08-24T07:13:29Z</time>
      </trkpt>
      <trkpt lat="49.08879" lon="0.69072">
        <ele>94</ele>
        <time>2014-08-24T07:13:30Z</time>
      </trkpt>
      <trkpt lat="49.08904" lon="0.69121">
        <ele>94</ele>
        <time>2014-08-24T07:13:37Z</time>
      </trkpt>
      <trkpt lat="49.08928" lon="0.69166">
        <ele>94</ele>
        <time>2014-08-24T07:13:44Z</time>
      </trkpt>
      <trkpt lat="49.08943" lon="0.69195">
        <ele>93</ele>
        <time>2014-08-24T07:13:49Z</time>
      </trkpt>
      <trkpt lat="49.08968" lon="0.69243">
        <ele>93</ele>
        <time>2014-08-24T07:13:56Z</time>
      </trkpt>
      <trkpt lat="49.08986" lon="0.69281">
        <ele>93</ele>
        <time>2014-08-24T07:14:01Z</time>
      </trkpt>
      <trkpt lat="49.08995" lon="0.69297">
        <ele>93</ele>
        <time>2014-08-24T07:14:03Z</time>
      </trkpt>
      <trkpt lat="49.0903" lon="0.69364">
        <ele>91</ele>
        <time>2014-08-24T07:14:11Z</time>
      </trkpt>
      <trkpt lat="49.09035" lon="0.69371">
        <ele>91</ele>
        <time>2014-08-24T07:14:12Z</time>
      </trkpt>
      <trkpt lat="49.09039" lon="0.69378">
        <ele>91</ele>
        <time>2014-08-24T07:14:13Z</time>
      </trkpt>
      <trkpt lat="49.09043" lon="0.69385">
        <ele>91</ele>
        <time>2014-08-24T07:14:14Z</time>
      </trkpt>
      <trkpt lat="49.09046" lon="0.6939">
        <ele>91</ele>
        <time>2014-08-24T07:14:15Z</time>
      </trkpt>
      <trkpt lat="49.09048" lon="0.69396">
        <ele>91</ele>
        <time>2014-08-24T07:14:16Z</time>
      </trkpt>
      <trkpt lat="49.09051" lon="0.69402">
        <ele>91</ele>
        <time>2014-08-24T07:14:17Z</time>
      </trkpt>
      <trkpt lat="49.09064" lon="0.69404">
        <ele>90</ele>
        <time>2014-08-24T07:14:20Z</time>
      </trkpt>
      <trkpt lat="49.09071" lon="0.69403">
        <ele>90</ele>
        <time>2014-08-24T07:14:21Z</time>
      </trkpt>
      <trkpt lat="49.09104" lon="0.69389">
        <ele>89</ele>
        <time>2014-08-24T07:14:26Z</time>
      </trkpt>
      <trkpt lat="49.09111" lon="0.69385">
        <ele>89</ele>
        <time>2014-08-24T07:14:27Z</time>
      </trkpt>
      <trkpt lat="49.09134" lon="0.69353">
        <ele>88</ele>
        <time>2014-08-24T07:14:31Z</time>
      </trkpt>
      <trkpt lat="49.09138" lon="0.69344">
        <ele>88</ele>
        <time>2014-08-24T07:14:32Z</time>
      </trkpt>
      <trkpt lat="49.09144" lon="0.69335">
        <ele>88</ele>
        <time>2014-08-24T07:14:33Z</time>
      </trkpt>
      <trkpt lat="49.09148" lon="0.69326">
        <ele>87</ele>
        <time>2014-08-24T07:14:34Z</time>
      </trkpt>
      <trkpt lat="49.09153" lon="0.69316">
        <ele>87</ele>
        <time>2014-08-24T07:14:35Z</time>
      </trkpt>
      <trkpt lat="49.09158" lon="0.69306">
        <ele>87</ele>
        <time>2014-08-24T07:14:36Z</time>
      </trkpt>
      <trkpt lat="49.09164" lon="0.69296">
        <ele>87</ele>
        <time>2014-08-24T07:14:37Z</time>
      </trkpt>
      <trkpt lat="49.09169" lon="0.69286">
        <ele>87</ele>
        <time>2014-08-24T07:14:38Z</time>
      </trkpt>
      <trkpt lat="49.09185" lon="0.69264">
        <ele>86</ele>
        <time>2014-08-24T07:14:41Z</time>
      </trkpt>
      <trkpt lat="49.09192" lon="0.69264">
        <ele>86</ele>
        <time>2014-08-24T07:14:42Z</time>
      </trkpt>
      <trkpt lat="49.09197" lon="0.69268">
        <ele>86</ele>
        <time>2014-08-24T07:14:43Z</time>
      </trkpt>
      <trkpt lat="49.09203" lon="0.69276">
        <ele>86</ele>
        <time>2014-08-24T07:14:44Z</time>
      </trkpt>
      <trkpt lat="49.09209" lon="0.69282">
        <ele>86</ele>
        <time>2014-08-24T07:14:45Z</time>
      </trkpt>
      <trkpt lat="49.09237" lon="0.69307">
        <ele>86</ele>
        <time>2014-08-24T07:14:50Z</time>
      </trkpt>
      <trkpt lat="49.09288" lon="0.69351">
        <ele>86</ele>
        <time>2014-08-24T07:14:59Z</time>
      </trkpt>
      <trkpt lat="49.09294" lon="0.69356">
        <ele>86</ele>
        <time>2014-08-24T07:15:00Z</time>
      </trkpt>
      <trkpt lat="49.09338" lon="0.69396">
        <ele>85</ele>
        <time>2014-08-24T07:15:07Z</time>
      </trkpt>
      <trkpt lat="49.09348" lon="0.69424">
        <ele>86</ele>
        <time>2014-08-24T07:15:10Z</time>
      </trkpt>
      <trkpt lat="49.09353" lon="0.69457">
        <ele>86</ele>
        <time>2014-08-24T07:15:14Z</time>
      </trkpt>
      <trkpt lat="49.09353" lon="0.69464">
        <ele>87</ele>
        <time>2014-08-24T07:15:15Z</time>
      </trkpt>
      <trkpt lat="49.09353" lon="0.6947">
        <ele>87</ele>
        <time>2014-08-24T07:15:16Z</time>
      </trkpt>
      <trkpt lat="49.09352" lon="0.69486">
        <ele>88</ele>
        <time>2014-08-24T07:15:19Z</time>
      </trkpt>
      <trkpt lat="49.0935" lon="0.695">
        <ele>88</ele>
        <time>2014-08-24T07:15:22Z</time>
      </trkpt>
      <trkpt lat="49.09349" lon="0.69505">
        <ele>89</ele>
        <time>2014-08-24T07:15:23Z</time>
      </trkpt>
      <trkpt lat="49.09349" lon="0.69508">
        <ele>89</ele>
        <time>2014-08-24T07:15:24Z</time>
      </trkpt>
      <trkpt lat="49.09348" lon="0.69512">
        <ele>89</ele>
        <time>2014-08-24T07:15:25Z</time>
      </trkpt>
      <trkpt lat="49.09347" lon="0.69515">
        <ele>89</ele>
        <time>2014-08-24T07:15:26Z</time>
      </trkpt>
      <trkpt lat="49.09344" lon="0.69526">
        <ele>89</ele>
        <time>2014-08-24T07:15:29Z</time>
      </trkpt>
      <trkpt lat="49.09342" lon="0.69533">
        <ele>90</ele>
        <time>2014-08-24T07:15:31Z</time>
      </trkpt>
      <trkpt lat="49.09339" lon="0.69539">
        <ele>90</ele>
        <time>2014-08-24T07:15:33Z</time>
      </trkpt>
      <trkpt lat="49.09338" lon="0.69542">
        <ele>90</ele>
        <time>2014-08-24T07:15:34Z</time>
      </trkpt>
      <trkpt lat="49.09333" lon="0.69549">
        <ele>90</ele>
        <time>2014-08-24T07:15:38Z</time>
      </trkpt>
      <trkpt lat="49.09333" lon="0.6955">
        <ele>90</ele>
        <time>2014-08-24T07:15:39Z</time>
      </trkpt>
      <trkpt lat="49.09332" lon="0.69551">
        <ele>90</ele>
        <time>2014-08-24T07:15:40Z</time>
      </trkpt>
      <trkpt lat="49.09332" lon="0.69551">
        <ele>90</ele>
        <time>2014-08-24T07:15:41Z</time>
      </trkpt>
      <trkpt lat="49.09331" lon="0.69552">
        <ele>90</ele>
        <time>2014-08-24T07:15:42Z</time>
      </trkpt>
      <trkpt lat="49.09333" lon="0.69555">
        <ele>91</ele>
        <time>2014-08-24T07:15:46Z</time>
      </trkpt>
      <trkpt lat="49.09339" lon="0.69565">
        <ele>91</ele>
        <time>2014-08-24T07:15:54Z</time>
      </trkpt>
      <trkpt lat="49.09357" lon="0.6959">
        <ele>92</ele>
        <time>2014-08-24T07:16:01Z</time>
      </trkpt>
      <trkpt lat="49.09363" lon="0.69597">
        <ele>93</ele>
        <time>2014-08-24T07:16:03Z</time>
      </trkpt>
      <trkpt lat="49.09365" lon="0.69599">
        <ele>93</ele>
        <time>2014-08-24T07:16:04Z</time>
      </trkpt>
      <trkpt lat="49.09368" lon="0.69601">
        <ele>93</ele>
        <time>2014-08-24T07:16:05Z</time>
      </trkpt>
      <trkpt lat="49.0937" lon="0.69604">
        <ele>93</ele>
        <time>2014-08-24T07:16:06Z</time>
      </trkpt>
      <trkpt lat="49.09372" lon="0.69606">
        <ele>93</ele>
        <time>2014-08-24T07:16:07Z</time>
      </trkpt>
      <trkpt lat="49.09376" lon="0.69612">
        <ele>94</ele>
        <time>2014-08-24T07:16:09Z</time>
      </trkpt>
      <trkpt lat="49.09388" lon="0.69636">
        <ele>95</ele>
        <time>2014-08-24T07:16:16Z</time>
      </trkpt>
      <trkpt lat="49.09387" lon="0.6964">
        <ele>95</ele>
        <time>2014-08-24T07:16:18Z</time>
      </trkpt>
      <trkpt lat="49.09386" lon="0.6964">
        <ele>95</ele>
        <time>2014-08-24T07:16:19Z</time>
      </trkpt>
      <trkpt lat="49.09385" lon="0.69642">
        <ele>95</ele>
        <time>2014-08-24T07:16:28Z</time>
      </trkpt>
      <trkpt lat="49.09385" lon="0.69644">
        <ele>96</ele>
        <time>2014-08-24T07:16:29Z</time>
      </trkpt>
      <trkpt lat="49.09386" lon="0.69657">
        <ele>97</ele>
        <time>2014-08-24T07:16:33Z</time>
      </trkpt>
      <trkpt lat="49.09386" lon="0.69661">
        <ele>98</ele>
        <time>2014-08-24T07:16:34Z</time>
      </trkpt>
      <trkpt lat="49.09387" lon="0.69664">
        <ele>98</ele>
        <time>2014-08-24T07:16:35Z</time>
      </trkpt>
      <trkpt lat="49.09386" lon="0.69668">
        <ele>99</ele>
        <time>2014-08-24T07:16:36Z</time>
      </trkpt>
      <trkpt lat="49.09386" lon="0.69672">
        <ele>100</ele>
        <time>2014-08-24T07:16:37Z</time>
      </trkpt>
      <trkpt lat="49.09389" lon="0.69681">
        <ele>101</ele>
        <time>2014-08-24T07:16:40Z</time>
      </trkpt>
      <trkpt lat="49.0939" lon="0.69682">
        <ele>101</ele>
        <time>2014-08-24T07:16:41Z</time>
      </trkpt>
      <trkpt lat="49.09392" lon="0.69686">
        <ele>102</ele>
        <time>2014-08-24T07:16:44Z</time>
      </trkpt>
      <trkpt lat="49.09393" lon="0.69688">
        <ele>102</ele>
        <time>2014-08-24T07:16:45Z</time>
      </trkpt>
      <trkpt lat="49.09394" lon="0.69689">
        <ele>102</ele>
        <time>2014-08-24T07:16:46Z</time>
      </trkpt>
      <trkpt lat="49.09395" lon="0.6969">
        <ele>102</ele>
        <time>2014-08-24T07:16:47Z</time>
      </trkpt>
      <trkpt lat="49.09395" lon="0.69691">
        <ele>102</ele>
        <time>2014-08-24T07:16:48Z</time>
      </trkpt>
      <trkpt lat="49.09397" lon="0.69697">
        <ele>103</ele>
        <time>2014-08-24T07:16:51Z</time>
      </trkpt>
      <trkpt lat="49.09401" lon="0.69703">
        <ele>104</ele>
        <time>2014-08-24T07:16:53Z</time>
      </trkpt>
      <trkpt lat="49.09401" lon="0.69706">
        <ele>104</ele>
        <time>2014-08-24T07:16:54Z</time>
      </trkpt>
      <trkpt lat="49.09401" lon="0.69709">
        <ele>105</ele>
        <time>2014-08-24T07:16:55Z</time>
      </trkpt>
      <trkpt lat="49.09401" lon="0.69713">
        <ele>105</ele>
        <time>2014-08-24T07:16:57Z</time>
      </trkpt>
      <trkpt lat="49.09402" lon="0.69716">
        <ele>106</ele>
        <time>2014-08-24T07:16:58Z</time>
      </trkpt>
      <trkpt lat="49.09401" lon="0.69718">
        <ele>106</ele>
        <time>2014-08-24T07:16:59Z</time>
      </trkpt>
      <trkpt lat="49.09399" lon="0.69727">
        <ele>107</ele>
        <time>2014-08-24T07:17:02Z</time>
      </trkpt>
      <trkpt lat="49.09399" lon="0.69731">
        <ele>108</ele>
        <time>2014-08-24T07:17:04Z</time>
      </trkpt>
      <trkpt lat="49.09399" lon="0.69733">
        <ele>108</ele>
        <time>2014-08-24T07:17:05Z</time>
      </trkpt>
      <trkpt lat="49.09399" lon="0.69736">
        <ele>108</ele>
        <time>2014-08-24T07:17:06Z</time>
      </trkpt>
      <trkpt lat="49.094" lon="0.69739">
        <ele>108</ele>
        <time>2014-08-24T07:17:07Z</time>
      </trkpt>
      <trkpt lat="49.09401" lon="0.69742">
        <ele>108</ele>
        <time>2014-08-24T07:17:08Z</time>
      </trkpt>
      <trkpt lat="49.09412" lon="0.69757">
        <ele>109</ele>
        <time>2014-08-24T07:17:13Z</time>
      </trkpt>
      <trkpt lat="49.09413" lon="0.69763">
        <ele>110</ele>
        <time>2014-08-24T07:17:15Z</time>
      </trkpt>
      <trkpt lat="49.09414" lon="0.69764">
        <ele>110</ele>
        <time>2014-08-24T07:17:16Z</time>
      </trkpt>
      <trkpt lat="49.09415" lon="0.69767">
        <ele>110</ele>
        <time>2014-08-24T07:17:17Z</time>
      </trkpt>
      <trkpt lat="49.09414" lon="0.6977">
        <ele>110</ele>
        <time>2014-08-24T07:17:18Z</time>
      </trkpt>
      <trkpt lat="49.09413" lon="0.69773">
        <ele>111</ele>
        <time>2014-08-24T07:17:19Z</time>
      </trkpt>
      <trkpt lat="49.0941" lon="0.69785">
        <ele>112</ele>
        <time>2014-08-24T07:17:24Z</time>
      </trkpt>
      <trkpt lat="49.09408" lon="0.69787">
        <ele>113</ele>
        <time>2014-08-24T07:17:25Z</time>
      </trkpt>
      <trkpt lat="49.09407" lon="0.69789">
        <ele>113</ele>
        <time>2014-08-24T07:17:26Z</time>
      </trkpt>
      <trkpt lat="49.09406" lon="0.6979">
        <ele>113</ele>
        <time>2014-08-24T07:17:27Z</time>
      </trkpt>
      <trkpt lat="49.09405" lon="0.69791">
        <ele>113</ele>
        <time>2014-08-24T07:17:28Z</time>
      </trkpt>
      <trkpt lat="49.09403" lon="0.69794">
        <ele>114</ele>
        <time>2014-08-24T07:17:30Z</time>
      </trkpt>
      <trkpt lat="49.09398" lon="0.69794">
        <ele>114</ele>
        <time>2014-08-24T07:17:33Z</time>
      </trkpt>
      <trkpt lat="49.09397" lon="0.69795">
        <ele>114</ele>
        <time>2014-08-24T07:17:34Z</time>
      </trkpt>
      <trkpt lat="49.09395" lon="0.69795">
        <ele>114</ele>
        <time>2014-08-24T07:17:35Z</time>
      </trkpt>
      <trkpt lat="49.09393" lon="0.69795">
        <ele>114</ele>
        <time>2014-08-24T07:17:36Z</time>
      </trkpt>
      <trkpt lat="49.09391" lon="0.69795">
        <ele>114</ele>
        <time>2014-08-24T07:17:37Z</time>
      </trkpt>
      <trkpt lat="49.0939" lon="0.69794">
        <ele>114</ele>
        <time>2014-08-24T07:17:38Z</time>
      </trkpt>
      <trkpt lat="49.0938" lon="0.69793">
        <ele>115</ele>
        <time>2014-08-24T07:17:43Z</time>
      </trkpt>
      <trkpt lat="49.09373" lon="0.69787">
        <ele>115</ele>
        <time>2014-08-24T07:17:47Z</time>
      </trkpt>
      <trkpt lat="49.09371" lon="0.69786">
        <ele>115</ele>
        <time>2014-08-24T07:17:48Z</time>
      </trkpt>
      <trkpt lat="49.09367" lon="0.69785">
        <ele>115</ele>
        <time>2014-08-24T07:17:49Z</time>
      </trkpt>
      <trkpt lat="49.09364" lon="0.69784">
        <ele>115</ele>
        <time>2014-08-24T07:17:50Z</time>
      </trkpt>
      <trkpt lat="49.0936" lon="0.69784">
        <ele>116</ele>
        <time>2014-08-24T07:17:51Z</time>
      </trkpt>
      <trkpt lat="49.0935" lon="0.69786">
        <ele>116</ele>
        <time>2014-08-24T07:17:56Z</time>
      </trkpt>
      <trkpt lat="49.09345" lon="0.69788">
        <ele>117</ele>
        <time>2014-08-24T07:17:59Z</time>
      </trkpt>
      <trkpt lat="49.09343" lon="0.6979">
        <ele>117</ele>
        <time>2014-08-24T07:18:00Z</time>
      </trkpt>
      <trkpt lat="49.09342" lon="0.69791">
        <ele>117</ele>
        <time>2014-08-24T07:18:01Z</time>
      </trkpt>
      <trkpt lat="49.09341" lon="0.69792">
        <ele>117</ele>
        <time>2014-08-24T07:18:02Z</time>
      </trkpt>
      <trkpt lat="49.0934" lon="0.69793">
        <ele>118</ele>
        <time>2014-08-24T07:18:03Z</time>
      </trkpt>
      <trkpt lat="49.09337" lon="0.69795">
        <ele>118</ele>
        <time>2014-08-24T07:18:06Z</time>
      </trkpt>
      <trkpt lat="49.09336" lon="0.69795">
        <ele>118</ele>
        <time>2014-08-24T07:18:07Z</time>
      </trkpt>
      <trkpt lat="49.09335" lon="0.69796">
        <ele>118</ele>
        <time>2014-08-24T07:18:08Z</time>
      </trkpt>
      <trkpt lat="49.09333" lon="0.69796">
        <ele>118</ele>
        <time>2014-08-24T07:18:09Z</time>
      </trkpt>
      <trkpt lat="49.09332" lon="0.69796">
        <ele>118</ele>
        <time>2014-08-24T07:18:10Z</time>
      </trkpt>
      <trkpt lat="49.09328" lon="0.69799">
        <ele>119</ele>
        <time>2014-08-24T07:18:14Z</time>
      </trkpt>
      <trkpt lat="49.09322" lon="0.69803">
        <ele>120</ele>
        <time>2014-08-24T07:18:16Z</time>
      </trkpt>
      <trkpt lat="49.09319" lon="0.69805">
        <ele>120</ele>
        <time>2014-08-24T07:18:17Z</time>
      </trkpt>
      <trkpt lat="49.09316" lon="0.69807">
        <ele>121</ele>
        <time>2014-08-24T07:18:18Z</time>
      </trkpt>
      <trkpt lat="49.09315" lon="0.69808">
        <ele>121</ele>
        <time>2014-08-24T07:18:19Z</time>
      </trkpt>
      <trkpt lat="49.09314" lon="0.69809">
        <ele>121</ele>
        <time>2014-08-24T07:18:20Z</time>
      </trkpt>
      <trkpt lat="49.09311" lon="0.69813">
        <ele>121</ele>
        <time>2014-08-24T07:18:22Z</time>
      </trkpt>
      <trkpt lat="49.0931" lon="0.69816">
        <ele>122</ele>
        <time>2014-08-24T07:18:24Z</time>
      </trkpt>
      <trkpt lat="49.09309" lon="0.69818">
        <ele>122</ele>
        <time>2014-08-24T07:18:25Z</time>
      </trkpt>
      <trkpt lat="49.09307" lon="0.6982">
        <ele>122</ele>
        <time>2014-08-24T07:18:26Z</time>
      </trkpt>
      <trkpt lat="49.09306" lon="0.69821">
        <ele>123</ele>
        <time>2014-08-24T07:18:27Z</time>
      </trkpt>
      <trkpt lat="49.09305" lon="0.69823">
        <ele>123</ele>
        <time>2014-08-24T07:18:28Z</time>
      </trkpt>
      <trkpt lat="49.09302" lon="0.69828">
        <ele>124</ele>
        <time>2014-08-24T07:18:30Z</time>
      </trkpt>
      <trkpt lat="49.09298" lon="0.69841">
        <ele>125</ele>
        <time>2014-08-24T07:18:35Z</time>
      </trkpt>
      <trkpt lat="49.09297" lon="0.69843">
        <ele>125</ele>
        <time>2014-08-24T07:18:36Z</time>
      </trkpt>
      <trkpt lat="49.09296" lon="0.69845">
        <ele>125</ele>
        <time>2014-08-24T07:18:37Z</time>
      </trkpt>
      <trkpt lat="49.09295" lon="0.69847">
        <ele>126</ele>
        <time>2014-08-24T07:18:38Z</time>
      </trkpt>
      <trkpt lat="49.09294" lon="0.69849">
        <ele>126</ele>
        <time>2014-08-24T07:18:39Z</time>
      </trkpt>
      <trkpt lat="49.09292" lon="0.69861">
        <ele>127</ele>
        <time>2014-08-24T07:18:44Z</time>
      </trkpt>
      <trkpt lat="49.09292" lon="0.69864">
        <ele>128</ele>
        <time>2014-08-24T07:18:45Z</time>
      </trkpt>
      <trkpt lat="49.09292" lon="0.69866">
        <ele>128</ele>
        <time>2014-08-24T07:18:46Z</time>
      </trkpt>
      <trkpt lat="49.09292" lon="0.69868">
        <ele>128</ele>
        <time>2014-08-24T07:18:47Z</time>
      </trkpt>
      <trkpt lat="49.09292" lon="0.69871">
        <ele>128</ele>
        <time>2014-08-24T07:18:48Z</time>
      </trkpt>
      <trkpt lat="49.09292" lon="0.6988">
        <ele>129</ele>
        <time>2014-08-24T07:18:52Z</time>
      </trkpt>
      <trkpt lat="49.09292" lon="0.69883">
        <ele>130</ele>
        <time>2014-08-24T07:18:53Z</time>
      </trkpt>
      <trkpt lat="49.09292" lon="0.69884">
        <ele>130</ele>
        <time>2014-08-24T07:18:54Z</time>
      </trkpt>
      <trkpt lat="49.09293" lon="0.69886">
        <ele>130</ele>
        <time>2014-08-24T07:18:55Z</time>
      </trkpt>
      <trkpt lat="49.09294" lon="0.69888">
        <ele>130</ele>
        <time>2014-08-24T07:18:56Z</time>
      </trkpt>
      <trkpt lat="49.09296" lon="0.69899">
        <ele>132</ele>
        <time>2014-08-24T07:19:02Z</time>
      </trkpt>
      <trkpt lat="49.09297" lon="0.69903">
        <ele>132</ele>
        <time>2014-08-24T07:19:04Z</time>
      </trkpt>
      <trkpt lat="49.09297" lon="0.69905">
        <ele>132</ele>
        <time>2014-08-24T07:19:05Z</time>
      </trkpt>
      <trkpt lat="49.09298" lon="0.69907">
        <ele>133</ele>
        <time>2014-08-24T07:19:06Z</time>
      </trkpt>
      <trkpt lat="49.09298" lon="0.69909">
        <ele>133</ele>
        <time>2014-08-24T07:19:07Z</time>
      </trkpt>
      <trkpt lat="49.09298" lon="0.69912">
        <ele>133</ele>
        <time>2014-08-24T07:19:08Z</time>
      </trkpt>
      <trkpt lat="49.09299" lon="0.69918">
        <ele>134</ele>
        <time>2014-08-24T07:19:11Z</time>
      </trkpt>
      <trkpt lat="49.093" lon="0.69923">
        <ele>134</ele>
        <time>2014-08-24T07:19:13Z</time>
      </trkpt>
      <trkpt lat="49.093" lon="0.69924">
        <ele>135</ele>
        <time>2014-08-24T07:19:14Z</time>
      </trkpt>
      <trkpt lat="49.093" lon="0.69926">
        <ele>135</ele>
        <time>2014-08-24T07:19:15Z</time>
      </trkpt>
      <trkpt lat="49.09301" lon="0.69929">
        <ele>135</ele>
        <time>2014-08-24T07:19:16Z</time>
      </trkpt>
      <trkpt lat="49.09301" lon="0.69931">
        <ele>135</ele>
        <time>2014-08-24T07:19:17Z</time>
      </trkpt>
      <trkpt lat="49.09303" lon="0.69934">
        <ele>135</ele>
        <time>2014-08-24T07:19:18Z</time>
      </trkpt>
      <trkpt lat="49.09312" lon="0.69951">
        <ele>135</ele>
        <time>2014-08-24T07:19:25Z</time>
      </trkpt>
      <trkpt lat="49.09313" lon="0.69954">
        <ele>135</ele>
        <time>2014-08-24T07:19:26Z</time>
      </trkpt>
      <trkpt lat="49.09315" lon="0.69957">
        <ele>136</ele>
        <time>2014-08-24T07:19:27Z</time>
      </trkpt>
      <trkpt lat="49.09316" lon="0.6996">
        <ele>136</ele>
        <time>2014-08-24T07:19:28Z</time>
      </trkpt>
      <trkpt lat="49.09317" lon="0.69964">
        <ele>136</ele>
        <time>2014-08-24T07:19:29Z</time>
      </trkpt>
      <trkpt lat="49.09318" lon="0.69973">
        <ele>136</ele>
        <time>2014-08-24T07:19:32Z</time>
      </trkpt>
      <trkpt lat="49.09315" lon="0.69987">
        <ele>137</ele>
        <time>2014-08-24T07:19:37Z</time>
      </trkpt>
      <trkpt lat="49.09314" lon="0.69993">
        <ele>138</ele>
        <time>2014-08-24T07:19:39Z</time>
      </trkpt>
      <trkpt lat="49.09314" lon="0.69995">
        <ele>138</ele>
        <time>2014-08-24T07:19:40Z</time>
      </trkpt>
      <trkpt lat="49.09314" lon="0.69998">
        <ele>138</ele>
        <time>2014-08-24T07:19:41Z</time>
      </trkpt>
      <trkpt lat="49.09315" lon="0.70003">
        <ele>138</ele>
        <time>2014-08-24T07:19:43Z</time>
      </trkpt>
      <trkpt lat="49.09322" lon="0.70025">
        <ele>139</ele>
        <time>2014-08-24T07:19:49Z</time>
      </trkpt>
      <trkpt lat="49.09329" lon="0.70049">
        <ele>139</ele>
        <time>2014-08-24T07:19:55Z</time>
      </trkpt>
      <trkpt lat="49.0933" lon="0.70062">
        <ele>140</ele>
        <time>2014-08-24T07:19:58Z</time>
      </trkpt>
      <trkpt lat="49.09331" lon="0.70068">
        <ele>140</ele>
        <time>2014-08-24T07:19:59Z</time>
      </trkpt>
      <trkpt lat="49.09331" lon="0.70073">
        <ele>140</ele>
        <time>2014-08-24T07:20:00Z</time>
      </trkpt>
      <trkpt lat="49.09331" lon="0.70078">
        <ele>141</ele>
        <time>2014-08-24T07:20:01Z</time>
      </trkpt>
      <trkpt lat="49.0933" lon="0.70083">
        <ele>141</ele>
        <time>2014-08-24T07:20:02Z</time>
      </trkpt>
      <trkpt lat="49.09324" lon="0.70102">
        <ele>141</ele>
        <time>2014-08-24T07:20:06Z</time>
      </trkpt>
      <trkpt lat="49.09323" lon="0.70113">
        <ele>142</ele>
        <time>2014-08-24T07:20:08Z</time>
      </trkpt>
      <trkpt lat="49.09318" lon="0.70167">
        <ele>144</ele>
        <time>2014-08-24T07:20:18Z</time>
      </trkpt>
      <trkpt lat="49.09317" lon="0.70207">
        <ele>145</ele>
        <time>2014-08-24T07:20:24Z</time>
      </trkpt>
      <trkpt lat="49.09315" lon="0.70218">
        <ele>145</ele>
        <time>2014-08-24T07:20:26Z</time>
      </trkpt>
      <trkpt lat="49.09314" lon="0.70224">
        <ele>145</ele>
        <time>2014-08-24T07:20:27Z</time>
      </trkpt>
      <trkpt lat="49.09314" lon="0.7023">
        <ele>145</ele>
        <time>2014-08-24T07:20:28Z</time>
      </trkpt>
      <trkpt lat="49.09313" lon="0.70235">
        <ele>145</ele>
        <time>2014-08-24T07:20:29Z</time>
      </trkpt>
      <trkpt lat="49.09312" lon="0.7024">
        <ele>146</ele>
        <time>2014-08-24T07:20:30Z</time>
      </trkpt>
      <trkpt lat="49.09312" lon="0.70251">
        <ele>146</ele>
        <time>2014-08-24T07:20:32Z</time>
      </trkpt>
      <trkpt lat="49.09308" lon="0.70277">
        <ele>146</ele>
        <time>2014-08-24T07:20:37Z</time>
      </trkpt>
      <trkpt lat="49.09298" lon="0.70308">
        <ele>147</ele>
        <time>2014-08-24T07:20:43Z</time>
      </trkpt>
      <trkpt lat="49.09289" lon="0.70343">
        <ele>147</ele>
        <time>2014-08-24T07:20:48Z</time>
      </trkpt>
      <trkpt lat="49.09286" lon="0.70349">
        <ele>147</ele>
        <time>2014-08-24T07:20:49Z</time>
      </trkpt>
      <trkpt lat="49.09276" lon="0.70393">
        <ele>148</ele>
        <time>2014-08-24T07:20:56Z</time>
      </trkpt>
      <trkpt lat="49.09268" lon="0.70429">
        <ele>148</ele>
        <time>2014-08-24T07:21:02Z</time>
      </trkpt>
      <trkpt lat="49.09259" lon="0.70464">
        <ele>148</ele>
        <time>2014-08-24T07:21:08Z</time>
      </trkpt>
      <trkpt lat="49.09255" lon="0.70494">
        <ele>148</ele>
        <time>2014-08-24T07:21:14Z</time>
      </trkpt>
      <trkpt lat="49.09265" lon="0.70527">
        <ele>148</ele>
        <time>2014-08-24T07:21:20Z</time>
      </trkpt>
      <trkpt lat="49.09269" lon="0.70536">
        <ele>148</ele>
        <time>2014-08-24T07:21:22Z</time>
      </trkpt>
      <trkpt lat="49.09274" lon="0.70545">
        <ele>148</ele>
        <time>2014-08-24T07:21:24Z</time>
      </trkpt>
      <trkpt lat="49.09283" lon="0.70566">
        <ele>148</ele>
        <time>2014-08-24T07:21:29Z</time>
      </trkpt>
      <trkpt lat="49.09284" lon="0.70571">
        <ele>148</ele>
        <time>2014-08-24T07:21:30Z</time>
      </trkpt>
      <trkpt lat="49.09286" lon="0.70577">
        <ele>148</ele>
        <time>2014-08-24T07:21:31Z</time>
      </trkpt>
      <trkpt lat="49.09287" lon="0.70581">
        <ele>149</ele>
        <time>2014-08-24T07:21:32Z</time>
      </trkpt>
      <trkpt lat="49.09288" lon="0.70585">
        <ele>149</ele>
        <time>2014-08-24T07:21:33Z</time>
      </trkpt>
      <trkpt lat="49.0929" lon="0.7059">
        <ele>149</ele>
        <time>2014-08-24T07:21:34Z</time>
      </trkpt>
      <trkpt lat="49.09291" lon="0.70594">
        <ele>149</ele>
        <time>2014-08-24T07:21:35Z</time>
      </trkpt>
      <trkpt lat="49.09303" lon="0.7063">
        <ele>149</ele>
        <time>2014-08-24T07:21:42Z</time>
      </trkpt>
      <trkpt lat="49.09319" lon="0.70663">
        <ele>150</ele>
        <time>2014-08-24T07:21:48Z</time>
      </trkpt>
      <trkpt lat="49.09333" lon="0.70696">
        <ele>150</ele>
        <time>2014-08-24T07:21:55Z</time>
      </trkpt>
      <trkpt lat="49.09348" lon="0.70721">
        <ele>151</ele>
        <time>2014-08-24T07:22:00Z</time>
      </trkpt>
      <trkpt lat="49.09353" lon="0.70721">
        <ele>151</ele>
        <time>2014-08-24T07:22:02Z</time>
      </trkpt>
      <trkpt lat="49.09356" lon="0.7072">
        <ele>151</ele>
        <time>2014-08-24T07:22:03Z</time>
      </trkpt>
      <trkpt lat="49.09377" lon="0.70709">
        <ele>150</ele>
        <time>2014-08-24T07:22:08Z</time>
      </trkpt>
      <trkpt lat="49.09403" lon="0.70692">
        <ele>150</ele>
        <time>2014-08-24T07:22:14Z</time>
      </trkpt>
      <trkpt lat="49.09433" lon="0.70673">
        <ele>150</ele>
        <time>2014-08-24T07:22:21Z</time>
      </trkpt>
      <trkpt lat="49.09459" lon="0.70658">
        <ele>150</ele>
        <time>2014-08-24T07:22:27Z</time>
      </trkpt>
      <trkpt lat="49.09492" lon="0.70636">
        <ele>149</ele>
        <time>2014-08-24T07:22:33Z</time>
      </trkpt>
      <trkpt lat="49.09506" lon="0.70625">
        <ele>149</ele>
        <time>2014-08-24T07:22:36Z</time>
      </trkpt>
      <trkpt lat="49.09526" lon="0.70611">
        <ele>149</ele>
        <time>2014-08-24T07:22:40Z</time>
      </trkpt>
      <trkpt lat="49.09556" lon="0.70587">
        <ele>149</ele>
        <time>2014-08-24T07:22:46Z</time>
      </trkpt>
      <trkpt lat="49.09588" lon="0.70561">
        <ele>148</ele>
        <time>2014-08-24T07:22:53Z</time>
      </trkpt>
      <trkpt lat="49.09602" lon="0.70552">
        <ele>148</ele>
        <time>2014-08-24T07:22:56Z</time>
      </trkpt>
      <trkpt lat="49.09619" lon="0.7054">
        <ele>148</ele>
        <time>2014-08-24T07:23:00Z</time>
      </trkpt>
      <trkpt lat="49.09647" lon="0.70517">
        <ele>148</ele>
        <time>2014-08-24T07:23:06Z</time>
      </trkpt>
      <trkpt lat="49.09671" lon="0.70498">
        <ele>147</ele>
        <time>2014-08-24T07:23:11Z</time>
      </trkpt>
      <trkpt lat="49.09676" lon="0.70495">
        <ele>147</ele>
        <time>2014-08-24T07:23:12Z</time>
      </trkpt>
      <trkpt lat="49.09681" lon="0.70491">
        <ele>147</ele>
        <time>2014-08-24T07:23:13Z</time>
      </trkpt>
      <trkpt lat="49.09685" lon="0.70487">
        <ele>146</ele>
        <time>2014-08-24T07:23:14Z</time>
      </trkpt>
      <trkpt lat="49.09689" lon="0.70484">
        <ele>146</ele>
        <time>2014-08-24T07:23:15Z</time>
      </trkpt>
      <trkpt lat="49.09703" lon="0.70473">
        <ele>144</ele>
        <time>2014-08-24T07:23:18Z</time>
      </trkpt>
      <trkpt lat="49.09717" lon="0.70466">
        <ele>142</ele>
        <time>2014-08-24T07:23:21Z</time>
      </trkpt>
      <trkpt lat="49.09722" lon="0.7047">
        <ele>142</ele>
        <time>2014-08-24T07:23:22Z</time>
      </trkpt>
      <trkpt lat="49.09726" lon="0.70474">
        <ele>141</ele>
        <time>2014-08-24T07:23:23Z</time>
      </trkpt>
      <trkpt lat="49.09743" lon="0.70495">
        <ele>141</ele>
        <time>2014-08-24T07:23:27Z</time>
      </trkpt>
      <trkpt lat="49.0975" lon="0.70507">
        <ele>141</ele>
        <time>2014-08-24T07:23:30Z</time>
      </trkpt>
      <trkpt lat="49.09752" lon="0.70512">
        <ele>141</ele>
        <time>2014-08-24T07:23:31Z</time>
      </trkpt>
      <trkpt lat="49.09754" lon="0.70515">
        <ele>142</ele>
        <time>2014-08-24T07:23:32Z</time>
      </trkpt>
      <trkpt lat="49.09754" lon="0.70518">
        <ele>142</ele>
        <time>2014-08-24T07:23:33Z</time>
      </trkpt>
      <trkpt lat="49.09754" lon="0.7052">
        <ele>142</ele>
        <time>2014-08-24T07:23:34Z</time>
      </trkpt>
      <trkpt lat="49.09758" lon="0.70529">
        <ele>143</ele>
        <time>2014-08-24T07:23:36Z</time>
      </trkpt>
      <trkpt lat="49.09759" lon="0.70532">
        <ele>143</ele>
        <time>2014-08-24T07:23:37Z</time>
      </trkpt>
      <trkpt lat="49.09775" lon="0.70571">
        <ele>144</ele>
        <time>2014-08-24T07:23:46Z</time>
      </trkpt>
      <trkpt lat="49.09793" lon="0.70601">
        <ele>144</ele>
        <time>2014-08-24T07:23:53Z</time>
      </trkpt>
      <trkpt lat="49.09814" lon="0.70637">
        <ele>145</ele>
        <time>2014-08-24T07:23:58Z</time>
      </trkpt>
      <trkpt lat="49.09837" lon="0.70675">
        <ele>146</ele>
        <time>2014-08-24T07:24:04Z</time>
      </trkpt>
      <trkpt lat="49.09846" lon="0.70699">
        <ele>146</ele>
        <time>2014-08-24T07:24:10Z</time>
      </trkpt>
      <trkpt lat="49.09863" lon="0.70733">
        <ele>147</ele>
        <time>2014-08-24T07:24:16Z</time>
      </trkpt>
      <trkpt lat="49.09883" lon="0.70772">
        <ele>146</ele>
        <time>2014-08-24T07:24:22Z</time>
      </trkpt>
      <trkpt lat="49.09893" lon="0.70795">
        <ele>147</ele>
        <time>2014-08-24T07:24:26Z</time>
      </trkpt>
      <trkpt lat="49.09895" lon="0.708">
        <ele>147</ele>
        <time>2014-08-24T07:24:27Z</time>
      </trkpt>
      <trkpt lat="49.09899" lon="0.70807">
        <ele>147</ele>
        <time>2014-08-24T07:24:28Z</time>
      </trkpt>
      <trkpt lat="49.09901" lon="0.70811">
        <ele>146</ele>
        <time>2014-08-24T07:24:29Z</time>
      </trkpt>
      <trkpt lat="49.09907" lon="0.7082">
        <ele>145</ele>
        <time>2014-08-24T07:24:30Z</time>
      </trkpt>
      <trkpt lat="49.09927" lon="0.70856">
        <ele>144</ele>
        <time>2014-08-24T07:24:34Z</time>
      </trkpt>
      <trkpt lat="49.09928" lon="0.70864">
        <ele>144</ele>
        <time>2014-08-24T07:24:35Z</time>
      </trkpt>
      <trkpt lat="49.09927" lon="0.70881">
        <ele>144</ele>
        <time>2014-08-24T07:24:37Z</time>
      </trkpt>
      <trkpt lat="49.09917" lon="0.709">
        <ele>145</ele>
        <time>2014-08-24T07:24:40Z</time>
      </trkpt>
      <trkpt lat="49.09911" lon="0.70911">
        <ele>145</ele>
        <time>2014-08-24T07:24:42Z</time>
      </trkpt>
      <trkpt lat="49.09905" lon="0.70923">
        <ele>146</ele>
        <time>2014-08-24T07:24:44Z</time>
      </trkpt>
      <trkpt lat="49.09902" lon="0.70944">
        <ele>145</ele>
        <time>2014-08-24T07:24:47Z</time>
      </trkpt>
      <trkpt lat="49.09901" lon="0.70957">
        <ele>145</ele>
        <time>2014-08-24T07:24:49Z</time>
      </trkpt>
      <trkpt lat="49.09888" lon="0.71004">
        <ele>144</ele>
        <time>2014-08-24T07:24:56Z</time>
      </trkpt>
      <trkpt lat="49.09886" lon="0.7101">
        <ele>144</ele>
        <time>2014-08-24T07:24:57Z</time>
      </trkpt>
      <trkpt lat="49.09883" lon="0.71026">
        <ele>143</ele>
        <time>2014-08-24T07:24:59Z</time>
      </trkpt>
      <trkpt lat="49.09878" lon="0.71038">
        <ele>143</ele>
        <time>2014-08-24T07:25:01Z</time>
      </trkpt>
      <trkpt lat="49.09862" lon="0.71075">
        <ele>143</ele>
        <time>2014-08-24T07:25:07Z</time>
      </trkpt>
      <trkpt lat="49.09863" lon="0.71085">
        <ele>142</ele>
        <time>2014-08-24T07:25:08Z</time>
      </trkpt>
      <trkpt lat="49.09863" lon="0.7111">
        <ele>141</ele>
        <time>2014-08-24T07:25:11Z</time>
      </trkpt>
      <trkpt lat="49.09861" lon="0.71117">
        <ele>141</ele>
        <time>2014-08-24T07:25:12Z</time>
      </trkpt>
      <trkpt lat="49.0986" lon="0.71125">
        <ele>141</ele>
        <time>2014-08-24T07:25:13Z</time>
      </trkpt>
      <trkpt lat="49.09859" lon="0.71133">
        <ele>141</ele>
        <time>2014-08-24T07:25:14Z</time>
      </trkpt>
      <trkpt lat="49.09857" lon="0.71139">
        <ele>141</ele>
        <time>2014-08-24T07:25:15Z</time>
      </trkpt>
      <trkpt lat="49.09855" lon="0.71146">
        <ele>141</ele>
        <time>2014-08-24T07:25:16Z</time>
      </trkpt>
      <trkpt lat="49.09853" lon="0.71161">
        <ele>140</ele>
        <time>2014-08-24T07:25:18Z</time>
      </trkpt>
      <trkpt lat="49.09849" lon="0.71206">
        <ele>138</ele>
        <time>2014-08-24T07:25:24Z</time>
      </trkpt>
      <trkpt lat="49.09848" lon="0.71213">
        <ele>138</ele>
        <time>2014-08-24T07:25:25Z</time>
      </trkpt>
      <trkpt lat="49.09842" lon="0.71246">
        <ele>138</ele>
        <time>2014-08-24T07:25:29Z</time>
      </trkpt>
      <trkpt lat="49.0984" lon="0.71294">
        <ele>137</ele>
        <time>2014-08-24T07:25:35Z</time>
      </trkpt>
      <trkpt lat="49.09839" lon="0.7131">
        <ele>136</ele>
        <time>2014-08-24T07:25:37Z</time>
      </trkpt>
      <trkpt lat="49.09835" lon="0.71357">
        <ele>136</ele>
        <time>2014-08-24T07:25:43Z</time>
      </trkpt>
      <trkpt lat="49.09833" lon="0.71383">
        <ele>135</ele>
        <time>2014-08-24T07:25:46Z</time>
      </trkpt>
      <trkpt lat="49.09827" lon="0.71414">
        <ele>136</ele>
        <time>2014-08-24T07:25:50Z</time>
      </trkpt>
      <trkpt lat="49.09817" lon="0.71481">
        <ele>137</ele>
        <time>2014-08-24T07:25:58Z</time>
      </trkpt>
      <trkpt lat="49.09806" lon="0.7153">
        <ele>138</ele>
        <time>2014-08-24T07:26:05Z</time>
      </trkpt>
      <trkpt lat="49.098" lon="0.71562">
        <ele>139</ele>
        <time>2014-08-24T07:26:11Z</time>
      </trkpt>
      <trkpt lat="49.09797" lon="0.71566">
        <ele>139</ele>
        <time>2014-08-24T07:26:13Z</time>
      </trkpt>
      <trkpt lat="49.09794" lon="0.71567">
        <ele>139</ele>
        <time>2014-08-24T07:26:14Z</time>
      </trkpt>
      <trkpt lat="49.09792" lon="0.71567">
        <ele>140</ele>
        <time>2014-08-24T07:26:15Z</time>
      </trkpt>
      <trkpt lat="49.09791" lon="0.71569">
        <ele>140</ele>
        <time>2014-08-24T07:26:16Z</time>
      </trkpt>
      <trkpt lat="49.0979" lon="0.71569">
        <ele>140</ele>
        <time>2014-08-24T07:26:17Z</time>
      </trkpt>
      <trkpt lat="49.09787" lon="0.71568">
        <ele>140</ele>
        <time>2014-08-24T07:26:21Z</time>
      </trkpt>
      <trkpt lat="49.09786" lon="0.71555">
        <ele>141</ele>
        <time>2014-08-24T07:26:25Z</time>
      </trkpt>
      <trkpt lat="49.09786" lon="0.71551">
        <ele>141</ele>
        <time>2014-08-24T07:26:26Z</time>
      </trkpt>
      <trkpt lat="49.09782" lon="0.71521">
        <ele>142</ele>
        <time>2014-08-24T07:26:31Z</time>
      </trkpt>
      <trkpt lat="49.09779" lon="0.71516">
        <ele>142</ele>
        <time>2014-08-24T07:26:32Z</time>
      </trkpt>
      <trkpt lat="49.09777" lon="0.71511">
        <ele>143</ele>
        <time>2014-08-24T07:26:33Z</time>
      </trkpt>
      <trkpt lat="49.09774" lon="0.71508">
        <ele>143</ele>
        <time>2014-08-24T07:26:34Z</time>
      </trkpt>
      <trkpt lat="49.0977" lon="0.71505">
        <ele>144</ele>
        <time>2014-08-24T07:26:35Z</time>
      </trkpt>
      <trkpt lat="49.09766" lon="0.71504">
        <ele>144</ele>
        <time>2014-08-24T07:26:36Z</time>
      </trkpt>
      <trkpt lat="49.09762" lon="0.71501">
        <ele>144</ele>
        <time>2014-08-24T07:26:37Z</time>
      </trkpt>
      <trkpt lat="49.09754" lon="0.71499">
        <ele>145</ele>
        <time>2014-08-24T07:26:39Z</time>
      </trkpt>
      <trkpt lat="49.09728" lon="0.71495">
        <ele>146</ele>
        <time>2014-08-24T07:26:45Z</time>
      </trkpt>
      <trkpt lat="49.09724" lon="0.71495">
        <ele>146</ele>
        <time>2014-08-24T07:26:46Z</time>
      </trkpt>
      <trkpt lat="49.09721" lon="0.71496">
        <ele>146</ele>
        <time>2014-08-24T07:26:47Z</time>
      </trkpt>
      <trkpt lat="49.09717" lon="0.71496">
        <ele>146</ele>
        <time>2014-08-24T07:26:48Z</time>
      </trkpt>
      <trkpt lat="49.09713" lon="0.71497">
        <ele>147</ele>
        <time>2014-08-24T07:26:49Z</time>
      </trkpt>
      <trkpt lat="49.0971" lon="0.71497">
        <ele>147</ele>
        <time>2014-08-24T07:26:50Z</time>
      </trkpt>
      <trkpt lat="49.09705" lon="0.71497">
        <ele>147</ele>
        <time>2014-08-24T07:26:51Z</time>
      </trkpt>
      <trkpt lat="49.09698" lon="0.71496">
        <ele>147</ele>
        <time>2014-08-24T07:26:53Z</time>
      </trkpt>
      <trkpt lat="49.09679" lon="0.71489">
        <ele>148</ele>
        <time>2014-08-24T07:26:58Z</time>
      </trkpt>
      <trkpt lat="49.0965" lon="0.71478">
        <ele>149</ele>
        <time>2014-08-24T07:27:04Z</time>
      </trkpt>
      <trkpt lat="49.09631" lon="0.71468">
        <ele>149</ele>
        <time>2014-08-24T07:27:08Z</time>
      </trkpt>
      <trkpt lat="49.09627" lon="0.71466">
        <ele>150</ele>
        <time>2014-08-24T07:27:09Z</time>
      </trkpt>
      <trkpt lat="49.09623" lon="0.71464">
        <ele>150</ele>
        <time>2014-08-24T07:27:10Z</time>
      </trkpt>
      <trkpt lat="49.09618" lon="0.71462">
        <ele>150</ele>
        <time>2014-08-24T07:27:11Z</time>
      </trkpt>
      <trkpt lat="49.09614" lon="0.7146">
        <ele>150</ele>
        <time>2014-08-24T07:27:12Z</time>
      </trkpt>
      <trkpt lat="49.09605" lon="0.71456">
        <ele>150</ele>
        <time>2014-08-24T07:27:14Z</time>
      </trkpt>
      <trkpt lat="49.09569" lon="0.71438">
        <ele>151</ele>
        <time>2014-08-24T07:27:23Z</time>
      </trkpt>
      <trkpt lat="49.09557" lon="0.71433">
        <ele>151</ele>
        <time>2014-08-24T07:27:26Z</time>
      </trkpt>
      <trkpt lat="49.09544" lon="0.71427">
        <ele>151</ele>
        <time>2014-08-24T07:27:29Z</time>
      </trkpt>
      <trkpt lat="49.09515" lon="0.71414">
        <ele>151</ele>
        <time>2014-08-24T07:27:36Z</time>
      </trkpt>
      <trkpt lat="49.09502" lon="0.71409">
        <ele>151</ele>
        <time>2014-08-24T07:27:39Z</time>
      </trkpt>
      <trkpt lat="49.09497" lon="0.71407">
        <ele>151</ele>
        <time>2014-08-24T07:27:40Z</time>
      </trkpt>
      <trkpt lat="49.09493" lon="0.71406">
        <ele>151</ele>
        <time>2014-08-24T07:27:41Z</time>
      </trkpt>
      <trkpt lat="49.09488" lon="0.71405">
        <ele>151</ele>
        <time>2014-08-24T07:27:42Z</time>
      </trkpt>
      <trkpt lat="49.09485" lon="0.71403">
        <ele>151</ele>
        <time>2014-08-24T07:27:43Z</time>
      </trkpt>
      <trkpt lat="49.09481" lon="0.71401">
        <ele>151</ele>
        <time>2014-08-24T07:27:44Z</time>
      </trkpt>
      <trkpt lat="49.0945" lon="0.71387">
        <ele>151</ele>
        <time>2014-08-24T07:27:52Z</time>
      </trkpt>
      <trkpt lat="49.09419" lon="0.71374">
        <ele>151</ele>
        <time>2014-08-24T07:28:00Z</time>
      </trkpt>
      <trkpt lat="49.0939" lon="0.71359">
        <ele>151</ele>
        <time>2014-08-24T07:28:07Z</time>
      </trkpt>
      <trkpt lat="49.09385" lon="0.71357">
        <ele>151</ele>
        <time>2014-08-24T07:28:08Z</time>
      </trkpt>
      <trkpt lat="49.0937" lon="0.71349">
        <ele>151</ele>
        <time>2014-08-24T07:28:11Z</time>
      </trkpt>
      <trkpt lat="49.0936" lon="0.71345">
        <ele>151</ele>
        <time>2014-08-24T07:28:13Z</time>
      </trkpt>
      <trkpt lat="49.0932" lon="0.71328">
        <ele>151</ele>
        <time>2014-08-24T07:28:21Z</time>
      </trkpt>
      <trkpt lat="49.09285" lon="0.7131">
        <ele>151</ele>
        <time>2014-08-24T07:28:28Z</time>
      </trkpt>
      <trkpt lat="49.09244" lon="0.71291">
        <ele>151</ele>
        <time>2014-08-24T07:28:35Z</time>
      </trkpt>
      <trkpt lat="49.09208" lon="0.71275">
        <ele>151</ele>
        <time>2014-08-24T07:28:42Z</time>
      </trkpt>
      <trkpt lat="49.09174" lon="0.71259">
        <ele>150</ele>
        <time>2014-08-24T07:28:49Z</time>
      </trkpt>
      <trkpt lat="49.09147" lon="0.71249">
        <ele>150</ele>
        <time>2014-08-24T07:28:54Z</time>
      </trkpt>
      <trkpt lat="49.09115" lon="0.71234">
        <ele>150</ele>
        <time>2014-08-24T07:29:00Z</time>
      </trkpt>
      <trkpt lat="49.09081" lon="0.71217">
        <ele>150</ele>
        <time>2014-08-24T07:29:07Z</time>
      </trkpt>
      <trkpt lat="49.09043" lon="0.71198">
        <ele>149</ele>
        <time>2014-08-24T07:29:12Z</time>
      </trkpt>
      <trkpt lat="49.0901" lon="0.71185">
        <ele>148</ele>
        <time>2014-08-24T07:29:19Z</time>
      </trkpt>
      <trkpt lat="49.08987" lon="0.71174">
        <ele>148</ele>
        <time>2014-08-24T07:29:24Z</time>
      </trkpt>
      <trkpt lat="49.08982" lon="0.71173">
        <ele>148</ele>
        <time>2014-08-24T07:29:25Z</time>
      </trkpt>
      <trkpt lat="49.08978" lon="0.71172">
        <ele>148</ele>
        <time>2014-08-24T07:29:26Z</time>
      </trkpt>
      <trkpt lat="49.08972" lon="0.71175">
        <ele>148</ele>
        <time>2014-08-24T07:29:28Z</time>
      </trkpt>
      <trkpt lat="49.08967" lon="0.71178">
        <ele>148</ele>
        <time>2014-08-24T07:29:29Z</time>
      </trkpt>
      <trkpt lat="49.08963" lon="0.71182">
        <ele>148</ele>
        <time>2014-08-24T07:29:30Z</time>
      </trkpt>
      <trkpt lat="49.0896" lon="0.71187">
        <ele>148</ele>
        <time>2014-08-24T07:29:31Z</time>
      </trkpt>
      <trkpt lat="49.08957" lon="0.71191">
        <ele>148</ele>
        <time>2014-08-24T07:29:32Z</time>
      </trkpt>
      <trkpt lat="49.08942" lon="0.71207">
        <ele>148</ele>
        <time>2014-08-24T07:29:36Z</time>
      </trkpt>
      <trkpt lat="49.08918" lon="0.71238">
        <ele>148</ele>
        <time>2014-08-24T07:29:43Z</time>
      </trkpt>
      <trkpt lat="49.0891" lon="0.71266">
        <ele>148</ele>
        <time>2014-08-24T07:29:47Z</time>
      </trkpt>
      <trkpt lat="49.08907" lon="0.71271">
        <ele>148</ele>
        <time>2014-08-24T07:29:48Z</time>
      </trkpt>
      <trkpt lat="49.08893" lon="0.71294">
        <ele>149</ele>
        <time>2014-08-24T07:29:52Z</time>
      </trkpt>
      <trkpt lat="49.08883" lon="0.71315">
        <ele>149</ele>
        <time>2014-08-24T07:29:55Z</time>
      </trkpt>
      <trkpt lat="49.08884" lon="0.71324">
        <ele>149</ele>
        <time>2014-08-24T07:29:56Z</time>
      </trkpt>
      <trkpt lat="49.08876" lon="0.71342">
        <ele>149</ele>
        <time>2014-08-24T07:29:59Z</time>
      </trkpt>
      <trkpt lat="49.08872" lon="0.71346">
        <ele>149</ele>
        <time>2014-08-24T07:30:00Z</time>
      </trkpt>
      <trkpt lat="49.08854" lon="0.71374">
        <ele>149</ele>
        <time>2014-08-24T07:30:05Z</time>
      </trkpt>
      <trkpt lat="49.08851" lon="0.71382">
        <ele>149</ele>
        <time>2014-08-24T07:30:06Z</time>
      </trkpt>
      <trkpt lat="49.08838" lon="0.71402">
        <ele>149</ele>
        <time>2014-08-24T07:30:09Z</time>
      </trkpt>
      <trkpt lat="49.08824" lon="0.71448">
        <ele>149</ele>
        <time>2014-08-24T07:30:16Z</time>
      </trkpt>
      <trkpt lat="49.08822" lon="0.71462">
        <ele>149</ele>
        <time>2014-08-24T07:30:18Z</time>
      </trkpt>
      <trkpt lat="49.08817" lon="0.71476">
        <ele>149</ele>
        <time>2014-08-24T07:30:20Z</time>
      </trkpt>
      <trkpt lat="49.08803" lon="0.71513">
        <ele>149</ele>
        <time>2014-08-24T07:30:26Z</time>
      </trkpt>
      <trkpt lat="49.08788" lon="0.71563">
        <ele>149</ele>
        <time>2014-08-24T07:30:33Z</time>
      </trkpt>
      <trkpt lat="49.08783" lon="0.71592">
        <ele>149</ele>
        <time>2014-08-24T07:30:37Z</time>
      </trkpt>
      <trkpt lat="49.08783" lon="0.71605">
        <ele>149</ele>
        <time>2014-08-24T07:30:39Z</time>
      </trkpt>
      <trkpt lat="49.08785" lon="0.71622">
        <ele>149</ele>
        <time>2014-08-24T07:30:42Z</time>
      </trkpt>
      <trkpt lat="49.08786" lon="0.71627">
        <ele>149</ele>
        <time>2014-08-24T07:30:43Z</time>
      </trkpt>
      <trkpt lat="49.08791" lon="0.71661">
        <ele>149</ele>
        <time>2014-08-24T07:30:49Z</time>
      </trkpt>
      <trkpt lat="49.08799" lon="0.71691">
        <ele>149</ele>
        <time>2014-08-24T07:30:55Z</time>
      </trkpt>
      <trkpt lat="49.0881" lon="0.71728">
        <ele>149</ele>
        <time>2014-08-24T07:31:01Z</time>
      </trkpt>
      <trkpt lat="49.08817" lon="0.7176">
        <ele>149</ele>
        <time>2014-08-24T07:31:07Z</time>
      </trkpt>
      <trkpt lat="49.08826" lon="0.71808">
        <ele>149</ele>
        <time>2014-08-24T07:31:15Z</time>
      </trkpt>
      <trkpt lat="49.08837" lon="0.71856">
        <ele>149</ele>
        <time>2014-08-24T07:31:23Z</time>
      </trkpt>
      <trkpt lat="49.08844" lon="0.71886">
        <ele>149</ele>
        <time>2014-08-24T07:31:28Z</time>
      </trkpt>
      <trkpt lat="49.08847" lon="0.71902">
        <ele>149</ele>
        <time>2014-08-24T07:31:30Z</time>
      </trkpt>
      <trkpt lat="49.0885" lon="0.71926">
        <ele>149</ele>
        <time>2014-08-24T07:31:34Z</time>
      </trkpt>
      <trkpt lat="49.08864" lon="0.71969">
        <ele>149</ele>
        <time>2014-08-24T07:31:42Z</time>
      </trkpt>
      <trkpt lat="49.08876" lon="0.72">
        <ele>149</ele>
        <time>2014-08-24T07:31:48Z</time>
      </trkpt>
      <trkpt lat="49.08889" lon="0.72032">
        <ele>149</ele>
        <time>2014-08-24T07:31:53Z</time>
      </trkpt>
      <trkpt lat="49.08897" lon="0.72079">
        <ele>149</ele>
        <time>2014-08-24T07:32:00Z</time>
      </trkpt>
      <trkpt lat="49.08908" lon="0.72119">
        <ele>148</ele>
        <time>2014-08-24T07:32:05Z</time>
      </trkpt>
      <trkpt lat="49.0892" lon="0.72159">
        <ele>148</ele>
        <time>2014-08-24T07:32:11Z</time>
      </trkpt>
      <trkpt lat="49.08933" lon="0.72197">
        <ele>148</ele>
        <time>2014-08-24T07:32:18Z</time>
      </trkpt>
      <trkpt lat="49.08943" lon="0.72238">
        <ele>148</ele>
        <time>2014-08-24T07:32:25Z</time>
      </trkpt>
      <trkpt lat="49.08961" lon="0.72287">
        <ele>148</ele>
        <time>2014-08-24T07:32:33Z</time>
      </trkpt>
      <trkpt lat="49.08976" lon="0.72335">
        <ele>148</ele>
        <time>2014-08-24T07:32:40Z</time>
      </trkpt>
      <trkpt lat="49.0898" lon="0.72341">
        <ele>148</ele>
        <time>2014-08-24T07:32:41Z</time>
      </trkpt>
      <trkpt lat="49.08987" lon="0.72362">
        <ele>148</ele>
        <time>2014-08-24T07:32:44Z</time>
      </trkpt>
      <trkpt lat="49.09001" lon="0.72396">
        <ele>148</ele>
        <time>2014-08-24T07:32:49Z</time>
      </trkpt>
      <trkpt lat="49.09006" lon="0.72409">
        <ele>148</ele>
        <time>2014-08-24T07:32:51Z</time>
      </trkpt>
      <trkpt lat="49.09014" lon="0.72429">
        <ele>148</ele>
        <time>2014-08-24T07:32:54Z</time>
      </trkpt>
      <trkpt lat="49.09029" lon="0.72469">
        <ele>148</ele>
        <time>2014-08-24T07:33:00Z</time>
      </trkpt>
      <trkpt lat="49.09043" lon="0.72509">
        <ele>147</ele>
        <time>2014-08-24T07:33:06Z</time>
      </trkpt>
      <trkpt lat="49.09048" lon="0.72523">
        <ele>147</ele>
        <time>2014-08-24T07:33:08Z</time>
      </trkpt>
      <trkpt lat="49.09052" lon="0.72543">
        <ele>147</ele>
        <time>2014-08-24T07:33:11Z</time>
      </trkpt>
      <trkpt lat="49.09064" lon="0.7258">
        <ele>147</ele>
        <time>2014-08-24T07:33:16Z</time>
      </trkpt>
      <trkpt lat="49.09067" lon="0.72587">
        <ele>147</ele>
        <time>2014-08-24T07:33:17Z</time>
      </trkpt>
      <trkpt lat="49.09075" lon="0.72607">
        <ele>147</ele>
        <time>2014-08-24T07:33:20Z</time>
      </trkpt>
      <trkpt lat="49.09099" lon="0.72659">
        <ele>147</ele>
        <time>2014-08-24T07:33:27Z</time>
      </trkpt>
      <trkpt lat="49.09109" lon="0.72701">
        <ele>147</ele>
        <time>2014-08-24T07:33:33Z</time>
      </trkpt>
      <trkpt lat="49.09112" lon="0.72722">
        <ele>147</ele>
        <time>2014-08-24T07:33:36Z</time>
      </trkpt>
      <trkpt lat="49.09113" lon="0.72737">
        <ele>147</ele>
        <time>2014-08-24T07:33:38Z</time>
      </trkpt>
      <trkpt lat="49.09116" lon="0.72744">
        <ele>147</ele>
        <time>2014-08-24T07:33:39Z</time>
      </trkpt>
      <trkpt lat="49.09123" lon="0.72765">
        <ele>147</ele>
        <time>2014-08-24T07:33:42Z</time>
      </trkpt>
      <trkpt lat="49.09155" lon="0.72825">
        <ele>147</ele>
        <time>2014-08-24T07:33:48Z</time>
      </trkpt>
      <trkpt lat="49.09188" lon="0.72863">
        <ele>146</ele>
        <time>2014-08-24T07:33:51Z</time>
      </trkpt>
      <trkpt lat="49.09254" lon="0.72905">
        <ele>146</ele>
        <time>2014-08-24T07:33:52Z</time>
      </trkpt>
      <trkpt lat="49.09265" lon="0.72923">
        <ele>146</ele>
        <time>2014-08-24T07:33:53Z</time>
      </trkpt>
      <trkpt lat="49.0929" lon="0.72978">
        <ele>146</ele>
        <time>2014-08-24T07:33:59Z</time>
      </trkpt>
      <trkpt lat="49.09315" lon="0.73035">
        <ele>146</ele>
        <time>2014-08-24T07:34:06Z</time>
      </trkpt>
      <trkpt lat="49.09322" lon="0.73076">
        <ele>146</ele>
        <time>2014-08-24T07:34:12Z</time>
      </trkpt>
      <trkpt lat="49.09324" lon="0.73104">
        <ele>146</ele>
        <time>2014-08-24T07:34:16Z</time>
      </trkpt>
      <trkpt lat="49.09324" lon="0.73117">
        <ele>146</ele>
        <time>2014-08-24T07:34:18Z</time>
      </trkpt>
      <trkpt lat="49.09325" lon="0.73136">
        <ele>145</ele>
        <time>2014-08-24T07:34:21Z</time>
      </trkpt>
      <trkpt lat="49.0933" lon="0.73158">
        <ele>145</ele>
        <time>2014-08-24T07:34:24Z</time>
      </trkpt>
      <trkpt lat="49.09331" lon="0.73178">
        <ele>145</ele>
        <time>2014-08-24T07:34:27Z</time>
      </trkpt>
      <trkpt lat="49.09332" lon="0.73192">
        <ele>145</ele>
        <time>2014-08-24T07:34:29Z</time>
      </trkpt>
      <trkpt lat="49.09332" lon="0.73198">
        <ele>145</ele>
        <time>2014-08-24T07:34:30Z</time>
      </trkpt>
      <trkpt lat="49.09334" lon="0.73204">
        <ele>145</ele>
        <time>2014-08-24T07:34:31Z</time>
      </trkpt>
      <trkpt lat="49.09337" lon="0.73218">
        <ele>145</ele>
        <time>2014-08-24T07:34:33Z</time>
      </trkpt>
      <trkpt lat="49.09339" lon="0.73226">
        <ele>145</ele>
        <time>2014-08-24T07:34:34Z</time>
      </trkpt>
      <trkpt lat="49.09342" lon="0.73242">
        <ele>145</ele>
        <time>2014-08-24T07:34:36Z</time>
      </trkpt>
      <trkpt lat="49.0935" lon="0.73277">
        <ele>145</ele>
        <time>2014-08-24T07:34:41Z</time>
      </trkpt>
      <trkpt lat="49.09366" lon="0.73329">
        <ele>144</ele>
        <time>2014-08-24T07:34:48Z</time>
      </trkpt>
      <trkpt lat="49.0939" lon="0.73389">
        <ele>144</ele>
        <time>2014-08-24T07:34:55Z</time>
      </trkpt>
      <trkpt lat="49.09401" lon="0.73416">
        <ele>144</ele>
        <time>2014-08-24T07:34:58Z</time>
      </trkpt>
      <trkpt lat="49.09403" lon="0.73425">
        <ele>144</ele>
        <time>2014-08-24T07:34:59Z</time>
      </trkpt>
      <trkpt lat="49.09404" lon="0.73432">
        <ele>144</ele>
        <time>2014-08-24T07:35:00Z</time>
      </trkpt>
      <trkpt lat="49.09407" lon="0.7344">
        <ele>144</ele>
        <time>2014-08-24T07:35:01Z</time>
      </trkpt>
      <trkpt lat="49.09409" lon="0.73447">
        <ele>144</ele>
        <time>2014-08-24T07:35:02Z</time>
      </trkpt>
      <trkpt lat="49.09416" lon="0.73471">
        <ele>143</ele>
        <time>2014-08-24T07:35:05Z</time>
      </trkpt>
      <trkpt lat="49.09422" lon="0.73492">
        <ele>143</ele>
        <time>2014-08-24T07:35:08Z</time>
      </trkpt>
      <trkpt lat="49.09425" lon="0.73503">
        <ele>143</ele>
        <time>2014-08-24T07:35:10Z</time>
      </trkpt>
      <trkpt lat="49.09425" lon="0.7351">
        <ele>143</ele>
        <time>2014-08-24T07:35:11Z</time>
      </trkpt>
      <trkpt lat="49.09434" lon="0.73532">
        <ele>143</ele>
        <time>2014-08-24T07:35:14Z</time>
      </trkpt>
      <trkpt lat="49.09437" lon="0.73539">
        <ele>143</ele>
        <time>2014-08-24T07:35:15Z</time>
      </trkpt>
      <trkpt lat="49.0945" lon="0.7359">
        <ele>143</ele>
        <time>2014-08-24T07:35:22Z</time>
      </trkpt>
      <trkpt lat="49.09464" lon="0.73617">
        <ele>142</ele>
        <time>2014-08-24T07:35:25Z</time>
      </trkpt>
      <trkpt lat="49.09467" lon="0.73623">
        <ele>142</ele>
        <time>2014-08-24T07:35:26Z</time>
      </trkpt>
      <trkpt lat="49.09469" lon="0.7363">
        <ele>142</ele>
        <time>2014-08-24T07:35:27Z</time>
      </trkpt>
      <trkpt lat="49.0947" lon="0.73637">
        <ele>142</ele>
        <time>2014-08-24T07:35:28Z</time>
      </trkpt>
      <trkpt lat="49.09471" lon="0.73643">
        <ele>142</ele>
        <time>2014-08-24T07:35:29Z</time>
      </trkpt>
      <trkpt lat="49.09474" lon="0.73665">
        <ele>142</ele>
        <time>2014-08-24T07:35:32Z</time>
      </trkpt>
      <trkpt lat="49.09486" lon="0.73695">
        <ele>142</ele>
        <time>2014-08-24T07:35:36Z</time>
      </trkpt>
      <trkpt lat="49.09491" lon="0.737">
        <ele>142</ele>
        <time>2014-08-24T07:35:37Z</time>
      </trkpt>
      <trkpt lat="49.09497" lon="0.73704">
        <ele>142</ele>
        <time>2014-08-24T07:35:39Z</time>
      </trkpt>
      <trkpt lat="49.09526" lon="0.73727">
        <ele>142</ele>
        <time>2014-08-24T07:41:11Z</time>
      </trkpt>
      <trkpt lat="49.09526" lon="0.73729">
        <ele>142</ele>
        <time>2014-08-24T07:41:12Z</time>
      </trkpt>
      <trkpt lat="49.09525" lon="0.73749">
        <ele>142</ele>
        <time>2014-08-24T07:41:16Z</time>
      </trkpt>
      <trkpt lat="49.09526" lon="0.73754">
        <ele>142</ele>
        <time>2014-08-24T07:41:17Z</time>
      </trkpt>
      <trkpt lat="49.09529" lon="0.73761">
        <ele>142</ele>
        <time>2014-08-24T07:41:18Z</time>
      </trkpt>
      <trkpt lat="49.09533" lon="0.73769">
        <ele>142</ele>
        <time>2014-08-24T07:41:19Z</time>
      </trkpt>
      <trkpt lat="49.09535" lon="0.73776">
        <ele>142</ele>
        <time>2014-08-24T07:41:20Z</time>
      </trkpt>
      <trkpt lat="49.09536" lon="0.73781">
        <ele>142</ele>
        <time>2014-08-24T07:41:21Z</time>
      </trkpt>
      <trkpt lat="49.09538" lon="0.73787">
        <ele>141</ele>
        <time>2014-08-24T07:41:22Z</time>
      </trkpt>
      <trkpt lat="49.09542" lon="0.73801">
        <ele>141</ele>
        <time>2014-08-24T07:41:24Z</time>
      </trkpt>
      <trkpt lat="49.09549" lon="0.73817">
        <ele>141</ele>
        <time>2014-08-24T07:41:26Z</time>
      </trkpt>
      <trkpt lat="49.09558" lon="0.73831">
        <ele>140</ele>
        <time>2014-08-24T07:41:28Z</time>
      </trkpt>
      <trkpt lat="49.09575" lon="0.73848">
        <ele>138</ele>
        <time>2014-08-24T07:41:31Z</time>
      </trkpt>
      <trkpt lat="49.09581" lon="0.73852">
        <ele>137</ele>
        <time>2014-08-24T07:41:32Z</time>
      </trkpt>
      <trkpt lat="49.09586" lon="0.73856">
        <ele>136</ele>
        <time>2014-08-24T07:41:33Z</time>
      </trkpt>
      <trkpt lat="49.09591" lon="0.73859">
        <ele>135</ele>
        <time>2014-08-24T07:41:34Z</time>
      </trkpt>
      <trkpt lat="49.09594" lon="0.73864">
        <ele>135</ele>
        <time>2014-08-24T07:41:35Z</time>
      </trkpt>
      <trkpt lat="49.09598" lon="0.73869">
        <ele>134</ele>
        <time>2014-08-24T07:41:36Z</time>
      </trkpt>
      <trkpt lat="49.09602" lon="0.73873">
        <ele>133</ele>
        <time>2014-08-24T07:41:37Z</time>
      </trkpt>
      <trkpt lat="49.09605" lon="0.73877">
        <ele>132</ele>
        <time>2014-08-24T07:41:38Z</time>
      </trkpt>
      <trkpt lat="49.09611" lon="0.73882">
        <ele>131</ele>
        <time>2014-08-24T07:41:39Z</time>
      </trkpt>
      <trkpt lat="49.09615" lon="0.73884">
        <ele>130</ele>
        <time>2014-08-24T07:41:40Z</time>
      </trkpt>
      <trkpt lat="49.09621" lon="0.73888">
        <ele>129</ele>
        <time>2014-08-24T07:41:41Z</time>
      </trkpt>
      <trkpt lat="49.0963" lon="0.7389">
        <ele>127</ele>
        <time>2014-08-24T07:41:42Z</time>
      </trkpt>
      <trkpt lat="49.09632" lon="0.73894">
        <ele>126</ele>
        <time>2014-08-24T07:41:43Z</time>
      </trkpt>
      <trkpt lat="49.09639" lon="0.73894">
        <ele>124</ele>
        <time>2014-08-24T07:41:44Z</time>
      </trkpt>
      <trkpt lat="49.09646" lon="0.73893">
        <ele>123</ele>
        <time>2014-08-24T07:41:45Z</time>
      </trkpt>
      <trkpt lat="49.09653" lon="0.73892">
        <ele>122</ele>
        <time>2014-08-24T07:41:46Z</time>
      </trkpt>
      <trkpt lat="49.09658" lon="0.73889">
        <ele>122</ele>
        <time>2014-08-24T07:41:47Z</time>
      </trkpt>
      <trkpt lat="49.09663" lon="0.73887">
        <ele>122</ele>
        <time>2014-08-24T07:41:48Z</time>
      </trkpt>
      <trkpt lat="49.09666" lon="0.73886">
        <ele>121</ele>
        <time>2014-08-24T07:41:49Z</time>
      </trkpt>
      <trkpt lat="49.09671" lon="0.73885">
        <ele>121</ele>
        <time>2014-08-24T07:41:50Z</time>
      </trkpt>
      <trkpt lat="49.09675" lon="0.73884">
        <ele>120</ele>
        <time>2014-08-24T07:41:51Z</time>
      </trkpt>
      <trkpt lat="49.09681" lon="0.73882">
        <ele>120</ele>
        <time>2014-08-24T07:41:52Z</time>
      </trkpt>
      <trkpt lat="49.09688" lon="0.73882">
        <ele>118</ele>
        <time>2014-08-24T07:41:53Z</time>
      </trkpt>
      <trkpt lat="49.09695" lon="0.73882">
        <ele>117</ele>
        <time>2014-08-24T07:41:54Z</time>
      </trkpt>
      <trkpt lat="49.09701" lon="0.73881">
        <ele>117</ele>
        <time>2014-08-24T07:41:55Z</time>
      </trkpt>
      <trkpt lat="49.09707" lon="0.7388">
        <ele>116</ele>
        <time>2014-08-24T07:41:56Z</time>
      </trkpt>
      <trkpt lat="49.09713" lon="0.7388">
        <ele>115</ele>
        <time>2014-08-24T07:41:57Z</time>
      </trkpt>
      <trkpt lat="49.0972" lon="0.7388">
        <ele>114</ele>
        <time>2014-08-24T07:41:58Z</time>
      </trkpt>
      <trkpt lat="49.09729" lon="0.73881">
        <ele>112</ele>
        <time>2014-08-24T07:41:59Z</time>
      </trkpt>
      <trkpt lat="49.09737" lon="0.73881">
        <ele>111</ele>
        <time>2014-08-24T07:42:00Z</time>
      </trkpt>
      <trkpt lat="49.09743" lon="0.7388">
        <ele>111</ele>
        <time>2014-08-24T07:42:01Z</time>
      </trkpt>
      <trkpt lat="49.09751" lon="0.7388">
        <ele>110</ele>
        <time>2014-08-24T07:42:02Z</time>
      </trkpt>
      <trkpt lat="49.0976" lon="0.7388">
        <ele>108</ele>
        <time>2014-08-24T07:42:03Z</time>
      </trkpt>
      <trkpt lat="49.09768" lon="0.7388">
        <ele>107</ele>
        <time>2014-08-24T07:42:04Z</time>
      </trkpt>
      <trkpt lat="49.09776" lon="0.7388">
        <ele>106</ele>
        <time>2014-08-24T07:42:05Z</time>
      </trkpt>
      <trkpt lat="49.09785" lon="0.73879">
        <ele>105</ele>
        <time>2014-08-24T07:42:06Z</time>
      </trkpt>
      <trkpt lat="49.09794" lon="0.73878">
        <ele>104</ele>
        <time>2014-08-24T07:42:07Z</time>
      </trkpt>
      <trkpt lat="49.09806" lon="0.73877">
        <ele>102</ele>
        <time>2014-08-24T07:42:08Z</time>
      </trkpt>
      <trkpt lat="49.09816" lon="0.73876">
        <ele>101</ele>
        <time>2014-08-24T07:42:09Z</time>
      </trkpt>
      <trkpt lat="49.09826" lon="0.73873">
        <ele>100</ele>
        <time>2014-08-24T07:42:10Z</time>
      </trkpt>
      <trkpt lat="49.09836" lon="0.7387">
        <ele>100</ele>
        <time>2014-08-24T07:42:11Z</time>
      </trkpt>
      <trkpt lat="49.09843" lon="0.73868">
        <ele>99</ele>
        <time>2014-08-24T07:42:12Z</time>
      </trkpt>
      <trkpt lat="49.09852" lon="0.73865">
        <ele>98</ele>
        <time>2014-08-24T07:42:13Z</time>
      </trkpt>
      <trkpt lat="49.09859" lon="0.73862">
        <ele>98</ele>
        <time>2014-08-24T07:42:14Z</time>
      </trkpt>
      <trkpt lat="49.09866" lon="0.7386">
        <ele>98</ele>
        <time>2014-08-24T07:42:15Z</time>
      </trkpt>
      <trkpt lat="49.09874" lon="0.73858">
        <ele>97</ele>
        <time>2014-08-24T07:42:16Z</time>
      </trkpt>
      <trkpt lat="49.09882" lon="0.73856">
        <ele>96</ele>
        <time>2014-08-24T07:42:17Z</time>
      </trkpt>
      <trkpt lat="49.09889" lon="0.73856">
        <ele>95</ele>
        <time>2014-08-24T07:42:18Z</time>
      </trkpt>
      <trkpt lat="49.09897" lon="0.73854">
        <ele>94</ele>
        <time>2014-08-24T07:42:19Z</time>
      </trkpt>
      <trkpt lat="49.09902" lon="0.73853">
        <ele>94</ele>
        <time>2014-08-24T07:42:20Z</time>
      </trkpt>
      <trkpt lat="49.09908" lon="0.73851">
        <ele>93</ele>
        <time>2014-08-24T07:42:21Z</time>
      </trkpt>
      <trkpt lat="49.09914" lon="0.73849">
        <ele>93</ele>
        <time>2014-08-24T07:42:22Z</time>
      </trkpt>
      <trkpt lat="49.0992" lon="0.73847">
        <ele>92</ele>
        <time>2014-08-24T07:42:23Z</time>
      </trkpt>
      <trkpt lat="49.09924" lon="0.73846">
        <ele>92</ele>
        <time>2014-08-24T07:42:24Z</time>
      </trkpt>
      <trkpt lat="49.09929" lon="0.73845">
        <ele>91</ele>
        <time>2014-08-24T07:42:25Z</time>
      </trkpt>
      <trkpt lat="49.09933" lon="0.73845">
        <ele>90</ele>
        <time>2014-08-24T07:42:26Z</time>
      </trkpt>
      <trkpt lat="49.09938" lon="0.73845">
        <ele>90</ele>
        <time>2014-08-24T07:42:27Z</time>
      </trkpt>
      <trkpt lat="49.09944" lon="0.73843">
        <ele>89</ele>
        <time>2014-08-24T07:42:28Z</time>
      </trkpt>
      <trkpt lat="49.09951" lon="0.73842">
        <ele>89</ele>
        <time>2014-08-24T07:42:29Z</time>
      </trkpt>
      <trkpt lat="49.09957" lon="0.73839">
        <ele>88</ele>
        <time>2014-08-24T07:42:30Z</time>
      </trkpt>
      <trkpt lat="49.09963" lon="0.73837">
        <ele>88</ele>
        <time>2014-08-24T07:42:31Z</time>
      </trkpt>
      <trkpt lat="49.0997" lon="0.73835">
        <ele>87</ele>
        <time>2014-08-24T07:42:32Z</time>
      </trkpt>
      <trkpt lat="49.09983" lon="0.73831">
        <ele>86</ele>
        <time>2014-08-24T07:42:34Z</time>
      </trkpt>
      <trkpt lat="49.09996" lon="0.73832">
        <ele>85</ele>
        <time>2014-08-24T07:42:36Z</time>
      </trkpt>
      <trkpt lat="49.10008" lon="0.73845">
        <ele>84</ele>
        <time>2014-08-24T07:42:39Z</time>
      </trkpt>
      <trkpt lat="49.10013" lon="0.73858">
        <ele>83</ele>
        <time>2014-08-24T07:42:41Z</time>
      </trkpt>
      <trkpt lat="49.10018" lon="0.73862">
        <ele>82</ele>
        <time>2014-08-24T07:42:42Z</time>
      </trkpt>
      <trkpt lat="49.10023" lon="0.73863">
        <ele>82</ele>
        <time>2014-08-24T07:42:43Z</time>
      </trkpt>
      <trkpt lat="49.10036" lon="0.73853">
        <ele>82</ele>
        <time>2014-08-24T07:42:45Z</time>
      </trkpt>
      <trkpt lat="49.10042" lon="0.73845">
        <ele>82</ele>
        <time>2014-08-24T07:42:46Z</time>
      </trkpt>
      <trkpt lat="49.1005" lon="0.73837">
        <ele>82</ele>
        <time>2014-08-24T07:42:47Z</time>
      </trkpt>
      <trkpt lat="49.10057" lon="0.73833">
        <ele>82</ele>
        <time>2014-08-24T07:42:48Z</time>
      </trkpt>
      <trkpt lat="49.10062" lon="0.73833">
        <ele>82</ele>
        <time>2014-08-24T07:42:49Z</time>
      </trkpt>
      <trkpt lat="49.10069" lon="0.73835">
        <ele>82</ele>
        <time>2014-08-24T07:42:50Z</time>
      </trkpt>
      <trkpt lat="49.10074" lon="0.73839">
        <ele>81</ele>
        <time>2014-08-24T07:42:51Z</time>
      </trkpt>
      <trkpt lat="49.10064" lon="0.73849">
        <ele>81</ele>
        <time>2014-08-24T07:42:52Z</time>
      </trkpt>
      <trkpt lat="49.10054" lon="0.73857">
        <ele>81</ele>
        <time>2014-08-24T07:42:54Z</time>
      </trkpt>
      <trkpt lat="49.1005" lon="0.73862">
        <ele>81</ele>
        <time>2014-08-24T07:42:55Z</time>
      </trkpt>
      <trkpt lat="49.10043" lon="0.73888">
        <ele>80</ele>
        <time>2014-08-24T07:42:59Z</time>
      </trkpt>
      <trkpt lat="49.10047" lon="0.73896">
        <ele>80</ele>
        <time>2014-08-24T07:43:00Z</time>
      </trkpt>
      <trkpt lat="49.10055" lon="0.73901">
        <ele>80</ele>
        <time>2014-08-24T07:43:01Z</time>
      </trkpt>
      <trkpt lat="49.10062" lon="0.73906">
        <ele>79</ele>
        <time>2014-08-24T07:43:02Z</time>
      </trkpt>
      <trkpt lat="49.10069" lon="0.73912">
        <ele>79</ele>
        <time>2014-08-24T07:43:03Z</time>
      </trkpt>
      <trkpt lat="49.10076" lon="0.73919">
        <ele>79</ele>
        <time>2014-08-24T07:43:04Z</time>
      </trkpt>
      <trkpt lat="49.10083" lon="0.73929">
        <ele>78</ele>
        <time>2014-08-24T07:43:05Z</time>
      </trkpt>
      <trkpt lat="49.10088" lon="0.73938">
        <ele>78</ele>
        <time>2014-08-24T07:43:06Z</time>
      </trkpt>
      <trkpt lat="49.10093" lon="0.73948">
        <ele>78</ele>
        <time>2014-08-24T07:43:07Z</time>
      </trkpt>
      <trkpt lat="49.10108" lon="0.73977">
        <ele>77</ele>
        <time>2014-08-24T07:43:10Z</time>
      </trkpt>
      <trkpt lat="49.10122" lon="0.74006">
        <ele>77</ele>
        <time>2014-08-24T07:43:13Z</time>
      </trkpt>
      <trkpt lat="49.10126" lon="0.74015">
        <ele>77</ele>
        <time>2014-08-24T07:43:14Z</time>
      </trkpt>
      <trkpt lat="49.10131" lon="0.74026">
        <ele>77</ele>
        <time>2014-08-24T07:43:15Z</time>
      </trkpt>
      <trkpt lat="49.10134" lon="0.74036">
        <ele>77</ele>
        <time>2014-08-24T07:43:16Z</time>
      </trkpt>
      <trkpt lat="49.10137" lon="0.74045">
        <ele>77</ele>
        <time>2014-08-24T07:43:17Z</time>
      </trkpt>
      <trkpt lat="49.10156" lon="0.74092">
        <ele>78</ele>
        <time>2014-08-24T07:43:22Z</time>
      </trkpt>
      <trkpt lat="49.10185" lon="0.74128">
        <ele>78</ele>
        <time>2014-08-24T07:43:27Z</time>
      </trkpt>
      <trkpt lat="49.10195" lon="0.74144">
        <ele>78</ele>
        <time>2014-08-24T07:43:29Z</time>
      </trkpt>
      <trkpt lat="49.10206" lon="0.74171">
        <ele>78</ele>
        <time>2014-08-24T07:43:32Z</time>
      </trkpt>
      <trkpt lat="49.10209" lon="0.7418">
        <ele>78</ele>
        <time>2014-08-24T07:43:33Z</time>
      </trkpt>
      <trkpt lat="49.10217" lon="0.74199">
        <ele>78</ele>
        <time>2014-08-24T07:43:35Z</time>
      </trkpt>
      <trkpt lat="49.10227" lon="0.74214">
        <ele>78</ele>
        <time>2014-08-24T07:43:37Z</time>
      </trkpt>
      <trkpt lat="49.10243" lon="0.74231">
        <ele>78</ele>
        <time>2014-08-24T07:43:40Z</time>
      </trkpt>
      <trkpt lat="49.10249" lon="0.74235">
        <ele>78</ele>
        <time>2014-08-24T07:43:41Z</time>
      </trkpt>
      <trkpt lat="49.10267" lon="0.74247">
        <ele>78</ele>
        <time>2014-08-24T07:43:44Z</time>
      </trkpt>
      <trkpt lat="49.10272" lon="0.74254">
        <ele>78</ele>
        <time>2014-08-24T07:43:45Z</time>
      </trkpt>
      <trkpt lat="49.10273" lon="0.74271">
        <ele>78</ele>
        <time>2014-08-24T07:43:47Z</time>
      </trkpt>
      <trkpt lat="49.10263" lon="0.74291">
        <ele>78</ele>
        <time>2014-08-24T07:43:50Z</time>
      </trkpt>
      <trkpt lat="49.1026" lon="0.74298">
        <ele>78</ele>
        <time>2014-08-24T07:43:51Z</time>
      </trkpt>
      <trkpt lat="49.10242" lon="0.7431">
        <ele>78</ele>
        <time>2014-08-24T07:43:54Z</time>
      </trkpt>
      <trkpt lat="49.1023" lon="0.74317">
        <ele>78</ele>
        <time>2014-08-24T07:43:56Z</time>
      </trkpt>
      <trkpt lat="49.10203" lon="0.74331">
        <ele>78</ele>
        <time>2014-08-24T07:44:00Z</time>
      </trkpt>
      <trkpt lat="49.10153" lon="0.74362">
        <ele>79</ele>
        <time>2014-08-24T07:44:08Z</time>
      </trkpt>
      <trkpt lat="49.10147" lon="0.74367">
        <ele>79</ele>
        <time>2014-08-24T07:44:09Z</time>
      </trkpt>
      <trkpt lat="49.1013" lon="0.74379">
        <ele>79</ele>
        <time>2014-08-24T07:44:12Z</time>
      </trkpt>
      <trkpt lat="49.10113" lon="0.74393">
        <ele>79</ele>
        <time>2014-08-24T07:44:15Z</time>
      </trkpt>
      <trkpt lat="49.10101" lon="0.744">
        <ele>79</ele>
        <time>2014-08-24T07:44:17Z</time>
      </trkpt>
      <trkpt lat="49.10085" lon="0.74409">
        <ele>79</ele>
        <time>2014-08-24T07:44:20Z</time>
      </trkpt>
      <trkpt lat="49.10043" lon="0.74439">
        <ele>79</ele>
        <time>2014-08-24T07:44:28Z</time>
      </trkpt>
      <trkpt lat="49.10026" lon="0.74448">
        <ele>79</ele>
        <time>2014-08-24T07:44:31Z</time>
      </trkpt>
      <trkpt lat="49.10017" lon="0.74449">
        <ele>79</ele>
        <time>2014-08-24T07:44:33Z</time>
      </trkpt>
      <trkpt lat="49.1" lon="0.74452">
        <ele>79</ele>
        <time>2014-08-24T07:44:36Z</time>
      </trkpt>
      <trkpt lat="49.09994" lon="0.74453">
        <ele>79</ele>
        <time>2014-08-24T07:44:37Z</time>
      </trkpt>
      <trkpt lat="49.09989" lon="0.74466">
        <ele>79</ele>
        <time>2014-08-24T07:44:40Z</time>
      </trkpt>
      <trkpt lat="49.10003" lon="0.74498">
        <ele>79</ele>
        <time>2014-08-24T07:44:46Z</time>
      </trkpt>
      <trkpt lat="49.10019" lon="0.74538">
        <ele>79</ele>
        <time>2014-08-24T07:44:53Z</time>
      </trkpt>
      <trkpt lat="49.10029" lon="0.74572">
        <ele>79</ele>
        <time>2014-08-24T07:44:58Z</time>
      </trkpt>
      <trkpt lat="49.10042" lon="0.746">
        <ele>79</ele>
        <time>2014-08-24T07:45:02Z</time>
      </trkpt>
      <trkpt lat="49.10046" lon="0.74603">
        <ele>79</ele>
        <time>2014-08-24T07:45:03Z</time>
      </trkpt>
      <trkpt lat="49.10058" lon="0.74608">
        <ele>79</ele>
        <time>2014-08-24T07:45:06Z</time>
      </trkpt>
      <trkpt lat="49.10061" lon="0.74609">
        <ele>79</ele>
        <time>2014-08-24T07:45:07Z</time>
      </trkpt>
      <trkpt lat="49.10075" lon="0.74621">
        <ele>79</ele>
        <time>2014-08-24T07:45:12Z</time>
      </trkpt>
      <trkpt lat="49.10092" lon="0.74635">
        <ele>79</ele>
        <time>2014-08-24T07:45:18Z</time>
      </trkpt>
      <trkpt lat="49.10095" lon="0.74637">
        <ele>79</ele>
        <time>2014-08-24T07:45:19Z</time>
      </trkpt>
      <trkpt lat="49.10105" lon="0.74638">
        <ele>79</ele>
        <time>2014-08-24T07:45:24Z</time>
      </trkpt>
      <trkpt lat="49.10107" lon="0.74639">
        <ele>79</ele>
        <time>2014-08-24T07:45:25Z</time>
      </trkpt>
      <trkpt lat="49.1011" lon="0.7464">
        <ele>79</ele>
        <time>2014-08-24T07:45:32Z</time>
      </trkpt>
      <trkpt lat="49.1011" lon="0.74639">
        <ele>79</ele>
        <time>2014-08-24T07:45:33Z</time>
      </trkpt>
      <trkpt lat="49.10117" lon="0.7464">
        <ele>79</ele>
        <time>2014-08-24T07:45:39Z</time>
      </trkpt>
      <trkpt lat="49.10117" lon="0.7464">
        <ele>79</ele>
        <time>2014-08-24T07:45:40Z</time>
      </trkpt>
      <trkpt lat="49.1013" lon="0.74638">
        <ele>79</ele>
        <time>2014-08-24T07:45:47Z</time>
      </trkpt>
      <trkpt lat="49.10161" lon="0.74635">
        <ele>79</ele>
        <time>2014-08-24T07:45:57Z</time>
      </trkpt>
      <trkpt lat="49.1018" lon="0.74637">
        <ele>79</ele>
        <time>2014-08-24T07:46:02Z</time>
      </trkpt>
      <trkpt lat="49.102" lon="0.74639">
        <ele>79</ele>
        <time>2014-08-24T07:46:08Z</time>
      </trkpt>
      <trkpt lat="49.10213" lon="0.74642">
        <ele>79</ele>
        <time>2014-08-24T07:46:13Z</time>
      </trkpt>
      <trkpt lat="49.1023" lon="0.74647">
        <ele>79</ele>
        <time>2014-08-24T07:46:18Z</time>
      </trkpt>
      <trkpt lat="49.10236" lon="0.7465">
        <ele>79</ele>
        <time>2014-08-24T07:46:20Z</time>
      </trkpt>
      <trkpt lat="49.10258" lon="0.74661">
        <ele>79</ele>
        <time>2014-08-24T07:46:26Z</time>
      </trkpt>
      <trkpt lat="49.1027" lon="0.74678">
        <ele>79</ele>
        <time>2014-08-24T07:46:31Z</time>
      </trkpt>
      <trkpt lat="49.10278" lon="0.74698">
        <ele>79</ele>
        <time>2014-08-24T07:46:36Z</time>
      </trkpt>
      <trkpt lat="49.10282" lon="0.74721">
        <ele>79</ele>
        <time>2014-08-24T07:46:41Z</time>
      </trkpt>
      <trkpt lat="49.10291" lon="0.74751">
        <ele>79</ele>
        <time>2014-08-24T07:46:47Z</time>
      </trkpt>
      <trkpt lat="49.1031" lon="0.74763">
        <ele>79</ele>
        <time>2014-08-24T07:46:51Z</time>
      </trkpt>
      <trkpt lat="49.10319" lon="0.74774">
        <ele>79</ele>
        <time>2014-08-24T07:46:55Z</time>
      </trkpt>
      <trkpt lat="49.10336" lon="0.74799">
        <ele>78</ele>
        <time>2014-08-24T07:47:17Z</time>
      </trkpt>
      <trkpt lat="49.10339" lon="0.74804">
        <ele>78</ele>
        <time>2014-08-24T07:47:20Z</time>
      </trkpt>
      <trkpt lat="49.1035" lon="0.74817">
        <ele>78</ele>
        <time>2014-08-24T07:47:25Z</time>
      </trkpt>
      <trkpt lat="49.10358" lon="0.74837">
        <ele>78</ele>
        <time>2014-08-24T07:47:29Z</time>
      </trkpt>
      <trkpt lat="49.10364" lon="0.74846">
        <ele>78</ele>
        <time>2014-08-24T07:47:31Z</time>
      </trkpt>
      <trkpt lat="49.10383" lon="0.74872">
        <ele>78</ele>
        <time>2014-08-24T07:47:37Z</time>
      </trkpt>
      <trkpt lat="49.10386" lon="0.74875">
        <ele>78</ele>
        <time>2014-08-24T07:47:38Z</time>
      </trkpt>
      <trkpt lat="49.104" lon="0.74889">
        <ele>78</ele>
        <time>2014-08-24T07:47:43Z</time>
      </trkpt>
      <trkpt lat="49.10418" lon="0.74909">
        <ele>79</ele>
        <time>2014-08-24T07:47:49Z</time>
      </trkpt>
      <trkpt lat="49.10427" lon="0.74914">
        <ele>79</ele>
        <time>2014-08-24T07:47:54Z</time>
      </trkpt>
      <trkpt lat="49.10429" lon="0.74915">
        <ele>79</ele>
        <time>2014-08-24T07:47:55Z</time>
      </trkpt>
      <trkpt lat="49.10432" lon="0.74918">
        <ele>79</ele>
        <time>2014-08-24T07:47:58Z</time>
      </trkpt>
      <trkpt lat="49.10432" lon="0.74922">
        <ele>79</ele>
        <time>2014-08-24T07:48:02Z</time>
      </trkpt>
      <trkpt lat="49.10432" lon="0.74939">
        <ele>80</ele>
        <time>2014-08-24T07:48:10Z</time>
      </trkpt>
      <trkpt lat="49.10434" lon="0.74947">
        <ele>80</ele>
        <time>2014-08-24T07:48:12Z</time>
      </trkpt>
      <trkpt lat="49.10446" lon="0.74969">
        <ele>82</ele>
        <time>2014-08-24T07:48:17Z</time>
      </trkpt>
      <trkpt lat="49.10448" lon="0.74973">
        <ele>82</ele>
        <time>2014-08-24T07:48:18Z</time>
      </trkpt>
      <trkpt lat="49.1045" lon="0.74976">
        <ele>83</ele>
        <time>2014-08-24T07:48:19Z</time>
      </trkpt>
      <trkpt lat="49.10451" lon="0.7498">
        <ele>83</ele>
        <time>2014-08-24T07:48:20Z</time>
      </trkpt>
      <trkpt lat="49.10452" lon="0.74984">
        <ele>83</ele>
        <time>2014-08-24T07:48:21Z</time>
      </trkpt>
      <trkpt lat="49.10453" lon="0.74989">
        <ele>84</ele>
        <time>2014-08-24T07:48:22Z</time>
      </trkpt>
      <trkpt lat="49.10455" lon="0.74993">
        <ele>84</ele>
        <time>2014-08-24T07:48:23Z</time>
      </trkpt>
      <trkpt lat="49.10459" lon="0.75005">
        <ele>85</ele>
        <time>2014-08-24T07:48:26Z</time>
      </trkpt>
      <trkpt lat="49.10461" lon="0.75009">
        <ele>86</ele>
        <time>2014-08-24T07:48:27Z</time>
      </trkpt>
      <trkpt lat="49.10463" lon="0.75012">
        <ele>86</ele>
        <time>2014-08-24T07:48:28Z</time>
      </trkpt>
      <trkpt lat="49.10465" lon="0.75016">
        <ele>86</ele>
        <time>2014-08-24T07:48:29Z</time>
      </trkpt>
      <trkpt lat="49.10465" lon="0.7502">
        <ele>87</ele>
        <time>2014-08-24T07:48:30Z</time>
      </trkpt>
      <trkpt lat="49.10466" lon="0.75024">
        <ele>87</ele>
        <time>2014-08-24T07:48:31Z</time>
      </trkpt>
      <trkpt lat="49.10468" lon="0.75027">
        <ele>87</ele>
        <time>2014-08-24T07:48:32Z</time>
      </trkpt>
      <trkpt lat="49.10477" lon="0.75043">
        <ele>89</ele>
        <time>2014-08-24T07:48:37Z</time>
      </trkpt>
      <trkpt lat="49.10479" lon="0.75046">
        <ele>89</ele>
        <time>2014-08-24T07:48:38Z</time>
      </trkpt>
      <trkpt lat="49.1048" lon="0.75049">
        <ele>90</ele>
        <time>2014-08-24T07:48:39Z</time>
      </trkpt>
      <trkpt lat="49.10481" lon="0.75052">
        <ele>90</ele>
        <time>2014-08-24T07:48:40Z</time>
      </trkpt>
      <trkpt lat="49.10482" lon="0.75055">
        <ele>90</ele>
        <time>2014-08-24T07:48:41Z</time>
      </trkpt>
      <trkpt lat="49.10483" lon="0.75058">
        <ele>90</ele>
        <time>2014-08-24T07:48:42Z</time>
      </trkpt>
      <trkpt lat="49.10483" lon="0.75061">
        <ele>91</ele>
        <time>2014-08-24T07:48:43Z</time>
      </trkpt>
      <trkpt lat="49.10484" lon="0.75064">
        <ele>91</ele>
        <time>2014-08-24T07:48:44Z</time>
      </trkpt>
      <trkpt lat="49.10484" lon="0.75067">
        <ele>91</ele>
        <time>2014-08-24T07:48:45Z</time>
      </trkpt>
      <trkpt lat="49.10486" lon="0.7507">
        <ele>91</ele>
        <time>2014-08-24T07:48:46Z</time>
      </trkpt>
      <trkpt lat="49.10491" lon="0.75086">
        <ele>93</ele>
        <time>2014-08-24T07:48:51Z</time>
      </trkpt>
      <trkpt lat="49.10493" lon="0.75089">
        <ele>93</ele>
        <time>2014-08-24T07:48:52Z</time>
      </trkpt>
      <trkpt lat="49.10493" lon="0.75093">
        <ele>93</ele>
        <time>2014-08-24T07:48:53Z</time>
      </trkpt>
      <trkpt lat="49.10495" lon="0.75096">
        <ele>94</ele>
        <time>2014-08-24T07:48:54Z</time>
      </trkpt>
      <trkpt lat="49.10496" lon="0.75099">
        <ele>94</ele>
        <time>2014-08-24T07:48:55Z</time>
      </trkpt>
      <trkpt lat="49.10498" lon="0.75107">
        <ele>95</ele>
        <time>2014-08-24T07:48:58Z</time>
      </trkpt>
      <trkpt lat="49.10499" lon="0.7511">
        <ele>96</ele>
        <time>2014-08-24T07:48:59Z</time>
      </trkpt>
      <trkpt lat="49.105" lon="0.75113">
        <ele>96</ele>
        <time>2014-08-24T07:49:00Z</time>
      </trkpt>
      <trkpt lat="49.10501" lon="0.75116">
        <ele>96</ele>
        <time>2014-08-24T07:49:01Z</time>
      </trkpt>
      <trkpt lat="49.10502" lon="0.75118">
        <ele>96</ele>
        <time>2014-08-24T07:49:02Z</time>
      </trkpt>
      <trkpt lat="49.10507" lon="0.75126">
        <ele>97</ele>
        <time>2014-08-24T07:49:06Z</time>
      </trkpt>
      <trkpt lat="49.10509" lon="0.75129">
        <ele>98</ele>
        <time>2014-08-24T07:49:08Z</time>
      </trkpt>
      <trkpt lat="49.1051" lon="0.75131">
        <ele>98</ele>
        <time>2014-08-24T07:49:09Z</time>
      </trkpt>
      <trkpt lat="49.10513" lon="0.75135">
        <ele>98</ele>
        <time>2014-08-24T07:49:11Z</time>
      </trkpt>
      <trkpt lat="49.10514" lon="0.75137">
        <ele>99</ele>
        <time>2014-08-24T07:49:12Z</time>
      </trkpt>
      <trkpt lat="49.10515" lon="0.75139">
        <ele>99</ele>
        <time>2014-08-24T07:49:13Z</time>
      </trkpt>
      <trkpt lat="49.10518" lon="0.75144">
        <ele>99</ele>
        <time>2014-08-24T07:49:16Z</time>
      </trkpt>
      <trkpt lat="49.10522" lon="0.75149">
        <ele>100</ele>
        <time>2014-08-24T07:49:19Z</time>
      </trkpt>
      <trkpt lat="49.10523" lon="0.75151">
        <ele>100</ele>
        <time>2014-08-24T07:49:20Z</time>
      </trkpt>
      <trkpt lat="49.10525" lon="0.75153">
        <ele>100</ele>
        <time>2014-08-24T07:49:21Z</time>
      </trkpt>
      <trkpt lat="49.10527" lon="0.75154">
        <ele>100</ele>
        <time>2014-08-24T07:49:22Z</time>
      </trkpt>
      <trkpt lat="49.10528" lon="0.75155">
        <ele>100</ele>
        <time>2014-08-24T07:49:23Z</time>
      </trkpt>
      <trkpt lat="49.10529" lon="0.75156">
        <ele>100</ele>
        <time>2014-08-24T07:49:25Z</time>
      </trkpt>
      <trkpt lat="49.10534" lon="0.75166">
        <ele>102</ele>
        <time>2014-08-24T07:49:31Z</time>
      </trkpt>
      <trkpt lat="49.10535" lon="0.75167">
        <ele>102</ele>
        <time>2014-08-24T07:49:32Z</time>
      </trkpt>
      <trkpt lat="49.10535" lon="0.7517">
        <ele>103</ele>
        <time>2014-08-24T07:49:33Z</time>
      </trkpt>
      <trkpt lat="49.10535" lon="0.75172">
        <ele>103</ele>
        <time>2014-08-24T07:49:34Z</time>
      </trkpt>
      <trkpt lat="49.10535" lon="0.75173">
        <ele>104</ele>
        <time>2014-08-24T07:49:35Z</time>
      </trkpt>
      <trkpt lat="49.10536" lon="0.75184">
        <ele>106</ele>
        <time>2014-08-24T07:49:40Z</time>
      </trkpt>
      <trkpt lat="49.10537" lon="0.75186">
        <ele>107</ele>
        <time>2014-08-24T07:49:41Z</time>
      </trkpt>
      <trkpt lat="49.10537" lon="0.75188">
        <ele>107</ele>
        <time>2014-08-24T07:49:42Z</time>
      </trkpt>
      <trkpt lat="49.10537" lon="0.7519">
        <ele>107</ele>
        <time>2014-08-24T07:49:43Z</time>
      </trkpt>
      <trkpt lat="49.10537" lon="0.75193">
        <ele>108</ele>
        <time>2014-08-24T07:49:44Z</time>
      </trkpt>
      <trkpt lat="49.10536" lon="0.752">
        <ele>110</ele>
        <time>2014-08-24T07:49:49Z</time>
      </trkpt>
      <trkpt lat="49.10536" lon="0.75202">
        <ele>110</ele>
        <time>2014-08-24T07:49:50Z</time>
      </trkpt>
      <trkpt lat="49.10536" lon="0.75203">
        <ele>111</ele>
        <time>2014-08-24T07:49:51Z</time>
      </trkpt>
      <trkpt lat="49.10536" lon="0.75204">
        <ele>111</ele>
        <time>2014-08-24T07:49:52Z</time>
      </trkpt>
      <trkpt lat="49.10536" lon="0.75205">
        <ele>111</ele>
        <time>2014-08-24T07:49:53Z</time>
      </trkpt>
      <trkpt lat="49.10509" lon="0.75224">
        <ele>116</ele>
        <time>2014-08-24T07:50:20Z</time>
      </trkpt>
      <trkpt lat="49.10508" lon="0.75226">
        <ele>116</ele>
        <time>2014-08-24T07:50:21Z</time>
      </trkpt>
      <trkpt lat="49.10507" lon="0.75227">
        <ele>116</ele>
        <time>2014-08-24T07:50:22Z</time>
      </trkpt>
      <trkpt lat="49.10506" lon="0.75227">
        <ele>117</ele>
        <time>2014-08-24T07:50:23Z</time>
      </trkpt>
      <trkpt lat="49.10505" lon="0.75228">
        <ele>117</ele>
        <time>2014-08-24T07:50:24Z</time>
      </trkpt>
      <trkpt lat="49.10504" lon="0.75228">
        <ele>117</ele>
        <time>2014-08-24T07:50:25Z</time>
      </trkpt>
      <trkpt lat="49.10503" lon="0.75228">
        <ele>117</ele>
        <time>2014-08-24T07:50:26Z</time>
      </trkpt>
      <trkpt lat="49.105" lon="0.75228">
        <ele>117</ele>
        <time>2014-08-24T07:50:28Z</time>
      </trkpt>
      <trkpt lat="49.10494" lon="0.75231">
        <ele>117</ele>
        <time>2014-08-24T07:50:31Z</time>
      </trkpt>
      <trkpt lat="49.10493" lon="0.75231">
        <ele>117</ele>
        <time>2014-08-24T07:50:32Z</time>
      </trkpt>
      <trkpt lat="49.10489" lon="0.75232">
        <ele>117</ele>
        <time>2014-08-24T07:50:33Z</time>
      </trkpt>
      <trkpt lat="49.10489" lon="0.75233">
        <ele>118</ele>
        <time>2014-08-24T07:50:34Z</time>
      </trkpt>
      <trkpt lat="49.10488" lon="0.75234">
        <ele>118</ele>
        <time>2014-08-24T07:50:35Z</time>
      </trkpt>
      <trkpt lat="49.10485" lon="0.75233">
        <ele>118</ele>
        <time>2014-08-24T07:50:38Z</time>
      </trkpt>
      <trkpt lat="49.10468" lon="0.75242">
        <ele>119</ele>
        <time>2014-08-24T07:50:48Z</time>
      </trkpt>
      <trkpt lat="49.10467" lon="0.75243">
        <ele>119</ele>
        <time>2014-08-24T07:50:49Z</time>
      </trkpt>
      <trkpt lat="49.10466" lon="0.75243">
        <ele>119</ele>
        <time>2014-08-24T07:50:50Z</time>
      </trkpt>
      <trkpt lat="49.10463" lon="0.75249">
        <ele>120</ele>
        <time>2014-08-24T07:50:54Z</time>
      </trkpt>
      <trkpt lat="49.10464" lon="0.7525">
        <ele>120</ele>
        <time>2014-08-24T07:50:55Z</time>
      </trkpt>
      <trkpt lat="49.10453" lon="0.75263">
        <ele>122</ele>
        <time>2014-08-24T07:51:03Z</time>
      </trkpt>
      <trkpt lat="49.10452" lon="0.75265">
        <ele>122</ele>
        <time>2014-08-24T07:51:04Z</time>
      </trkpt>
      <trkpt lat="49.1045" lon="0.75267">
        <ele>122</ele>
        <time>2014-08-24T07:51:05Z</time>
      </trkpt>
      <trkpt lat="49.10448" lon="0.75268">
        <ele>123</ele>
        <time>2014-08-24T07:51:06Z</time>
      </trkpt>
      <trkpt lat="49.10443" lon="0.75273">
        <ele>123</ele>
        <time>2014-08-24T07:51:09Z</time>
      </trkpt>
      <trkpt lat="49.1044" lon="0.75275">
        <ele>123</ele>
        <time>2014-08-24T07:51:11Z</time>
      </trkpt>
      <trkpt lat="49.10438" lon="0.75276">
        <ele>123</ele>
        <time>2014-08-24T07:51:12Z</time>
      </trkpt>
      <trkpt lat="49.10437" lon="0.75277">
        <ele>123</ele>
        <time>2014-08-24T07:51:13Z</time>
      </trkpt>
      <trkpt lat="49.10437" lon="0.75278">
        <ele>123</ele>
        <time>2014-08-24T07:51:14Z</time>
      </trkpt>
      <trkpt lat="49.10437" lon="0.75279">
        <ele>124</ele>
        <time>2014-08-24T07:51:15Z</time>
      </trkpt>
      <trkpt lat="49.10437" lon="0.7528">
        <ele>124</ele>
        <time>2014-08-24T07:51:16Z</time>
      </trkpt>
      <trkpt lat="49.10435" lon="0.75287">
        <ele>125</ele>
        <time>2014-08-24T07:51:20Z</time>
      </trkpt>
      <trkpt lat="49.10434" lon="0.75288">
        <ele>125</ele>
        <time>2014-08-24T07:51:21Z</time>
      </trkpt>
      <trkpt lat="49.10433" lon="0.75289">
        <ele>125</ele>
        <time>2014-08-24T07:51:22Z</time>
      </trkpt>
      <trkpt lat="49.10433" lon="0.7529">
        <ele>125</ele>
        <time>2014-08-24T07:51:23Z</time>
      </trkpt>
      <trkpt lat="49.10417" lon="0.75306">
        <ele>127</ele>
        <time>2014-08-24T07:51:34Z</time>
      </trkpt>
      <trkpt lat="49.10412" lon="0.7531">
        <ele>127</ele>
        <time>2014-08-24T07:51:37Z</time>
      </trkpt>
      <trkpt lat="49.10411" lon="0.75312">
        <ele>127</ele>
        <time>2014-08-24T07:51:38Z</time>
      </trkpt>
      <trkpt lat="49.10411" lon="0.75314">
        <ele>127</ele>
        <time>2014-08-24T07:51:39Z</time>
      </trkpt>
      <trkpt lat="49.1041" lon="0.75316">
        <ele>127</ele>
        <time>2014-08-24T07:51:40Z</time>
      </trkpt>
      <trkpt lat="49.1041" lon="0.75318">
        <ele>128</ele>
        <time>2014-08-24T07:51:41Z</time>
      </trkpt>
      <trkpt lat="49.1041" lon="0.7532">
        <ele>128</ele>
        <time>2014-08-24T07:51:42Z</time>
      </trkpt>
      <trkpt lat="49.10409" lon="0.7532">
        <ele>128</ele>
        <time>2014-08-24T07:51:43Z</time>
      </trkpt>
      <trkpt lat="49.10404" lon="0.75333">
        <ele>129</ele>
        <time>2014-08-24T07:51:51Z</time>
      </trkpt>
      <trkpt lat="49.10398" lon="0.75337">
        <ele>129</ele>
        <time>2014-08-24T07:51:54Z</time>
      </trkpt>
      <trkpt lat="49.10395" lon="0.75339">
        <ele>129</ele>
        <time>2014-08-24T07:51:55Z</time>
      </trkpt>
      <trkpt lat="49.10393" lon="0.7534">
        <ele>129</ele>
        <time>2014-08-24T07:51:56Z</time>
      </trkpt>
      <trkpt lat="49.10391" lon="0.75341">
        <ele>129</ele>
        <time>2014-08-24T07:51:57Z</time>
      </trkpt>
      <trkpt lat="49.10391" lon="0.75343">
        <ele>129</ele>
        <time>2014-08-24T07:51:58Z</time>
      </trkpt>
      <trkpt lat="49.10389" lon="0.75349">
        <ele>129</ele>
        <time>2014-08-24T07:52:01Z</time>
      </trkpt>
      <trkpt lat="49.10386" lon="0.75357">
        <ele>130</ele>
        <time>2014-08-24T07:52:06Z</time>
      </trkpt>
      <trkpt lat="49.10385" lon="0.75359">
        <ele>130</ele>
        <time>2014-08-24T07:52:07Z</time>
      </trkpt>
      <trkpt lat="49.10384" lon="0.75361">
        <ele>130</ele>
        <time>2014-08-24T07:52:08Z</time>
      </trkpt>
      <trkpt lat="49.10382" lon="0.75364">
        <ele>131</ele>
        <time>2014-08-24T07:52:09Z</time>
      </trkpt>
      <trkpt lat="49.10381" lon="0.75366">
        <ele>131</ele>
        <time>2014-08-24T07:52:10Z</time>
      </trkpt>
      <trkpt lat="49.10374" lon="0.75378">
        <ele>131</ele>
        <time>2014-08-24T07:52:17Z</time>
      </trkpt>
      <trkpt lat="49.10373" lon="0.7538">
        <ele>131</ele>
        <time>2014-08-24T07:52:18Z</time>
      </trkpt>
      <trkpt lat="49.10372" lon="0.75381">
        <ele>131</ele>
        <time>2014-08-24T07:52:19Z</time>
      </trkpt>
      <trkpt lat="49.10371" lon="0.75382">
        <ele>131</ele>
        <time>2014-08-24T07:52:20Z</time>
      </trkpt>
      <trkpt lat="49.1037" lon="0.75384">
        <ele>131</ele>
        <time>2014-08-24T07:52:21Z</time>
      </trkpt>
      <trkpt lat="49.10364" lon="0.75392">
        <ele>131</ele>
        <time>2014-08-24T07:52:25Z</time>
      </trkpt>
      <trkpt lat="49.10356" lon="0.75405">
        <ele>131</ele>
        <time>2014-08-24T07:52:30Z</time>
      </trkpt>
      <trkpt lat="49.10356" lon="0.75408">
        <ele>131</ele>
        <time>2014-08-24T07:52:31Z</time>
      </trkpt>
      <trkpt lat="49.10356" lon="0.75411">
        <ele>131</ele>
        <time>2014-08-24T07:52:32Z</time>
      </trkpt>
      <trkpt lat="49.10356" lon="0.75414">
        <ele>131</ele>
        <time>2014-08-24T07:52:33Z</time>
      </trkpt>
      <trkpt lat="49.10357" lon="0.75417">
        <ele>132</ele>
        <time>2014-08-24T07:52:34Z</time>
      </trkpt>
      <trkpt lat="49.10359" lon="0.75426">
        <ele>133</ele>
        <time>2014-08-24T07:52:37Z</time>
      </trkpt>
      <trkpt lat="49.10365" lon="0.75449">
        <ele>134</ele>
        <time>2014-08-24T07:52:43Z</time>
      </trkpt>
      <trkpt lat="49.10378" lon="0.75474">
        <ele>136</ele>
        <time>2014-08-24T07:52:48Z</time>
      </trkpt>
      <trkpt lat="49.10391" lon="0.75509">
        <ele>138</ele>
        <time>2014-08-24T07:52:55Z</time>
      </trkpt>
      <trkpt lat="49.10396" lon="0.75532">
        <ele>140</ele>
        <time>2014-08-24T07:53:00Z</time>
      </trkpt>
      <trkpt lat="49.10394" lon="0.75541">
        <ele>140</ele>
        <time>2014-08-24T07:53:02Z</time>
      </trkpt>
      <trkpt lat="49.10393" lon="0.75544">
        <ele>140</ele>
        <time>2014-08-24T07:53:03Z</time>
      </trkpt>
      <trkpt lat="49.10392" lon="0.75547">
        <ele>140</ele>
        <time>2014-08-24T07:53:04Z</time>
      </trkpt>
      <trkpt lat="49.10391" lon="0.7555">
        <ele>140</ele>
        <time>2014-08-24T07:53:05Z</time>
      </trkpt>
      <trkpt lat="49.10389" lon="0.75553">
        <ele>140</ele>
        <time>2014-08-24T07:53:06Z</time>
      </trkpt>
      <trkpt lat="49.10382" lon="0.75562">
        <ele>141</ele>
        <time>2014-08-24T07:53:09Z</time>
      </trkpt>
      <trkpt lat="49.10377" lon="0.75572">
        <ele>141</ele>
        <time>2014-08-24T07:53:12Z</time>
      </trkpt>
      <trkpt lat="49.10375" lon="0.75574">
        <ele>141</ele>
        <time>2014-08-24T07:53:13Z</time>
      </trkpt>
      <trkpt lat="49.10366" lon="0.75587">
        <ele>142</ele>
        <time>2014-08-24T07:53:18Z</time>
      </trkpt>
      <trkpt lat="49.10355" lon="0.75608">
        <ele>142</ele>
        <time>2014-08-24T07:53:25Z</time>
      </trkpt>
      <trkpt lat="49.10349" lon="0.7562">
        <ele>143</ele>
        <time>2014-08-24T07:53:28Z</time>
      </trkpt>
      <trkpt lat="49.10346" lon="0.75624">
        <ele>143</ele>
        <time>2014-08-24T07:53:29Z</time>
      </trkpt>
      <trkpt lat="49.10342" lon="0.75628">
        <ele>143</ele>
        <time>2014-08-24T07:53:30Z</time>
      </trkpt>
      <trkpt lat="49.10337" lon="0.75631">
        <ele>143</ele>
        <time>2014-08-24T07:53:31Z</time>
      </trkpt>
      <trkpt lat="49.10334" lon="0.75634">
        <ele>144</ele>
        <time>2014-08-24T07:53:32Z</time>
      </trkpt>
      <trkpt lat="49.10314" lon="0.75649">
        <ele>144</ele>
        <time>2014-08-24T07:53:36Z</time>
      </trkpt>
      <trkpt lat="49.10304" lon="0.75655">
        <ele>144</ele>
        <time>2014-08-24T07:53:38Z</time>
      </trkpt>
      <trkpt lat="49.1029" lon="0.75668">
        <ele>144</ele>
        <time>2014-08-24T07:53:42Z</time>
      </trkpt>
      <trkpt lat="49.10275" lon="0.75683">
        <ele>143</ele>
        <time>2014-08-24T07:53:46Z</time>
      </trkpt>
      <trkpt lat="49.10265" lon="0.75699">
        <ele>143</ele>
        <time>2014-08-24T07:53:49Z</time>
      </trkpt>
      <trkpt lat="49.10259" lon="0.75705">
        <ele>143</ele>
        <time>2014-08-24T07:53:50Z</time>
      </trkpt>
      <trkpt lat="49.1023" lon="0.75744">
        <ele>143</ele>
        <time>2014-08-24T07:53:58Z</time>
      </trkpt>
      <trkpt lat="49.102" lon="0.75768">
        <ele>142</ele>
        <time>2014-08-24T07:54:04Z</time>
      </trkpt>
      <trkpt lat="49.10193" lon="0.75771">
        <ele>142</ele>
        <time>2014-08-24T07:54:05Z</time>
      </trkpt>
      <trkpt lat="49.10185" lon="0.75776">
        <ele>141</ele>
        <time>2014-08-24T07:54:06Z</time>
      </trkpt>
      <trkpt lat="49.10179" lon="0.75781">
        <ele>141</ele>
        <time>2014-08-24T07:54:07Z</time>
      </trkpt>
      <trkpt lat="49.10173" lon="0.75787">
        <ele>140</ele>
        <time>2014-08-24T07:54:08Z</time>
      </trkpt>
      <trkpt lat="49.10166" lon="0.75795">
        <ele>140</ele>
        <time>2014-08-24T07:54:09Z</time>
      </trkpt>
      <trkpt lat="49.10161" lon="0.75803">
        <ele>139</ele>
        <time>2014-08-24T07:54:10Z</time>
      </trkpt>
      <trkpt lat="49.10156" lon="0.7581">
        <ele>139</ele>
        <time>2014-08-24T07:54:11Z</time>
      </trkpt>
      <trkpt lat="49.10152" lon="0.75817">
        <ele>140</ele>
        <time>2014-08-24T07:54:12Z</time>
      </trkpt>
      <trkpt lat="49.10148" lon="0.75822">
        <ele>140</ele>
        <time>2014-08-24T07:54:13Z</time>
      </trkpt>
      <trkpt lat="49.10145" lon="0.75827">
        <ele>140</ele>
        <time>2014-08-24T07:54:14Z</time>
      </trkpt>
      <trkpt lat="49.10141" lon="0.75832">
        <ele>140</ele>
        <time>2014-08-24T07:54:15Z</time>
      </trkpt>
      <trkpt lat="49.10135" lon="0.75836">
        <ele>140</ele>
        <time>2014-08-24T07:54:16Z</time>
      </trkpt>
      <trkpt lat="49.10129" lon="0.75841">
        <ele>140</ele>
        <time>2014-08-24T07:54:17Z</time>
      </trkpt>
      <trkpt lat="49.10125" lon="0.75846">
        <ele>140</ele>
        <time>2014-08-24T07:54:18Z</time>
      </trkpt>
      <trkpt lat="49.10122" lon="0.75851">
        <ele>141</ele>
        <time>2014-08-24T07:54:19Z</time>
      </trkpt>
      <trkpt lat="49.10118" lon="0.75855">
        <ele>141</ele>
        <time>2014-08-24T07:54:20Z</time>
      </trkpt>
      <trkpt lat="49.10093" lon="0.75877">
        <ele>141</ele>
        <time>2014-08-24T07:54:26Z</time>
      </trkpt>
      <trkpt lat="49.1007" lon="0.75895">
        <ele>140</ele>
        <time>2014-08-24T07:54:31Z</time>
      </trkpt>
      <trkpt lat="49.10055" lon="0.75905">
        <ele>140</ele>
        <time>2014-08-24T07:54:34Z</time>
      </trkpt>
      <trkpt lat="49.10052" lon="0.75909">
        <ele>140</ele>
        <time>2014-08-24T07:54:35Z</time>
      </trkpt>
      <trkpt lat="49.10033" lon="0.75923">
        <ele>139</ele>
        <time>2014-08-24T07:54:39Z</time>
      </trkpt>
      <trkpt lat="49.10016" lon="0.75931">
        <ele>139</ele>
        <time>2014-08-24T07:54:42Z</time>
      </trkpt>
      <trkpt lat="49.10011" lon="0.75933">
        <ele>138</ele>
        <time>2014-08-24T07:54:43Z</time>
      </trkpt>
      <trkpt lat="49.09993" lon="0.7593">
        <ele>137</ele>
        <time>2014-08-24T07:54:46Z</time>
      </trkpt>
      <trkpt lat="49.09977" lon="0.75927">
        <ele>136</ele>
        <time>2014-08-24T07:54:48Z</time>
      </trkpt>
      <trkpt lat="49.0997" lon="0.75928">
        <ele>135</ele>
        <time>2014-08-24T07:54:49Z</time>
      </trkpt>
      <trkpt lat="49.09962" lon="0.75931">
        <ele>135</ele>
        <time>2014-08-24T07:54:50Z</time>
      </trkpt>
      <trkpt lat="49.09954" lon="0.75936">
        <ele>134</ele>
        <time>2014-08-24T07:54:51Z</time>
      </trkpt>
      <trkpt lat="49.09946" lon="0.75942">
        <ele>133</ele>
        <time>2014-08-24T07:54:52Z</time>
      </trkpt>
      <trkpt lat="49.09937" lon="0.75946">
        <ele>132</ele>
        <time>2014-08-24T07:54:53Z</time>
      </trkpt>
      <trkpt lat="49.09927" lon="0.75951">
        <ele>132</ele>
        <time>2014-08-24T07:54:54Z</time>
      </trkpt>
      <trkpt lat="49.09918" lon="0.75957">
        <ele>131</ele>
        <time>2014-08-24T07:54:55Z</time>
      </trkpt>
      <trkpt lat="49.09908" lon="0.75963">
        <ele>130</ele>
        <time>2014-08-24T07:54:56Z</time>
      </trkpt>
      <trkpt lat="49.09898" lon="0.75968">
        <ele>129</ele>
        <time>2014-08-24T07:54:57Z</time>
      </trkpt>
      <trkpt lat="49.09887" lon="0.75973">
        <ele>129</ele>
        <time>2014-08-24T07:54:58Z</time>
      </trkpt>
      <trkpt lat="49.09876" lon="0.75977">
        <ele>128</ele>
        <time>2014-08-24T07:54:59Z</time>
      </trkpt>
      <trkpt lat="49.09866" lon="0.75983">
        <ele>127</ele>
        <time>2014-08-24T07:55:00Z</time>
      </trkpt>
      <trkpt lat="49.09855" lon="0.75988">
        <ele>125</ele>
        <time>2014-08-24T07:55:01Z</time>
      </trkpt>
      <trkpt lat="49.09844" lon="0.75993">
        <ele>124</ele>
        <time>2014-08-24T07:55:02Z</time>
      </trkpt>
      <trkpt lat="49.09832" lon="0.75997">
        <ele>123</ele>
        <time>2014-08-24T07:55:03Z</time>
      </trkpt>
      <trkpt lat="49.09821" lon="0.76003">
        <ele>122</ele>
        <time>2014-08-24T07:55:04Z</time>
      </trkpt>
      <trkpt lat="49.09811" lon="0.76007">
        <ele>121</ele>
        <time>2014-08-24T07:55:05Z</time>
      </trkpt>
      <trkpt lat="49.098" lon="0.76012">
        <ele>121</ele>
        <time>2014-08-24T07:55:06Z</time>
      </trkpt>
      <trkpt lat="49.0979" lon="0.76017">
        <ele>120</ele>
        <time>2014-08-24T07:55:07Z</time>
      </trkpt>
      <trkpt lat="49.09781" lon="0.76023">
        <ele>120</ele>
        <time>2014-08-24T07:55:08Z</time>
      </trkpt>
      <trkpt lat="49.09772" lon="0.76029">
        <ele>120</ele>
        <time>2014-08-24T07:55:09Z</time>
      </trkpt>
      <trkpt lat="49.09764" lon="0.76033">
        <ele>119</ele>
        <time>2014-08-24T07:55:10Z</time>
      </trkpt>
      <trkpt lat="49.09759" lon="0.76038">
        <ele>120</ele>
        <time>2014-08-24T07:55:11Z</time>
      </trkpt>
      <trkpt lat="49.09754" lon="0.76042">
        <ele>120</ele>
        <time>2014-08-24T07:55:12Z</time>
      </trkpt>
      <trkpt lat="49.09748" lon="0.76046">
        <ele>119</ele>
        <time>2014-08-24T07:55:13Z</time>
      </trkpt>
      <trkpt lat="49.09744" lon="0.76047">
        <ele>119</ele>
        <time>2014-08-24T07:55:14Z</time>
      </trkpt>
      <trkpt lat="49.09739" lon="0.76048">
        <ele>119</ele>
        <time>2014-08-24T07:55:15Z</time>
      </trkpt>
      <trkpt lat="49.09734" lon="0.76047">
        <ele>118</ele>
        <time>2014-08-24T07:55:16Z</time>
      </trkpt>
      <trkpt lat="49.0973" lon="0.76048">
        <ele>118</ele>
        <time>2014-08-24T07:55:17Z</time>
      </trkpt>
      <trkpt lat="49.09725" lon="0.76045">
        <ele>118</ele>
        <time>2014-08-24T07:55:18Z</time>
      </trkpt>
      <trkpt lat="49.09722" lon="0.76043">
        <ele>117</ele>
        <time>2014-08-24T07:55:19Z</time>
      </trkpt>
      <trkpt lat="49.09719" lon="0.76042">
        <ele>117</ele>
        <time>2014-08-24T07:55:20Z</time>
      </trkpt>
      <trkpt lat="49.09716" lon="0.76042">
        <ele>117</ele>
        <time>2014-08-24T07:55:21Z</time>
      </trkpt>
      <trkpt lat="49.09714" lon="0.76042">
        <ele>117</ele>
        <time>2014-08-24T07:55:22Z</time>
      </trkpt>
      <trkpt lat="49.09713" lon="0.76043">
        <ele>117</ele>
        <time>2014-08-24T07:55:23Z</time>
      </trkpt>
      <trkpt lat="49.09712" lon="0.76045">
        <ele>117</ele>
        <time>2014-08-24T07:55:24Z</time>
      </trkpt>
      <trkpt lat="49.09711" lon="0.76048">
        <ele>117</ele>
        <time>2014-08-24T07:55:25Z</time>
      </trkpt>
      <trkpt lat="49.09714" lon="0.7606">
        <ele>118</ele>
        <time>2014-08-24T07:55:30Z</time>
      </trkpt>
      <trkpt lat="49.09713" lon="0.76062">
        <ele>118</ele>
        <time>2014-08-24T07:55:31Z</time>
      </trkpt>
      <trkpt lat="49.09712" lon="0.76065">
        <ele>118</ele>
        <time>2014-08-24T07:55:32Z</time>
      </trkpt>
      <trkpt lat="49.09711" lon="0.76067">
        <ele>119</ele>
        <time>2014-08-24T07:55:33Z</time>
      </trkpt>
      <trkpt lat="49.09709" lon="0.76069">
        <ele>119</ele>
        <time>2014-08-24T07:55:34Z</time>
      </trkpt>
      <trkpt lat="49.09708" lon="0.76074">
        <ele>119</ele>
        <time>2014-08-24T07:55:36Z</time>
      </trkpt>
      <trkpt lat="49.09703" lon="0.76076">
        <ele>119</ele>
        <time>2014-08-24T07:55:37Z</time>
      </trkpt>
      <trkpt lat="49.09702" lon="0.76078">
        <ele>119</ele>
        <time>2014-08-24T07:55:38Z</time>
      </trkpt>
      <trkpt lat="49.09701" lon="0.7608">
        <ele>119</ele>
        <time>2014-08-24T07:55:39Z</time>
      </trkpt>
      <trkpt lat="49.097" lon="0.76083">
        <ele>119</ele>
        <time>2014-08-24T07:55:40Z</time>
      </trkpt>
      <trkpt lat="49.09695" lon="0.76098">
        <ele>121</ele>
        <time>2014-08-24T07:55:45Z</time>
      </trkpt>
      <trkpt lat="49.09693" lon="0.76101">
        <ele>121</ele>
        <time>2014-08-24T07:55:46Z</time>
      </trkpt>
      <trkpt lat="49.09692" lon="0.76103">
        <ele>121</ele>
        <time>2014-08-24T07:55:47Z</time>
      </trkpt>
      <trkpt lat="49.0969" lon="0.76105">
        <ele>121</ele>
        <time>2014-08-24T07:55:48Z</time>
      </trkpt>
      <trkpt lat="49.09688" lon="0.76106">
        <ele>121</ele>
        <time>2014-08-24T07:55:49Z</time>
      </trkpt>
      <trkpt lat="49.09682" lon="0.76121">
        <ele>122</ele>
        <time>2014-08-24T07:55:54Z</time>
      </trkpt>
      <trkpt lat="49.09681" lon="0.76124">
        <ele>122</ele>
        <time>2014-08-24T07:55:55Z</time>
      </trkpt>
      <trkpt lat="49.0968" lon="0.76126">
        <ele>123</ele>
        <time>2014-08-24T07:55:56Z</time>
      </trkpt>
      <trkpt lat="49.09679" lon="0.76128">
        <ele>123</ele>
        <time>2014-08-24T07:55:57Z</time>
      </trkpt>
      <trkpt lat="49.09679" lon="0.76129">
        <ele>123</ele>
        <time>2014-08-24T07:55:58Z</time>
      </trkpt>
      <trkpt lat="49.09678" lon="0.76139">
        <ele>124</ele>
        <time>2014-08-24T07:56:02Z</time>
      </trkpt>
      <trkpt lat="49.09677" lon="0.76141">
        <ele>124</ele>
        <time>2014-08-24T07:56:03Z</time>
      </trkpt>
      <trkpt lat="49.09668" lon="0.76177">
        <ele>129</ele>
        <time>2014-08-24T07:56:17Z</time>
      </trkpt>
      <trkpt lat="49.09665" lon="0.76185">
        <ele>130</ele>
        <time>2014-08-24T07:56:20Z</time>
      </trkpt>
      <trkpt lat="49.09662" lon="0.76188">
        <ele>130</ele>
        <time>2014-08-24T07:56:22Z</time>
      </trkpt>
      <trkpt lat="49.0966" lon="0.76191">
        <ele>130</ele>
        <time>2014-08-24T07:56:23Z</time>
      </trkpt>
      <trkpt lat="49.0966" lon="0.76192">
        <ele>130</ele>
        <time>2014-08-24T07:56:24Z</time>
      </trkpt>
      <trkpt lat="49.09659" lon="0.76194">
        <ele>131</ele>
        <time>2014-08-24T07:56:25Z</time>
      </trkpt>
      <trkpt lat="49.09659" lon="0.76196">
        <ele>131</ele>
        <time>2014-08-24T07:56:26Z</time>
      </trkpt>
      <trkpt lat="49.09658" lon="0.76198">
        <ele>131</ele>
        <time>2014-08-24T07:56:27Z</time>
      </trkpt>
      <trkpt lat="49.09656" lon="0.76205">
        <ele>132</ele>
        <time>2014-08-24T07:56:31Z</time>
      </trkpt>
      <trkpt lat="49.09655" lon="0.76207">
        <ele>132</ele>
        <time>2014-08-24T07:56:32Z</time>
      </trkpt>
      <trkpt lat="49.09653" lon="0.76211">
        <ele>133</ele>
        <time>2014-08-24T07:56:33Z</time>
      </trkpt>
      <trkpt lat="49.09652" lon="0.76212">
        <ele>133</ele>
        <time>2014-08-24T07:56:34Z</time>
      </trkpt>
      <trkpt lat="49.09651" lon="0.76214">
        <ele>133</ele>
        <time>2014-08-24T07:56:35Z</time>
      </trkpt>
      <trkpt lat="49.09644" lon="0.76227">
        <ele>134</ele>
        <time>2014-08-24T07:56:41Z</time>
      </trkpt>
      <trkpt lat="49.09643" lon="0.76228">
        <ele>134</ele>
        <time>2014-08-24T07:56:42Z</time>
      </trkpt>
      <trkpt lat="49.09643" lon="0.7623">
        <ele>135</ele>
        <time>2014-08-24T07:56:43Z</time>
      </trkpt>
      <trkpt lat="49.09641" lon="0.76231">
        <ele>135</ele>
        <time>2014-08-24T07:56:44Z</time>
      </trkpt>
      <trkpt lat="49.09641" lon="0.76233">
        <ele>135</ele>
        <time>2014-08-24T07:56:45Z</time>
      </trkpt>
      <trkpt lat="49.09637" lon="0.7624">
        <ele>136</ele>
        <time>2014-08-24T07:56:48Z</time>
      </trkpt>
      <trkpt lat="49.09629" lon="0.76259">
        <ele>138</ele>
        <time>2014-08-24T07:56:54Z</time>
      </trkpt>
      <trkpt lat="49.09627" lon="0.7626">
        <ele>138</ele>
        <time>2014-08-24T07:56:55Z</time>
      </trkpt>
      <trkpt lat="49.09626" lon="0.76263">
        <ele>138</ele>
        <time>2014-08-24T07:56:56Z</time>
      </trkpt>
      <trkpt lat="49.09625" lon="0.76264">
        <ele>138</ele>
        <time>2014-08-24T07:56:57Z</time>
      </trkpt>
      <trkpt lat="49.09624" lon="0.76265">
        <ele>138</ele>
        <time>2014-08-24T07:56:58Z</time>
      </trkpt>
      <trkpt lat="49.09621" lon="0.76283">
        <ele>141</ele>
        <time>2014-08-24T07:57:05Z</time>
      </trkpt>
      <trkpt lat="49.0962" lon="0.76285">
        <ele>141</ele>
        <time>2014-08-24T07:57:06Z</time>
      </trkpt>
      <trkpt lat="49.0962" lon="0.76286">
        <ele>141</ele>
        <time>2014-08-24T07:57:07Z</time>
      </trkpt>
      <trkpt lat="49.09619" lon="0.76289">
        <ele>141</ele>
        <time>2014-08-24T07:57:08Z</time>
      </trkpt>
      <trkpt lat="49.09619" lon="0.76292">
        <ele>141</ele>
        <time>2014-08-24T07:57:09Z</time>
      </trkpt>
      <trkpt lat="49.09619" lon="0.76295">
        <ele>141</ele>
        <time>2014-08-24T07:57:10Z</time>
      </trkpt>
      <trkpt lat="49.09618" lon="0.76297">
        <ele>142</ele>
        <time>2014-08-24T07:57:11Z</time>
      </trkpt>
      <trkpt lat="49.09621" lon="0.76308">
        <ele>142</ele>
        <time>2014-08-24T07:57:14Z</time>
      </trkpt>
      <trkpt lat="49.09622" lon="0.76311">
        <ele>143</ele>
        <time>2014-08-24T07:57:15Z</time>
      </trkpt>
      <trkpt lat="49.09621" lon="0.76313">
        <ele>143</ele>
        <time>2014-08-24T07:57:16Z</time>
      </trkpt>
      <trkpt lat="49.09621" lon="0.76315">
        <ele>143</ele>
        <time>2014-08-24T07:57:17Z</time>
      </trkpt>
      <trkpt lat="49.0962" lon="0.76317">
        <ele>143</ele>
        <time>2014-08-24T07:57:18Z</time>
      </trkpt>
      <trkpt lat="49.09617" lon="0.76319">
        <ele>143</ele>
        <time>2014-08-24T07:57:19Z</time>
      </trkpt>
      <trkpt lat="49.09609" lon="0.76333">
        <ele>144</ele>
        <time>2014-08-24T07:57:25Z</time>
      </trkpt>
      <trkpt lat="49.09608" lon="0.76336">
        <ele>144</ele>
        <time>2014-08-24T07:57:26Z</time>
      </trkpt>
      <trkpt lat="49.09604" lon="0.76338">
        <ele>144</ele>
        <time>2014-08-24T07:57:27Z</time>
      </trkpt>
      <trkpt lat="49.09599" lon="0.7634">
        <ele>144</ele>
        <time>2014-08-24T07:57:28Z</time>
      </trkpt>
      <trkpt lat="49.09594" lon="0.7634">
        <ele>144</ele>
        <time>2014-08-24T07:57:29Z</time>
      </trkpt>
      <trkpt lat="49.09591" lon="0.76339">
        <ele>144</ele>
        <time>2014-08-24T07:57:30Z</time>
      </trkpt>
      <trkpt lat="49.09588" lon="0.76338">
        <ele>144</ele>
        <time>2014-08-24T07:57:31Z</time>
      </trkpt>
      <trkpt lat="49.09576" lon="0.76335">
        <ele>143</ele>
        <time>2014-08-24T07:57:36Z</time>
      </trkpt>
      <trkpt lat="49.09565" lon="0.76334">
        <ele>143</ele>
        <time>2014-08-24T07:57:41Z</time>
      </trkpt>
      <trkpt lat="49.09544" lon="0.76335">
        <ele>144</ele>
        <time>2014-08-24T07:57:47Z</time>
      </trkpt>
      <trkpt lat="49.09527" lon="0.7633">
        <ele>144</ele>
        <time>2014-08-24T07:57:52Z</time>
      </trkpt>
      <trkpt lat="49.09516" lon="0.76327">
        <ele>144</ele>
        <time>2014-08-24T07:57:55Z</time>
      </trkpt>
      <trkpt lat="49.09507" lon="0.76324">
        <ele>144</ele>
        <time>2014-08-24T07:57:57Z</time>
      </trkpt>
      <trkpt lat="49.09485" lon="0.76317">
        <ele>144</ele>
        <time>2014-08-24T07:58:01Z</time>
      </trkpt>
      <trkpt lat="49.0948" lon="0.76313">
        <ele>144</ele>
        <time>2014-08-24T07:58:02Z</time>
      </trkpt>
      <trkpt lat="49.09454" lon="0.76298">
        <ele>143</ele>
        <time>2014-08-24T07:58:06Z</time>
      </trkpt>
      <trkpt lat="49.09447" lon="0.76293">
        <ele>143</ele>
        <time>2014-08-24T07:58:07Z</time>
      </trkpt>
      <trkpt lat="49.09441" lon="0.76289">
        <ele>143</ele>
        <time>2014-08-24T07:58:08Z</time>
      </trkpt>
      <trkpt lat="49.09435" lon="0.76285">
        <ele>143</ele>
        <time>2014-08-24T07:58:09Z</time>
      </trkpt>
      <trkpt lat="49.09431" lon="0.76281">
        <ele>142</ele>
        <time>2014-08-24T07:58:10Z</time>
      </trkpt>
      <trkpt lat="49.09426" lon="0.76278">
        <ele>142</ele>
        <time>2014-08-24T07:58:11Z</time>
      </trkpt>
      <trkpt lat="49.09422" lon="0.76271">
        <ele>141</ele>
        <time>2014-08-24T07:58:15Z</time>
      </trkpt>
      <trkpt lat="49.0943" lon="0.76272">
        <ele>141</ele>
        <time>2014-08-24T07:58:16Z</time>
      </trkpt>
      <trkpt lat="49.09432" lon="0.76271">
        <ele>141</ele>
        <time>2014-08-24T07:58:17Z</time>
      </trkpt>
      <trkpt lat="49.09444" lon="0.7627">
        <ele>141</ele>
        <time>2014-08-24T07:58:20Z</time>
      </trkpt>
      <trkpt lat="49.09448" lon="0.76267">
        <ele>141</ele>
        <time>2014-08-24T07:58:21Z</time>
      </trkpt>
      <trkpt lat="49.09451" lon="0.76263">
        <ele>140</ele>
        <time>2014-08-24T07:58:22Z</time>
      </trkpt>
      <trkpt lat="49.09451" lon="0.76258">
        <ele>140</ele>
        <time>2014-08-24T07:58:23Z</time>
      </trkpt>
      <trkpt lat="49.0945" lon="0.76252">
        <ele>139</ele>
        <time>2014-08-24T07:58:24Z</time>
      </trkpt>
      <trkpt lat="49.0945" lon="0.76244">
        <ele>138</ele>
        <time>2014-08-24T07:58:25Z</time>
      </trkpt>
      <trkpt lat="49.09448" lon="0.76236">
        <ele>137</ele>
        <time>2014-08-24T07:58:26Z</time>
      </trkpt>
      <trkpt lat="49.09447" lon="0.76228">
        <ele>136</ele>
        <time>2014-08-24T07:58:27Z</time>
      </trkpt>
      <trkpt lat="49.09442" lon="0.7622">
        <ele>135</ele>
        <time>2014-08-24T07:58:28Z</time>
      </trkpt>
      <trkpt lat="49.09438" lon="0.76211">
        <ele>134</ele>
        <time>2014-08-24T07:58:29Z</time>
      </trkpt>
      <trkpt lat="49.09433" lon="0.76202">
        <ele>132</ele>
        <time>2014-08-24T07:58:30Z</time>
      </trkpt>
      <trkpt lat="49.09428" lon="0.76192">
        <ele>130</ele>
        <time>2014-08-24T07:58:31Z</time>
      </trkpt>
      <trkpt lat="49.09423" lon="0.76181">
        <ele>128</ele>
        <time>2014-08-24T07:58:32Z</time>
      </trkpt>
      <trkpt lat="49.09417" lon="0.76171">
        <ele>127</ele>
        <time>2014-08-24T07:58:33Z</time>
      </trkpt>
      <trkpt lat="49.0941" lon="0.76162">
        <ele>126</ele>
        <time>2014-08-24T07:58:34Z</time>
      </trkpt>
      <trkpt lat="49.09405" lon="0.76151">
        <ele>124</ele>
        <time>2014-08-24T07:58:35Z</time>
      </trkpt>
      <trkpt lat="49.09395" lon="0.7614">
        <ele>123</ele>
        <time>2014-08-24T07:58:36Z</time>
      </trkpt>
      <trkpt lat="49.09383" lon="0.7613">
        <ele>123</ele>
        <time>2014-08-24T07:58:37Z</time>
      </trkpt>
      <trkpt lat="49.09374" lon="0.76121">
        <ele>123</ele>
        <time>2014-08-24T07:58:38Z</time>
      </trkpt>
      <trkpt lat="49.09364" lon="0.76113">
        <ele>124</ele>
        <time>2014-08-24T07:58:39Z</time>
      </trkpt>
      <trkpt lat="49.09356" lon="0.76107">
        <ele>125</ele>
        <time>2014-08-24T07:58:40Z</time>
      </trkpt>
      <trkpt lat="49.09348" lon="0.76101">
        <ele>126</ele>
        <time>2014-08-24T07:58:41Z</time>
      </trkpt>
      <trkpt lat="49.09339" lon="0.76095">
        <ele>127</ele>
        <time>2014-08-24T07:58:42Z</time>
      </trkpt>
      <trkpt lat="49.09333" lon="0.76091">
        <ele>127</ele>
        <time>2014-08-24T07:58:43Z</time>
      </trkpt>
      <trkpt lat="49.09328" lon="0.76089">
        <ele>127</ele>
        <time>2014-08-24T07:58:44Z</time>
      </trkpt>
      <trkpt lat="49.09316" lon="0.76085">
        <ele>127</ele>
        <time>2014-08-24T07:58:46Z</time>
      </trkpt>
      <trkpt lat="49.09309" lon="0.76086">
        <ele>128</ele>
        <time>2014-08-24T07:58:47Z</time>
      </trkpt>
      <trkpt lat="49.093" lon="0.76088">
        <ele>129</ele>
        <time>2014-08-24T07:58:48Z</time>
      </trkpt>
      <trkpt lat="49.09293" lon="0.76094">
        <ele>130</ele>
        <time>2014-08-24T07:58:49Z</time>
      </trkpt>
      <trkpt lat="49.09284" lon="0.76098">
        <ele>128</ele>
        <time>2014-08-24T07:58:50Z</time>
      </trkpt>
      <trkpt lat="49.09276" lon="0.76104">
        <ele>127</ele>
        <time>2014-08-24T07:58:51Z</time>
      </trkpt>
      <trkpt lat="49.0927" lon="0.7611">
        <ele>127</ele>
        <time>2014-08-24T07:58:52Z</time>
      </trkpt>
      <trkpt lat="49.0926" lon="0.76115">
        <ele>125</ele>
        <time>2014-08-24T07:58:53Z</time>
      </trkpt>
      <trkpt lat="49.09251" lon="0.7612">
        <ele>124</ele>
        <time>2014-08-24T07:58:54Z</time>
      </trkpt>
      <trkpt lat="49.09244" lon="0.76126">
        <ele>124</ele>
        <time>2014-08-24T07:58:55Z</time>
      </trkpt>
      <trkpt lat="49.09237" lon="0.76132">
        <ele>123</ele>
        <time>2014-08-24T07:58:56Z</time>
      </trkpt>
      <trkpt lat="49.09219" lon="0.7615">
        <ele>121</ele>
        <time>2014-08-24T07:58:59Z</time>
      </trkpt>
      <trkpt lat="49.09214" lon="0.76156">
        <ele>120</ele>
        <time>2014-08-24T07:59:00Z</time>
      </trkpt>
      <trkpt lat="49.09187" lon="0.76187">
        <ele>117</ele>
        <time>2014-08-24T07:59:05Z</time>
      </trkpt>
      <trkpt lat="49.09161" lon="0.76216">
        <ele>113</ele>
        <time>2014-08-24T07:59:10Z</time>
      </trkpt>
      <trkpt lat="49.09159" lon="0.76222">
        <ele>114</ele>
        <time>2014-08-24T07:59:11Z</time>
      </trkpt>
      <trkpt lat="49.09148" lon="0.76239">
        <ele>113</ele>
        <time>2014-08-24T07:59:14Z</time>
      </trkpt>
      <trkpt lat="49.0913" lon="0.76276">
        <ele>113</ele>
        <time>2014-08-24T07:59:21Z</time>
      </trkpt>
      <trkpt lat="49.09128" lon="0.76303">
        <ele>117</ele>
        <time>2014-08-24T07:59:25Z</time>
      </trkpt>
      <trkpt lat="49.09111" lon="0.76328">
        <ele>116</ele>
        <time>2014-08-24T07:59:31Z</time>
      </trkpt>
      <trkpt lat="49.09104" lon="0.76352">
        <ele>117</ele>
        <time>2014-08-24T07:59:35Z</time>
      </trkpt>
      <trkpt lat="49.09096" lon="0.76377">
        <ele>118</ele>
        <time>2014-08-24T07:59:40Z</time>
      </trkpt>
      <trkpt lat="49.09097" lon="0.76383">
        <ele>119</ele>
        <time>2014-08-24T07:59:41Z</time>
      </trkpt>
      <trkpt lat="49.09097" lon="0.76387">
        <ele>120</ele>
        <time>2014-08-24T07:59:42Z</time>
      </trkpt>
      <trkpt lat="49.09095" lon="0.76393">
        <ele>120</ele>
        <time>2014-08-24T07:59:43Z</time>
      </trkpt>
      <trkpt lat="49.09091" lon="0.764">
        <ele>120</ele>
        <time>2014-08-24T07:59:44Z</time>
      </trkpt>
      <trkpt lat="49.09087" lon="0.76412">
        <ele>121</ele>
        <time>2014-08-24T07:59:46Z</time>
      </trkpt>
      <trkpt lat="49.09079" lon="0.76449">
        <ele>123</ele>
        <time>2014-08-24T07:59:52Z</time>
      </trkpt>
      <trkpt lat="49.09077" lon="0.76458">
        <ele>124</ele>
        <time>2014-08-24T07:59:54Z</time>
      </trkpt>
      <trkpt lat="49.09076" lon="0.76463">
        <ele>124</ele>
        <time>2014-08-24T07:59:55Z</time>
      </trkpt>
      <trkpt lat="49.09076" lon="0.76471">
        <ele>125</ele>
        <time>2014-08-24T07:59:56Z</time>
      </trkpt>
      <trkpt lat="49.09074" lon="0.76477">
        <ele>126</ele>
        <time>2014-08-24T07:59:57Z</time>
      </trkpt>
      <trkpt lat="49.09071" lon="0.76484">
        <ele>126</ele>
        <time>2014-08-24T07:59:58Z</time>
      </trkpt>
      <trkpt lat="49.09068" lon="0.76506">
        <ele>128</ele>
        <time>2014-08-24T08:00:02Z</time>
      </trkpt>
      <trkpt lat="49.09067" lon="0.76516">
        <ele>128</ele>
        <time>2014-08-24T08:00:04Z</time>
      </trkpt>
      <trkpt lat="49.09065" lon="0.76522">
        <ele>127</ele>
        <time>2014-08-24T08:00:05Z</time>
      </trkpt>
      <trkpt lat="49.09062" lon="0.76528">
        <ele>127</ele>
        <time>2014-08-24T08:00:06Z</time>
      </trkpt>
      <trkpt lat="49.0906" lon="0.76533">
        <ele>127</ele>
        <time>2014-08-24T08:00:07Z</time>
      </trkpt>
      <trkpt lat="49.09057" lon="0.76537">
        <ele>126</ele>
        <time>2014-08-24T08:00:08Z</time>
      </trkpt>
      <trkpt lat="49.09056" lon="0.76543">
        <ele>126</ele>
        <time>2014-08-24T08:00:09Z</time>
      </trkpt>
      <trkpt lat="49.09054" lon="0.76559">
        <ele>126</ele>
        <time>2014-08-24T08:00:12Z</time>
      </trkpt>
      <trkpt lat="49.09055" lon="0.76574">
        <ele>127</ele>
        <time>2014-08-24T08:00:15Z</time>
      </trkpt>
      <trkpt lat="49.09056" lon="0.76582">
        <ele>126</ele>
        <time>2014-08-24T08:00:18Z</time>
      </trkpt>
      <trkpt lat="49.09056" lon="0.76584">
        <ele>126</ele>
        <time>2014-08-24T08:00:19Z</time>
      </trkpt>
      <trkpt lat="49.09057" lon="0.76586">
        <ele>126</ele>
        <time>2014-08-24T08:00:20Z</time>
      </trkpt>
      <trkpt lat="49.09057" lon="0.76589">
        <ele>126</ele>
        <time>2014-08-24T08:00:21Z</time>
      </trkpt>
      <trkpt lat="49.09057" lon="0.7659">
        <ele>126</ele>
        <time>2014-08-24T08:00:22Z</time>
      </trkpt>
      <trkpt lat="49.09059" lon="0.76592">
        <ele>126</ele>
        <time>2014-08-24T08:00:24Z</time>
      </trkpt>
      <trkpt lat="49.0906" lon="0.76595">
        <ele>126</ele>
        <time>2014-08-24T08:00:25Z</time>
      </trkpt>
      <trkpt lat="49.0906" lon="0.76597">
        <ele>126</ele>
        <time>2014-08-24T08:00:26Z</time>
      </trkpt>
      <trkpt lat="49.09061" lon="0.76597">
        <ele>126</ele>
        <time>2014-08-24T08:00:27Z</time>
      </trkpt>
      <trkpt lat="49.09061" lon="0.76599">
        <ele>126</ele>
        <time>2014-08-24T08:00:28Z</time>
      </trkpt>
      <trkpt lat="49.09062" lon="0.766">
        <ele>126</ele>
        <time>2014-08-24T08:00:29Z</time>
      </trkpt>
      <trkpt lat="49.09065" lon="0.76602">
        <ele>126</ele>
        <time>2014-08-24T08:00:32Z</time>
      </trkpt>
      <trkpt lat="49.09067" lon="0.76603">
        <ele>127</ele>
        <time>2014-08-24T08:00:33Z</time>
      </trkpt>
      <trkpt lat="49.09068" lon="0.76603">
        <ele>127</ele>
        <time>2014-08-24T08:00:34Z</time>
      </trkpt>
      <trkpt lat="49.09069" lon="0.76604">
        <ele>127</ele>
        <time>2014-08-24T08:00:35Z</time>
      </trkpt>
      <trkpt lat="49.0907" lon="0.76604">
        <ele>127</ele>
        <time>2014-08-24T08:00:36Z</time>
      </trkpt>
      <trkpt lat="49.09071" lon="0.76605">
        <ele>127</ele>
        <time>2014-08-24T08:00:37Z</time>
      </trkpt>
      <trkpt lat="49.09072" lon="0.76606">
        <ele>127</ele>
        <time>2014-08-24T08:00:38Z</time>
      </trkpt>
      <trkpt lat="49.09072" lon="0.76606">
        <ele>127</ele>
        <time>2014-08-24T08:00:39Z</time>
      </trkpt>
      <trkpt lat="49.09085" lon="0.76624">
        <ele>128</ele>
        <time>2014-08-24T08:00:51Z</time>
      </trkpt>
      <trkpt lat="49.09086" lon="0.76626">
        <ele>128</ele>
        <time>2014-08-24T08:00:52Z</time>
      </trkpt>
      <trkpt lat="49.09087" lon="0.76627">
        <ele>128</ele>
        <time>2014-08-24T08:00:53Z</time>
      </trkpt>
      <trkpt lat="49.0909" lon="0.76629">
        <ele>129</ele>
        <time>2014-08-24T08:00:55Z</time>
      </trkpt>
      <trkpt lat="49.09097" lon="0.76633">
        <ele>130</ele>
        <time>2014-08-24T08:01:00Z</time>
      </trkpt>
      <trkpt lat="49.09108" lon="0.76639">
        <ele>131</ele>
        <time>2014-08-24T08:01:08Z</time>
      </trkpt>
      <trkpt lat="49.09111" lon="0.7664">
        <ele>131</ele>
        <time>2014-08-24T08:01:10Z</time>
      </trkpt>
      <trkpt lat="49.09112" lon="0.76637">
        <ele>132</ele>
        <time>2014-08-24T08:01:11Z</time>
      </trkpt>
      <trkpt lat="49.09113" lon="0.76634">
        <ele>132</ele>
        <time>2014-08-24T08:01:12Z</time>
      </trkpt>
      <trkpt lat="49.09113" lon="0.76631">
        <ele>132</ele>
        <time>2014-08-24T08:01:13Z</time>
      </trkpt>
      <trkpt lat="49.09114" lon="0.76628">
        <ele>132</ele>
        <time>2014-08-24T08:01:14Z</time>
      </trkpt>
      <trkpt lat="49.09117" lon="0.76616">
        <ele>133</ele>
        <time>2014-08-24T08:01:18Z</time>
      </trkpt>
      <trkpt lat="49.09122" lon="0.76584">
        <ele>136</ele>
        <time>2014-08-24T08:01:25Z</time>
      </trkpt>
      <trkpt lat="49.09121" lon="0.76557">
        <ele>136</ele>
        <time>2014-08-24T08:01:31Z</time>
      </trkpt>
      <trkpt lat="49.09127" lon="0.76521">
        <ele>137</ele>
        <time>2014-08-24T08:01:37Z</time>
      </trkpt>
      <trkpt lat="49.09131" lon="0.76486">
        <ele>137</ele>
        <time>2014-08-24T08:01:43Z</time>
      </trkpt>
      <trkpt lat="49.09137" lon="0.7645">
        <ele>136</ele>
        <time>2014-08-24T08:01:49Z</time>
      </trkpt>
      <trkpt lat="49.09134" lon="0.76429">
        <ele>135</ele>
        <time>2014-08-24T08:01:53Z</time>
      </trkpt>
      <trkpt lat="49.09134" lon="0.76422">
        <ele>134</ele>
        <time>2014-08-24T08:01:54Z</time>
      </trkpt>
      <trkpt lat="49.09134" lon="0.76417">
        <ele>133</ele>
        <time>2014-08-24T08:01:55Z</time>
      </trkpt>
      <trkpt lat="49.09134" lon="0.76407">
        <ele>132</ele>
        <time>2014-08-24T08:01:57Z</time>
      </trkpt>
      <trkpt lat="49.09134" lon="0.76401">
        <ele>132</ele>
        <time>2014-08-24T08:01:58Z</time>
      </trkpt>
      <trkpt lat="49.09139" lon="0.76388">
        <ele>132</ele>
        <time>2014-08-24T08:02:01Z</time>
      </trkpt>
      <trkpt lat="49.09146" lon="0.76365">
        <ele>132</ele>
        <time>2014-08-24T08:02:06Z</time>
      </trkpt>
      <trkpt lat="49.09146" lon="0.76359">
        <ele>131</ele>
        <time>2014-08-24T08:02:07Z</time>
      </trkpt>
      <trkpt lat="49.09151" lon="0.76332">
        <ele>129</ele>
        <time>2014-08-24T08:02:13Z</time>
      </trkpt>
      <trkpt lat="49.09163" lon="0.76301">
        <ele>128</ele>
        <time>2014-08-24T08:02:20Z</time>
      </trkpt>
      <trkpt lat="49.09169" lon="0.76296">
        <ele>129</ele>
        <time>2014-08-24T08:02:21Z</time>
      </trkpt>
      <trkpt lat="49.09178" lon="0.76284">
        <ele>130</ele>
        <time>2014-08-24T08:02:24Z</time>
      </trkpt>
      <trkpt lat="49.09192" lon="0.76266">
        <ele>131</ele>
        <time>2014-08-24T08:02:28Z</time>
      </trkpt>
      <trkpt lat="49.09212" lon="0.76263">
        <ele>136</ele>
        <time>2014-08-24T08:02:32Z</time>
      </trkpt>
      <trkpt lat="49.09216" lon="0.76264">
        <ele>136</ele>
        <time>2014-08-24T08:02:33Z</time>
      </trkpt>
      <trkpt lat="49.09228" lon="0.76279">
        <ele>139</ele>
        <time>2014-08-24T08:02:37Z</time>
      </trkpt>
      <trkpt lat="49.09231" lon="0.76283">
        <ele>139</ele>
        <time>2014-08-24T08:02:38Z</time>
      </trkpt>
      <trkpt lat="49.09233" lon="0.76286">
        <ele>140</ele>
        <time>2014-08-24T08:02:39Z</time>
      </trkpt>
      <trkpt lat="49.09235" lon="0.7629">
        <ele>140</ele>
        <time>2014-08-24T08:02:40Z</time>
      </trkpt>
      <trkpt lat="49.09237" lon="0.76293">
        <ele>141</ele>
        <time>2014-08-24T08:02:41Z</time>
      </trkpt>
      <trkpt lat="49.09236" lon="0.76297">
        <ele>141</ele>
        <time>2014-08-24T08:02:42Z</time>
      </trkpt>
      <trkpt lat="49.09238" lon="0.763">
        <ele>141</ele>
        <time>2014-08-24T08:02:43Z</time>
      </trkpt>
      <trkpt lat="49.09248" lon="0.7632">
        <ele>142</ele>
        <time>2014-08-24T08:02:48Z</time>
      </trkpt>
      <trkpt lat="49.0926" lon="0.76341">
        <ele>143</ele>
        <time>2014-08-24T08:02:53Z</time>
      </trkpt>
      <trkpt lat="49.09267" lon="0.7637">
        <ele>143</ele>
        <time>2014-08-24T08:02:58Z</time>
      </trkpt>
      <trkpt lat="49.0927" lon="0.76409">
        <ele>143</ele>
        <time>2014-08-24T08:03:05Z</time>
      </trkpt>
      <trkpt lat="49.09317" lon="0.76409">
        <ele>144</ele>
        <time>2014-08-24T08:03:10Z</time>
      </trkpt>
      <trkpt lat="49.09327" lon="0.76411">
        <ele>144</ele>
        <time>2014-08-24T08:03:11Z</time>
      </trkpt>
      <trkpt lat="49.09339" lon="0.76423">
        <ele>145</ele>
        <time>2014-08-24T08:03:14Z</time>
      </trkpt>
      <trkpt lat="49.09343" lon="0.76427">
        <ele>145</ele>
        <time>2014-08-24T08:03:15Z</time>
      </trkpt>
      <trkpt lat="49.09364" lon="0.76467">
        <ele>146</ele>
        <time>2014-08-24T08:03:23Z</time>
      </trkpt>
      <trkpt lat="49.09377" lon="0.76499">
        <ele>147</ele>
        <time>2014-08-24T08:03:29Z</time>
      </trkpt>
      <trkpt lat="49.09386" lon="0.76534">
        <ele>147</ele>
        <time>2014-08-24T08:03:35Z</time>
      </trkpt>
      <trkpt lat="49.09394" lon="0.76548">
        <ele>147</ele>
        <time>2014-08-24T08:03:40Z</time>
      </trkpt>
      <trkpt lat="49.09408" lon="0.76549">
        <ele>147</ele>
        <time>2014-08-24T08:03:44Z</time>
      </trkpt>
      <trkpt lat="49.09413" lon="0.7655">
        <ele>148</ele>
        <time>2014-08-24T08:03:45Z</time>
      </trkpt>
      <trkpt lat="49.09417" lon="0.7655">
        <ele>148</ele>
        <time>2014-08-24T08:03:46Z</time>
      </trkpt>
      <trkpt lat="49.09422" lon="0.7655">
        <ele>148</ele>
        <time>2014-08-24T08:03:47Z</time>
      </trkpt>
      <trkpt lat="49.09426" lon="0.76551">
        <ele>148</ele>
        <time>2014-08-24T08:03:48Z</time>
      </trkpt>
      <trkpt lat="49.0943" lon="0.76552">
        <ele>148</ele>
        <time>2014-08-24T08:03:49Z</time>
      </trkpt>
      <trkpt lat="49.09447" lon="0.76554">
        <ele>148</ele>
        <time>2014-08-24T08:03:53Z</time>
      </trkpt>
      <trkpt lat="49.09473" lon="0.76556">
        <ele>149</ele>
        <time>2014-08-24T08:03:59Z</time>
      </trkpt>
      <trkpt lat="49.09507" lon="0.76556">
        <ele>149</ele>
        <time>2014-08-24T08:04:06Z</time>
      </trkpt>
      <trkpt lat="49.09523" lon="0.76557">
        <ele>149</ele>
        <time>2014-08-24T08:04:09Z</time>
      </trkpt>
      <trkpt lat="49.09536" lon="0.76556">
        <ele>149</ele>
        <time>2014-08-24T08:04:12Z</time>
      </trkpt>
      <trkpt lat="49.09554" lon="0.76553">
        <ele>149</ele>
        <time>2014-08-24T08:04:17Z</time>
      </trkpt>
      <trkpt lat="49.09558" lon="0.76553">
        <ele>149</ele>
        <time>2014-08-24T08:04:18Z</time>
      </trkpt>
      <trkpt lat="49.09563" lon="0.76551">
        <ele>149</ele>
        <time>2014-08-24T08:04:19Z</time>
      </trkpt>
      <trkpt lat="49.09567" lon="0.76549">
        <ele>149</ele>
        <time>2014-08-24T08:04:20Z</time>
      </trkpt>
      <trkpt lat="49.09573" lon="0.76547">
        <ele>149</ele>
        <time>2014-08-24T08:04:21Z</time>
      </trkpt>
      <trkpt lat="49.09592" lon="0.76539">
        <ele>149</ele>
        <time>2014-08-24T08:04:25Z</time>
      </trkpt>
      <trkpt lat="49.09621" lon="0.76525">
        <ele>149</ele>
        <time>2014-08-24T08:04:32Z</time>
      </trkpt>
      <trkpt lat="49.09658" lon="0.76513">
        <ele>149</ele>
        <time>2014-08-24T08:04:37Z</time>
      </trkpt>
      <trkpt lat="49.09692" lon="0.76501">
        <ele>149</ele>
        <time>2014-08-24T08:04:43Z</time>
      </trkpt>
      <trkpt lat="49.09725" lon="0.76491">
        <ele>149</ele>
        <time>2014-08-24T08:04:50Z</time>
      </trkpt>
      <trkpt lat="49.09745" lon="0.76482">
        <ele>149</ele>
        <time>2014-08-24T08:04:55Z</time>
      </trkpt>
      <trkpt lat="49.09779" lon="0.76471">
        <ele>149</ele>
        <time>2014-08-24T08:05:01Z</time>
      </trkpt>
      <trkpt lat="49.09809" lon="0.76459">
        <ele>149</ele>
        <time>2014-08-24T08:05:07Z</time>
      </trkpt>
      <trkpt lat="49.09836" lon="0.7645">
        <ele>149</ele>
        <time>2014-08-24T08:05:12Z</time>
      </trkpt>
      <trkpt lat="49.09864" lon="0.76437">
        <ele>149</ele>
        <time>2014-08-24T08:05:19Z</time>
      </trkpt>
      <trkpt lat="49.09866" lon="0.76431">
        <ele>149</ele>
        <time>2014-08-24T08:05:22Z</time>
      </trkpt>
      <trkpt lat="49.09869" lon="0.76429">
        <ele>149</ele>
        <time>2014-08-24T08:05:26Z</time>
      </trkpt>
      <trkpt lat="49.09876" lon="0.76428">
        <ele>149</ele>
        <time>2014-08-24T08:05:28Z</time>
      </trkpt>
      <trkpt lat="49.09892" lon="0.76422">
        <ele>149</ele>
        <time>2014-08-24T08:05:32Z</time>
      </trkpt>
      <trkpt lat="49.09907" lon="0.76406">
        <ele>149</ele>
        <time>2014-08-24T08:05:37Z</time>
      </trkpt>
      <trkpt lat="49.09925" lon="0.76376">
        <ele>149</ele>
        <time>2014-08-24T08:05:44Z</time>
      </trkpt>
      <trkpt lat="49.09948" lon="0.76348">
        <ele>149</ele>
        <time>2014-08-24T08:05:50Z</time>
      </trkpt>
      <trkpt lat="49.09986" lon="0.76314">
        <ele>149</ele>
        <time>2014-08-24T08:05:57Z</time>
      </trkpt>
      <trkpt lat="49.10017" lon="0.76295">
        <ele>149</ele>
        <time>2014-08-24T08:06:02Z</time>
      </trkpt>
      <trkpt lat="49.10021" lon="0.76291">
        <ele>149</ele>
        <time>2014-08-24T08:06:03Z</time>
      </trkpt>
      <trkpt lat="49.10028" lon="0.76284">
        <ele>149</ele>
        <time>2014-08-24T08:06:05Z</time>
      </trkpt>
      <trkpt lat="49.10032" lon="0.76281">
        <ele>149</ele>
        <time>2014-08-24T08:06:06Z</time>
      </trkpt>
      <trkpt lat="49.10035" lon="0.76278">
        <ele>149</ele>
        <time>2014-08-24T08:06:07Z</time>
      </trkpt>
      <trkpt lat="49.1004" lon="0.76275">
        <ele>149</ele>
        <time>2014-08-24T08:06:08Z</time>
      </trkpt>
      <trkpt lat="49.10044" lon="0.76271">
        <ele>149</ele>
        <time>2014-08-24T08:06:09Z</time>
      </trkpt>
      <trkpt lat="49.10048" lon="0.76267">
        <ele>149</ele>
        <time>2014-08-24T08:06:10Z</time>
      </trkpt>
      <trkpt lat="49.10074" lon="0.76244">
        <ele>149</ele>
        <time>2014-08-24T08:06:15Z</time>
      </trkpt>
      <trkpt lat="49.1011" lon="0.76219">
        <ele>149</ele>
        <time>2014-08-24T08:06:21Z</time>
      </trkpt>
      <trkpt lat="49.10132" lon="0.76203">
        <ele>149</ele>
        <time>2014-08-24T08:06:26Z</time>
      </trkpt>
      <trkpt lat="49.10164" lon="0.76175">
        <ele>149</ele>
        <time>2014-08-24T08:06:33Z</time>
      </trkpt>
      <trkpt lat="49.10181" lon="0.76167">
        <ele>149</ele>
        <time>2014-08-24T08:06:36Z</time>
      </trkpt>
      <trkpt lat="49.10186" lon="0.76163">
        <ele>149</ele>
        <time>2014-08-24T08:06:37Z</time>
      </trkpt>
      <trkpt lat="49.10218" lon="0.76136">
        <ele>149</ele>
        <time>2014-08-24T08:06:43Z</time>
      </trkpt>
      <trkpt lat="49.10254" lon="0.76105">
        <ele>148</ele>
        <time>2014-08-24T08:06:50Z</time>
      </trkpt>
      <trkpt lat="49.10278" lon="0.76082">
        <ele>148</ele>
        <time>2014-08-24T08:06:55Z</time>
      </trkpt>
      <trkpt lat="49.10288" lon="0.76073">
        <ele>148</ele>
        <time>2014-08-24T08:06:57Z</time>
      </trkpt>
      <trkpt lat="49.10294" lon="0.76068">
        <ele>148</ele>
        <time>2014-08-24T08:06:58Z</time>
      </trkpt>
      <trkpt lat="49.10299" lon="0.76063">
        <ele>148</ele>
        <time>2014-08-24T08:06:59Z</time>
      </trkpt>
      <trkpt lat="49.10303" lon="0.76057">
        <ele>148</ele>
        <time>2014-08-24T08:07:00Z</time>
      </trkpt>
      <trkpt lat="49.10309" lon="0.76052">
        <ele>148</ele>
        <time>2014-08-24T08:07:01Z</time>
      </trkpt>
      <trkpt lat="49.10339" lon="0.76024">
        <ele>148</ele>
        <time>2014-08-24T08:07:07Z</time>
      </trkpt>
      <trkpt lat="49.10383" lon="0.75982">
        <ele>148</ele>
        <time>2014-08-24T08:07:17Z</time>
      </trkpt>
      <trkpt lat="49.10415" lon="0.75951">
        <ele>148</ele>
        <time>2014-08-24T08:07:25Z</time>
      </trkpt>
      <trkpt lat="49.10444" lon="0.75925">
        <ele>149</ele>
        <time>2014-08-24T08:07:32Z</time>
      </trkpt>
      <trkpt lat="49.10467" lon="0.75902">
        <ele>149</ele>
        <time>2014-08-24T08:07:38Z</time>
      </trkpt>
      <trkpt lat="49.10491" lon="0.75881">
        <ele>149</ele>
        <time>2014-08-24T08:07:44Z</time>
      </trkpt>
      <trkpt lat="49.10527" lon="0.75842">
        <ele>148</ele>
        <time>2014-08-24T08:07:52Z</time>
      </trkpt>
      <trkpt lat="49.10562" lon="0.75802">
        <ele>147</ele>
        <time>2014-08-24T08:08:00Z</time>
      </trkpt>
      <trkpt lat="49.106" lon="0.75759">
        <ele>147</ele>
        <time>2014-08-24T08:08:08Z</time>
      </trkpt>
      <trkpt lat="49.10631" lon="0.75725">
        <ele>147</ele>
        <time>2014-08-24T08:08:14Z</time>
      </trkpt>
      <trkpt lat="49.10636" lon="0.7572">
        <ele>147</ele>
        <time>2014-08-24T08:08:15Z</time>
      </trkpt>
      <trkpt lat="49.10642" lon="0.75714">
        <ele>147</ele>
        <time>2014-08-24T08:08:16Z</time>
      </trkpt>
      <trkpt lat="49.10647" lon="0.75709">
        <ele>147</ele>
        <time>2014-08-24T08:08:17Z</time>
      </trkpt>
      <trkpt lat="49.10653" lon="0.75704">
        <ele>147</ele>
        <time>2014-08-24T08:08:18Z</time>
      </trkpt>
      <trkpt lat="49.10659" lon="0.75699">
        <ele>147</ele>
        <time>2014-08-24T08:08:19Z</time>
      </trkpt>
      <trkpt lat="49.10664" lon="0.75694">
        <ele>147</ele>
        <time>2014-08-24T08:08:20Z</time>
      </trkpt>
      <trkpt lat="49.10687" lon="0.75671">
        <ele>147</ele>
        <time>2014-08-24T08:08:25Z</time>
      </trkpt>
      <trkpt lat="49.10713" lon="0.75649">
        <ele>147</ele>
        <time>2014-08-24T08:08:31Z</time>
      </trkpt>
      <trkpt lat="49.10743" lon="0.75626">
        <ele>147</ele>
        <time>2014-08-24T08:08:37Z</time>
      </trkpt>
      <trkpt lat="49.10774" lon="0.75605">
        <ele>147</ele>
        <time>2014-08-24T08:08:44Z</time>
      </trkpt>
      <trkpt lat="49.10802" lon="0.75585">
        <ele>147</ele>
        <time>2014-08-24T08:08:50Z</time>
      </trkpt>
      <trkpt lat="49.1083" lon="0.75566">
        <ele>147</ele>
        <time>2014-08-24T08:08:56Z</time>
      </trkpt>
      <trkpt lat="49.10848" lon="0.75556">
        <ele>146</ele>
        <time>2014-08-24T08:09:00Z</time>
      </trkpt>
      <trkpt lat="49.10882" lon="0.75532">
        <ele>146</ele>
        <time>2014-08-24T08:09:07Z</time>
      </trkpt>
      <trkpt lat="49.10888" lon="0.75528">
        <ele>146</ele>
        <time>2014-08-24T08:09:08Z</time>
      </trkpt>
      <trkpt lat="49.1091" lon="0.75513">
        <ele>145</ele>
        <time>2014-08-24T08:09:12Z</time>
      </trkpt>
      <trkpt lat="49.10915" lon="0.75509">
        <ele>145</ele>
        <time>2014-08-24T08:09:13Z</time>
      </trkpt>
      <trkpt lat="49.10921" lon="0.75504">
        <ele>145</ele>
        <time>2014-08-24T08:09:14Z</time>
      </trkpt>
      <trkpt lat="49.10926" lon="0.755">
        <ele>145</ele>
        <time>2014-08-24T08:09:15Z</time>
      </trkpt>
      <trkpt lat="49.10932" lon="0.75497">
        <ele>145</ele>
        <time>2014-08-24T08:09:16Z</time>
      </trkpt>
      <trkpt lat="49.10984" lon="0.75462">
        <ele>143</ele>
        <time>2014-08-24T08:09:25Z</time>
      </trkpt>
      <trkpt lat="49.10989" lon="0.75458">
        <ele>143</ele>
        <time>2014-08-24T08:09:26Z</time>
      </trkpt>
      <trkpt lat="49.11028" lon="0.75438">
        <ele>143</ele>
        <time>2014-08-24T08:09:33Z</time>
      </trkpt>
      <trkpt lat="49.11065" lon="0.75421">
        <ele>144</ele>
        <time>2014-08-24T08:09:41Z</time>
      </trkpt>
      <trkpt lat="49.11069" lon="0.75419">
        <ele>144</ele>
        <time>2014-08-24T08:09:42Z</time>
      </trkpt>
      <trkpt lat="49.111" lon="0.75405">
        <ele>145</ele>
        <time>2014-08-24T08:09:49Z</time>
      </trkpt>
      <trkpt lat="49.11105" lon="0.75403">
        <ele>145</ele>
        <time>2014-08-24T08:09:50Z</time>
      </trkpt>
      <trkpt lat="49.1111" lon="0.75401">
        <ele>145</ele>
        <time>2014-08-24T08:09:51Z</time>
      </trkpt>
      <trkpt lat="49.11114" lon="0.754">
        <ele>145</ele>
        <time>2014-08-24T08:09:52Z</time>
      </trkpt>
      <trkpt lat="49.11119" lon="0.75398">
        <ele>145</ele>
        <time>2014-08-24T08:09:53Z</time>
      </trkpt>
      <trkpt lat="49.11142" lon="0.75389">
        <ele>146</ele>
        <time>2014-08-24T08:09:58Z</time>
      </trkpt>
      <trkpt lat="49.11178" lon="0.75378">
        <ele>146</ele>
        <time>2014-08-24T08:10:05Z</time>
      </trkpt>
      <trkpt lat="49.11214" lon="0.75372">
        <ele>146</ele>
        <time>2014-08-24T08:10:11Z</time>
      </trkpt>
      <trkpt lat="49.11248" lon="0.75369">
        <ele>146</ele>
        <time>2014-08-24T08:10:17Z</time>
      </trkpt>
      <trkpt lat="49.1127" lon="0.75371">
        <ele>145</ele>
        <time>2014-08-24T08:10:22Z</time>
      </trkpt>
      <trkpt lat="49.11309" lon="0.75376">
        <ele>144</ele>
        <time>2014-08-24T08:10:29Z</time>
      </trkpt>
      <trkpt lat="49.1132" lon="0.75379">
        <ele>144</ele>
        <time>2014-08-24T08:10:31Z</time>
      </trkpt>
      <trkpt lat="49.11326" lon="0.7538">
        <ele>144</ele>
        <time>2014-08-24T08:10:32Z</time>
      </trkpt>
      <trkpt lat="49.11333" lon="0.75383">
        <ele>144</ele>
        <time>2014-08-24T08:10:33Z</time>
      </trkpt>
      <trkpt lat="49.11338" lon="0.75385">
        <ele>144</ele>
        <time>2014-08-24T08:10:34Z</time>
      </trkpt>
      <trkpt lat="49.11344" lon="0.75386">
        <ele>143</ele>
        <time>2014-08-24T08:10:35Z</time>
      </trkpt>
      <trkpt lat="49.11373" lon="0.75389">
        <ele>143</ele>
        <time>2014-08-24T08:10:39Z</time>
      </trkpt>
      <trkpt lat="49.1138" lon="0.7539">
        <ele>143</ele>
        <time>2014-08-24T08:10:40Z</time>
      </trkpt>
      <trkpt lat="49.11386" lon="0.75392">
        <ele>143</ele>
        <time>2014-08-24T08:10:41Z</time>
      </trkpt>
      <trkpt lat="49.11392" lon="0.75393">
        <ele>143</ele>
        <time>2014-08-24T08:10:42Z</time>
      </trkpt>
      <trkpt lat="49.11398" lon="0.75395">
        <ele>143</ele>
        <time>2014-08-24T08:10:43Z</time>
      </trkpt>
      <trkpt lat="49.1141" lon="0.75398">
        <ele>143</ele>
        <time>2014-08-24T08:10:45Z</time>
      </trkpt>
      <trkpt lat="49.11416" lon="0.75397">
        <ele>143</ele>
        <time>2014-08-24T08:10:46Z</time>
      </trkpt>
      <trkpt lat="49.11476" lon="0.75385">
        <ele>143</ele>
        <time>2014-08-24T08:10:52Z</time>
      </trkpt>
      <trkpt lat="49.11512" lon="0.75375">
        <ele>143</ele>
        <time>2014-08-24T08:10:58Z</time>
      </trkpt>
      <trkpt lat="49.1153" lon="0.75371">
        <ele>143</ele>
        <time>2014-08-24T08:11:03Z</time>
      </trkpt>
      <trkpt lat="49.11556" lon="0.75364">
        <ele>143</ele>
        <time>2014-08-24T08:11:09Z</time>
      </trkpt>
      <trkpt lat="49.11595" lon="0.75349">
        <ele>144</ele>
        <time>2014-08-24T08:11:16Z</time>
      </trkpt>
      <trkpt lat="49.11626" lon="0.75337">
        <ele>144</ele>
        <time>2014-08-24T08:11:22Z</time>
      </trkpt>
      <trkpt lat="49.11633" lon="0.75334">
        <ele>144</ele>
        <time>2014-08-24T08:11:23Z</time>
      </trkpt>
      <trkpt lat="49.11646" lon="0.75329">
        <ele>144</ele>
        <time>2014-08-24T08:11:25Z</time>
      </trkpt>
      <trkpt lat="49.11651" lon="0.75326">
        <ele>144</ele>
        <time>2014-08-24T08:11:26Z</time>
      </trkpt>
      <trkpt lat="49.11657" lon="0.75323">
        <ele>144</ele>
        <time>2014-08-24T08:11:27Z</time>
      </trkpt>
      <trkpt lat="49.11662" lon="0.75321">
        <ele>144</ele>
        <time>2014-08-24T08:11:28Z</time>
      </trkpt>
      <trkpt lat="49.11667" lon="0.75319">
        <ele>144</ele>
        <time>2014-08-24T08:11:29Z</time>
      </trkpt>
      <trkpt lat="49.11672" lon="0.75317">
        <ele>144</ele>
        <time>2014-08-24T08:11:30Z</time>
      </trkpt>
      <trkpt lat="49.11701" lon="0.75306">
        <ele>144</ele>
        <time>2014-08-24T08:11:36Z</time>
      </trkpt>
      <trkpt lat="49.11734" lon="0.75295">
        <ele>143</ele>
        <time>2014-08-24T08:11:42Z</time>
      </trkpt>
      <trkpt lat="49.11738" lon="0.75293">
        <ele>143</ele>
        <time>2014-08-24T08:11:43Z</time>
      </trkpt>
      <trkpt lat="49.11744" lon="0.75282">
        <ele>143</ele>
        <time>2014-08-24T08:11:47Z</time>
      </trkpt>
      <trkpt lat="49.11744" lon="0.75279">
        <ele>143</ele>
        <time>2014-08-24T08:11:48Z</time>
      </trkpt>
      <trkpt lat="49.11745" lon="0.75274">
        <ele>143</ele>
        <time>2014-08-24T08:11:49Z</time>
      </trkpt>
      <trkpt lat="49.11745" lon="0.75268">
        <ele>142</ele>
        <time>2014-08-24T08:11:50Z</time>
      </trkpt>
      <trkpt lat="49.11746" lon="0.75262">
        <ele>142</ele>
        <time>2014-08-24T08:11:51Z</time>
      </trkpt>
      <trkpt lat="49.11748" lon="0.75254">
        <ele>142</ele>
        <time>2014-08-24T08:11:52Z</time>
      </trkpt>
      <trkpt lat="49.11754" lon="0.7523">
        <ele>142</ele>
        <time>2014-08-24T08:11:55Z</time>
      </trkpt>
      <trkpt lat="49.11763" lon="0.75206">
        <ele>141</ele>
        <time>2014-08-24T08:11:58Z</time>
      </trkpt>
      <trkpt lat="49.11769" lon="0.75192">
        <ele>141</ele>
        <time>2014-08-24T08:12:00Z</time>
      </trkpt>
      <trkpt lat="49.11772" lon="0.75183">
        <ele>141</ele>
        <time>2014-08-24T08:12:01Z</time>
      </trkpt>
      <trkpt lat="49.11774" lon="0.75176">
        <ele>140</ele>
        <time>2014-08-24T08:12:02Z</time>
      </trkpt>
      <trkpt lat="49.11777" lon="0.75168">
        <ele>140</ele>
        <time>2014-08-24T08:12:03Z</time>
      </trkpt>
      <trkpt lat="49.1178" lon="0.75157">
        <ele>140</ele>
        <time>2014-08-24T08:12:04Z</time>
      </trkpt>
      <trkpt lat="49.11786" lon="0.75137">
        <ele>139</ele>
        <time>2014-08-24T08:12:06Z</time>
      </trkpt>
      <trkpt lat="49.11789" lon="0.75127">
        <ele>139</ele>
        <time>2014-08-24T08:12:07Z</time>
      </trkpt>
      <trkpt lat="49.11791" lon="0.75118">
        <ele>138</ele>
        <time>2014-08-24T08:12:08Z</time>
      </trkpt>
      <trkpt lat="49.11792" lon="0.75108">
        <ele>138</ele>
        <time>2014-08-24T08:12:09Z</time>
      </trkpt>
      <trkpt lat="49.11793" lon="0.75097">
        <ele>137</ele>
        <time>2014-08-24T08:12:10Z</time>
      </trkpt>
      <trkpt lat="49.11792" lon="0.75085">
        <ele>136</ele>
        <time>2014-08-24T08:12:11Z</time>
      </trkpt>
      <trkpt lat="49.11792" lon="0.75076">
        <ele>136</ele>
        <time>2014-08-24T08:12:12Z</time>
      </trkpt>
      <trkpt lat="49.11792" lon="0.75068">
        <ele>135</ele>
        <time>2014-08-24T08:12:13Z</time>
      </trkpt>
      <trkpt lat="49.11793" lon="0.7506">
        <ele>135</ele>
        <time>2014-08-24T08:12:14Z</time>
      </trkpt>
      <trkpt lat="49.11797" lon="0.75051">
        <ele>134</ele>
        <time>2014-08-24T08:12:15Z</time>
      </trkpt>
      <trkpt lat="49.11796" lon="0.75037">
        <ele>133</ele>
        <time>2014-08-24T08:12:16Z</time>
      </trkpt>
      <trkpt lat="49.11796" lon="0.75029">
        <ele>132</ele>
        <time>2014-08-24T08:12:17Z</time>
      </trkpt>
      <trkpt lat="49.11796" lon="0.75019">
        <ele>131</ele>
        <time>2014-08-24T08:12:18Z</time>
      </trkpt>
      <trkpt lat="49.11797" lon="0.75009">
        <ele>130</ele>
        <time>2014-08-24T08:12:19Z</time>
      </trkpt>
      <trkpt lat="49.11798" lon="0.75001">
        <ele>129</ele>
        <time>2014-08-24T08:12:20Z</time>
      </trkpt>
      <trkpt lat="49.11799" lon="0.74991">
        <ele>128</ele>
        <time>2014-08-24T08:12:21Z</time>
      </trkpt>
      <trkpt lat="49.11799" lon="0.74983">
        <ele>127</ele>
        <time>2014-08-24T08:12:22Z</time>
      </trkpt>
      <trkpt lat="49.118" lon="0.74973">
        <ele>126</ele>
        <time>2014-08-24T08:12:23Z</time>
      </trkpt>
      <trkpt lat="49.118" lon="0.74965">
        <ele>124</ele>
        <time>2014-08-24T08:12:24Z</time>
      </trkpt>
      <trkpt lat="49.11799" lon="0.74956">
        <ele>123</ele>
        <time>2014-08-24T08:12:25Z</time>
      </trkpt>
      <trkpt lat="49.11798" lon="0.74948">
        <ele>122</ele>
        <time>2014-08-24T08:12:26Z</time>
      </trkpt>
      <trkpt lat="49.11797" lon="0.7494">
        <ele>121</ele>
        <time>2014-08-24T08:12:27Z</time>
      </trkpt>
      <trkpt lat="49.11796" lon="0.7493">
        <ele>119</ele>
        <time>2014-08-24T08:12:28Z</time>
      </trkpt>
      <trkpt lat="49.11795" lon="0.7492">
        <ele>118</ele>
        <time>2014-08-24T08:12:29Z</time>
      </trkpt>
      <trkpt lat="49.11793" lon="0.74909">
        <ele>117</ele>
        <time>2014-08-24T08:12:30Z</time>
      </trkpt>
      <trkpt lat="49.11791" lon="0.749">
        <ele>117</ele>
        <time>2014-08-24T08:12:31Z</time>
      </trkpt>
      <trkpt lat="49.11789" lon="0.74888">
        <ele>116</ele>
        <time>2014-08-24T08:12:32Z</time>
      </trkpt>
      <trkpt lat="49.11787" lon="0.7488">
        <ele>116</ele>
        <time>2014-08-24T08:12:33Z</time>
      </trkpt>
      <trkpt lat="49.11785" lon="0.74867">
        <ele>115</ele>
        <time>2014-08-24T08:12:34Z</time>
      </trkpt>
      <trkpt lat="49.11781" lon="0.74858">
        <ele>114</ele>
        <time>2014-08-24T08:12:35Z</time>
      </trkpt>
      <trkpt lat="49.11777" lon="0.74847">
        <ele>114</ele>
        <time>2014-08-24T08:12:36Z</time>
      </trkpt>
      <trkpt lat="49.11773" lon="0.74838">
        <ele>114</ele>
        <time>2014-08-24T08:12:37Z</time>
      </trkpt>
      <trkpt lat="49.11769" lon="0.74828">
        <ele>113</ele>
        <time>2014-08-24T08:12:38Z</time>
      </trkpt>
      <trkpt lat="49.11765" lon="0.74818">
        <ele>113</ele>
        <time>2014-08-24T08:12:39Z</time>
      </trkpt>
      <trkpt lat="49.11756" lon="0.74799">
        <ele>111</ele>
        <time>2014-08-24T08:12:41Z</time>
      </trkpt>
      <trkpt lat="49.11753" lon="0.74789">
        <ele>110</ele>
        <time>2014-08-24T08:12:42Z</time>
      </trkpt>
      <trkpt lat="49.11749" lon="0.74778">
        <ele>109</ele>
        <time>2014-08-24T08:12:43Z</time>
      </trkpt>
      <trkpt lat="49.11744" lon="0.74767">
        <ele>110</ele>
        <time>2014-08-24T08:12:44Z</time>
      </trkpt>
      <trkpt lat="49.11738" lon="0.74757">
        <ele>110</ele>
        <time>2014-08-24T08:12:45Z</time>
      </trkpt>
      <trkpt lat="49.11734" lon="0.74747">
        <ele>111</ele>
        <time>2014-08-24T08:12:46Z</time>
      </trkpt>
      <trkpt lat="49.11729" lon="0.74737">
        <ele>111</ele>
        <time>2014-08-24T08:12:47Z</time>
      </trkpt>
      <trkpt lat="49.11725" lon="0.74723">
        <ele>110</ele>
        <time>2014-08-24T08:12:48Z</time>
      </trkpt>
      <trkpt lat="49.1172" lon="0.74709">
        <ele>110</ele>
        <time>2014-08-24T08:12:49Z</time>
      </trkpt>
      <trkpt lat="49.11715" lon="0.74696">
        <ele>109</ele>
        <time>2014-08-24T08:12:50Z</time>
      </trkpt>
      <trkpt lat="49.1171" lon="0.74681">
        <ele>108</ele>
        <time>2014-08-24T08:12:51Z</time>
      </trkpt>
      <trkpt lat="49.11708" lon="0.74667">
        <ele>107</ele>
        <time>2014-08-24T08:12:52Z</time>
      </trkpt>
      <trkpt lat="49.11704" lon="0.74653">
        <ele>105</ele>
        <time>2014-08-24T08:12:53Z</time>
      </trkpt>
      <trkpt lat="49.11705" lon="0.74638">
        <ele>104</ele>
        <time>2014-08-24T08:12:54Z</time>
      </trkpt>
      <trkpt lat="49.11705" lon="0.74623">
        <ele>103</ele>
        <time>2014-08-24T08:12:55Z</time>
      </trkpt>
      <trkpt lat="49.11709" lon="0.74595">
        <ele>103</ele>
        <time>2014-08-24T08:12:57Z</time>
      </trkpt>
      <trkpt lat="49.11712" lon="0.74581">
        <ele>102</ele>
        <time>2014-08-24T08:12:58Z</time>
      </trkpt>
      <trkpt lat="49.11716" lon="0.74568">
        <ele>103</ele>
        <time>2014-08-24T08:12:59Z</time>
      </trkpt>
      <trkpt lat="49.11721" lon="0.74555">
        <ele>103</ele>
        <time>2014-08-24T08:13:00Z</time>
      </trkpt>
      <trkpt lat="49.11726" lon="0.74542">
        <ele>103</ele>
        <time>2014-08-24T08:13:01Z</time>
      </trkpt>
      <trkpt lat="49.11731" lon="0.74529">
        <ele>103</ele>
        <time>2014-08-24T08:13:02Z</time>
      </trkpt>
      <trkpt lat="49.11735" lon="0.74516">
        <ele>102</ele>
        <time>2014-08-24T08:13:03Z</time>
      </trkpt>
      <trkpt lat="49.1174" lon="0.74502">
        <ele>101</ele>
        <time>2014-08-24T08:13:04Z</time>
      </trkpt>
      <trkpt lat="49.11745" lon="0.74489">
        <ele>101</ele>
        <time>2014-08-24T08:13:05Z</time>
      </trkpt>
      <trkpt lat="49.1175" lon="0.74476">
        <ele>101</ele>
        <time>2014-08-24T08:13:06Z</time>
      </trkpt>
      <trkpt lat="49.11755" lon="0.74463">
        <ele>101</ele>
        <time>2014-08-24T08:13:07Z</time>
      </trkpt>
      <trkpt lat="49.1176" lon="0.74449">
        <ele>101</ele>
        <time>2014-08-24T08:13:08Z</time>
      </trkpt>
      <trkpt lat="49.11764" lon="0.74434">
        <ele>100</ele>
        <time>2014-08-24T08:13:09Z</time>
      </trkpt>
      <trkpt lat="49.11768" lon="0.74421">
        <ele>100</ele>
        <time>2014-08-24T08:13:10Z</time>
      </trkpt>
      <trkpt lat="49.11772" lon="0.74406">
        <ele>99</ele>
        <time>2014-08-24T08:13:11Z</time>
      </trkpt>
      <trkpt lat="49.11775" lon="0.74392">
        <ele>98</ele>
        <time>2014-08-24T08:13:12Z</time>
      </trkpt>
      <trkpt lat="49.11781" lon="0.74362">
        <ele>95</ele>
        <time>2014-08-24T08:13:14Z</time>
      </trkpt>
      <trkpt lat="49.11784" lon="0.74346">
        <ele>94</ele>
        <time>2014-08-24T08:13:15Z</time>
      </trkpt>
      <trkpt lat="49.11787" lon="0.74331">
        <ele>94</ele>
        <time>2014-08-24T08:13:16Z</time>
      </trkpt>
      <trkpt lat="49.11789" lon="0.74315">
        <ele>94</ele>
        <time>2014-08-24T08:13:17Z</time>
      </trkpt>
      <trkpt lat="49.11791" lon="0.74299">
        <ele>93</ele>
        <time>2014-08-24T08:13:18Z</time>
      </trkpt>
      <trkpt lat="49.11796" lon="0.74268">
        <ele>93</ele>
        <time>2014-08-24T08:13:20Z</time>
      </trkpt>
      <trkpt lat="49.11796" lon="0.74251">
        <ele>93</ele>
        <time>2014-08-24T08:13:21Z</time>
      </trkpt>
      <trkpt lat="49.11798" lon="0.74236">
        <ele>92</ele>
        <time>2014-08-24T08:13:22Z</time>
      </trkpt>
      <trkpt lat="49.11801" lon="0.74224">
        <ele>92</ele>
        <time>2014-08-24T08:13:23Z</time>
      </trkpt>
      <trkpt lat="49.11802" lon="0.7421">
        <ele>92</ele>
        <time>2014-08-24T08:13:24Z</time>
      </trkpt>
      <trkpt lat="49.11804" lon="0.7418">
        <ele>92</ele>
        <time>2014-08-24T08:13:26Z</time>
      </trkpt>
      <trkpt lat="49.11805" lon="0.74165">
        <ele>91</ele>
        <time>2014-08-24T08:13:27Z</time>
      </trkpt>
      <trkpt lat="49.11805" lon="0.7415">
        <ele>91</ele>
        <time>2014-08-24T08:13:28Z</time>
      </trkpt>
      <trkpt lat="49.11806" lon="0.74136">
        <ele>90</ele>
        <time>2014-08-24T08:13:29Z</time>
      </trkpt>
      <trkpt lat="49.11808" lon="0.74122">
        <ele>90</ele>
        <time>2014-08-24T08:13:30Z</time>
      </trkpt>
      <trkpt lat="49.11809" lon="0.74108">
        <ele>89</ele>
        <time>2014-08-24T08:13:31Z</time>
      </trkpt>
      <trkpt lat="49.11811" lon="0.74093">
        <ele>88</ele>
        <time>2014-08-24T08:13:32Z</time>
      </trkpt>
      <trkpt lat="49.11812" lon="0.74078">
        <ele>87</ele>
        <time>2014-08-24T08:13:33Z</time>
      </trkpt>
      <trkpt lat="49.11813" lon="0.74064">
        <ele>86</ele>
        <time>2014-08-24T08:13:34Z</time>
      </trkpt>
      <trkpt lat="49.11816" lon="0.74036">
        <ele>84</ele>
        <time>2014-08-24T08:13:36Z</time>
      </trkpt>
      <trkpt lat="49.11817" lon="0.74023">
        <ele>83</ele>
        <time>2014-08-24T08:13:37Z</time>
      </trkpt>
      <trkpt lat="49.11818" lon="0.74008">
        <ele>83</ele>
        <time>2014-08-24T08:13:38Z</time>
      </trkpt>
      <trkpt lat="49.11817" lon="0.73993">
        <ele>83</ele>
        <time>2014-08-24T08:13:39Z</time>
      </trkpt>
      <trkpt lat="49.11816" lon="0.73977">
        <ele>82</ele>
        <time>2014-08-24T08:13:40Z</time>
      </trkpt>
      <trkpt lat="49.11814" lon="0.73963">
        <ele>82</ele>
        <time>2014-08-24T08:13:41Z</time>
      </trkpt>
      <trkpt lat="49.11812" lon="0.73951">
        <ele>82</ele>
        <time>2014-08-24T08:13:42Z</time>
      </trkpt>
      <trkpt lat="49.11807" lon="0.73938">
        <ele>81</ele>
        <time>2014-08-24T08:13:43Z</time>
      </trkpt>
      <trkpt lat="49.11802" lon="0.73926">
        <ele>81</ele>
        <time>2014-08-24T08:13:44Z</time>
      </trkpt>
      <trkpt lat="49.11797" lon="0.73914">
        <ele>80</ele>
        <time>2014-08-24T08:13:45Z</time>
      </trkpt>
      <trkpt lat="49.1179" lon="0.73889">
        <ele>79</ele>
        <time>2014-08-24T08:13:47Z</time>
      </trkpt>
      <trkpt lat="49.11787" lon="0.73876">
        <ele>78</ele>
        <time>2014-08-24T08:13:48Z</time>
      </trkpt>
      <trkpt lat="49.11787" lon="0.73862">
        <ele>77</ele>
        <time>2014-08-24T08:13:49Z</time>
      </trkpt>
      <trkpt lat="49.1179" lon="0.73848">
        <ele>77</ele>
        <time>2014-08-24T08:13:50Z</time>
      </trkpt>
      <trkpt lat="49.11796" lon="0.73836">
        <ele>76</ele>
        <time>2014-08-24T08:13:51Z</time>
      </trkpt>
      <trkpt lat="49.11804" lon="0.73827">
        <ele>76</ele>
        <time>2014-08-24T08:13:52Z</time>
      </trkpt>
      <trkpt lat="49.11812" lon="0.73818">
        <ele>76</ele>
        <time>2014-08-24T08:13:53Z</time>
      </trkpt>
      <trkpt lat="49.11821" lon="0.7381">
        <ele>75</ele>
        <time>2014-08-24T08:13:54Z</time>
      </trkpt>
      <trkpt lat="49.11829" lon="0.73803">
        <ele>75</ele>
        <time>2014-08-24T08:13:55Z</time>
      </trkpt>
      <trkpt lat="49.11846" lon="0.73793">
        <ele>75</ele>
        <time>2014-08-24T08:13:57Z</time>
      </trkpt>
      <trkpt lat="49.11856" lon="0.73788">
        <ele>74</ele>
        <time>2014-08-24T08:13:58Z</time>
      </trkpt>
      <trkpt lat="49.11865" lon="0.73784">
        <ele>74</ele>
        <time>2014-08-24T08:13:59Z</time>
      </trkpt>
      <trkpt lat="49.11874" lon="0.73781">
        <ele>74</ele>
        <time>2014-08-24T08:14:00Z</time>
      </trkpt>
      <trkpt lat="49.11883" lon="0.73778">
        <ele>73</ele>
        <time>2014-08-24T08:14:01Z</time>
      </trkpt>
      <trkpt lat="49.11891" lon="0.73775">
        <ele>73</ele>
        <time>2014-08-24T08:14:02Z</time>
      </trkpt>
      <trkpt lat="49.11899" lon="0.73773">
        <ele>73</ele>
        <time>2014-08-24T08:14:03Z</time>
      </trkpt>
      <trkpt lat="49.11911" lon="0.7378">
        <ele>73</ele>
        <time>2014-08-24T08:14:06Z</time>
      </trkpt>
      <trkpt lat="49.11909" lon="0.73794">
        <ele>74</ele>
        <time>2014-08-24T08:14:09Z</time>
      </trkpt>
      <trkpt lat="49.1191" lon="0.73808">
        <ele>74</ele>
        <time>2014-08-24T08:14:12Z</time>
      </trkpt>
      <trkpt lat="49.11911" lon="0.73821">
        <ele>75</ele>
        <time>2014-08-24T08:14:15Z</time>
      </trkpt>
      <trkpt lat="49.11911" lon="0.73829">
        <ele>75</ele>
        <time>2014-08-24T08:14:17Z</time>
      </trkpt>
      <trkpt lat="49.1191" lon="0.7384">
        <ele>76</ele>
        <time>2014-08-24T08:14:20Z</time>
      </trkpt>
      <trkpt lat="49.1191" lon="0.73843">
        <ele>77</ele>
        <time>2014-08-24T08:14:21Z</time>
      </trkpt>
      <trkpt lat="49.1191" lon="0.73847">
        <ele>77</ele>
        <time>2014-08-24T08:14:22Z</time>
      </trkpt>
      <trkpt lat="49.1191" lon="0.7385">
        <ele>77</ele>
        <time>2014-08-24T08:14:23Z</time>
      </trkpt>
      <trkpt lat="49.1191" lon="0.73854">
        <ele>78</ele>
        <time>2014-08-24T08:14:24Z</time>
      </trkpt>
      <trkpt lat="49.1191" lon="0.73858">
        <ele>78</ele>
        <time>2014-08-24T08:14:25Z</time>
      </trkpt>
      <trkpt lat="49.11913" lon="0.73873">
        <ele>79</ele>
        <time>2014-08-24T08:14:30Z</time>
      </trkpt>
      <trkpt lat="49.11914" lon="0.7388">
        <ele>80</ele>
        <time>2014-08-24T08:14:32Z</time>
      </trkpt>
      <trkpt lat="49.11915" lon="0.73884">
        <ele>80</ele>
        <time>2014-08-24T08:14:33Z</time>
      </trkpt>
      <trkpt lat="49.11915" lon="0.73887">
        <ele>80</ele>
        <time>2014-08-24T08:14:34Z</time>
      </trkpt>
      <trkpt lat="49.11915" lon="0.7389">
        <ele>80</ele>
        <time>2014-08-24T08:14:35Z</time>
      </trkpt>
      <trkpt lat="49.11916" lon="0.73895">
        <ele>81</ele>
        <time>2014-08-24T08:14:36Z</time>
      </trkpt>
      <trkpt lat="49.11916" lon="0.739">
        <ele>81</ele>
        <time>2014-08-24T08:14:37Z</time>
      </trkpt>
      <trkpt lat="49.11918" lon="0.73908">
        <ele>82</ele>
        <time>2014-08-24T08:14:39Z</time>
      </trkpt>
      <trkpt lat="49.1192" lon="0.7392">
        <ele>83</ele>
        <time>2014-08-24T08:14:42Z</time>
      </trkpt>
      <trkpt lat="49.1192" lon="0.73923">
        <ele>83</ele>
        <time>2014-08-24T08:14:43Z</time>
      </trkpt>
      <trkpt lat="49.1192" lon="0.73927">
        <ele>83</ele>
        <time>2014-08-24T08:14:44Z</time>
      </trkpt>
      <trkpt lat="49.11921" lon="0.7393">
        <ele>83</ele>
        <time>2014-08-24T08:14:45Z</time>
      </trkpt>
      <trkpt lat="49.11921" lon="0.73933">
        <ele>83</ele>
        <time>2014-08-24T08:14:46Z</time>
      </trkpt>
      <trkpt lat="49.11921" lon="0.73936">
        <ele>84</ele>
        <time>2014-08-24T08:14:47Z</time>
      </trkpt>
      <trkpt lat="49.11924" lon="0.73951">
        <ele>85</ele>
        <time>2014-08-24T08:14:52Z</time>
      </trkpt>
      <trkpt lat="49.11924" lon="0.73953">
        <ele>85</ele>
        <time>2014-08-24T08:14:53Z</time>
      </trkpt>
      <trkpt lat="49.11924" lon="0.73957">
        <ele>85</ele>
        <time>2014-08-24T08:14:54Z</time>
      </trkpt>
      <trkpt lat="49.11924" lon="0.7396">
        <ele>86</ele>
        <time>2014-08-24T08:14:55Z</time>
      </trkpt>
      <trkpt lat="49.11924" lon="0.73965">
        <ele>86</ele>
        <time>2014-08-24T08:14:56Z</time>
      </trkpt>
      <trkpt lat="49.11925" lon="0.73978">
        <ele>88</ele>
        <time>2014-08-24T08:15:00Z</time>
      </trkpt>
      <trkpt lat="49.11925" lon="0.73981">
        <ele>88</ele>
        <time>2014-08-24T08:15:01Z</time>
      </trkpt>
      <trkpt lat="49.11925" lon="0.73984">
        <ele>89</ele>
        <time>2014-08-24T08:15:02Z</time>
      </trkpt>
      <trkpt lat="49.11926" lon="0.73988">
        <ele>89</ele>
        <time>2014-08-24T08:15:03Z</time>
      </trkpt>
      <trkpt lat="49.11926" lon="0.73991">
        <ele>89</ele>
        <time>2014-08-24T08:15:04Z</time>
      </trkpt>
      <trkpt lat="49.11926" lon="0.73994">
        <ele>90</ele>
        <time>2014-08-24T08:15:05Z</time>
      </trkpt>
      <trkpt lat="49.11926" lon="0.74014">
        <ele>92</ele>
        <time>2014-08-24T08:15:10Z</time>
      </trkpt>
      <trkpt lat="49.11925" lon="0.74022">
        <ele>93</ele>
        <time>2014-08-24T08:15:13Z</time>
      </trkpt>
      <trkpt lat="49.11925" lon="0.74024">
        <ele>93</ele>
        <time>2014-08-24T08:15:14Z</time>
      </trkpt>
      <trkpt lat="49.11925" lon="0.74027">
        <ele>94</ele>
        <time>2014-08-24T08:15:15Z</time>
      </trkpt>
      <trkpt lat="49.11925" lon="0.74029">
        <ele>94</ele>
        <time>2014-08-24T08:15:16Z</time>
      </trkpt>
      <trkpt lat="49.11926" lon="0.74033">
        <ele>95</ele>
        <time>2014-08-24T08:15:17Z</time>
      </trkpt>
      <trkpt lat="49.11928" lon="0.74048">
        <ele>97</ele>
        <time>2014-08-24T08:15:24Z</time>
      </trkpt>
      <trkpt lat="49.11929" lon="0.7405">
        <ele>97</ele>
        <time>2014-08-24T08:15:25Z</time>
      </trkpt>
      <trkpt lat="49.1193" lon="0.74051">
        <ele>97</ele>
        <time>2014-08-24T08:15:26Z</time>
      </trkpt>
      <trkpt lat="49.11931" lon="0.74053">
        <ele>98</ele>
        <time>2014-08-24T08:15:27Z</time>
      </trkpt>
      <trkpt lat="49.11931" lon="0.74055">
        <ele>98</ele>
        <time>2014-08-24T08:15:28Z</time>
      </trkpt>
      <trkpt lat="49.11935" lon="0.74064">
        <ele>99</ele>
        <time>2014-08-24T08:15:33Z</time>
      </trkpt>
      <trkpt lat="49.11936" lon="0.74064">
        <ele>99</ele>
        <time>2014-08-24T08:15:34Z</time>
      </trkpt>
      <trkpt lat="49.11937" lon="0.74065">
        <ele>99</ele>
        <time>2014-08-24T08:15:35Z</time>
      </trkpt>
      <trkpt lat="49.11938" lon="0.74066">
        <ele>100</ele>
        <time>2014-08-24T08:15:36Z</time>
      </trkpt>
      <trkpt lat="49.11939" lon="0.74068">
        <ele>100</ele>
        <time>2014-08-24T08:15:37Z</time>
      </trkpt>
      <trkpt lat="49.11941" lon="0.74072">
        <ele>100</ele>
        <time>2014-08-24T08:15:39Z</time>
      </trkpt>
      <trkpt lat="49.11942" lon="0.74074">
        <ele>101</ele>
        <time>2014-08-24T08:15:40Z</time>
      </trkpt>
      <trkpt lat="49.11943" lon="0.74076">
        <ele>101</ele>
        <time>2014-08-24T08:15:41Z</time>
      </trkpt>
      <trkpt lat="49.11946" lon="0.74081">
        <ele>102</ele>
        <time>2014-08-24T08:15:42Z</time>
      </trkpt>
      <trkpt lat="49.11948" lon="0.74083">
        <ele>102</ele>
        <time>2014-08-24T08:15:43Z</time>
      </trkpt>
      <trkpt lat="49.11958" lon="0.74092">
        <ele>103</ele>
        <time>2014-08-24T08:15:51Z</time>
      </trkpt>
      <trkpt lat="49.11959" lon="0.74094">
        <ele>103</ele>
        <time>2014-08-24T08:15:52Z</time>
      </trkpt>
      <trkpt lat="49.1196" lon="0.74096">
        <ele>104</ele>
        <time>2014-08-24T08:15:53Z</time>
      </trkpt>
      <trkpt lat="49.11961" lon="0.74097">
        <ele>104</ele>
        <time>2014-08-24T08:15:54Z</time>
      </trkpt>
      <trkpt lat="49.11962" lon="0.74098">
        <ele>104</ele>
        <time>2014-08-24T08:15:55Z</time>
      </trkpt>
      <trkpt lat="49.11963" lon="0.74099">
        <ele>104</ele>
        <time>2014-08-24T08:15:56Z</time>
      </trkpt>
      <trkpt lat="49.1197" lon="0.74104">
        <ele>105</ele>
        <time>2014-08-24T08:16:00Z</time>
      </trkpt>
      <trkpt lat="49.11971" lon="0.74105">
        <ele>105</ele>
        <time>2014-08-24T08:16:01Z</time>
      </trkpt>
      <trkpt lat="49.11974" lon="0.74106">
        <ele>105</ele>
        <time>2014-08-24T08:16:02Z</time>
      </trkpt>
      <trkpt lat="49.11975" lon="0.74107">
        <ele>105</ele>
        <time>2014-08-24T08:16:03Z</time>
      </trkpt>
      <trkpt lat="49.11977" lon="0.74108">
        <ele>106</ele>
        <time>2014-08-24T08:16:04Z</time>
      </trkpt>
      <trkpt lat="49.11978" lon="0.74109">
        <ele>106</ele>
        <time>2014-08-24T08:16:05Z</time>
      </trkpt>
      <trkpt lat="49.11981" lon="0.74109">
        <ele>106</ele>
        <time>2014-08-24T08:16:08Z</time>
      </trkpt>
      <trkpt lat="49.11991" lon="0.74117">
        <ele>107</ele>
        <time>2014-08-24T08:16:15Z</time>
      </trkpt>
      <trkpt lat="49.11993" lon="0.74117">
        <ele>107</ele>
        <time>2014-08-24T08:16:16Z</time>
      </trkpt>
      <trkpt lat="49.11995" lon="0.74118">
        <ele>107</ele>
        <time>2014-08-24T08:16:17Z</time>
      </trkpt>
      <trkpt lat="49.11997" lon="0.74119">
        <ele>107</ele>
        <time>2014-08-24T08:16:18Z</time>
      </trkpt>
      <trkpt lat="49.11999" lon="0.74123">
        <ele>108</ele>
        <time>2014-08-24T08:16:19Z</time>
      </trkpt>
      <trkpt lat="49.12007" lon="0.74123">
        <ele>107</ele>
        <time>2014-08-24T08:16:22Z</time>
      </trkpt>
      <trkpt lat="49.12054" lon="0.74145">
        <ele>111</ele>
        <time>2014-08-24T08:16:56Z</time>
      </trkpt>
      <trkpt lat="49.12065" lon="0.74148">
        <ele>111</ele>
        <time>2014-08-24T08:17:01Z</time>
      </trkpt>
      <trkpt lat="49.12067" lon="0.74148">
        <ele>111</ele>
        <time>2014-08-24T08:17:02Z</time>
      </trkpt>
      <trkpt lat="49.12068" lon="0.74148">
        <ele>111</ele>
        <time>2014-08-24T08:17:03Z</time>
      </trkpt>
      <trkpt lat="49.12071" lon="0.74148">
        <ele>111</ele>
        <time>2014-08-24T08:17:04Z</time>
      </trkpt>
      <trkpt lat="49.12073" lon="0.74148">
        <ele>111</ele>
        <time>2014-08-24T08:17:05Z</time>
      </trkpt>
      <trkpt lat="49.12082" lon="0.74155">
        <ele>112</ele>
        <time>2014-08-24T08:17:12Z</time>
      </trkpt>
      <trkpt lat="49.12083" lon="0.74156">
        <ele>112</ele>
        <time>2014-08-24T08:17:13Z</time>
      </trkpt>
      <trkpt lat="49.12084" lon="0.74157">
        <ele>112</ele>
        <time>2014-08-24T08:17:14Z</time>
      </trkpt>
      <trkpt lat="49.12085" lon="0.74158">
        <ele>112</ele>
        <time>2014-08-24T08:17:15Z</time>
      </trkpt>
      <trkpt lat="49.12085" lon="0.7416">
        <ele>112</ele>
        <time>2014-08-24T08:17:16Z</time>
      </trkpt>
      <trkpt lat="49.12086" lon="0.74161">
        <ele>113</ele>
        <time>2014-08-24T08:17:17Z</time>
      </trkpt>
      <trkpt lat="49.12089" lon="0.74162">
        <ele>113</ele>
        <time>2014-08-24T08:17:19Z</time>
      </trkpt>
      <trkpt lat="49.12094" lon="0.74169">
        <ele>113</ele>
        <time>2014-08-24T08:17:22Z</time>
      </trkpt>
      <trkpt lat="49.12096" lon="0.74171">
        <ele>114</ele>
        <time>2014-08-24T08:17:23Z</time>
      </trkpt>
      <trkpt lat="49.12098" lon="0.74172">
        <ele>114</ele>
        <time>2014-08-24T08:17:24Z</time>
      </trkpt>
      <trkpt lat="49.121" lon="0.74174">
        <ele>114</ele>
        <time>2014-08-24T08:17:25Z</time>
      </trkpt>
      <trkpt lat="49.12101" lon="0.74176">
        <ele>114</ele>
        <time>2014-08-24T08:17:26Z</time>
      </trkpt>
      <trkpt lat="49.12103" lon="0.74181">
        <ele>115</ele>
        <time>2014-08-24T08:17:28Z</time>
      </trkpt>
      <trkpt lat="49.12108" lon="0.74188">
        <ele>115</ele>
        <time>2014-08-24T08:17:33Z</time>
      </trkpt>
      <trkpt lat="49.12112" lon="0.74193">
        <ele>116</ele>
        <time>2014-08-24T08:17:37Z</time>
      </trkpt>
      <trkpt lat="49.12113" lon="0.74195">
        <ele>116</ele>
        <time>2014-08-24T08:17:38Z</time>
      </trkpt>
      <trkpt lat="49.12116" lon="0.74205">
        <ele>117</ele>
        <time>2014-08-24T08:17:44Z</time>
      </trkpt>
      <trkpt lat="49.12117" lon="0.74208">
        <ele>118</ele>
        <time>2014-08-24T08:17:46Z</time>
      </trkpt>
      <trkpt lat="49.12118" lon="0.7421">
        <ele>118</ele>
        <time>2014-08-24T08:17:47Z</time>
      </trkpt>
      <trkpt lat="49.1212" lon="0.74213">
        <ele>118</ele>
        <time>2014-08-24T08:17:48Z</time>
      </trkpt>
      <trkpt lat="49.1212" lon="0.74215">
        <ele>118</ele>
        <time>2014-08-24T08:17:49Z</time>
      </trkpt>
      <trkpt lat="49.12121" lon="0.74217">
        <ele>119</ele>
        <time>2014-08-24T08:17:50Z</time>
      </trkpt>
      <trkpt lat="49.12126" lon="0.74222">
        <ele>119</ele>
        <time>2014-08-24T08:17:52Z</time>
      </trkpt>
      <trkpt lat="49.12134" lon="0.74234">
        <ele>120</ele>
        <time>2014-08-24T08:17:57Z</time>
      </trkpt>
      <trkpt lat="49.12134" lon="0.74237">
        <ele>120</ele>
        <time>2014-08-24T08:17:58Z</time>
      </trkpt>
      <trkpt lat="49.12135" lon="0.74238">
        <ele>120</ele>
        <time>2014-08-24T08:17:59Z</time>
      </trkpt>
      <trkpt lat="49.12135" lon="0.74239">
        <ele>121</ele>
        <time>2014-08-24T08:18:00Z</time>
      </trkpt>
      <trkpt lat="49.12136" lon="0.74241">
        <ele>121</ele>
        <time>2014-08-24T08:18:01Z</time>
      </trkpt>
      <trkpt lat="49.12136" lon="0.74242">
        <ele>121</ele>
        <time>2014-08-24T08:18:02Z</time>
      </trkpt>
      <trkpt lat="49.12141" lon="0.7426">
        <ele>122</ele>
        <time>2014-08-24T08:18:11Z</time>
      </trkpt>
      <trkpt lat="49.12141" lon="0.74264">
        <ele>123</ele>
        <time>2014-08-24T08:18:13Z</time>
      </trkpt>
      <trkpt lat="49.12142" lon="0.74266">
        <ele>123</ele>
        <time>2014-08-24T08:18:14Z</time>
      </trkpt>
      <trkpt lat="49.12142" lon="0.74267">
        <ele>123</ele>
        <time>2014-08-24T08:18:15Z</time>
      </trkpt>
      <trkpt lat="49.12143" lon="0.74268">
        <ele>123</ele>
        <time>2014-08-24T08:18:16Z</time>
      </trkpt>
      <trkpt lat="49.12144" lon="0.74269">
        <ele>123</ele>
        <time>2014-08-24T08:18:17Z</time>
      </trkpt>
      <trkpt lat="49.12144" lon="0.74272">
        <ele>123</ele>
        <time>2014-08-24T08:18:20Z</time>
      </trkpt>
      <trkpt lat="49.12145" lon="0.74273">
        <ele>124</ele>
        <time>2014-08-24T08:18:21Z</time>
      </trkpt>
      <trkpt lat="49.12156" lon="0.7429">
        <ele>126</ele>
        <time>2014-08-24T08:18:29Z</time>
      </trkpt>
      <trkpt lat="49.12157" lon="0.74292">
        <ele>126</ele>
        <time>2014-08-24T08:18:30Z</time>
      </trkpt>
      <trkpt lat="49.12159" lon="0.74293">
        <ele>126</ele>
        <time>2014-08-24T08:18:31Z</time>
      </trkpt>
      <trkpt lat="49.1216" lon="0.74294">
        <ele>126</ele>
        <time>2014-08-24T08:18:32Z</time>
      </trkpt>
      <trkpt lat="49.12161" lon="0.74296">
        <ele>126</ele>
        <time>2014-08-24T08:18:33Z</time>
      </trkpt>
      <trkpt lat="49.12166" lon="0.74303">
        <ele>127</ele>
        <time>2014-08-24T08:18:38Z</time>
      </trkpt>
      <trkpt lat="49.12167" lon="0.74305">
        <ele>127</ele>
        <time>2014-08-24T08:18:39Z</time>
      </trkpt>
      <trkpt lat="49.12167" lon="0.74306">
        <ele>128</ele>
        <time>2014-08-24T08:18:40Z</time>
      </trkpt>
      <trkpt lat="49.12168" lon="0.74307">
        <ele>128</ele>
        <time>2014-08-24T08:18:41Z</time>
      </trkpt>
      <trkpt lat="49.12168" lon="0.74308">
        <ele>128</ele>
        <time>2014-08-24T08:18:42Z</time>
      </trkpt>
      <trkpt lat="49.12174" lon="0.74318">
        <ele>129</ele>
        <time>2014-08-24T08:18:48Z</time>
      </trkpt>
      <trkpt lat="49.12174" lon="0.7432">
        <ele>129</ele>
        <time>2014-08-24T08:18:49Z</time>
      </trkpt>
      <trkpt lat="49.12175" lon="0.74322">
        <ele>129</ele>
        <time>2014-08-24T08:18:50Z</time>
      </trkpt>
      <trkpt lat="49.12176" lon="0.74323">
        <ele>130</ele>
        <time>2014-08-24T08:18:51Z</time>
      </trkpt>
      <trkpt lat="49.12176" lon="0.74325">
        <ele>130</ele>
        <time>2014-08-24T08:18:52Z</time>
      </trkpt>
      <trkpt lat="49.12177" lon="0.74326">
        <ele>130</ele>
        <time>2014-08-24T08:18:53Z</time>
      </trkpt>
      <trkpt lat="49.12179" lon="0.74331">
        <ele>130</ele>
        <time>2014-08-24T08:18:56Z</time>
      </trkpt>
      <trkpt lat="49.12182" lon="0.74339">
        <ele>131</ele>
        <time>2014-08-24T08:19:01Z</time>
      </trkpt>
      <trkpt lat="49.12182" lon="0.74341">
        <ele>132</ele>
        <time>2014-08-24T08:19:02Z</time>
      </trkpt>
      <trkpt lat="49.12182" lon="0.74343">
        <ele>132</ele>
        <time>2014-08-24T08:19:03Z</time>
      </trkpt>
      <trkpt lat="49.12182" lon="0.74343">
        <ele>132</ele>
        <time>2014-08-24T08:19:04Z</time>
      </trkpt>
      <trkpt lat="49.12187" lon="0.74349">
        <ele>132</ele>
        <time>2014-08-24T08:19:11Z</time>
      </trkpt>
      <trkpt lat="49.12192" lon="0.74352">
        <ele>133</ele>
        <time>2014-08-24T08:19:15Z</time>
      </trkpt>
      <trkpt lat="49.12199" lon="0.74352">
        <ele>133</ele>
        <time>2014-08-24T08:19:18Z</time>
      </trkpt>
      <trkpt lat="49.12202" lon="0.74351">
        <ele>133</ele>
        <time>2014-08-24T08:19:19Z</time>
      </trkpt>
      <trkpt lat="49.12205" lon="0.7435">
        <ele>133</ele>
        <time>2014-08-24T08:19:20Z</time>
      </trkpt>
      <trkpt lat="49.12211" lon="0.7435">
        <ele>133</ele>
        <time>2014-08-24T08:19:24Z</time>
      </trkpt>
      <trkpt lat="49.12212" lon="0.74351">
        <ele>133</ele>
        <time>2014-08-24T08:19:25Z</time>
      </trkpt>
      <trkpt lat="49.12214" lon="0.74352">
        <ele>133</ele>
        <time>2014-08-24T08:19:26Z</time>
      </trkpt>
      <trkpt lat="49.12216" lon="0.74352">
        <ele>133</ele>
        <time>2014-08-24T08:19:27Z</time>
      </trkpt>
      <trkpt lat="49.12217" lon="0.74353">
        <ele>133</ele>
        <time>2014-08-24T08:19:28Z</time>
      </trkpt>
      <trkpt lat="49.12224" lon="0.74361">
        <ele>134</ele>
        <time>2014-08-24T08:19:31Z</time>
      </trkpt>
      <trkpt lat="49.1223" lon="0.7437">
        <ele>135</ele>
        <time>2014-08-24T08:19:35Z</time>
      </trkpt>
      <trkpt lat="49.12232" lon="0.74374">
        <ele>136</ele>
        <time>2014-08-24T08:19:37Z</time>
      </trkpt>
      <trkpt lat="49.12233" lon="0.74376">
        <ele>136</ele>
        <time>2014-08-24T08:19:38Z</time>
      </trkpt>
      <trkpt lat="49.12237" lon="0.74379">
        <ele>136</ele>
        <time>2014-08-24T08:19:39Z</time>
      </trkpt>
      <trkpt lat="49.12242" lon="0.7439">
        <ele>138</ele>
        <time>2014-08-24T08:19:43Z</time>
      </trkpt>
      <trkpt lat="49.12242" lon="0.74398">
        <ele>138</ele>
        <time>2014-08-24T08:19:47Z</time>
      </trkpt>
      <trkpt lat="49.12242" lon="0.74401">
        <ele>138</ele>
        <time>2014-08-24T08:19:48Z</time>
      </trkpt>
      <trkpt lat="49.12243" lon="0.74403">
        <ele>139</ele>
        <time>2014-08-24T08:19:49Z</time>
      </trkpt>
      <trkpt lat="49.12246" lon="0.74406">
        <ele>139</ele>
        <time>2014-08-24T08:19:50Z</time>
      </trkpt>
      <trkpt lat="49.12248" lon="0.74409">
        <ele>139</ele>
        <time>2014-08-24T08:19:51Z</time>
      </trkpt>
      <trkpt lat="49.12257" lon="0.74423">
        <ele>141</ele>
        <time>2014-08-24T08:19:56Z</time>
      </trkpt>
      <trkpt lat="49.12261" lon="0.74428">
        <ele>141</ele>
        <time>2014-08-24T08:19:58Z</time>
      </trkpt>
      <trkpt lat="49.12262" lon="0.74429">
        <ele>141</ele>
        <time>2014-08-24T08:19:59Z</time>
      </trkpt>
      <trkpt lat="49.12264" lon="0.74431">
        <ele>142</ele>
        <time>2014-08-24T08:20:00Z</time>
      </trkpt>
      <trkpt lat="49.12266" lon="0.74433">
        <ele>142</ele>
        <time>2014-08-24T08:20:01Z</time>
      </trkpt>
      <trkpt lat="49.12272" lon="0.74438">
        <ele>142</ele>
        <time>2014-08-24T08:20:02Z</time>
      </trkpt>
      <trkpt lat="49.12274" lon="0.74441">
        <ele>143</ele>
        <time>2014-08-24T08:20:03Z</time>
      </trkpt>
      <trkpt lat="49.12283" lon="0.74455">
        <ele>144</ele>
        <time>2014-08-24T08:20:10Z</time>
      </trkpt>
      <trkpt lat="49.12284" lon="0.74457">
        <ele>144</ele>
        <time>2014-08-24T08:20:11Z</time>
      </trkpt>
      <trkpt lat="49.12285" lon="0.74461">
        <ele>144</ele>
        <time>2014-08-24T08:20:12Z</time>
      </trkpt>
      <trkpt lat="49.12286" lon="0.74463">
        <ele>144</ele>
        <time>2014-08-24T08:20:13Z</time>
      </trkpt>
      <trkpt lat="49.12286" lon="0.74468">
        <ele>144</ele>
        <time>2014-08-24T08:20:14Z</time>
      </trkpt>
      <trkpt lat="49.12287" lon="0.7447">
        <ele>144</ele>
        <time>2014-08-24T08:20:15Z</time>
      </trkpt>
      <trkpt lat="49.12288" lon="0.74476">
        <ele>145</ele>
        <time>2014-08-24T08:20:17Z</time>
      </trkpt>
      <trkpt lat="49.12297" lon="0.74491">
        <ele>145</ele>
        <time>2014-08-24T08:20:23Z</time>
      </trkpt>
      <trkpt lat="49.12305" lon="0.74495">
        <ele>145</ele>
        <time>2014-08-24T08:20:25Z</time>
      </trkpt>
      <trkpt lat="49.12309" lon="0.74495">
        <ele>146</ele>
        <time>2014-08-24T08:20:26Z</time>
      </trkpt>
      <trkpt lat="49.12312" lon="0.74497">
        <ele>146</ele>
        <time>2014-08-24T08:20:27Z</time>
      </trkpt>
      <trkpt lat="49.12316" lon="0.74499">
        <ele>146</ele>
        <time>2014-08-24T08:20:28Z</time>
      </trkpt>
      <trkpt lat="49.1232" lon="0.745">
        <ele>146</ele>
        <time>2014-08-24T08:20:29Z</time>
      </trkpt>
      <trkpt lat="49.12344" lon="0.74508">
        <ele>146</ele>
        <time>2014-08-24T08:20:35Z</time>
      </trkpt>
      <trkpt lat="49.12363" lon="0.74519">
        <ele>147</ele>
        <time>2014-08-24T08:20:41Z</time>
      </trkpt>
      <trkpt lat="49.12366" lon="0.74521">
        <ele>147</ele>
        <time>2014-08-24T08:20:42Z</time>
      </trkpt>
      <trkpt lat="49.12369" lon="0.74523">
        <ele>147</ele>
        <time>2014-08-24T08:20:43Z</time>
      </trkpt>
      <trkpt lat="49.12372" lon="0.74525">
        <ele>147</ele>
        <time>2014-08-24T08:20:44Z</time>
      </trkpt>
      <trkpt lat="49.12375" lon="0.74527">
        <ele>147</ele>
        <time>2014-08-24T08:20:45Z</time>
      </trkpt>
      <trkpt lat="49.12387" lon="0.74538">
        <ele>147</ele>
        <time>2014-08-24T08:20:49Z</time>
      </trkpt>
      <trkpt lat="49.12395" lon="0.74539">
        <ele>147</ele>
        <time>2014-08-24T08:20:51Z</time>
      </trkpt>
      <trkpt lat="49.12402" lon="0.74534">
        <ele>148</ele>
        <time>2014-08-24T08:20:53Z</time>
      </trkpt>
      <trkpt lat="49.1241" lon="0.7451">
        <ele>148</ele>
        <time>2014-08-24T08:20:58Z</time>
      </trkpt>
      <trkpt lat="49.12413" lon="0.74492">
        <ele>148</ele>
        <time>2014-08-24T08:21:01Z</time>
      </trkpt>
      <trkpt lat="49.12415" lon="0.74481">
        <ele>148</ele>
        <time>2014-08-24T08:21:03Z</time>
      </trkpt>
      <trkpt lat="49.12405" lon="0.74439">
        <ele>148</ele>
        <time>2014-08-24T08:21:09Z</time>
      </trkpt>
      <trkpt lat="49.12399" lon="0.74384">
        <ele>147</ele>
        <time>2014-08-24T08:21:16Z</time>
      </trkpt>
      <trkpt lat="49.12397" lon="0.74361">
        <ele>147</ele>
        <time>2014-08-24T08:21:19Z</time>
      </trkpt>
      <trkpt lat="49.12398" lon="0.74345">
        <ele>147</ele>
        <time>2014-08-24T08:21:21Z</time>
      </trkpt>
      <trkpt lat="49.12401" lon="0.74329">
        <ele>146</ele>
        <time>2014-08-24T08:21:23Z</time>
      </trkpt>
      <trkpt lat="49.12408" lon="0.74311">
        <ele>147</ele>
        <time>2014-08-24T08:21:26Z</time>
      </trkpt>
      <trkpt lat="49.12418" lon="0.74278">
        <ele>147</ele>
        <time>2014-08-24T08:21:32Z</time>
      </trkpt>
      <trkpt lat="49.12433" lon="0.74245">
        <ele>146</ele>
        <time>2014-08-24T08:21:38Z</time>
      </trkpt>
      <trkpt lat="49.12443" lon="0.74215">
        <ele>146</ele>
        <time>2014-08-24T08:21:43Z</time>
      </trkpt>
      <trkpt lat="49.12446" lon="0.74194">
        <ele>146</ele>
        <time>2014-08-24T08:21:47Z</time>
      </trkpt>
      <trkpt lat="49.12446" lon="0.74176">
        <ele>146</ele>
        <time>2014-08-24T08:21:50Z</time>
      </trkpt>
      <trkpt lat="49.12447" lon="0.74173">
        <ele>146</ele>
        <time>2014-08-24T08:21:51Z</time>
      </trkpt>
      <trkpt lat="49.12449" lon="0.7417">
        <ele>146</ele>
        <time>2014-08-24T08:21:52Z</time>
      </trkpt>
      <trkpt lat="49.1245" lon="0.74169">
        <ele>146</ele>
        <time>2014-08-24T08:21:53Z</time>
      </trkpt>
      <trkpt lat="49.12452" lon="0.74167">
        <ele>146</ele>
        <time>2014-08-24T08:21:54Z</time>
      </trkpt>
      <trkpt lat="49.1245" lon="0.74169">
        <ele>146</ele>
        <time>2014-08-24T08:21:55Z</time>
      </trkpt>
      <trkpt lat="49.12453" lon="0.74162">
        <ele>146</ele>
        <time>2014-08-24T08:21:59Z</time>
      </trkpt>
      <trkpt lat="49.12455" lon="0.74161">
        <ele>146</ele>
        <time>2014-08-24T08:22:00Z</time>
      </trkpt>
      <trkpt lat="49.12457" lon="0.74164">
        <ele>146</ele>
        <time>2014-08-24T08:22:01Z</time>
      </trkpt>
      <trkpt lat="49.12459" lon="0.74166">
        <ele>146</ele>
        <time>2014-08-24T08:22:03Z</time>
      </trkpt>
      <trkpt lat="49.1247" lon="0.74178">
        <ele>147</ele>
        <time>2014-08-24T08:22:11Z</time>
      </trkpt>
      <trkpt lat="49.12473" lon="0.74181">
        <ele>147</ele>
        <time>2014-08-24T08:22:12Z</time>
      </trkpt>
      <trkpt lat="49.12475" lon="0.74184">
        <ele>147</ele>
        <time>2014-08-24T08:22:13Z</time>
      </trkpt>
      <trkpt lat="49.12478" lon="0.7419">
        <ele>147</ele>
        <time>2014-08-24T08:22:16Z</time>
      </trkpt>
      <trkpt lat="49.12479" lon="0.74191">
        <ele>147</ele>
        <time>2014-08-24T08:22:17Z</time>
      </trkpt>
      <trkpt lat="49.1248" lon="0.74194">
        <ele>147</ele>
        <time>2014-08-24T08:22:18Z</time>
      </trkpt>
      <trkpt lat="49.12489" lon="0.74201">
        <ele>147</ele>
        <time>2014-08-24T08:22:26Z</time>
      </trkpt>
      <trkpt lat="49.12496" lon="0.74201">
        <ele>147</ele>
        <time>2014-08-24T08:22:29Z</time>
      </trkpt>
      <trkpt lat="49.12501" lon="0.742">
        <ele>147</ele>
        <time>2014-08-24T08:22:30Z</time>
      </trkpt>
      <trkpt lat="49.12522" lon="0.74193">
        <ele>147</ele>
        <time>2014-08-24T08:22:35Z</time>
      </trkpt>
      <trkpt lat="49.12525" lon="0.74197">
        <ele>147</ele>
        <time>2014-08-24T08:22:36Z</time>
      </trkpt>
      <trkpt lat="49.12553" lon="0.74212">
        <ele>148</ele>
        <time>2014-08-24T08:22:42Z</time>
      </trkpt>
      <trkpt lat="49.12561" lon="0.74216">
        <ele>148</ele>
        <time>2014-08-24T08:22:44Z</time>
      </trkpt>
      <trkpt lat="49.12564" lon="0.74218">
        <ele>148</ele>
        <time>2014-08-24T08:22:45Z</time>
      </trkpt>
      <trkpt lat="49.12567" lon="0.74219">
        <ele>148</ele>
        <time>2014-08-24T08:22:46Z</time>
      </trkpt>
      <trkpt lat="49.1257" lon="0.74221">
        <ele>148</ele>
        <time>2014-08-24T08:22:47Z</time>
      </trkpt>
      <trkpt lat="49.12573" lon="0.74224">
        <ele>148</ele>
        <time>2014-08-24T08:22:48Z</time>
      </trkpt>
      <trkpt lat="49.1259" lon="0.74233">
        <ele>148</ele>
        <time>2014-08-24T08:22:53Z</time>
      </trkpt>
      <trkpt lat="49.12616" lon="0.74248">
        <ele>147</ele>
        <time>2014-08-24T08:22:59Z</time>
      </trkpt>
      <trkpt lat="49.12641" lon="0.74259">
        <ele>146</ele>
        <time>2014-08-24T08:23:05Z</time>
      </trkpt>
      <trkpt lat="49.12647" lon="0.74258">
        <ele>146</ele>
        <time>2014-08-24T08:23:06Z</time>
      </trkpt>
      <trkpt lat="49.12654" lon="0.74255">
        <ele>146</ele>
        <time>2014-08-24T08:23:07Z</time>
      </trkpt>
      <trkpt lat="49.12662" lon="0.74253">
        <ele>146</ele>
        <time>2014-08-24T08:23:08Z</time>
      </trkpt>
      <trkpt lat="49.12669" lon="0.74251">
        <ele>145</ele>
        <time>2014-08-24T08:23:09Z</time>
      </trkpt>
      <trkpt lat="49.12675" lon="0.74249">
        <ele>145</ele>
        <time>2014-08-24T08:23:10Z</time>
      </trkpt>
      <trkpt lat="49.12715" lon="0.74232">
        <ele>144</ele>
        <time>2014-08-24T08:23:16Z</time>
      </trkpt>
      <trkpt lat="49.12722" lon="0.74229">
        <ele>144</ele>
        <time>2014-08-24T08:23:17Z</time>
      </trkpt>
      <trkpt lat="49.1273" lon="0.74224">
        <ele>144</ele>
        <time>2014-08-24T08:23:18Z</time>
      </trkpt>
      <trkpt lat="49.12736" lon="0.7422">
        <ele>144</ele>
        <time>2014-08-24T08:23:19Z</time>
      </trkpt>
      <trkpt lat="49.12743" lon="0.74216">
        <ele>144</ele>
        <time>2014-08-24T08:23:20Z</time>
      </trkpt>
      <trkpt lat="49.12749" lon="0.74212">
        <ele>144</ele>
        <time>2014-08-24T08:23:21Z</time>
      </trkpt>
      <trkpt lat="49.12758" lon="0.74208">
        <ele>143</ele>
        <time>2014-08-24T08:23:22Z</time>
      </trkpt>
      <trkpt lat="49.1278" lon="0.74193">
        <ele>143</ele>
        <time>2014-08-24T08:23:25Z</time>
      </trkpt>
      <trkpt lat="49.12787" lon="0.74188">
        <ele>143</ele>
        <time>2014-08-24T08:23:26Z</time>
      </trkpt>
      <trkpt lat="49.12793" lon="0.74183">
        <ele>143</ele>
        <time>2014-08-24T08:23:27Z</time>
      </trkpt>
      <trkpt lat="49.12799" lon="0.74178">
        <ele>142</ele>
        <time>2014-08-24T08:23:28Z</time>
      </trkpt>
      <trkpt lat="49.12804" lon="0.74174">
        <ele>142</ele>
        <time>2014-08-24T08:23:29Z</time>
      </trkpt>
      <trkpt lat="49.12809" lon="0.74171">
        <ele>142</ele>
        <time>2014-08-24T08:23:30Z</time>
      </trkpt>
      <trkpt lat="49.12819" lon="0.7416">
        <ele>142</ele>
        <time>2014-08-24T08:23:32Z</time>
      </trkpt>
      <trkpt lat="49.12824" lon="0.74156">
        <ele>142</ele>
        <time>2014-08-24T08:23:33Z</time>
      </trkpt>
      <trkpt lat="49.12844" lon="0.74142">
        <ele>141</ele>
        <time>2014-08-24T08:23:37Z</time>
      </trkpt>
      <trkpt lat="49.12857" lon="0.74134">
        <ele>140</ele>
        <time>2014-08-24T08:23:39Z</time>
      </trkpt>
      <trkpt lat="49.12862" lon="0.7413">
        <ele>140</ele>
        <time>2014-08-24T08:23:40Z</time>
      </trkpt>
      <trkpt lat="49.12867" lon="0.74126">
        <ele>140</ele>
        <time>2014-08-24T08:23:41Z</time>
      </trkpt>
      <trkpt lat="49.12873" lon="0.74122">
        <ele>140</ele>
        <time>2014-08-24T08:23:42Z</time>
      </trkpt>
      <trkpt lat="49.12878" lon="0.74119">
        <ele>139</ele>
        <time>2014-08-24T08:23:43Z</time>
      </trkpt>
      <trkpt lat="49.12884" lon="0.74115">
        <ele>139</ele>
        <time>2014-08-24T08:23:44Z</time>
      </trkpt>
      <trkpt lat="49.12907" lon="0.74105">
        <ele>138</ele>
        <time>2014-08-24T08:23:48Z</time>
      </trkpt>
      <trkpt lat="49.12912" lon="0.74107">
        <ele>138</ele>
        <time>2014-08-24T08:23:49Z</time>
      </trkpt>
      <trkpt lat="49.12921" lon="0.74123">
        <ele>139</ele>
        <time>2014-08-24T08:23:52Z</time>
      </trkpt>
      <trkpt lat="49.12928" lon="0.74137">
        <ele>139</ele>
        <time>2014-08-24T08:23:54Z</time>
      </trkpt>
      <trkpt lat="49.12931" lon="0.74154">
        <ele>140</ele>
        <time>2014-08-24T08:23:57Z</time>
      </trkpt>
      <trkpt lat="49.12938" lon="0.74172">
        <ele>140</ele>
        <time>2014-08-24T08:24:01Z</time>
      </trkpt>
      <trkpt lat="49.1294" lon="0.74187">
        <ele>141</ele>
        <time>2014-08-24T08:24:03Z</time>
      </trkpt>
      <trkpt lat="49.12945" lon="0.7422">
        <ele>141</ele>
        <time>2014-08-24T08:24:07Z</time>
      </trkpt>
      <trkpt lat="49.12948" lon="0.74227">
        <ele>141</ele>
        <time>2014-08-24T08:24:08Z</time>
      </trkpt>
      <trkpt lat="49.12953" lon="0.74232">
        <ele>142</ele>
        <time>2014-08-24T08:24:10Z</time>
      </trkpt>
      <trkpt lat="49.12956" lon="0.74233">
        <ele>142</ele>
        <time>2014-08-24T08:24:11Z</time>
      </trkpt>
      <trkpt lat="49.1297" lon="0.74223">
        <ele>141</ele>
        <time>2014-08-24T08:24:15Z</time>
      </trkpt>
      <trkpt lat="49.12985" lon="0.74213">
        <ele>141</ele>
        <time>2014-08-24T08:24:19Z</time>
      </trkpt>
      <trkpt lat="49.12991" lon="0.7421">
        <ele>141</ele>
        <time>2014-08-24T08:24:21Z</time>
      </trkpt>
      <trkpt lat="49.13017" lon="0.74188">
        <ele>141</ele>
        <time>2014-08-24T08:24:27Z</time>
      </trkpt>
      <trkpt lat="49.13049" lon="0.74164">
        <ele>142</ele>
        <time>2014-08-24T08:24:34Z</time>
      </trkpt>
      <trkpt lat="49.13062" lon="0.74155">
        <ele>142</ele>
        <time>2014-08-24T08:24:37Z</time>
      </trkpt>
      <trkpt lat="49.13067" lon="0.74154">
        <ele>142</ele>
        <time>2014-08-24T08:24:38Z</time>
      </trkpt>
      <trkpt lat="49.13078" lon="0.74161">
        <ele>142</ele>
        <time>2014-08-24T08:24:41Z</time>
      </trkpt>
      <trkpt lat="49.13091" lon="0.74174">
        <ele>142</ele>
        <time>2014-08-24T08:24:44Z</time>
      </trkpt>
      <trkpt lat="49.13097" lon="0.74181">
        <ele>142</ele>
        <time>2014-08-24T08:24:46Z</time>
      </trkpt>
      <trkpt lat="49.13117" lon="0.742">
        <ele>143</ele>
        <time>2014-08-24T08:24:52Z</time>
      </trkpt>
      <trkpt lat="49.13149" lon="0.74224">
        <ele>143</ele>
        <time>2014-08-24T08:24:59Z</time>
      </trkpt>
      <trkpt lat="49.13153" lon="0.74227">
        <ele>143</ele>
        <time>2014-08-24T08:25:00Z</time>
      </trkpt>
      <trkpt lat="49.13151" lon="0.74229">
        <ele>143</ele>
        <time>2014-08-24T08:25:01Z</time>
      </trkpt>
      <trkpt lat="49.13154" lon="0.74225">
        <ele>143</ele>
        <time>2014-08-24T08:25:02Z</time>
      </trkpt>
      <trkpt lat="49.13157" lon="0.74223">
        <ele>143</ele>
        <time>2014-08-24T08:25:03Z</time>
      </trkpt>
      <trkpt lat="49.13169" lon="0.74196">
        <ele>143</ele>
        <time>2014-08-24T08:25:10Z</time>
      </trkpt>
      <trkpt lat="49.13181" lon="0.74181">
        <ele>143</ele>
        <time>2014-08-24T08:25:15Z</time>
      </trkpt>
      <trkpt lat="49.13188" lon="0.74181">
        <ele>143</ele>
        <time>2014-08-24T08:25:17Z</time>
      </trkpt>
      <trkpt lat="49.13194" lon="0.74184">
        <ele>143</ele>
        <time>2014-08-24T08:25:19Z</time>
      </trkpt>
      <trkpt lat="49.13197" lon="0.74188">
        <ele>143</ele>
        <time>2014-08-24T08:25:22Z</time>
      </trkpt>
      <trkpt lat="49.13203" lon="0.74187">
        <ele>144</ele>
        <time>2014-08-24T08:25:26Z</time>
      </trkpt>
      <trkpt lat="49.13219" lon="0.74202">
        <ele>144</ele>
        <time>2014-08-24T08:25:31Z</time>
      </trkpt>
      <trkpt lat="49.13232" lon="0.74212">
        <ele>144</ele>
        <time>2014-08-24T08:25:36Z</time>
      </trkpt>
      <trkpt lat="49.13246" lon="0.74215">
        <ele>144</ele>
        <time>2014-08-24T08:25:41Z</time>
      </trkpt>
      <trkpt lat="49.13248" lon="0.74214">
        <ele>144</ele>
        <time>2014-08-24T08:25:42Z</time>
      </trkpt>
      <trkpt lat="49.13257" lon="0.74193">
        <ele>144</ele>
        <time>2014-08-24T08:25:47Z</time>
      </trkpt>
      <trkpt lat="49.13266" lon="0.74168">
        <ele>144</ele>
        <time>2014-08-24T08:25:54Z</time>
      </trkpt>
      <trkpt lat="49.13273" lon="0.74165">
        <ele>144</ele>
        <time>2014-08-24T08:25:57Z</time>
      </trkpt>
      <trkpt lat="49.13277" lon="0.74164">
        <ele>144</ele>
        <time>2014-08-24T08:25:58Z</time>
      </trkpt>
      <trkpt lat="49.13278" lon="0.74161">
        <ele>144</ele>
        <time>2014-08-24T08:25:59Z</time>
      </trkpt>
      <trkpt lat="49.13286" lon="0.74156">
        <ele>144</ele>
        <time>2014-08-24T08:26:02Z</time>
      </trkpt>
      <trkpt lat="49.13298" lon="0.74174">
        <ele>145</ele>
        <time>2014-08-24T08:26:07Z</time>
      </trkpt>
      <trkpt lat="49.13301" lon="0.74179">
        <ele>145</ele>
        <time>2014-08-24T08:26:08Z</time>
      </trkpt>
      <trkpt lat="49.13307" lon="0.74181">
        <ele>145</ele>
        <time>2014-08-24T08:26:10Z</time>
      </trkpt>
      <trkpt lat="49.13319" lon="0.7418">
        <ele>145</ele>
        <time>2014-08-24T08:26:14Z</time>
      </trkpt>
      <trkpt lat="49.13323" lon="0.74182">
        <ele>145</ele>
        <time>2014-08-24T08:26:15Z</time>
      </trkpt>
      <trkpt lat="49.13333" lon="0.7418">
        <ele>145</ele>
        <time>2014-08-24T08:26:18Z</time>
      </trkpt>
      <trkpt lat="49.13343" lon="0.74176">
        <ele>145</ele>
        <time>2014-08-24T08:26:20Z</time>
      </trkpt>
      <trkpt lat="49.13366" lon="0.74161">
        <ele>145</ele>
        <time>2014-08-24T08:26:27Z</time>
      </trkpt>
      <trkpt lat="49.13391" lon="0.7415">
        <ele>145</ele>
        <time>2014-08-24T08:26:34Z</time>
      </trkpt>
      <trkpt lat="49.13412" lon="0.7414">
        <ele>144</ele>
        <time>2014-08-24T08:26:40Z</time>
      </trkpt>
      <trkpt lat="49.13413" lon="0.74142">
        <ele>144</ele>
        <time>2014-08-24T08:26:41Z</time>
      </trkpt>
      <trkpt lat="49.13421" lon="0.74147">
        <ele>145</ele>
        <time>2014-08-24T08:26:44Z</time>
      </trkpt>
      <trkpt lat="49.13432" lon="0.74146">
        <ele>145</ele>
        <time>2014-08-24T08:26:47Z</time>
      </trkpt>
      <trkpt lat="49.13438" lon="0.74139">
        <ele>144</ele>
        <time>2014-08-24T08:26:49Z</time>
      </trkpt>
      <trkpt lat="49.13451" lon="0.74114">
        <ele>144</ele>
        <time>2014-08-24T08:26:54Z</time>
      </trkpt>
      <trkpt lat="49.13461" lon="0.74106">
        <ele>144</ele>
        <time>2014-08-24T08:26:58Z</time>
      </trkpt>
      <trkpt lat="49.13463" lon="0.74107">
        <ele>144</ele>
        <time>2014-08-24T08:26:59Z</time>
      </trkpt>
      <trkpt lat="49.13477" lon="0.74116">
        <ele>144</ele>
        <time>2014-08-24T08:27:04Z</time>
      </trkpt>
      <trkpt lat="49.13491" lon="0.74118">
        <ele>144</ele>
        <time>2014-08-24T08:27:08Z</time>
      </trkpt>
      <trkpt lat="49.13496" lon="0.74116">
        <ele>144</ele>
        <time>2014-08-24T08:27:09Z</time>
      </trkpt>
      <trkpt lat="49.13512" lon="0.74111">
        <ele>144</ele>
        <time>2014-08-24T08:27:13Z</time>
      </trkpt>
      <trkpt lat="49.13514" lon="0.74112">
        <ele>144</ele>
        <time>2014-08-24T08:27:14Z</time>
      </trkpt>
      <trkpt lat="49.1353" lon="0.74121">
        <ele>144</ele>
        <time>2014-08-24T08:27:21Z</time>
      </trkpt>
      <trkpt lat="49.13545" lon="0.74113">
        <ele>144</ele>
        <time>2014-08-24T08:27:27Z</time>
      </trkpt>
      <trkpt lat="49.13557" lon="0.74115">
        <ele>144</ele>
        <time>2014-08-24T08:27:31Z</time>
      </trkpt>
      <trkpt lat="49.13559" lon="0.74119">
        <ele>144</ele>
        <time>2014-08-24T08:27:32Z</time>
      </trkpt>
      <trkpt lat="49.13565" lon="0.74137">
        <ele>144</ele>
        <time>2014-08-24T08:27:37Z</time>
      </trkpt>
      <trkpt lat="49.13568" lon="0.74137">
        <ele>144</ele>
        <time>2014-08-24T08:27:38Z</time>
      </trkpt>
      <trkpt lat="49.13575" lon="0.74135">
        <ele>144</ele>
        <time>2014-08-24T08:27:40Z</time>
      </trkpt>
      <trkpt lat="49.13598" lon="0.74125">
        <ele>144</ele>
        <time>2014-08-24T08:27:45Z</time>
      </trkpt>
      <trkpt lat="49.13623" lon="0.74118">
        <ele>143</ele>
        <time>2014-08-24T08:27:51Z</time>
      </trkpt>
      <trkpt lat="49.13641" lon="0.74105">
        <ele>143</ele>
        <time>2014-08-24T08:27:56Z</time>
      </trkpt>
      <trkpt lat="49.13658" lon="0.74096">
        <ele>142</ele>
        <time>2014-08-24T08:28:00Z</time>
      </trkpt>
      <trkpt lat="49.13662" lon="0.741">
        <ele>142</ele>
        <time>2014-08-24T08:28:01Z</time>
      </trkpt>
      <trkpt lat="49.13684" lon="0.74102">
        <ele>142</ele>
        <time>2014-08-24T08:28:06Z</time>
      </trkpt>
      <trkpt lat="49.13689" lon="0.74098">
        <ele>142</ele>
        <time>2014-08-24T08:28:07Z</time>
      </trkpt>
      <trkpt lat="49.13698" lon="0.74085">
        <ele>141</ele>
        <time>2014-08-24T08:28:10Z</time>
      </trkpt>
      <trkpt lat="49.13706" lon="0.74084">
        <ele>141</ele>
        <time>2014-08-24T08:28:12Z</time>
      </trkpt>
      <trkpt lat="49.1371" lon="0.74087">
        <ele>141</ele>
        <time>2014-08-24T08:28:13Z</time>
      </trkpt>
      <trkpt lat="49.13733" lon="0.74096">
        <ele>141</ele>
        <time>2014-08-24T08:28:18Z</time>
      </trkpt>
      <trkpt lat="49.13766" lon="0.7408">
        <ele>140</ele>
        <time>2014-08-24T08:28:26Z</time>
      </trkpt>
      <trkpt lat="49.13766" lon="0.74069">
        <ele>140</ele>
        <time>2014-08-24T08:28:28Z</time>
      </trkpt>
      <trkpt lat="49.13765" lon="0.74065">
        <ele>140</ele>
        <time>2014-08-24T08:28:29Z</time>
      </trkpt>
      <trkpt lat="49.13758" lon="0.74059">
        <ele>140</ele>
        <time>2014-08-24T08:28:32Z</time>
      </trkpt>
      <trkpt lat="49.13757" lon="0.74052">
        <ele>140</ele>
        <time>2014-08-24T08:28:33Z</time>
      </trkpt>
      <trkpt lat="49.13756" lon="0.74048">
        <ele>140</ele>
        <time>2014-08-24T08:28:34Z</time>
      </trkpt>
      <trkpt lat="49.13756" lon="0.74044">
        <ele>140</ele>
        <time>2014-08-24T08:28:35Z</time>
      </trkpt>
      <trkpt lat="49.13755" lon="0.74041">
        <ele>140</ele>
        <time>2014-08-24T08:28:36Z</time>
      </trkpt>
      <trkpt lat="49.13756" lon="0.74035">
        <ele>140</ele>
        <time>2014-08-24T08:28:37Z</time>
      </trkpt>
      <trkpt lat="49.13754" lon="0.74019">
        <ele>140</ele>
        <time>2014-08-24T08:28:40Z</time>
      </trkpt>
      <trkpt lat="49.13756" lon="0.73976">
        <ele>140</ele>
        <time>2014-08-24T08:28:46Z</time>
      </trkpt>
      <trkpt lat="49.13764" lon="0.73942">
        <ele>139</ele>
        <time>2014-08-24T08:28:51Z</time>
      </trkpt>
      <trkpt lat="49.1376" lon="0.73915">
        <ele>139</ele>
        <time>2014-08-24T08:28:57Z</time>
      </trkpt>
      <trkpt lat="49.13757" lon="0.73916">
        <ele>139</ele>
        <time>2014-08-24T08:28:58Z</time>
      </trkpt>
      <trkpt lat="49.13755" lon="0.73915">
        <ele>138</ele>
        <time>2014-08-24T08:28:59Z</time>
      </trkpt>
      <trkpt lat="49.13751" lon="0.73899">
        <ele>138</ele>
        <time>2014-08-24T08:29:03Z</time>
      </trkpt>
      <trkpt lat="49.13754" lon="0.73888">
        <ele>137</ele>
        <time>2014-08-24T08:29:05Z</time>
      </trkpt>
      <trkpt lat="49.13756" lon="0.73885">
        <ele>136</ele>
        <time>2014-08-24T08:29:06Z</time>
      </trkpt>
      <trkpt lat="49.13759" lon="0.73882">
        <ele>136</ele>
        <time>2014-08-24T08:29:07Z</time>
      </trkpt>
      <trkpt lat="49.13761" lon="0.73881">
        <ele>135</ele>
        <time>2014-08-24T08:29:08Z</time>
      </trkpt>
      <trkpt lat="49.13764" lon="0.73878">
        <ele>135</ele>
        <time>2014-08-24T08:29:09Z</time>
      </trkpt>
      <trkpt lat="49.13767" lon="0.73872">
        <ele>134</ele>
        <time>2014-08-24T08:29:10Z</time>
      </trkpt>
      <trkpt lat="49.13768" lon="0.73869">
        <ele>134</ele>
        <time>2014-08-24T08:29:11Z</time>
      </trkpt>
      <trkpt lat="49.13772" lon="0.73866">
        <ele>133</ele>
        <time>2014-08-24T08:29:13Z</time>
      </trkpt>
      <trkpt lat="49.13775" lon="0.7387">
        <ele>134</ele>
        <time>2014-08-24T08:29:15Z</time>
      </trkpt>
      <trkpt lat="49.1378" lon="0.73871">
        <ele>134</ele>
        <time>2014-08-24T08:29:17Z</time>
      </trkpt>
      <trkpt lat="49.13786" lon="0.73863">
        <ele>133</ele>
        <time>2014-08-24T08:29:20Z</time>
      </trkpt>
      <trkpt lat="49.13801" lon="0.7386">
        <ele>134</ele>
        <time>2014-08-24T08:29:24Z</time>
      </trkpt>
      <trkpt lat="49.13806" lon="0.73858">
        <ele>133</ele>
        <time>2014-08-24T08:29:25Z</time>
      </trkpt>
      <trkpt lat="49.13809" lon="0.73858">
        <ele>133</ele>
        <time>2014-08-24T08:29:26Z</time>
      </trkpt>
      <trkpt lat="49.13814" lon="0.73858">
        <ele>134</ele>
        <time>2014-08-24T08:29:27Z</time>
      </trkpt>
      <trkpt lat="49.13817" lon="0.73859">
        <ele>134</ele>
        <time>2014-08-24T08:29:28Z</time>
      </trkpt>
      <trkpt lat="49.1382" lon="0.7386">
        <ele>134</ele>
        <time>2014-08-24T08:29:29Z</time>
      </trkpt>
      <trkpt lat="49.13839" lon="0.73855">
        <ele>134</ele>
        <time>2014-08-24T08:29:35Z</time>
      </trkpt>
      <trkpt lat="49.13849" lon="0.7386">
        <ele>135</ele>
        <time>2014-08-24T08:29:39Z</time>
      </trkpt>
      <trkpt lat="49.13854" lon="0.7387">
        <ele>137</ele>
        <time>2014-08-24T08:29:42Z</time>
      </trkpt>
      <trkpt lat="49.13861" lon="0.73875">
        <ele>138</ele>
        <time>2014-08-24T08:29:44Z</time>
      </trkpt>
      <trkpt lat="49.13864" lon="0.73877">
        <ele>138</ele>
        <time>2014-08-24T08:29:45Z</time>
      </trkpt>
      <trkpt lat="49.1387" lon="0.73882">
        <ele>139</ele>
        <time>2014-08-24T08:29:47Z</time>
      </trkpt>
      <trkpt lat="49.13877" lon="0.73882">
        <ele>139</ele>
        <time>2014-08-24T08:29:49Z</time>
      </trkpt>
      <trkpt lat="49.13895" lon="0.73868">
        <ele>138</ele>
        <time>2014-08-24T08:29:53Z</time>
      </trkpt>
      <trkpt lat="49.13911" lon="0.73858">
        <ele>138</ele>
        <time>2014-08-24T08:29:57Z</time>
      </trkpt>
      <trkpt lat="49.13915" lon="0.73859">
        <ele>138</ele>
        <time>2014-08-24T08:29:58Z</time>
      </trkpt>
      <trkpt lat="49.13925" lon="0.73871">
        <ele>139</ele>
        <time>2014-08-24T08:30:01Z</time>
      </trkpt>
      <trkpt lat="49.13927" lon="0.73883">
        <ele>140</ele>
        <time>2014-08-24T08:30:03Z</time>
      </trkpt>
      <trkpt lat="49.13926" lon="0.7389">
        <ele>140</ele>
        <time>2014-08-24T08:30:05Z</time>
      </trkpt>
      <trkpt lat="49.13934" lon="0.73894">
        <ele>140</ele>
        <time>2014-08-24T08:30:08Z</time>
      </trkpt>
      <trkpt lat="49.13939" lon="0.73892">
        <ele>140</ele>
        <time>2014-08-24T08:30:09Z</time>
      </trkpt>
      <trkpt lat="49.13948" lon="0.73873">
        <ele>139</ele>
        <time>2014-08-24T08:30:12Z</time>
      </trkpt>
      <trkpt lat="49.13948" lon="0.7386">
        <ele>139</ele>
        <time>2014-08-24T08:30:14Z</time>
      </trkpt>
      <trkpt lat="49.1395" lon="0.73856">
        <ele>139</ele>
        <time>2014-08-24T08:30:16Z</time>
      </trkpt>
      <trkpt lat="49.13956" lon="0.73853">
        <ele>139</ele>
        <time>2014-08-24T08:30:18Z</time>
      </trkpt>
      <trkpt lat="49.13959" lon="0.73855">
        <ele>139</ele>
        <time>2014-08-24T08:30:19Z</time>
      </trkpt>
      <trkpt lat="49.13966" lon="0.73852">
        <ele>139</ele>
        <time>2014-08-24T08:30:21Z</time>
      </trkpt>
      <trkpt lat="49.1398" lon="0.73833">
        <ele>138</ele>
        <time>2014-08-24T08:30:27Z</time>
      </trkpt>
      <trkpt lat="49.13987" lon="0.73814">
        <ele>138</ele>
        <time>2014-08-24T08:30:31Z</time>
      </trkpt>
      <trkpt lat="49.13989" lon="0.7381">
        <ele>137</ele>
        <time>2014-08-24T08:30:32Z</time>
      </trkpt>
      <trkpt lat="49.1398" lon="0.738">
        <ele>136</ele>
        <time>2014-08-24T08:30:36Z</time>
      </trkpt>
      <trkpt lat="49.13948" lon="0.73805">
        <ele>135</ele>
        <time>2014-08-24T08:30:45Z</time>
      </trkpt>
      <trkpt lat="49.13929" lon="0.73826">
        <ele>137</ele>
        <time>2014-08-24T08:30:52Z</time>
      </trkpt>
      <trkpt lat="49.13914" lon="0.73828">
        <ele>136</ele>
        <time>2014-08-24T08:30:57Z</time>
      </trkpt>
      <trkpt lat="49.139" lon="0.7383">
        <ele>136</ele>
        <time>2014-08-24T08:31:01Z</time>
      </trkpt>
      <trkpt lat="49.13876" lon="0.73832">
        <ele>134</ele>
        <time>2014-08-24T08:31:07Z</time>
      </trkpt>
      <trkpt lat="49.13854" lon="0.73837">
        <ele>133</ele>
        <time>2014-08-24T08:31:13Z</time>
      </trkpt>
      <trkpt lat="49.13834" lon="0.73846">
        <ele>133</ele>
        <time>2014-08-24T08:31:19Z</time>
      </trkpt>
      <trkpt lat="49.13821" lon="0.73847">
        <ele>132</ele>
        <time>2014-08-24T08:31:23Z</time>
      </trkpt>
      <trkpt lat="49.13819" lon="0.73845">
        <ele>132</ele>
        <time>2014-08-24T08:31:24Z</time>
      </trkpt>
      <trkpt lat="49.13817" lon="0.73841">
        <ele>131</ele>
        <time>2014-08-24T08:31:25Z</time>
      </trkpt>
      <trkpt lat="49.13817" lon="0.73835">
        <ele>130</ele>
        <time>2014-08-24T08:31:26Z</time>
      </trkpt>
      <trkpt lat="49.13816" lon="0.73831">
        <ele>130</ele>
        <time>2014-08-24T08:31:27Z</time>
      </trkpt>
      <trkpt lat="49.13815" lon="0.7383">
        <ele>130</ele>
        <time>2014-08-24T08:31:28Z</time>
      </trkpt>
      <trkpt lat="49.13812" lon="0.73829">
        <ele>129</ele>
        <time>2014-08-24T08:31:29Z</time>
      </trkpt>
      <trkpt lat="49.13808" lon="0.73828">
        <ele>129</ele>
        <time>2014-08-24T08:31:30Z</time>
      </trkpt>
      <trkpt lat="49.13806" lon="0.7383">
        <ele>129</ele>
        <time>2014-08-24T08:31:31Z</time>
      </trkpt>
      <trkpt lat="49.13805" lon="0.73831">
        <ele>129</ele>
        <time>2014-08-24T08:31:32Z</time>
      </trkpt>
      <trkpt lat="49.13804" lon="0.73833">
        <ele>129</ele>
        <time>2014-08-24T08:31:33Z</time>
      </trkpt>
      <trkpt lat="49.13802" lon="0.73837">
        <ele>130</ele>
        <time>2014-08-24T08:31:35Z</time>
      </trkpt>
      <trkpt lat="49.13796" lon="0.73843">
        <ele>131</ele>
        <time>2014-08-24T08:31:41Z</time>
      </trkpt>
      <trkpt lat="49.13792" lon="0.73843">
        <ele>130</ele>
        <time>2014-08-24T08:31:42Z</time>
      </trkpt>
      <trkpt lat="49.13791" lon="0.73842">
        <ele>130</ele>
        <time>2014-08-24T08:31:43Z</time>
      </trkpt>
      <trkpt lat="49.13789" lon="0.73842">
        <ele>130</ele>
        <time>2014-08-24T08:31:44Z</time>
      </trkpt>
      <trkpt lat="49.13786" lon="0.73841">
        <ele>129</ele>
        <time>2014-08-24T08:31:45Z</time>
      </trkpt>
      <trkpt lat="49.13772" lon="0.73843">
        <ele>129</ele>
        <time>2014-08-24T08:31:50Z</time>
      </trkpt>
      <trkpt lat="49.13754" lon="0.73845">
        <ele>128</ele>
        <time>2014-08-24T08:31:55Z</time>
      </trkpt>
      <trkpt lat="49.13726" lon="0.73852">
        <ele>129</ele>
        <time>2014-08-24T08:32:02Z</time>
      </trkpt>
      <trkpt lat="49.13709" lon="0.73863">
        <ele>131</ele>
        <time>2014-08-24T08:32:07Z</time>
      </trkpt>
      <trkpt lat="49.13689" lon="0.73871">
        <ele>132</ele>
        <time>2014-08-24T08:32:12Z</time>
      </trkpt>
      <trkpt lat="49.1367" lon="0.7388">
        <ele>133</ele>
        <time>2014-08-24T08:32:17Z</time>
      </trkpt>
      <trkpt lat="49.13665" lon="0.73882">
        <ele>133</ele>
        <time>2014-08-24T08:32:18Z</time>
      </trkpt>
      <trkpt lat="49.1366" lon="0.73884">
        <ele>133</ele>
        <time>2014-08-24T08:32:19Z</time>
      </trkpt>
      <trkpt lat="49.13657" lon="0.73886">
        <ele>134</ele>
        <time>2014-08-24T08:32:20Z</time>
      </trkpt>
      <trkpt lat="49.13654" lon="0.73888">
        <ele>134</ele>
        <time>2014-08-24T08:32:21Z</time>
      </trkpt>
      <trkpt lat="49.13637" lon="0.73899">
        <ele>136</ele>
        <time>2014-08-24T08:32:26Z</time>
      </trkpt>
      <trkpt lat="49.13616" lon="0.739">
        <ele>136</ele>
        <time>2014-08-24T08:32:31Z</time>
      </trkpt>
      <trkpt lat="49.13595" lon="0.73904">
        <ele>136</ele>
        <time>2014-08-24T08:32:36Z</time>
      </trkpt>
      <trkpt lat="49.13587" lon="0.73907">
        <ele>137</ele>
        <time>2014-08-24T08:32:38Z</time>
      </trkpt>
      <trkpt lat="49.13554" lon="0.7391">
        <ele>137</ele>
        <time>2014-08-24T08:32:46Z</time>
      </trkpt>
      <trkpt lat="49.13527" lon="0.73911">
        <ele>138</ele>
        <time>2014-08-24T08:32:53Z</time>
      </trkpt>
      <trkpt lat="49.13505" lon="0.73911">
        <ele>138</ele>
        <time>2014-08-24T08:32:58Z</time>
      </trkpt>
      <trkpt lat="49.13475" lon="0.73914">
        <ele>138</ele>
        <time>2014-08-24T08:33:06Z</time>
      </trkpt>
      <trkpt lat="49.13447" lon="0.73914">
        <ele>138</ele>
        <time>2014-08-24T08:33:12Z</time>
      </trkpt>
      <trkpt lat="49.13431" lon="0.73916">
        <ele>138</ele>
        <time>2014-08-24T08:33:16Z</time>
      </trkpt>
      <trkpt lat="49.13408" lon="0.7392">
        <ele>138</ele>
        <time>2014-08-24T08:33:23Z</time>
      </trkpt>
      <trkpt lat="49.13382" lon="0.73921">
        <ele>138</ele>
        <time>2014-08-24T08:33:29Z</time>
      </trkpt>
      <trkpt lat="49.13378" lon="0.73922">
        <ele>138</ele>
        <time>2014-08-24T08:33:30Z</time>
      </trkpt>
      <trkpt lat="49.13374" lon="0.73922">
        <ele>138</ele>
        <time>2014-08-24T08:33:31Z</time>
      </trkpt>
      <trkpt lat="49.1337" lon="0.73923">
        <ele>138</ele>
        <time>2014-08-24T08:33:32Z</time>
      </trkpt>
      <trkpt lat="49.13367" lon="0.73924">
        <ele>138</ele>
        <time>2014-08-24T08:33:33Z</time>
      </trkpt>
      <trkpt lat="49.13364" lon="0.73925">
        <ele>138</ele>
        <time>2014-08-24T08:33:34Z</time>
      </trkpt>
      <trkpt lat="49.13361" lon="0.73925">
        <ele>138</ele>
        <time>2014-08-24T08:33:35Z</time>
      </trkpt>
      <trkpt lat="49.13339" lon="0.73927">
        <ele>138</ele>
        <time>2014-08-24T08:33:41Z</time>
      </trkpt>
      <trkpt lat="49.13307" lon="0.73926">
        <ele>138</ele>
        <time>2014-08-24T08:33:48Z</time>
      </trkpt>
      <trkpt lat="49.13288" lon="0.73928">
        <ele>138</ele>
        <time>2014-08-24T08:33:53Z</time>
      </trkpt>
      <trkpt lat="49.13269" lon="0.7393">
        <ele>138</ele>
        <time>2014-08-24T08:33:58Z</time>
      </trkpt>
      <trkpt lat="49.13244" lon="0.73931">
        <ele>138</ele>
        <time>2014-08-24T08:34:04Z</time>
      </trkpt>
      <trkpt lat="49.13235" lon="0.73917">
        <ele>137</ele>
        <time>2014-08-24T08:34:09Z</time>
      </trkpt>
      <trkpt lat="49.13236" lon="0.73908">
        <ele>136</ele>
        <time>2014-08-24T08:34:12Z</time>
      </trkpt>
      <trkpt lat="49.13238" lon="0.73906">
        <ele>136</ele>
        <time>2014-08-24T08:34:13Z</time>
      </trkpt>
      <trkpt lat="49.13255" lon="0.73893">
        <ele>134</ele>
        <time>2014-08-24T08:34:17Z</time>
      </trkpt>
      <trkpt lat="49.13259" lon="0.73891">
        <ele>134</ele>
        <time>2014-08-24T08:34:18Z</time>
      </trkpt>
      <trkpt lat="49.13264" lon="0.73887">
        <ele>133</ele>
        <time>2014-08-24T08:34:19Z</time>
      </trkpt>
      <trkpt lat="49.13269" lon="0.73884">
        <ele>132</ele>
        <time>2014-08-24T08:34:20Z</time>
      </trkpt>
      <trkpt lat="49.13273" lon="0.73882">
        <ele>132</ele>
        <time>2014-08-24T08:34:21Z</time>
      </trkpt>
      <trkpt lat="49.13277" lon="0.73882">
        <ele>132</ele>
        <time>2014-08-24T08:34:22Z</time>
      </trkpt>
      <trkpt lat="49.13281" lon="0.73881">
        <ele>132</ele>
        <time>2014-08-24T08:34:23Z</time>
      </trkpt>
      <trkpt lat="49.13283" lon="0.73881">
        <ele>132</ele>
        <time>2014-08-24T08:34:24Z</time>
      </trkpt>
      <trkpt lat="49.13287" lon="0.73881">
        <ele>132</ele>
        <time>2014-08-24T08:34:25Z</time>
      </trkpt>
      <trkpt lat="49.1329" lon="0.73882">
        <ele>132</ele>
        <time>2014-08-24T08:34:26Z</time>
      </trkpt>
      <trkpt lat="49.13293" lon="0.73882">
        <ele>132</ele>
        <time>2014-08-24T08:34:27Z</time>
      </trkpt>
      <trkpt lat="49.13302" lon="0.73883">
        <ele>132</ele>
        <time>2014-08-24T08:34:30Z</time>
      </trkpt>
      <trkpt lat="49.13306" lon="0.73884">
        <ele>132</ele>
        <time>2014-08-24T08:34:32Z</time>
      </trkpt>
      <trkpt lat="49.13316" lon="0.73886">
        <ele>133</ele>
        <time>2014-08-24T08:34:36Z</time>
      </trkpt>
      <trkpt lat="49.13328" lon="0.73888">
        <ele>133</ele>
        <time>2014-08-24T08:34:41Z</time>
      </trkpt>
      <trkpt lat="49.13338" lon="0.73892">
        <ele>134</ele>
        <time>2014-08-24T08:34:46Z</time>
      </trkpt>
      <trkpt lat="49.1334" lon="0.73894">
        <ele>134</ele>
        <time>2014-08-24T08:34:48Z</time>
      </trkpt>
      <trkpt lat="49.13341" lon="0.73895">
        <ele>135</ele>
        <time>2014-08-24T08:34:49Z</time>
      </trkpt>
      <trkpt lat="49.13341" lon="0.73897">
        <ele>135</ele>
        <time>2014-08-24T08:34:50Z</time>
      </trkpt>
      <trkpt lat="49.13342" lon="0.73897">
        <ele>135</ele>
        <time>2014-08-24T08:34:51Z</time>
      </trkpt>
      <trkpt lat="49.13343" lon="0.73898">
        <ele>135</ele>
        <time>2014-08-24T08:34:52Z</time>
      </trkpt>
      <trkpt lat="49.13354" lon="0.73903">
        <ele>136</ele>
        <time>2014-08-24T08:34:56Z</time>
      </trkpt>
      <trkpt lat="49.13373" lon="0.73911">
        <ele>137</ele>
        <time>2014-08-24T08:35:04Z</time>
      </trkpt>
      <trkpt lat="49.13389" lon="0.73911">
        <ele>137</ele>
        <time>2014-08-24T08:35:09Z</time>
      </trkpt>
      <trkpt lat="49.13392" lon="0.73909">
        <ele>137</ele>
        <time>2014-08-24T08:35:10Z</time>
      </trkpt>
      <trkpt lat="49.13396" lon="0.73907">
        <ele>137</ele>
        <time>2014-08-24T08:35:11Z</time>
      </trkpt>
      <trkpt lat="49.13399" lon="0.73905">
        <ele>137</ele>
        <time>2014-08-24T08:35:12Z</time>
      </trkpt>
      <trkpt lat="49.13402" lon="0.73904">
        <ele>137</ele>
        <time>2014-08-24T08:35:13Z</time>
      </trkpt>
      <trkpt lat="49.13413" lon="0.73905">
        <ele>137</ele>
        <time>2014-08-24T08:35:16Z</time>
      </trkpt>
      <trkpt lat="49.13435" lon="0.73898">
        <ele>135</ele>
        <time>2014-08-24T08:35:21Z</time>
      </trkpt>
      <trkpt lat="49.13445" lon="0.73896">
        <ele>135</ele>
        <time>2014-08-24T08:35:25Z</time>
      </trkpt>
      <trkpt lat="49.13462" lon="0.73895">
        <ele>135</ele>
        <time>2014-08-24T08:35:30Z</time>
      </trkpt>
      <trkpt lat="49.13476" lon="0.73897">
        <ele>135</ele>
        <time>2014-08-24T08:35:36Z</time>
      </trkpt>
      <trkpt lat="49.135" lon="0.73899">
        <ele>136</ele>
        <time>2014-08-24T08:35:44Z</time>
      </trkpt>
      <trkpt lat="49.13518" lon="0.73898">
        <ele>136</ele>
        <time>2014-08-24T08:35:50Z</time>
      </trkpt>
      <trkpt lat="49.13531" lon="0.73896">
        <ele>135</ele>
        <time>2014-08-24T08:35:54Z</time>
      </trkpt>
      <trkpt lat="49.13541" lon="0.73893">
        <ele>135</ele>
        <time>2014-08-24T08:36:00Z</time>
      </trkpt>
      <trkpt lat="49.1356" lon="0.73885">
        <ele>133</ele>
        <time>2014-08-24T08:36:05Z</time>
      </trkpt>
      <trkpt lat="49.13569" lon="0.73887">
        <ele>133</ele>
        <time>2014-08-24T08:36:09Z</time>
      </trkpt>
      <trkpt lat="49.13579" lon="0.73886">
        <ele>133</ele>
        <time>2014-08-24T08:36:14Z</time>
      </trkpt>
      <trkpt lat="49.13594" lon="0.7389">
        <ele>134</ele>
        <time>2014-08-24T08:36:20Z</time>
      </trkpt>
      <trkpt lat="49.13605" lon="0.73878">
        <ele>132</ele>
        <time>2014-08-24T08:36:26Z</time>
      </trkpt>
      <trkpt lat="49.13601" lon="0.73872">
        <ele>130</ele>
        <time>2014-08-24T08:36:28Z</time>
      </trkpt>
      <trkpt lat="49.13599" lon="0.7387">
        <ele>130</ele>
        <time>2014-08-24T08:36:29Z</time>
      </trkpt>
      <trkpt lat="49.13597" lon="0.73869">
        <ele>130</ele>
        <time>2014-08-24T08:36:30Z</time>
      </trkpt>
      <trkpt lat="49.13595" lon="0.73869">
        <ele>129</ele>
        <time>2014-08-24T08:36:31Z</time>
      </trkpt>
      <trkpt lat="49.13593" lon="0.73867">
        <ele>129</ele>
        <time>2014-08-24T08:36:32Z</time>
      </trkpt>
      <trkpt lat="49.13592" lon="0.73866">
        <ele>129</ele>
        <time>2014-08-24T08:36:33Z</time>
      </trkpt>
      <trkpt lat="49.1359" lon="0.73863">
        <ele>128</ele>
        <time>2014-08-24T08:36:35Z</time>
      </trkpt>
      <trkpt lat="49.1359" lon="0.7386">
        <ele>128</ele>
        <time>2014-08-24T08:36:36Z</time>
      </trkpt>
      <trkpt lat="49.13589" lon="0.73857">
        <ele>127</ele>
        <time>2014-08-24T08:36:37Z</time>
      </trkpt>
      <trkpt lat="49.13587" lon="0.73855">
        <ele>126</ele>
        <time>2014-08-24T08:36:38Z</time>
      </trkpt>
      <trkpt lat="49.13585" lon="0.73852">
        <ele>126</ele>
        <time>2014-08-24T08:36:39Z</time>
      </trkpt>
      <trkpt lat="49.13583" lon="0.7385">
        <ele>125</ele>
        <time>2014-08-24T08:36:40Z</time>
      </trkpt>
      <trkpt lat="49.1358" lon="0.73847">
        <ele>124</ele>
        <time>2014-08-24T08:36:41Z</time>
      </trkpt>
      <trkpt lat="49.13577" lon="0.73843">
        <ele>123</ele>
        <time>2014-08-24T08:36:42Z</time>
      </trkpt>
      <trkpt lat="49.13572" lon="0.7384">
        <ele>123</ele>
        <time>2014-08-24T08:36:43Z</time>
      </trkpt>
      <trkpt lat="49.13568" lon="0.73838">
        <ele>122</ele>
        <time>2014-08-24T08:36:44Z</time>
      </trkpt>
      <trkpt lat="49.13564" lon="0.73836">
        <ele>122</ele>
        <time>2014-08-24T08:36:45Z</time>
      </trkpt>
      <trkpt lat="49.13561" lon="0.73834">
        <ele>121</ele>
        <time>2014-08-24T08:36:46Z</time>
      </trkpt>
      <trkpt lat="49.13558" lon="0.73832">
        <ele>121</ele>
        <time>2014-08-24T08:36:47Z</time>
      </trkpt>
      <trkpt lat="49.13555" lon="0.73829">
        <ele>120</ele>
        <time>2014-08-24T08:36:48Z</time>
      </trkpt>
      <trkpt lat="49.13552" lon="0.73825">
        <ele>119</ele>
        <time>2014-08-24T08:36:49Z</time>
      </trkpt>
      <trkpt lat="49.13552" lon="0.7382">
        <ele>118</ele>
        <time>2014-08-24T08:36:50Z</time>
      </trkpt>
      <trkpt lat="49.13551" lon="0.73817">
        <ele>117</ele>
        <time>2014-08-24T08:36:51Z</time>
      </trkpt>
      <trkpt lat="49.13554" lon="0.73814">
        <ele>117</ele>
        <time>2014-08-24T08:36:52Z</time>
      </trkpt>
      <trkpt lat="49.13557" lon="0.73811">
        <ele>116</ele>
        <time>2014-08-24T08:36:53Z</time>
      </trkpt>
      <trkpt lat="49.1356" lon="0.7381">
        <ele>116</ele>
        <time>2014-08-24T08:36:54Z</time>
      </trkpt>
      <trkpt lat="49.13563" lon="0.73809">
        <ele>116</ele>
        <time>2014-08-24T08:36:55Z</time>
      </trkpt>
      <trkpt lat="49.13575" lon="0.7381">
        <ele>116</ele>
        <time>2014-08-24T08:37:00Z</time>
      </trkpt>
      <trkpt lat="49.13592" lon="0.73811">
        <ele>117</ele>
        <time>2014-08-24T08:37:06Z</time>
      </trkpt>
      <trkpt lat="49.13607" lon="0.7381">
        <ele>117</ele>
        <time>2014-08-24T08:37:11Z</time>
      </trkpt>
      <trkpt lat="49.13613" lon="0.73805">
        <ele>117</ele>
        <time>2014-08-24T08:37:14Z</time>
      </trkpt>
      <trkpt lat="49.13614" lon="0.73804">
        <ele>116</ele>
        <time>2014-08-24T08:37:16Z</time>
      </trkpt>
      <trkpt lat="49.13623" lon="0.73809">
        <ele>118</ele>
        <time>2014-08-24T08:41:51Z</time>
      </trkpt>
      <trkpt lat="49.13625" lon="0.7381">
        <ele>118</ele>
        <time>2014-08-24T08:41:52Z</time>
      </trkpt>
      <trkpt lat="49.13628" lon="0.73811">
        <ele>119</ele>
        <time>2014-08-24T08:41:53Z</time>
      </trkpt>
      <trkpt lat="49.13633" lon="0.73811">
        <ele>119</ele>
        <time>2014-08-24T08:41:55Z</time>
      </trkpt>
      <trkpt lat="49.13642" lon="0.73811">
        <ele>119</ele>
        <time>2014-08-24T08:41:58Z</time>
      </trkpt>
      <trkpt lat="49.13652" lon="0.73812">
        <ele>120</ele>
        <time>2014-08-24T08:42:01Z</time>
      </trkpt>
      <trkpt lat="49.13655" lon="0.73813">
        <ele>120</ele>
        <time>2014-08-24T08:42:02Z</time>
      </trkpt>
      <trkpt lat="49.13658" lon="0.73814">
        <ele>120</ele>
        <time>2014-08-24T08:42:03Z</time>
      </trkpt>
      <trkpt lat="49.13661" lon="0.73814">
        <ele>120</ele>
        <time>2014-08-24T08:42:04Z</time>
      </trkpt>
      <trkpt lat="49.13664" lon="0.73814">
        <ele>121</ele>
        <time>2014-08-24T08:42:05Z</time>
      </trkpt>
      <trkpt lat="49.13667" lon="0.73814">
        <ele>121</ele>
        <time>2014-08-24T08:42:06Z</time>
      </trkpt>
      <trkpt lat="49.1368" lon="0.73815">
        <ele>121</ele>
        <time>2014-08-24T08:42:10Z</time>
      </trkpt>
      <trkpt lat="49.13691" lon="0.73815">
        <ele>121</ele>
        <time>2014-08-24T08:42:14Z</time>
      </trkpt>
      <trkpt lat="49.13694" lon="0.73814">
        <ele>121</ele>
        <time>2014-08-24T08:42:15Z</time>
      </trkpt>
      <trkpt lat="49.13697" lon="0.73813">
        <ele>121</ele>
        <time>2014-08-24T08:42:16Z</time>
      </trkpt>
      <trkpt lat="49.13701" lon="0.73812">
        <ele>121</ele>
        <time>2014-08-24T08:42:17Z</time>
      </trkpt>
      <trkpt lat="49.13705" lon="0.73811">
        <ele>121</ele>
        <time>2014-08-24T08:42:18Z</time>
      </trkpt>
      <trkpt lat="49.13716" lon="0.73808">
        <ele>120</ele>
        <time>2014-08-24T08:42:21Z</time>
      </trkpt>
      <trkpt lat="49.13719" lon="0.73808">
        <ele>120</ele>
        <time>2014-08-24T08:42:22Z</time>
      </trkpt>
      <trkpt lat="49.13734" lon="0.73806">
        <ele>121</ele>
        <time>2014-08-24T08:42:26Z</time>
      </trkpt>
      <trkpt lat="49.13737" lon="0.73806">
        <ele>121</ele>
        <time>2014-08-24T08:42:27Z</time>
      </trkpt>
      <trkpt lat="49.1374" lon="0.73805">
        <ele>121</ele>
        <time>2014-08-24T08:42:28Z</time>
      </trkpt>
      <trkpt lat="49.13744" lon="0.73806">
        <ele>121</ele>
        <time>2014-08-24T08:42:29Z</time>
      </trkpt>
      <trkpt lat="49.13747" lon="0.73806">
        <ele>121</ele>
        <time>2014-08-24T08:42:30Z</time>
      </trkpt>
      <trkpt lat="49.1375" lon="0.73806">
        <ele>121</ele>
        <time>2014-08-24T08:42:31Z</time>
      </trkpt>
      <trkpt lat="49.13767" lon="0.73806">
        <ele>122</ele>
        <time>2014-08-24T08:42:36Z</time>
      </trkpt>
      <trkpt lat="49.13777" lon="0.73806">
        <ele>123</ele>
        <time>2014-08-24T08:42:39Z</time>
      </trkpt>
      <trkpt lat="49.13779" lon="0.73806">
        <ele>123</ele>
        <time>2014-08-24T08:42:40Z</time>
      </trkpt>
      <trkpt lat="49.13782" lon="0.73806">
        <ele>123</ele>
        <time>2014-08-24T08:42:41Z</time>
      </trkpt>
      <trkpt lat="49.13786" lon="0.73805">
        <ele>123</ele>
        <time>2014-08-24T08:42:42Z</time>
      </trkpt>
      <trkpt lat="49.1379" lon="0.73805">
        <ele>123</ele>
        <time>2014-08-24T08:42:43Z</time>
      </trkpt>
      <trkpt lat="49.13811" lon="0.73802">
        <ele>124</ele>
        <time>2014-08-24T08:42:48Z</time>
      </trkpt>
      <trkpt lat="49.13823" lon="0.73799">
        <ele>124</ele>
        <time>2014-08-24T08:42:51Z</time>
      </trkpt>
      <trkpt lat="49.13826" lon="0.73798">
        <ele>124</ele>
        <time>2014-08-24T08:42:52Z</time>
      </trkpt>
      <trkpt lat="49.1383" lon="0.73797">
        <ele>124</ele>
        <time>2014-08-24T08:42:53Z</time>
      </trkpt>
      <trkpt lat="49.13834" lon="0.73796">
        <ele>125</ele>
        <time>2014-08-24T08:42:54Z</time>
      </trkpt>
      <trkpt lat="49.13838" lon="0.73795">
        <ele>124</ele>
        <time>2014-08-24T08:42:55Z</time>
      </trkpt>
      <trkpt lat="49.13842" lon="0.73793">
        <ele>124</ele>
        <time>2014-08-24T08:42:56Z</time>
      </trkpt>
      <trkpt lat="49.13865" lon="0.73785">
        <ele>124</ele>
        <time>2014-08-24T08:43:02Z</time>
      </trkpt>
      <trkpt lat="49.13868" lon="0.73784">
        <ele>125</ele>
        <time>2014-08-24T08:43:03Z</time>
      </trkpt>
      <trkpt lat="49.13871" lon="0.73783">
        <ele>125</ele>
        <time>2014-08-24T08:43:04Z</time>
      </trkpt>
      <trkpt lat="49.13875" lon="0.73782">
        <ele>125</ele>
        <time>2014-08-24T08:43:05Z</time>
      </trkpt>
      <trkpt lat="49.13879" lon="0.73781">
        <ele>125</ele>
        <time>2014-08-24T08:43:06Z</time>
      </trkpt>
      <trkpt lat="49.13901" lon="0.73777">
        <ele>126</ele>
        <time>2014-08-24T08:43:12Z</time>
      </trkpt>
      <trkpt lat="49.13915" lon="0.73774">
        <ele>127</ele>
        <time>2014-08-24T08:43:16Z</time>
      </trkpt>
      <trkpt lat="49.13918" lon="0.73774">
        <ele>127</ele>
        <time>2014-08-24T08:43:17Z</time>
      </trkpt>
      <trkpt lat="49.13922" lon="0.73774">
        <ele>127</ele>
        <time>2014-08-24T08:43:18Z</time>
      </trkpt>
      <trkpt lat="49.13926" lon="0.73773">
        <ele>128</ele>
        <time>2014-08-24T08:43:19Z</time>
      </trkpt>
      <trkpt lat="49.1393" lon="0.73773">
        <ele>128</ele>
        <time>2014-08-24T08:43:20Z</time>
      </trkpt>
      <trkpt lat="49.13937" lon="0.73772">
        <ele>129</ele>
        <time>2014-08-24T08:43:22Z</time>
      </trkpt>
      <trkpt lat="49.13947" lon="0.73771">
        <ele>129</ele>
        <time>2014-08-24T08:43:25Z</time>
      </trkpt>
      <trkpt lat="49.13951" lon="0.7377">
        <ele>129</ele>
        <time>2014-08-24T08:43:26Z</time>
      </trkpt>
      <trkpt lat="49.13954" lon="0.73769">
        <ele>130</ele>
        <time>2014-08-24T08:43:27Z</time>
      </trkpt>
      <trkpt lat="49.13958" lon="0.73767">
        <ele>130</ele>
        <time>2014-08-24T08:43:28Z</time>
      </trkpt>
      <trkpt lat="49.1396" lon="0.73766">
        <ele>130</ele>
        <time>2014-08-24T08:43:29Z</time>
      </trkpt>
      <trkpt lat="49.13962" lon="0.73763">
        <ele>129</ele>
        <time>2014-08-24T08:43:30Z</time>
      </trkpt>
      <trkpt lat="49.13974" lon="0.73755">
        <ele>130</ele>
        <time>2014-08-24T08:43:35Z</time>
      </trkpt>
      <trkpt lat="49.13976" lon="0.73754">
        <ele>130</ele>
        <time>2014-08-24T08:43:37Z</time>
      </trkpt>
      <trkpt lat="49.13981" lon="0.73749">
        <ele>129</ele>
        <time>2014-08-24T08:43:41Z</time>
      </trkpt>
      <trkpt lat="49.13984" lon="0.73748">
        <ele>130</ele>
        <time>2014-08-24T08:43:42Z</time>
      </trkpt>
      <trkpt lat="49.13987" lon="0.73747">
        <ele>130</ele>
        <time>2014-08-24T08:43:43Z</time>
      </trkpt>
      <trkpt lat="49.13993" lon="0.73741">
        <ele>129</ele>
        <time>2014-08-24T08:43:46Z</time>
      </trkpt>
      <trkpt lat="49.14002" lon="0.73734">
        <ele>129</ele>
        <time>2014-08-24T08:43:49Z</time>
      </trkpt>
      <trkpt lat="49.14006" lon="0.73732">
        <ele>129</ele>
        <time>2014-08-24T08:43:50Z</time>
      </trkpt>
      <trkpt lat="49.1401" lon="0.73729">
        <ele>129</ele>
        <time>2014-08-24T08:43:51Z</time>
      </trkpt>
      <trkpt lat="49.14015" lon="0.73725">
        <ele>128</ele>
        <time>2014-08-24T08:43:52Z</time>
      </trkpt>
      <trkpt lat="49.1402" lon="0.73721">
        <ele>128</ele>
        <time>2014-08-24T08:43:53Z</time>
      </trkpt>
      <trkpt lat="49.14024" lon="0.73717">
        <ele>128</ele>
        <time>2014-08-24T08:43:54Z</time>
      </trkpt>
      <trkpt lat="49.14028" lon="0.73711">
        <ele>127</ele>
        <time>2014-08-24T08:43:55Z</time>
      </trkpt>
      <trkpt lat="49.14035" lon="0.73703">
        <ele>125</ele>
        <time>2014-08-24T08:43:56Z</time>
      </trkpt>
      <trkpt lat="49.1404" lon="0.73697">
        <ele>124</ele>
        <time>2014-08-24T08:43:57Z</time>
      </trkpt>
      <trkpt lat="49.14044" lon="0.73692">
        <ele>123</ele>
        <time>2014-08-24T08:43:58Z</time>
      </trkpt>
      <trkpt lat="49.14047" lon="0.73686">
        <ele>122</ele>
        <time>2014-08-24T08:43:59Z</time>
      </trkpt>
      <trkpt lat="49.1405" lon="0.73681">
        <ele>121</ele>
        <time>2014-08-24T08:44:00Z</time>
      </trkpt>
      <trkpt lat="49.14053" lon="0.73676">
        <ele>120</ele>
        <time>2014-08-24T08:44:01Z</time>
      </trkpt>
      <trkpt lat="49.14055" lon="0.73673">
        <ele>120</ele>
        <time>2014-08-24T08:44:02Z</time>
      </trkpt>
      <trkpt lat="49.14056" lon="0.7367">
        <ele>119</ele>
        <time>2014-08-24T08:44:03Z</time>
      </trkpt>
      <trkpt lat="49.14057" lon="0.73668">
        <ele>119</ele>
        <time>2014-08-24T08:44:04Z</time>
      </trkpt>
      <trkpt lat="49.14056" lon="0.73666">
        <ele>118</ele>
        <time>2014-08-24T08:44:05Z</time>
      </trkpt>
      <trkpt lat="49.14054" lon="0.73663">
        <ele>117</ele>
        <time>2014-08-24T08:44:06Z</time>
      </trkpt>
      <trkpt lat="49.14052" lon="0.73662">
        <ele>117</ele>
        <time>2014-08-24T08:44:07Z</time>
      </trkpt>
      <trkpt lat="49.14049" lon="0.73661">
        <ele>116</ele>
        <time>2014-08-24T08:44:08Z</time>
      </trkpt>
      <trkpt lat="49.14046" lon="0.73661">
        <ele>116</ele>
        <time>2014-08-24T08:44:09Z</time>
      </trkpt>
      <trkpt lat="49.14043" lon="0.73661">
        <ele>116</ele>
        <time>2014-08-24T08:44:10Z</time>
      </trkpt>
      <trkpt lat="49.14035" lon="0.73663">
        <ele>116</ele>
        <time>2014-08-24T08:44:12Z</time>
      </trkpt>
      <trkpt lat="49.1403" lon="0.73663">
        <ele>115</ele>
        <time>2014-08-24T08:44:14Z</time>
      </trkpt>
      <trkpt lat="49.14026" lon="0.73663">
        <ele>115</ele>
        <time>2014-08-24T08:44:15Z</time>
      </trkpt>
      <trkpt lat="49.14022" lon="0.73661">
        <ele>114</ele>
        <time>2014-08-24T08:44:16Z</time>
      </trkpt>
      <trkpt lat="49.14019" lon="0.73659">
        <ele>113</ele>
        <time>2014-08-24T08:44:17Z</time>
      </trkpt>
      <trkpt lat="49.14015" lon="0.73657">
        <ele>112</ele>
        <time>2014-08-24T08:44:18Z</time>
      </trkpt>
      <trkpt lat="49.1401" lon="0.73651">
        <ele>110</ele>
        <time>2014-08-24T08:44:19Z</time>
      </trkpt>
      <trkpt lat="49.14006" lon="0.73645">
        <ele>109</ele>
        <time>2014-08-24T08:44:20Z</time>
      </trkpt>
      <trkpt lat="49.14002" lon="0.73639">
        <ele>107</ele>
        <time>2014-08-24T08:44:21Z</time>
      </trkpt>
      <trkpt lat="49.13998" lon="0.73633">
        <ele>105</ele>
        <time>2014-08-24T08:44:22Z</time>
      </trkpt>
      <trkpt lat="49.13994" lon="0.73628">
        <ele>104</ele>
        <time>2014-08-24T08:44:23Z</time>
      </trkpt>
      <trkpt lat="49.13991" lon="0.73623">
        <ele>103</ele>
        <time>2014-08-24T08:44:24Z</time>
      </trkpt>
      <trkpt lat="49.13987" lon="0.73619">
        <ele>102</ele>
        <time>2014-08-24T08:44:25Z</time>
      </trkpt>
      <trkpt lat="49.13985" lon="0.73617">
        <ele>101</ele>
        <time>2014-08-24T08:44:26Z</time>
      </trkpt>
      <trkpt lat="49.13981" lon="0.73614">
        <ele>100</ele>
        <time>2014-08-24T08:44:27Z</time>
      </trkpt>
      <trkpt lat="49.13978" lon="0.73613">
        <ele>100</ele>
        <time>2014-08-24T08:44:28Z</time>
      </trkpt>
      <trkpt lat="49.13976" lon="0.73613">
        <ele>99</ele>
        <time>2014-08-24T08:44:29Z</time>
      </trkpt>
      <trkpt lat="49.13973" lon="0.73613">
        <ele>99</ele>
        <time>2014-08-24T08:44:30Z</time>
      </trkpt>
      <trkpt lat="49.13967" lon="0.73613">
        <ele>99</ele>
        <time>2014-08-24T08:44:32Z</time>
      </trkpt>
      <trkpt lat="49.13958" lon="0.73612">
        <ele>98</ele>
        <time>2014-08-24T08:44:34Z</time>
      </trkpt>
      <trkpt lat="49.13953" lon="0.73611">
        <ele>97</ele>
        <time>2014-08-24T08:44:35Z</time>
      </trkpt>
      <trkpt lat="49.13948" lon="0.7361">
        <ele>97</ele>
        <time>2014-08-24T08:44:36Z</time>
      </trkpt>
      <trkpt lat="49.13942" lon="0.7361">
        <ele>97</ele>
        <time>2014-08-24T08:44:37Z</time>
      </trkpt>
      <trkpt lat="49.13937" lon="0.73611">
        <ele>96</ele>
        <time>2014-08-24T08:44:38Z</time>
      </trkpt>
      <trkpt lat="49.13927" lon="0.73613">
        <ele>96</ele>
        <time>2014-08-24T08:44:40Z</time>
      </trkpt>
      <trkpt lat="49.13917" lon="0.73614">
        <ele>96</ele>
        <time>2014-08-24T08:44:42Z</time>
      </trkpt>
      <trkpt lat="49.13912" lon="0.73613">
        <ele>95</ele>
        <time>2014-08-24T08:44:43Z</time>
      </trkpt>
      <trkpt lat="49.13906" lon="0.73612">
        <ele>95</ele>
        <time>2014-08-24T08:44:44Z</time>
      </trkpt>
      <trkpt lat="49.139" lon="0.73611">
        <ele>94</ele>
        <time>2014-08-24T08:44:45Z</time>
      </trkpt>
      <trkpt lat="49.13894" lon="0.7361">
        <ele>94</ele>
        <time>2014-08-24T08:44:46Z</time>
      </trkpt>
      <trkpt lat="49.13889" lon="0.73608">
        <ele>93</ele>
        <time>2014-08-24T08:44:47Z</time>
      </trkpt>
      <trkpt lat="49.13883" lon="0.73607">
        <ele>93</ele>
        <time>2014-08-24T08:44:48Z</time>
      </trkpt>
      <trkpt lat="49.13878" lon="0.73606">
        <ele>92</ele>
        <time>2014-08-24T08:44:49Z</time>
      </trkpt>
      <trkpt lat="49.13873" lon="0.73606">
        <ele>92</ele>
        <time>2014-08-24T08:44:50Z</time>
      </trkpt>
      <trkpt lat="49.13869" lon="0.73607">
        <ele>92</ele>
        <time>2014-08-24T08:44:51Z</time>
      </trkpt>
      <trkpt lat="49.13865" lon="0.7361">
        <ele>92</ele>
        <time>2014-08-24T08:44:52Z</time>
      </trkpt>
      <trkpt lat="49.13861" lon="0.73613">
        <ele>92</ele>
        <time>2014-08-24T08:44:53Z</time>
      </trkpt>
      <trkpt lat="49.13857" lon="0.73613">
        <ele>92</ele>
        <time>2014-08-24T08:44:54Z</time>
      </trkpt>
      <trkpt lat="49.13853" lon="0.73613">
        <ele>91</ele>
        <time>2014-08-24T08:44:55Z</time>
      </trkpt>
      <trkpt lat="49.13847" lon="0.73613">
        <ele>91</ele>
        <time>2014-08-24T08:44:57Z</time>
      </trkpt>
      <trkpt lat="49.13829" lon="0.73616">
        <ele>91</ele>
        <time>2014-08-24T08:45:06Z</time>
      </trkpt>
      <trkpt lat="49.13822" lon="0.73618">
        <ele>91</ele>
        <time>2014-08-24T08:45:10Z</time>
      </trkpt>
      <trkpt lat="49.13809" lon="0.73624">
        <ele>91</ele>
        <time>2014-08-24T08:45:16Z</time>
      </trkpt>
      <trkpt lat="49.13799" lon="0.73632">
        <ele>92</ele>
        <time>2014-08-24T08:45:22Z</time>
      </trkpt>
      <trkpt lat="49.13786" lon="0.73636">
        <ele>92</ele>
        <time>2014-08-24T08:45:28Z</time>
      </trkpt>
      <trkpt lat="49.13781" lon="0.73637">
        <ele>92</ele>
        <time>2014-08-24T08:45:29Z</time>
      </trkpt>
      <trkpt lat="49.13778" lon="0.73639">
        <ele>92</ele>
        <time>2014-08-24T08:45:30Z</time>
      </trkpt>
      <trkpt lat="49.13775" lon="0.73641">
        <ele>92</ele>
        <time>2014-08-24T08:45:31Z</time>
      </trkpt>
      <trkpt lat="49.13772" lon="0.73643">
        <ele>92</ele>
        <time>2014-08-24T08:45:32Z</time>
      </trkpt>
      <trkpt lat="49.13763" lon="0.73648">
        <ele>92</ele>
        <time>2014-08-24T08:45:35Z</time>
      </trkpt>
      <trkpt lat="49.13738" lon="0.73658">
        <ele>93</ele>
        <time>2014-08-24T08:45:43Z</time>
      </trkpt>
      <trkpt lat="49.13732" lon="0.7366">
        <ele>93</ele>
        <time>2014-08-24T08:45:46Z</time>
      </trkpt>
      <trkpt lat="49.1373" lon="0.73661">
        <ele>93</ele>
        <time>2014-08-24T08:45:47Z</time>
      </trkpt>
      <trkpt lat="49.13728" lon="0.73662">
        <ele>93</ele>
        <time>2014-08-24T08:45:48Z</time>
      </trkpt>
      <trkpt lat="49.13726" lon="0.73663">
        <ele>93</ele>
        <time>2014-08-24T08:45:49Z</time>
      </trkpt>
      <trkpt lat="49.13724" lon="0.73663">
        <ele>93</ele>
        <time>2014-08-24T08:45:50Z</time>
      </trkpt>
      <trkpt lat="49.13718" lon="0.73663">
        <ele>92</ele>
        <time>2014-08-24T08:45:53Z</time>
      </trkpt>
      <trkpt lat="49.13715" lon="0.73664">
        <ele>92</ele>
        <time>2014-08-24T08:45:54Z</time>
      </trkpt>
      <trkpt lat="49.13713" lon="0.73664">
        <ele>92</ele>
        <time>2014-08-24T08:45:55Z</time>
      </trkpt>
      <trkpt lat="49.1371" lon="0.73664">
        <ele>92</ele>
        <time>2014-08-24T08:45:56Z</time>
      </trkpt>
      <trkpt lat="49.13708" lon="0.73664">
        <ele>92</ele>
        <time>2014-08-24T08:45:57Z</time>
      </trkpt>
      <trkpt lat="49.13705" lon="0.73664">
        <ele>92</ele>
        <time>2014-08-24T08:45:58Z</time>
      </trkpt>
      <trkpt lat="49.13687" lon="0.7367">
        <ele>92</ele>
        <time>2014-08-24T08:46:03Z</time>
      </trkpt>
      <trkpt lat="49.13656" lon="0.73681">
        <ele>92</ele>
        <time>2014-08-24T08:46:09Z</time>
      </trkpt>
      <trkpt lat="49.13651" lon="0.73682">
        <ele>92</ele>
        <time>2014-08-24T08:46:10Z</time>
      </trkpt>
      <trkpt lat="49.13632" lon="0.73686">
        <ele>92</ele>
        <time>2014-08-24T08:46:15Z</time>
      </trkpt>
      <trkpt lat="49.13609" lon="0.73692">
        <ele>92</ele>
        <time>2014-08-24T08:46:20Z</time>
      </trkpt>
      <trkpt lat="49.1358" lon="0.73698">
        <ele>92</ele>
        <time>2014-08-24T08:46:27Z</time>
      </trkpt>
      <trkpt lat="49.13556" lon="0.73704">
        <ele>93</ele>
        <time>2014-08-24T08:46:32Z</time>
      </trkpt>
      <trkpt lat="49.1353" lon="0.73706">
        <ele>93</ele>
        <time>2014-08-24T08:46:37Z</time>
      </trkpt>
      <trkpt lat="49.1352" lon="0.73704">
        <ele>93</ele>
        <time>2014-08-24T08:46:39Z</time>
      </trkpt>
      <trkpt lat="49.13487" lon="0.73697">
        <ele>92</ele>
        <time>2014-08-24T08:46:45Z</time>
      </trkpt>
      <trkpt lat="49.13457" lon="0.73694">
        <ele>91</ele>
        <time>2014-08-24T08:46:51Z</time>
      </trkpt>
      <trkpt lat="49.13452" lon="0.73693">
        <ele>91</ele>
        <time>2014-08-24T08:46:52Z</time>
      </trkpt>
      <trkpt lat="49.13447" lon="0.73692">
        <ele>90</ele>
        <time>2014-08-24T08:46:53Z</time>
      </trkpt>
      <trkpt lat="49.13441" lon="0.73691">
        <ele>90</ele>
        <time>2014-08-24T08:46:54Z</time>
      </trkpt>
      <trkpt lat="49.13435" lon="0.73691">
        <ele>90</ele>
        <time>2014-08-24T08:46:55Z</time>
      </trkpt>
      <trkpt lat="49.13426" lon="0.73689">
        <ele>90</ele>
        <time>2014-08-24T08:46:57Z</time>
      </trkpt>
      <trkpt lat="49.13398" lon="0.73686">
        <ele>90</ele>
        <time>2014-08-24T08:47:02Z</time>
      </trkpt>
      <trkpt lat="49.13369" lon="0.73684">
        <ele>90</ele>
        <time>2014-08-24T08:47:08Z</time>
      </trkpt>
      <trkpt lat="49.13357" lon="0.73687">
        <ele>90</ele>
        <time>2014-08-24T08:47:11Z</time>
      </trkpt>
      <trkpt lat="49.13353" lon="0.73688">
        <ele>91</ele>
        <time>2014-08-24T08:47:12Z</time>
      </trkpt>
      <trkpt lat="49.13349" lon="0.73688">
        <ele>91</ele>
        <time>2014-08-24T08:47:13Z</time>
      </trkpt>
      <trkpt lat="49.13347" lon="0.73689">
        <ele>91</ele>
        <time>2014-08-24T08:47:14Z</time>
      </trkpt>
      <trkpt lat="49.13345" lon="0.73689">
        <ele>91</ele>
        <time>2014-08-24T08:47:15Z</time>
      </trkpt>
      <trkpt lat="49.13332" lon="0.73692">
        <ele>92</ele>
        <time>2014-08-24T08:47:20Z</time>
      </trkpt>
      <trkpt lat="49.13329" lon="0.73693">
        <ele>92</ele>
        <time>2014-08-24T08:47:21Z</time>
      </trkpt>
      <trkpt lat="49.13327" lon="0.73694">
        <ele>93</ele>
        <time>2014-08-24T08:47:22Z</time>
      </trkpt>
      <trkpt lat="49.13325" lon="0.73696">
        <ele>93</ele>
        <time>2014-08-24T08:47:23Z</time>
      </trkpt>
      <trkpt lat="49.13322" lon="0.73697">
        <ele>93</ele>
        <time>2014-08-24T08:47:24Z</time>
      </trkpt>
      <trkpt lat="49.1332" lon="0.73698">
        <ele>94</ele>
        <time>2014-08-24T08:47:25Z</time>
      </trkpt>
      <trkpt lat="49.13318" lon="0.73699">
        <ele>94</ele>
        <time>2014-08-24T08:47:26Z</time>
      </trkpt>
      <trkpt lat="49.13316" lon="0.737">
        <ele>94</ele>
        <time>2014-08-24T08:47:27Z</time>
      </trkpt>
      <trkpt lat="49.13314" lon="0.73701">
        <ele>94</ele>
        <time>2014-08-24T08:47:28Z</time>
      </trkpt>
      <trkpt lat="49.1331" lon="0.73702">
        <ele>95</ele>
        <time>2014-08-24T08:47:29Z</time>
      </trkpt>
      <trkpt lat="49.13306" lon="0.73702">
        <ele>95</ele>
        <time>2014-08-24T08:47:30Z</time>
      </trkpt>
      <trkpt lat="49.13299" lon="0.73701">
        <ele>94</ele>
        <time>2014-08-24T08:47:32Z</time>
      </trkpt>
      <trkpt lat="49.1328" lon="0.73698">
        <ele>94</ele>
        <time>2014-08-24T08:47:36Z</time>
      </trkpt>
      <trkpt lat="49.13275" lon="0.73697">
        <ele>93</ele>
        <time>2014-08-24T08:47:37Z</time>
      </trkpt>
      <trkpt lat="49.13267" lon="0.73704">
        <ele>95</ele>
        <time>2014-08-24T08:47:41Z</time>
      </trkpt>
      <trkpt lat="49.13277" lon="0.73713">
        <ele>97</ele>
        <time>2014-08-24T08:47:48Z</time>
      </trkpt>
      <trkpt lat="49.13285" lon="0.73719">
        <ele>98</ele>
        <time>2014-08-24T08:47:53Z</time>
      </trkpt>
      <trkpt lat="49.1329" lon="0.73723">
        <ele>99</ele>
        <time>2014-08-24T08:47:56Z</time>
      </trkpt>
      <trkpt lat="49.13293" lon="0.73725">
        <ele>100</ele>
        <time>2014-08-24T08:47:57Z</time>
      </trkpt>
      <trkpt lat="49.13294" lon="0.73726">
        <ele>100</ele>
        <time>2014-08-24T08:47:58Z</time>
      </trkpt>
      <trkpt lat="49.13297" lon="0.73727">
        <ele>100</ele>
        <time>2014-08-24T08:47:59Z</time>
      </trkpt>
      <trkpt lat="49.13299" lon="0.73729">
        <ele>101</ele>
        <time>2014-08-24T08:48:00Z</time>
      </trkpt>
      <trkpt lat="49.13316" lon="0.73737">
        <ele>103</ele>
        <time>2014-08-24T08:48:06Z</time>
      </trkpt>
      <trkpt lat="49.13324" lon="0.7374">
        <ele>103</ele>
        <time>2014-08-24T08:48:09Z</time>
      </trkpt>
      <trkpt lat="49.13326" lon="0.73741">
        <ele>103</ele>
        <time>2014-08-24T08:48:10Z</time>
      </trkpt>
      <trkpt lat="49.13328" lon="0.73742">
        <ele>104</ele>
        <time>2014-08-24T08:48:11Z</time>
      </trkpt>
      <trkpt lat="49.1333" lon="0.73742">
        <ele>104</ele>
        <time>2014-08-24T08:48:12Z</time>
      </trkpt>
      <trkpt lat="49.13333" lon="0.73744">
        <ele>104</ele>
        <time>2014-08-24T08:48:13Z</time>
      </trkpt>
      <trkpt lat="49.13337" lon="0.73745">
        <ele>104</ele>
        <time>2014-08-24T08:48:15Z</time>
      </trkpt>
      <trkpt lat="49.13342" lon="0.73753">
        <ele>106</ele>
        <time>2014-08-24T08:48:20Z</time>
      </trkpt>
      <trkpt lat="49.13342" lon="0.73754">
        <ele>106</ele>
        <time>2014-08-24T08:48:21Z</time>
      </trkpt>
      <trkpt lat="49.13341" lon="0.73757">
        <ele>107</ele>
        <time>2014-08-24T08:48:22Z</time>
      </trkpt>
      <trkpt lat="49.13341" lon="0.73758">
        <ele>107</ele>
        <time>2014-08-24T08:48:23Z</time>
      </trkpt>
      <trkpt lat="49.1334" lon="0.73759">
        <ele>108</ele>
        <time>2014-08-24T08:48:24Z</time>
      </trkpt>
      <trkpt lat="49.13339" lon="0.73762">
        <ele>108</ele>
        <time>2014-08-24T08:48:25Z</time>
      </trkpt>
      <trkpt lat="49.13337" lon="0.73765">
        <ele>109</ele>
        <time>2014-08-24T08:48:26Z</time>
      </trkpt>
      <trkpt lat="49.13325" lon="0.73778">
        <ele>112</ele>
        <time>2014-08-24T08:48:29Z</time>
      </trkpt>
      <trkpt lat="49.13322" lon="0.73781">
        <ele>113</ele>
        <time>2014-08-24T08:48:30Z</time>
      </trkpt>
      <trkpt lat="49.13308" lon="0.73787">
        <ele>114</ele>
        <time>2014-08-24T08:48:35Z</time>
      </trkpt>
      <trkpt lat="49.13306" lon="0.73789">
        <ele>114</ele>
        <time>2014-08-24T08:48:36Z</time>
      </trkpt>
      <trkpt lat="49.13303" lon="0.73791">
        <ele>115</ele>
        <time>2014-08-24T08:48:37Z</time>
      </trkpt>
      <trkpt lat="49.133" lon="0.7379">
        <ele>114</ele>
        <time>2014-08-24T08:48:38Z</time>
      </trkpt>
      <trkpt lat="49.13297" lon="0.73789">
        <ele>114</ele>
        <time>2014-08-24T08:48:39Z</time>
      </trkpt>
      <trkpt lat="49.13296" lon="0.73787">
        <ele>114</ele>
        <time>2014-08-24T08:48:40Z</time>
      </trkpt>
      <trkpt lat="49.13294" lon="0.73785">
        <ele>114</ele>
        <time>2014-08-24T08:48:41Z</time>
      </trkpt>
      <trkpt lat="49.13292" lon="0.73784">
        <ele>113</ele>
        <time>2014-08-24T08:48:42Z</time>
      </trkpt>
      <trkpt lat="49.13289" lon="0.73781">
        <ele>113</ele>
        <time>2014-08-24T08:48:43Z</time>
      </trkpt>
      <trkpt lat="49.13287" lon="0.73778">
        <ele>112</ele>
        <time>2014-08-24T08:48:44Z</time>
      </trkpt>
      <trkpt lat="49.13282" lon="0.73776">
        <ele>112</ele>
        <time>2014-08-24T08:48:46Z</time>
      </trkpt>
      <trkpt lat="49.13273" lon="0.7378">
        <ele>112</ele>
        <time>2014-08-24T08:48:50Z</time>
      </trkpt>
      <trkpt lat="49.13264" lon="0.73787">
        <ele>114</ele>
        <time>2014-08-24T08:48:55Z</time>
      </trkpt>
      <trkpt lat="49.13259" lon="0.73791">
        <ele>114</ele>
        <time>2014-08-24T08:48:58Z</time>
      </trkpt>
      <trkpt lat="49.13258" lon="0.7379">
        <ele>114</ele>
        <time>2014-08-24T08:48:59Z</time>
      </trkpt>
      <trkpt lat="49.13256" lon="0.7379">
        <ele>114</ele>
        <time>2014-08-24T08:49:00Z</time>
      </trkpt>
      <trkpt lat="49.13254" lon="0.73791">
        <ele>114</ele>
        <time>2014-08-24T08:49:01Z</time>
      </trkpt>
      <trkpt lat="49.13253" lon="0.73793">
        <ele>115</ele>
        <time>2014-08-24T08:49:02Z</time>
      </trkpt>
      <trkpt lat="49.13252" lon="0.73794">
        <ele>115</ele>
        <time>2014-08-24T08:49:03Z</time>
      </trkpt>
      <trkpt lat="49.13237" lon="0.73807">
        <ele>117</ele>
        <time>2014-08-24T08:49:11Z</time>
      </trkpt>
      <trkpt lat="49.13236" lon="0.73809">
        <ele>118</ele>
        <time>2014-08-24T08:49:12Z</time>
      </trkpt>
      <trkpt lat="49.13235" lon="0.7381">
        <ele>118</ele>
        <time>2014-08-24T08:49:13Z</time>
      </trkpt>
      <trkpt lat="49.13232" lon="0.73812">
        <ele>118</ele>
        <time>2014-08-24T08:49:14Z</time>
      </trkpt>
      <trkpt lat="49.13231" lon="0.73813">
        <ele>118</ele>
        <time>2014-08-24T08:49:15Z</time>
      </trkpt>
      <trkpt lat="49.13222" lon="0.73817">
        <ele>119</ele>
        <time>2014-08-24T08:49:20Z</time>
      </trkpt>
      <trkpt lat="49.13221" lon="0.73818">
        <ele>120</ele>
        <time>2014-08-24T08:49:21Z</time>
      </trkpt>
      <trkpt lat="49.1322" lon="0.73819">
        <ele>120</ele>
        <time>2014-08-24T08:49:22Z</time>
      </trkpt>
      <trkpt lat="49.13218" lon="0.7382">
        <ele>120</ele>
        <time>2014-08-24T08:49:23Z</time>
      </trkpt>
      <trkpt lat="49.13217" lon="0.7382">
        <ele>120</ele>
        <time>2014-08-24T08:49:24Z</time>
      </trkpt>
      <trkpt lat="49.13207" lon="0.73827">
        <ele>121</ele>
        <time>2014-08-24T08:49:30Z</time>
      </trkpt>
      <trkpt lat="49.13205" lon="0.73827">
        <ele>121</ele>
        <time>2014-08-24T08:49:31Z</time>
      </trkpt>
      <trkpt lat="49.13203" lon="0.73827">
        <ele>121</ele>
        <time>2014-08-24T08:49:32Z</time>
      </trkpt>
      <trkpt lat="49.13202" lon="0.73828">
        <ele>121</ele>
        <time>2014-08-24T08:49:33Z</time>
      </trkpt>
      <trkpt lat="49.132" lon="0.73828">
        <ele>121</ele>
        <time>2014-08-24T08:49:34Z</time>
      </trkpt>
      <trkpt lat="49.13192" lon="0.73822">
        <ele>119</ele>
        <time>2014-08-24T08:49:37Z</time>
      </trkpt>
      <trkpt lat="49.13189" lon="0.73813">
        <ele>117</ele>
        <time>2014-08-24T08:49:38Z</time>
      </trkpt>
      <trkpt lat="49.13187" lon="0.73804">
        <ele>115</ele>
        <time>2014-08-24T08:49:39Z</time>
      </trkpt>
      <trkpt lat="49.13185" lon="0.73795">
        <ele>113</ele>
        <time>2014-08-24T08:49:40Z</time>
      </trkpt>
      <trkpt lat="49.13183" lon="0.73787">
        <ele>111</ele>
        <time>2014-08-24T08:49:41Z</time>
      </trkpt>
      <trkpt lat="49.13184" lon="0.73784">
        <ele>110</ele>
        <time>2014-08-24T08:49:42Z</time>
      </trkpt>
      <trkpt lat="49.13186" lon="0.73782">
        <ele>110</ele>
        <time>2014-08-24T08:49:43Z</time>
      </trkpt>
      <trkpt lat="49.1319" lon="0.73779">
        <ele>110</ele>
        <time>2014-08-24T08:49:44Z</time>
      </trkpt>
      <trkpt lat="49.13193" lon="0.73777">
        <ele>109</ele>
        <time>2014-08-24T08:49:45Z</time>
      </trkpt>
      <trkpt lat="49.13197" lon="0.73777">
        <ele>109</ele>
        <time>2014-08-24T08:49:46Z</time>
      </trkpt>
      <trkpt lat="49.132" lon="0.7378">
        <ele>110</ele>
        <time>2014-08-24T08:49:47Z</time>
      </trkpt>
      <trkpt lat="49.13206" lon="0.73789">
        <ele>113</ele>
        <time>2014-08-24T08:49:52Z</time>
      </trkpt>
      <trkpt lat="49.13212" lon="0.7379">
        <ele>113</ele>
        <time>2014-08-24T08:49:55Z</time>
      </trkpt>
      <trkpt lat="49.13218" lon="0.73787">
        <ele>113</ele>
        <time>2014-08-24T08:49:57Z</time>
      </trkpt>
      <trkpt lat="49.13239" lon="0.73775">
        <ele>111</ele>
        <time>2014-08-24T08:50:03Z</time>
      </trkpt>
      <trkpt lat="49.13242" lon="0.73764">
        <ele>108</ele>
        <time>2014-08-24T08:50:05Z</time>
      </trkpt>
      <trkpt lat="49.13238" lon="0.73758">
        <ele>107</ele>
        <time>2014-08-24T08:50:06Z</time>
      </trkpt>
      <trkpt lat="49.13235" lon="0.73753">
        <ele>106</ele>
        <time>2014-08-24T08:50:07Z</time>
      </trkpt>
      <trkpt lat="49.13232" lon="0.73749">
        <ele>105</ele>
        <time>2014-08-24T08:50:08Z</time>
      </trkpt>
      <trkpt lat="49.13228" lon="0.73747">
        <ele>104</ele>
        <time>2014-08-24T08:50:09Z</time>
      </trkpt>
      <trkpt lat="49.13223" lon="0.73745">
        <ele>104</ele>
        <time>2014-08-24T08:50:10Z</time>
      </trkpt>
      <trkpt lat="49.13219" lon="0.73742">
        <ele>103</ele>
        <time>2014-08-24T08:50:11Z</time>
      </trkpt>
      <trkpt lat="49.13214" lon="0.73741">
        <ele>102</ele>
        <time>2014-08-24T08:50:12Z</time>
      </trkpt>
      <trkpt lat="49.13198" lon="0.73734">
        <ele>100</ele>
        <time>2014-08-24T08:50:15Z</time>
      </trkpt>
      <trkpt lat="49.13191" lon="0.73732">
        <ele>99</ele>
        <time>2014-08-24T08:50:16Z</time>
      </trkpt>
      <trkpt lat="49.13186" lon="0.73729">
        <ele>98</ele>
        <time>2014-08-24T08:50:17Z</time>
      </trkpt>
      <trkpt lat="49.13182" lon="0.73726">
        <ele>97</ele>
        <time>2014-08-24T08:50:18Z</time>
      </trkpt>
      <trkpt lat="49.13178" lon="0.73724">
        <ele>96</ele>
        <time>2014-08-24T08:50:19Z</time>
      </trkpt>
      <trkpt lat="49.13173" lon="0.73724">
        <ele>96</ele>
        <time>2014-08-24T08:50:20Z</time>
      </trkpt>
      <trkpt lat="49.13169" lon="0.73724">
        <ele>95</ele>
        <time>2014-08-24T08:50:21Z</time>
      </trkpt>
      <trkpt lat="49.13165" lon="0.73724">
        <ele>95</ele>
        <time>2014-08-24T08:50:22Z</time>
      </trkpt>
      <trkpt lat="49.13161" lon="0.73725">
        <ele>95</ele>
        <time>2014-08-24T08:50:23Z</time>
      </trkpt>
      <trkpt lat="49.13157" lon="0.73729">
        <ele>95</ele>
        <time>2014-08-24T08:50:24Z</time>
      </trkpt>
      <trkpt lat="49.13154" lon="0.73732">
        <ele>95</ele>
        <time>2014-08-24T08:50:25Z</time>
      </trkpt>
      <trkpt lat="49.13136" lon="0.73747">
        <ele>97</ele>
        <time>2014-08-24T08:50:31Z</time>
      </trkpt>
      <trkpt lat="49.13128" lon="0.7376">
        <ele>98</ele>
        <time>2014-08-24T08:50:36Z</time>
      </trkpt>
      <trkpt lat="49.13123" lon="0.73767">
        <ele>99</ele>
        <time>2014-08-24T08:50:40Z</time>
      </trkpt>
      <trkpt lat="49.1311" lon="0.73785">
        <ele>101</ele>
        <time>2014-08-24T08:50:50Z</time>
      </trkpt>
      <trkpt lat="49.13107" lon="0.73788">
        <ele>102</ele>
        <time>2014-08-24T08:50:52Z</time>
      </trkpt>
      <trkpt lat="49.13105" lon="0.73789">
        <ele>102</ele>
        <time>2014-08-24T08:50:53Z</time>
      </trkpt>
      <trkpt lat="49.13104" lon="0.73791">
        <ele>102</ele>
        <time>2014-08-24T08:50:54Z</time>
      </trkpt>
      <trkpt lat="49.13103" lon="0.73793">
        <ele>103</ele>
        <time>2014-08-24T08:50:55Z</time>
      </trkpt>
      <trkpt lat="49.13101" lon="0.73795">
        <ele>103</ele>
        <time>2014-08-24T08:50:56Z</time>
      </trkpt>
      <trkpt lat="49.13099" lon="0.73796">
        <ele>103</ele>
        <time>2014-08-24T08:50:57Z</time>
      </trkpt>
      <trkpt lat="49.13093" lon="0.73809">
        <ele>106</ele>
        <time>2014-08-24T08:51:04Z</time>
      </trkpt>
      <trkpt lat="49.13092" lon="0.73811">
        <ele>107</ele>
        <time>2014-08-24T08:51:05Z</time>
      </trkpt>
      <trkpt lat="49.13091" lon="0.73813">
        <ele>108</ele>
        <time>2014-08-24T08:51:06Z</time>
      </trkpt>
      <trkpt lat="49.1309" lon="0.73816">
        <ele>108</ele>
        <time>2014-08-24T08:51:07Z</time>
      </trkpt>
      <trkpt lat="49.1309" lon="0.73818">
        <ele>109</ele>
        <time>2014-08-24T08:51:08Z</time>
      </trkpt>
      <trkpt lat="49.13088" lon="0.73824">
        <ele>111</ele>
        <time>2014-08-24T08:51:11Z</time>
      </trkpt>
      <trkpt lat="49.13082" lon="0.73833">
        <ele>113</ele>
        <time>2014-08-24T08:51:14Z</time>
      </trkpt>
      <trkpt lat="49.13081" lon="0.73834">
        <ele>113</ele>
        <time>2014-08-24T08:51:15Z</time>
      </trkpt>
      <trkpt lat="49.13079" lon="0.73836">
        <ele>114</ele>
        <time>2014-08-24T08:51:16Z</time>
      </trkpt>
      <trkpt lat="49.13078" lon="0.73837">
        <ele>114</ele>
        <time>2014-08-24T08:51:17Z</time>
      </trkpt>
      <trkpt lat="49.13077" lon="0.73839">
        <ele>114</ele>
        <time>2014-08-24T08:51:18Z</time>
      </trkpt>
      <trkpt lat="49.13076" lon="0.73841">
        <ele>115</ele>
        <time>2014-08-24T08:51:19Z</time>
      </trkpt>
      <trkpt lat="49.13061" lon="0.73848">
        <ele>114</ele>
        <time>2014-08-24T08:51:24Z</time>
      </trkpt>
      <trkpt lat="49.13051" lon="0.73847">
        <ele>113</ele>
        <time>2014-08-24T08:51:27Z</time>
      </trkpt>
      <trkpt lat="49.13046" lon="0.73845">
        <ele>112</ele>
        <time>2014-08-24T08:51:29Z</time>
      </trkpt>
      <trkpt lat="49.13039" lon="0.73845">
        <ele>111</ele>
        <time>2014-08-24T08:51:34Z</time>
      </trkpt>
      <trkpt lat="49.13038" lon="0.73847">
        <ele>111</ele>
        <time>2014-08-24T08:51:35Z</time>
      </trkpt>
      <trkpt lat="49.13028" lon="0.73856">
        <ele>114</ele>
        <time>2014-08-24T08:51:41Z</time>
      </trkpt>
      <trkpt lat="49.13019" lon="0.73863">
        <ele>117</ele>
        <time>2014-08-24T08:51:47Z</time>
      </trkpt>
      <trkpt lat="49.13019" lon="0.73864">
        <ele>117</ele>
        <time>2014-08-24T08:51:48Z</time>
      </trkpt>
      <trkpt lat="49.13018" lon="0.73865">
        <ele>118</ele>
        <time>2014-08-24T08:51:49Z</time>
      </trkpt>
      <trkpt lat="49.13017" lon="0.73867">
        <ele>118</ele>
        <time>2014-08-24T08:51:50Z</time>
      </trkpt>
      <trkpt lat="49.13016" lon="0.73868">
        <ele>118</ele>
        <time>2014-08-24T08:51:51Z</time>
      </trkpt>
      <trkpt lat="49.1301" lon="0.73879">
        <ele>120</ele>
        <time>2014-08-24T08:51:57Z</time>
      </trkpt>
      <trkpt lat="49.1301" lon="0.73881">
        <ele>121</ele>
        <time>2014-08-24T08:51:58Z</time>
      </trkpt>
      <trkpt lat="49.13009" lon="0.73882">
        <ele>121</ele>
        <time>2014-08-24T08:51:59Z</time>
      </trkpt>
      <trkpt lat="49.13009" lon="0.73884">
        <ele>121</ele>
        <time>2014-08-24T08:52:00Z</time>
      </trkpt>
      <trkpt lat="49.13007" lon="0.73886">
        <ele>121</ele>
        <time>2014-08-24T08:52:01Z</time>
      </trkpt>
      <trkpt lat="49.13" lon="0.73895">
        <ele>122</ele>
        <time>2014-08-24T08:52:07Z</time>
      </trkpt>
      <trkpt lat="49.12999" lon="0.73897">
        <ele>122</ele>
        <time>2014-08-24T08:52:08Z</time>
      </trkpt>
      <trkpt lat="49.12998" lon="0.73898">
        <ele>122</ele>
        <time>2014-08-24T08:52:09Z</time>
      </trkpt>
      <trkpt lat="49.12997" lon="0.739">
        <ele>122</ele>
        <time>2014-08-24T08:52:10Z</time>
      </trkpt>
      <trkpt lat="49.12996" lon="0.73901">
        <ele>122</ele>
        <time>2014-08-24T08:52:11Z</time>
      </trkpt>
      <trkpt lat="49.12995" lon="0.73903">
        <ele>122</ele>
        <time>2014-08-24T08:52:12Z</time>
      </trkpt>
      <trkpt lat="49.12994" lon="0.73911">
        <ele>123</ele>
        <time>2014-08-24T08:52:16Z</time>
      </trkpt>
      <trkpt lat="49.12994" lon="0.73912">
        <ele>123</ele>
        <time>2014-08-24T08:52:17Z</time>
      </trkpt>
      <trkpt lat="49.12993" lon="0.73914">
        <ele>123</ele>
        <time>2014-08-24T08:52:18Z</time>
      </trkpt>
      <trkpt lat="49.12992" lon="0.73915">
        <ele>124</ele>
        <time>2014-08-24T08:52:19Z</time>
      </trkpt>
      <trkpt lat="49.12991" lon="0.73917">
        <ele>124</ele>
        <time>2014-08-24T08:52:20Z</time>
      </trkpt>
      <trkpt lat="49.12986" lon="0.73927">
        <ele>126</ele>
        <time>2014-08-24T08:52:26Z</time>
      </trkpt>
      <trkpt lat="49.12986" lon="0.73933">
        <ele>127</ele>
        <time>2014-08-24T08:52:29Z</time>
      </trkpt>
      <trkpt lat="49.12985" lon="0.73935">
        <ele>127</ele>
        <time>2014-08-24T08:52:30Z</time>
      </trkpt>
      <trkpt lat="49.12985" lon="0.73937">
        <ele>127</ele>
        <time>2014-08-24T08:52:31Z</time>
      </trkpt>
      <trkpt lat="49.12985" lon="0.73938">
        <ele>127</ele>
        <time>2014-08-24T08:52:32Z</time>
      </trkpt>
      <trkpt lat="49.12985" lon="0.73939">
        <ele>127</ele>
        <time>2014-08-24T08:52:33Z</time>
      </trkpt>
      <trkpt lat="49.12985" lon="0.73948">
        <ele>128</ele>
        <time>2014-08-24T08:52:39Z</time>
      </trkpt>
      <trkpt lat="49.12985" lon="0.73952">
        <ele>129</ele>
        <time>2014-08-24T08:52:41Z</time>
      </trkpt>
      <trkpt lat="49.12984" lon="0.73954">
        <ele>129</ele>
        <time>2014-08-24T08:52:42Z</time>
      </trkpt>
      <trkpt lat="49.12984" lon="0.73956">
        <ele>129</ele>
        <time>2014-08-24T08:52:43Z</time>
      </trkpt>
      <trkpt lat="49.12983" lon="0.73957">
        <ele>129</ele>
        <time>2014-08-24T08:52:44Z</time>
      </trkpt>
      <trkpt lat="49.1298" lon="0.73959">
        <ele>130</ele>
        <time>2014-08-24T08:52:45Z</time>
      </trkpt>
      <trkpt lat="49.12979" lon="0.7396">
        <ele>130</ele>
        <time>2014-08-24T08:52:46Z</time>
      </trkpt>
      <trkpt lat="49.12977" lon="0.73975">
        <ele>131</ele>
        <time>2014-08-24T08:52:53Z</time>
      </trkpt>
      <trkpt lat="49.12977" lon="0.73977">
        <ele>131</ele>
        <time>2014-08-24T08:52:54Z</time>
      </trkpt>
      <trkpt lat="49.12977" lon="0.73979">
        <ele>131</ele>
        <time>2014-08-24T08:52:55Z</time>
      </trkpt>
      <trkpt lat="49.12976" lon="0.73981">
        <ele>131</ele>
        <time>2014-08-24T08:52:56Z</time>
      </trkpt>
      <trkpt lat="49.12976" lon="0.73982">
        <ele>131</ele>
        <time>2014-08-24T08:52:57Z</time>
      </trkpt>
      <trkpt lat="49.12981" lon="0.73992">
        <ele>132</ele>
        <time>2014-08-24T08:53:03Z</time>
      </trkpt>
      <trkpt lat="49.12982" lon="0.73995">
        <ele>132</ele>
        <time>2014-08-24T08:53:05Z</time>
      </trkpt>
      <trkpt lat="49.12982" lon="0.73997">
        <ele>132</ele>
        <time>2014-08-24T08:53:06Z</time>
      </trkpt>
      <trkpt lat="49.12983" lon="0.73999">
        <ele>132</ele>
        <time>2014-08-24T08:53:07Z</time>
      </trkpt>
      <trkpt lat="49.12983" lon="0.74002">
        <ele>132</ele>
        <time>2014-08-24T08:53:08Z</time>
      </trkpt>
      <trkpt lat="49.12983" lon="0.74004">
        <ele>132</ele>
        <time>2014-08-24T08:53:09Z</time>
      </trkpt>
      <trkpt lat="49.12985" lon="0.7401">
        <ele>132</ele>
        <time>2014-08-24T08:53:13Z</time>
      </trkpt>
      <trkpt lat="49.12986" lon="0.74024">
        <ele>133</ele>
        <time>2014-08-24T08:53:19Z</time>
      </trkpt>
      <trkpt lat="49.12988" lon="0.74027">
        <ele>133</ele>
        <time>2014-08-24T08:53:20Z</time>
      </trkpt>
      <trkpt lat="49.12989" lon="0.74031">
        <ele>134</ele>
        <time>2014-08-24T08:53:21Z</time>
      </trkpt>
      <trkpt lat="49.12989" lon="0.74033">
        <ele>134</ele>
        <time>2014-08-24T08:53:22Z</time>
      </trkpt>
      <trkpt lat="49.1299" lon="0.74034">
        <ele>134</ele>
        <time>2014-08-24T08:53:23Z</time>
      </trkpt>
      <trkpt lat="49.12992" lon="0.74048">
        <ele>135</ele>
        <time>2014-08-24T08:53:29Z</time>
      </trkpt>
      <trkpt lat="49.12992" lon="0.7405">
        <ele>135</ele>
        <time>2014-08-24T08:53:30Z</time>
      </trkpt>
      <trkpt lat="49.12991" lon="0.74053">
        <ele>135</ele>
        <time>2014-08-24T08:53:31Z</time>
      </trkpt>
      <trkpt lat="49.12991" lon="0.74055">
        <ele>135</ele>
        <time>2014-08-24T08:53:32Z</time>
      </trkpt>
      <trkpt lat="49.1299" lon="0.74057">
        <ele>135</ele>
        <time>2014-08-24T08:53:33Z</time>
      </trkpt>
      <trkpt lat="49.1299" lon="0.74057">
        <ele>135</ele>
        <time>2014-08-24T08:53:34Z</time>
      </trkpt>
      <trkpt lat="49.12987" lon="0.74058">
        <ele>135</ele>
        <time>2014-08-24T08:53:37Z</time>
      </trkpt>
      <trkpt lat="49.12981" lon="0.74054">
        <ele>135</ele>
        <time>2014-08-24T08:53:41Z</time>
      </trkpt>
      <trkpt lat="49.12979" lon="0.74051">
        <ele>135</ele>
        <time>2014-08-24T08:53:42Z</time>
      </trkpt>
      <trkpt lat="49.12976" lon="0.74049">
        <ele>135</ele>
        <time>2014-08-24T08:53:44Z</time>
      </trkpt>
      <trkpt lat="49.12971" lon="0.74047">
        <ele>135</ele>
        <time>2014-08-24T08:53:46Z</time>
      </trkpt>
      <trkpt lat="49.12968" lon="0.74045">
        <ele>134</ele>
        <time>2014-08-24T08:53:47Z</time>
      </trkpt>
      <trkpt lat="49.12951" lon="0.74028">
        <ele>134</ele>
        <time>2014-08-24T08:53:52Z</time>
      </trkpt>
      <trkpt lat="49.12947" lon="0.74004">
        <ele>133</ele>
        <time>2014-08-24T08:53:57Z</time>
      </trkpt>
      <trkpt lat="49.1295" lon="0.73973">
        <ele>133</ele>
        <time>2014-08-24T08:54:03Z</time>
      </trkpt>
      <trkpt lat="49.12949" lon="0.73961">
        <ele>134</ele>
        <time>2014-08-24T08:54:06Z</time>
      </trkpt>
      <trkpt lat="49.12949" lon="0.73956">
        <ele>134</ele>
        <time>2014-08-24T08:54:07Z</time>
      </trkpt>
      <trkpt lat="49.12949" lon="0.73951">
        <ele>134</ele>
        <time>2014-08-24T08:54:08Z</time>
      </trkpt>
      <trkpt lat="49.12949" lon="0.73946">
        <ele>135</ele>
        <time>2014-08-24T08:54:09Z</time>
      </trkpt>
      <trkpt lat="49.12949" lon="0.7394">
        <ele>135</ele>
        <time>2014-08-24T08:54:10Z</time>
      </trkpt>
      <trkpt lat="49.12948" lon="0.73914">
        <ele>136</ele>
        <time>2014-08-24T08:54:15Z</time>
      </trkpt>
      <trkpt lat="49.12934" lon="0.73876">
        <ele>134</ele>
        <time>2014-08-24T08:54:24Z</time>
      </trkpt>
      <trkpt lat="49.12914" lon="0.73877">
        <ele>135</ele>
        <time>2014-08-24T08:54:29Z</time>
      </trkpt>
      <trkpt lat="49.12909" lon="0.73881">
        <ele>135</ele>
        <time>2014-08-24T08:54:30Z</time>
      </trkpt>
      <trkpt lat="49.12906" lon="0.73882">
        <ele>135</ele>
        <time>2014-08-24T08:54:31Z</time>
      </trkpt>
      <trkpt lat="49.12877" lon="0.73886">
        <ele>135</ele>
        <time>2014-08-24T08:54:37Z</time>
      </trkpt>
      <trkpt lat="49.12854" lon="0.73891">
        <ele>134</ele>
        <time>2014-08-24T08:54:41Z</time>
      </trkpt>
      <trkpt lat="49.12841" lon="0.73892">
        <ele>134</ele>
        <time>2014-08-24T08:54:43Z</time>
      </trkpt>
      <trkpt lat="49.12817" lon="0.73894">
        <ele>132</ele>
        <time>2014-08-24T08:54:46Z</time>
      </trkpt>
      <trkpt lat="49.12809" lon="0.73897">
        <ele>132</ele>
        <time>2014-08-24T08:54:47Z</time>
      </trkpt>
      <trkpt lat="49.12802" lon="0.73899">
        <ele>132</ele>
        <time>2014-08-24T08:54:48Z</time>
      </trkpt>
      <trkpt lat="49.12796" lon="0.73905">
        <ele>133</ele>
        <time>2014-08-24T08:54:49Z</time>
      </trkpt>
      <trkpt lat="49.12791" lon="0.7391">
        <ele>134</ele>
        <time>2014-08-24T08:54:50Z</time>
      </trkpt>
      <trkpt lat="49.12787" lon="0.73913">
        <ele>134</ele>
        <time>2014-08-24T08:54:51Z</time>
      </trkpt>
      <trkpt lat="49.12775" lon="0.73926">
        <ele>137</ele>
        <time>2014-08-24T08:54:55Z</time>
      </trkpt>
      <trkpt lat="49.12772" lon="0.73928">
        <ele>137</ele>
        <time>2014-08-24T08:54:56Z</time>
      </trkpt>
      <trkpt lat="49.12769" lon="0.7393">
        <ele>137</ele>
        <time>2014-08-24T08:54:57Z</time>
      </trkpt>
      <trkpt lat="49.12767" lon="0.73932">
        <ele>137</ele>
        <time>2014-08-24T08:54:58Z</time>
      </trkpt>
      <trkpt lat="49.12764" lon="0.73934">
        <ele>138</ele>
        <time>2014-08-24T08:54:59Z</time>
      </trkpt>
      <trkpt lat="49.12759" lon="0.73938">
        <ele>138</ele>
        <time>2014-08-24T08:55:01Z</time>
      </trkpt>
      <trkpt lat="49.12756" lon="0.7394">
        <ele>138</ele>
        <time>2014-08-24T08:55:02Z</time>
      </trkpt>
      <trkpt lat="49.12753" lon="0.73942">
        <ele>138</ele>
        <time>2014-08-24T08:55:03Z</time>
      </trkpt>
      <trkpt lat="49.1275" lon="0.73943">
        <ele>138</ele>
        <time>2014-08-24T08:55:04Z</time>
      </trkpt>
      <trkpt lat="49.12748" lon="0.73945">
        <ele>138</ele>
        <time>2014-08-24T08:55:05Z</time>
      </trkpt>
      <trkpt lat="49.12738" lon="0.73951">
        <ele>139</ele>
        <time>2014-08-24T08:55:10Z</time>
      </trkpt>
      <trkpt lat="49.1273" lon="0.73956">
        <ele>139</ele>
        <time>2014-08-24T08:55:13Z</time>
      </trkpt>
      <trkpt lat="49.12729" lon="0.73958">
        <ele>140</ele>
        <time>2014-08-24T08:55:14Z</time>
      </trkpt>
      <trkpt lat="49.12726" lon="0.73959">
        <ele>140</ele>
        <time>2014-08-24T08:55:15Z</time>
      </trkpt>
      <trkpt lat="49.12723" lon="0.73962">
        <ele>140</ele>
        <time>2014-08-24T08:55:16Z</time>
      </trkpt>
      <trkpt lat="49.12721" lon="0.73964">
        <ele>140</ele>
        <time>2014-08-24T08:55:17Z</time>
      </trkpt>
      <trkpt lat="49.12719" lon="0.73965">
        <ele>140</ele>
        <time>2014-08-24T08:55:18Z</time>
      </trkpt>
      <trkpt lat="49.12697" lon="0.73976">
        <ele>142</ele>
        <time>2014-08-24T08:55:25Z</time>
      </trkpt>
      <trkpt lat="49.12695" lon="0.73975">
        <ele>142</ele>
        <time>2014-08-24T08:55:26Z</time>
      </trkpt>
      <trkpt lat="49.12692" lon="0.73972">
        <ele>141</ele>
        <time>2014-08-24T08:55:27Z</time>
      </trkpt>
      <trkpt lat="49.12689" lon="0.73968">
        <ele>141</ele>
        <time>2014-08-24T08:55:28Z</time>
      </trkpt>
      <trkpt lat="49.12688" lon="0.73964">
        <ele>140</ele>
        <time>2014-08-24T08:55:29Z</time>
      </trkpt>
      <trkpt lat="49.12686" lon="0.7396">
        <ele>140</ele>
        <time>2014-08-24T08:55:30Z</time>
      </trkpt>
      <trkpt lat="49.12674" lon="0.73958">
        <ele>139</ele>
        <time>2014-08-24T08:55:34Z</time>
      </trkpt>
      <trkpt lat="49.12672" lon="0.73959">
        <ele>139</ele>
        <time>2014-08-24T08:55:35Z</time>
      </trkpt>
      <trkpt lat="49.12658" lon="0.73966">
        <ele>139</ele>
        <time>2014-08-24T08:55:41Z</time>
      </trkpt>
      <trkpt lat="49.12642" lon="0.73973">
        <ele>139</ele>
        <time>2014-08-24T08:55:47Z</time>
      </trkpt>
      <trkpt lat="49.12638" lon="0.73979">
        <ele>140</ele>
        <time>2014-08-24T08:55:49Z</time>
      </trkpt>
      <trkpt lat="49.12635" lon="0.7398">
        <ele>140</ele>
        <time>2014-08-24T08:55:51Z</time>
      </trkpt>
      <trkpt lat="49.12617" lon="0.73984">
        <ele>140</ele>
        <time>2014-08-24T08:55:56Z</time>
      </trkpt>
      <trkpt lat="49.12598" lon="0.73995">
        <ele>142</ele>
        <time>2014-08-24T08:56:01Z</time>
      </trkpt>
      <trkpt lat="49.12586" lon="0.74001">
        <ele>143</ele>
        <time>2014-08-24T08:56:05Z</time>
      </trkpt>
      <trkpt lat="49.12577" lon="0.74004">
        <ele>142</ele>
        <time>2014-08-24T08:56:07Z</time>
      </trkpt>
      <trkpt lat="49.12574" lon="0.74006">
        <ele>142</ele>
        <time>2014-08-24T08:56:08Z</time>
      </trkpt>
      <trkpt lat="49.1257" lon="0.74007">
        <ele>141</ele>
        <time>2014-08-24T08:56:09Z</time>
      </trkpt>
      <trkpt lat="49.12566" lon="0.74009">
        <ele>141</ele>
        <time>2014-08-24T08:56:10Z</time>
      </trkpt>
      <trkpt lat="49.12563" lon="0.7401">
        <ele>141</ele>
        <time>2014-08-24T08:56:11Z</time>
      </trkpt>
      <trkpt lat="49.12547" lon="0.74013">
        <ele>140</ele>
        <time>2014-08-24T08:56:16Z</time>
      </trkpt>
      <trkpt lat="49.12537" lon="0.74019">
        <ele>140</ele>
        <time>2014-08-24T08:56:19Z</time>
      </trkpt>
      <trkpt lat="49.12532" lon="0.74022">
        <ele>140</ele>
        <time>2014-08-24T08:56:20Z</time>
      </trkpt>
      <trkpt lat="49.12527" lon="0.74026">
        <ele>140</ele>
        <time>2014-08-24T08:56:21Z</time>
      </trkpt>
      <trkpt lat="49.12525" lon="0.7403">
        <ele>140</ele>
        <time>2014-08-24T08:56:22Z</time>
      </trkpt>
      <trkpt lat="49.12521" lon="0.74033">
        <ele>140</ele>
        <time>2014-08-24T08:56:23Z</time>
      </trkpt>
      <trkpt lat="49.12519" lon="0.74035">
        <ele>140</ele>
        <time>2014-08-24T08:56:24Z</time>
      </trkpt>
      <trkpt lat="49.12509" lon="0.74039">
        <ele>140</ele>
        <time>2014-08-24T08:56:28Z</time>
      </trkpt>
      <trkpt lat="49.12508" lon="0.74041">
        <ele>140</ele>
        <time>2014-08-24T08:56:29Z</time>
      </trkpt>
      <trkpt lat="49.12506" lon="0.74043">
        <ele>140</ele>
        <time>2014-08-24T08:56:30Z</time>
      </trkpt>
      <trkpt lat="49.12504" lon="0.74045">
        <ele>141</ele>
        <time>2014-08-24T08:56:31Z</time>
      </trkpt>
      <trkpt lat="49.12503" lon="0.74045">
        <ele>140</ele>
        <time>2014-08-24T08:56:32Z</time>
      </trkpt>
      <trkpt lat="49.12493" lon="0.74042">
        <ele>139</ele>
        <time>2014-08-24T08:56:35Z</time>
      </trkpt>
      <trkpt lat="49.12479" lon="0.7405">
        <ele>139</ele>
        <time>2014-08-24T08:56:41Z</time>
      </trkpt>
      <trkpt lat="49.12465" lon="0.74055">
        <ele>139</ele>
        <time>2014-08-24T08:56:46Z</time>
      </trkpt>
      <trkpt lat="49.12445" lon="0.74074">
        <ele>141</ele>
        <time>2014-08-24T08:56:54Z</time>
      </trkpt>
      <trkpt lat="49.12432" lon="0.74079">
        <ele>140</ele>
        <time>2014-08-24T08:56:56Z</time>
      </trkpt>
      <trkpt lat="49.12409" lon="0.74089">
        <ele>138</ele>
        <time>2014-08-24T08:57:00Z</time>
      </trkpt>
      <trkpt lat="49.12405" lon="0.74092">
        <ele>137</ele>
        <time>2014-08-24T08:57:01Z</time>
      </trkpt>
      <trkpt lat="49.12402" lon="0.74092">
        <ele>137</ele>
        <time>2014-08-24T08:57:02Z</time>
      </trkpt>
      <trkpt lat="49.12398" lon="0.7409">
        <ele>136</ele>
        <time>2014-08-24T08:57:03Z</time>
      </trkpt>
      <trkpt lat="49.12398" lon="0.7408">
        <ele>135</ele>
        <time>2014-08-24T08:57:04Z</time>
      </trkpt>
      <trkpt lat="49.12397" lon="0.74076">
        <ele>134</ele>
        <time>2014-08-24T08:57:05Z</time>
      </trkpt>
      <trkpt lat="49.12396" lon="0.74073">
        <ele>134</ele>
        <time>2014-08-24T08:57:06Z</time>
      </trkpt>
      <trkpt lat="49.12394" lon="0.7407">
        <ele>132</ele>
        <time>2014-08-24T08:57:07Z</time>
      </trkpt>
      <trkpt lat="49.12391" lon="0.74066">
        <ele>131</ele>
        <time>2014-08-24T08:57:08Z</time>
      </trkpt>
      <trkpt lat="49.12389" lon="0.74064">
        <ele>130</ele>
        <time>2014-08-24T08:57:09Z</time>
      </trkpt>
      <trkpt lat="49.12385" lon="0.74062">
        <ele>129</ele>
        <time>2014-08-24T08:57:10Z</time>
      </trkpt>
      <trkpt lat="49.12376" lon="0.74064">
        <ele>128</ele>
        <time>2014-08-24T08:57:11Z</time>
      </trkpt>
      <trkpt lat="49.1237" lon="0.74064">
        <ele>127</ele>
        <time>2014-08-24T08:57:12Z</time>
      </trkpt>
      <trkpt lat="49.12364" lon="0.74062">
        <ele>125</ele>
        <time>2014-08-24T08:57:13Z</time>
      </trkpt>
      <trkpt lat="49.12358" lon="0.7406">
        <ele>123</ele>
        <time>2014-08-24T08:57:14Z</time>
      </trkpt>
      <trkpt lat="49.12355" lon="0.74057">
        <ele>122</ele>
        <time>2014-08-24T08:57:15Z</time>
      </trkpt>
      <trkpt lat="49.12353" lon="0.74053">
        <ele>121</ele>
        <time>2014-08-24T08:57:16Z</time>
      </trkpt>
      <trkpt lat="49.12352" lon="0.74049">
        <ele>119</ele>
        <time>2014-08-24T08:57:17Z</time>
      </trkpt>
      <trkpt lat="49.12355" lon="0.74043">
        <ele>118</ele>
        <time>2014-08-24T08:57:18Z</time>
      </trkpt>
      <trkpt lat="49.12356" lon="0.74038">
        <ele>117</ele>
        <time>2014-08-24T08:57:19Z</time>
      </trkpt>
      <trkpt lat="49.12359" lon="0.74032">
        <ele>117</ele>
        <time>2014-08-24T08:57:20Z</time>
      </trkpt>
      <trkpt lat="49.12361" lon="0.74027">
        <ele>116</ele>
        <time>2014-08-24T08:57:21Z</time>
      </trkpt>
      <trkpt lat="49.12362" lon="0.74024">
        <ele>115</ele>
        <time>2014-08-24T08:57:22Z</time>
      </trkpt>
      <trkpt lat="49.12363" lon="0.7402">
        <ele>115</ele>
        <time>2014-08-24T08:57:23Z</time>
      </trkpt>
      <trkpt lat="49.12364" lon="0.74018">
        <ele>114</ele>
        <time>2014-08-24T08:57:24Z</time>
      </trkpt>
      <trkpt lat="49.12366" lon="0.74015">
        <ele>114</ele>
        <time>2014-08-24T08:57:25Z</time>
      </trkpt>
      <trkpt lat="49.12367" lon="0.74013">
        <ele>114</ele>
        <time>2014-08-24T08:57:26Z</time>
      </trkpt>
      <trkpt lat="49.12371" lon="0.74009">
        <ele>113</ele>
        <time>2014-08-24T08:57:27Z</time>
      </trkpt>
      <trkpt lat="49.12373" lon="0.74005">
        <ele>113</ele>
        <time>2014-08-24T08:57:28Z</time>
      </trkpt>
      <trkpt lat="49.12373" lon="0.74004">
        <ele>112</ele>
        <time>2014-08-24T08:57:29Z</time>
      </trkpt>
      <trkpt lat="49.12374" lon="0.74003">
        <ele>112</ele>
        <time>2014-08-24T08:57:30Z</time>
      </trkpt>
      <trkpt lat="49.12374" lon="0.74">
        <ele>111</ele>
        <time>2014-08-24T08:57:31Z</time>
      </trkpt>
      <trkpt lat="49.12374" lon="0.73997">
        <ele>110</ele>
        <time>2014-08-24T08:57:32Z</time>
      </trkpt>
      <trkpt lat="49.12375" lon="0.73992">
        <ele>109</ele>
        <time>2014-08-24T08:57:33Z</time>
      </trkpt>
      <trkpt lat="49.12377" lon="0.73987">
        <ele>108</ele>
        <time>2014-08-24T08:57:34Z</time>
      </trkpt>
      <trkpt lat="49.1238" lon="0.73982">
        <ele>107</ele>
        <time>2014-08-24T08:57:35Z</time>
      </trkpt>
      <trkpt lat="49.12383" lon="0.73978">
        <ele>106</ele>
        <time>2014-08-24T08:57:36Z</time>
      </trkpt>
      <trkpt lat="49.12384" lon="0.73972">
        <ele>105</ele>
        <time>2014-08-24T08:57:37Z</time>
      </trkpt>
      <trkpt lat="49.12385" lon="0.73968">
        <ele>104</ele>
        <time>2014-08-24T08:57:38Z</time>
      </trkpt>
      <trkpt lat="49.12386" lon="0.73967">
        <ele>104</ele>
        <time>2014-08-24T08:57:39Z</time>
      </trkpt>
      <trkpt lat="49.12386" lon="0.73965">
        <ele>103</ele>
        <time>2014-08-24T08:57:40Z</time>
      </trkpt>
      <trkpt lat="49.12386" lon="0.73962">
        <ele>102</ele>
        <time>2014-08-24T08:57:41Z</time>
      </trkpt>
      <trkpt lat="49.12384" lon="0.73959">
        <ele>101</ele>
        <time>2014-08-24T08:57:42Z</time>
      </trkpt>
      <trkpt lat="49.12383" lon="0.73956">
        <ele>100</ele>
        <time>2014-08-24T08:57:43Z</time>
      </trkpt>
      <trkpt lat="49.12381" lon="0.7395">
        <ele>98</ele>
        <time>2014-08-24T08:57:44Z</time>
      </trkpt>
      <trkpt lat="49.1238" lon="0.73946">
        <ele>97</ele>
        <time>2014-08-24T08:57:45Z</time>
      </trkpt>
      <trkpt lat="49.12379" lon="0.73939">
        <ele>95</ele>
        <time>2014-08-24T08:57:46Z</time>
      </trkpt>
      <trkpt lat="49.12378" lon="0.73933">
        <ele>94</ele>
        <time>2014-08-24T08:57:47Z</time>
      </trkpt>
      <trkpt lat="49.12378" lon="0.73928">
        <ele>93</ele>
        <time>2014-08-24T08:57:48Z</time>
      </trkpt>
      <trkpt lat="49.12379" lon="0.73923">
        <ele>92</ele>
        <time>2014-08-24T08:57:49Z</time>
      </trkpt>
      <trkpt lat="49.1238" lon="0.73918">
        <ele>91</ele>
        <time>2014-08-24T08:57:50Z</time>
      </trkpt>
      <trkpt lat="49.12383" lon="0.73914">
        <ele>90</ele>
        <time>2014-08-24T08:57:51Z</time>
      </trkpt>
      <trkpt lat="49.12386" lon="0.73911">
        <ele>90</ele>
        <time>2014-08-24T08:57:52Z</time>
      </trkpt>
      <trkpt lat="49.12389" lon="0.73909">
        <ele>90</ele>
        <time>2014-08-24T08:57:53Z</time>
      </trkpt>
      <trkpt lat="49.12393" lon="0.73906">
        <ele>90</ele>
        <time>2014-08-24T08:57:54Z</time>
      </trkpt>
      <trkpt lat="49.12397" lon="0.73905">
        <ele>90</ele>
        <time>2014-08-24T08:57:55Z</time>
      </trkpt>
      <trkpt lat="49.12407" lon="0.73904">
        <ele>91</ele>
        <time>2014-08-24T08:57:58Z</time>
      </trkpt>
      <trkpt lat="49.1241" lon="0.73904">
        <ele>91</ele>
        <time>2014-08-24T08:57:59Z</time>
      </trkpt>
      <trkpt lat="49.12421" lon="0.73901">
        <ele>92</ele>
        <time>2014-08-24T08:58:05Z</time>
      </trkpt>
      <trkpt lat="49.12425" lon="0.73903">
        <ele>92</ele>
        <time>2014-08-24T08:58:06Z</time>
      </trkpt>
      <trkpt lat="49.12431" lon="0.739">
        <ele>92</ele>
        <time>2014-08-24T08:58:08Z</time>
      </trkpt>
      <trkpt lat="49.12438" lon="0.73895">
        <ele>92</ele>
        <time>2014-08-24T08:58:10Z</time>
      </trkpt>
      <trkpt lat="49.12452" lon="0.73889">
        <ele>91</ele>
        <time>2014-08-24T08:58:14Z</time>
      </trkpt>
      <trkpt lat="49.12473" lon="0.7388">
        <ele>92</ele>
        <time>2014-08-24T08:58:20Z</time>
      </trkpt>
      <trkpt lat="49.12484" lon="0.73869">
        <ele>91</ele>
        <time>2014-08-24T08:58:23Z</time>
      </trkpt>
      <trkpt lat="49.12493" lon="0.73861">
        <ele>90</ele>
        <time>2014-08-24T08:58:26Z</time>
      </trkpt>
      <trkpt lat="49.12496" lon="0.73856">
        <ele>90</ele>
        <time>2014-08-24T08:58:27Z</time>
      </trkpt>
      <trkpt lat="49.12499" lon="0.73853">
        <ele>89</ele>
        <time>2014-08-24T08:58:28Z</time>
      </trkpt>
      <trkpt lat="49.12502" lon="0.7385">
        <ele>89</ele>
        <time>2014-08-24T08:58:29Z</time>
      </trkpt>
      <trkpt lat="49.12506" lon="0.73847">
        <ele>89</ele>
        <time>2014-08-24T08:58:30Z</time>
      </trkpt>
      <trkpt lat="49.12525" lon="0.73837">
        <ele>89</ele>
        <time>2014-08-24T08:58:35Z</time>
      </trkpt>
      <trkpt lat="49.12535" lon="0.73835">
        <ele>89</ele>
        <time>2014-08-24T08:58:39Z</time>
      </trkpt>
      <trkpt lat="49.12547" lon="0.73829">
        <ele>89</ele>
        <time>2014-08-24T08:58:46Z</time>
      </trkpt>
      <trkpt lat="49.12552" lon="0.73828">
        <ele>89</ele>
        <time>2014-08-24T08:58:49Z</time>
      </trkpt>
      <trkpt lat="49.12554" lon="0.73829">
        <ele>90</ele>
        <time>2014-08-24T08:58:50Z</time>
      </trkpt>
      <trkpt lat="49.12555" lon="0.73828">
        <ele>90</ele>
        <time>2014-08-24T08:58:51Z</time>
      </trkpt>
      <trkpt lat="49.12557" lon="0.73827">
        <ele>90</ele>
        <time>2014-08-24T08:58:52Z</time>
      </trkpt>
      <trkpt lat="49.12559" lon="0.73826">
        <ele>90</ele>
        <time>2014-08-24T08:58:53Z</time>
      </trkpt>
      <trkpt lat="49.12576" lon="0.73812">
        <ele>88</ele>
        <time>2014-08-24T08:58:58Z</time>
      </trkpt>
      <trkpt lat="49.12592" lon="0.73797">
        <ele>86</ele>
        <time>2014-08-24T08:59:01Z</time>
      </trkpt>
      <trkpt lat="49.12597" lon="0.73791">
        <ele>85</ele>
        <time>2014-08-24T08:59:02Z</time>
      </trkpt>
      <trkpt lat="49.12602" lon="0.73785">
        <ele>85</ele>
        <time>2014-08-24T08:59:03Z</time>
      </trkpt>
      <trkpt lat="49.12606" lon="0.7378">
        <ele>84</ele>
        <time>2014-08-24T08:59:04Z</time>
      </trkpt>
      <trkpt lat="49.1261" lon="0.73776">
        <ele>84</ele>
        <time>2014-08-24T08:59:05Z</time>
      </trkpt>
      <trkpt lat="49.12615" lon="0.73773">
        <ele>84</ele>
        <time>2014-08-24T08:59:06Z</time>
      </trkpt>
      <trkpt lat="49.12621" lon="0.7377">
        <ele>84</ele>
        <time>2014-08-24T08:59:07Z</time>
      </trkpt>
      <trkpt lat="49.12626" lon="0.73768">
        <ele>84</ele>
        <time>2014-08-24T08:59:08Z</time>
      </trkpt>
      <trkpt lat="49.12629" lon="0.73765">
        <ele>84</ele>
        <time>2014-08-24T08:59:09Z</time>
      </trkpt>
      <trkpt lat="49.12633" lon="0.73764">
        <ele>83</ele>
        <time>2014-08-24T08:59:10Z</time>
      </trkpt>
      <trkpt lat="49.12638" lon="0.73762">
        <ele>84</ele>
        <time>2014-08-24T08:59:11Z</time>
      </trkpt>
      <trkpt lat="49.12644" lon="0.73759">
        <ele>84</ele>
        <time>2014-08-24T08:59:12Z</time>
      </trkpt>
      <trkpt lat="49.12662" lon="0.73751">
        <ele>84</ele>
        <time>2014-08-24T08:59:16Z</time>
      </trkpt>
      <trkpt lat="49.12667" lon="0.73746">
        <ele>83</ele>
        <time>2014-08-24T08:59:17Z</time>
      </trkpt>
      <trkpt lat="49.12681" lon="0.73735">
        <ele>82</ele>
        <time>2014-08-24T08:59:20Z</time>
      </trkpt>
      <trkpt lat="49.1269" lon="0.73735">
        <ele>83</ele>
        <time>2014-08-24T08:59:23Z</time>
      </trkpt>
      <trkpt lat="49.12697" lon="0.73736">
        <ele>84</ele>
        <time>2014-08-24T08:59:28Z</time>
      </trkpt>
      <trkpt lat="49.12699" lon="0.73734">
        <ele>84</ele>
        <time>2014-08-24T08:59:29Z</time>
      </trkpt>
      <trkpt lat="49.12701" lon="0.73733">
        <ele>84</ele>
        <time>2014-08-24T08:59:30Z</time>
      </trkpt>
      <trkpt lat="49.12704" lon="0.73732">
        <ele>84</ele>
        <time>2014-08-24T08:59:31Z</time>
      </trkpt>
      <trkpt lat="49.12708" lon="0.73729">
        <ele>84</ele>
        <time>2014-08-24T08:59:32Z</time>
      </trkpt>
      <trkpt lat="49.12711" lon="0.73727">
        <ele>84</ele>
        <time>2014-08-24T08:59:33Z</time>
      </trkpt>
      <trkpt lat="49.1273" lon="0.73717">
        <ele>84</ele>
        <time>2014-08-24T08:59:39Z</time>
      </trkpt>
      <trkpt lat="49.1274" lon="0.73719">
        <ele>85</ele>
        <time>2014-08-24T08:59:43Z</time>
      </trkpt>
      <trkpt lat="49.12744" lon="0.73723">
        <ele>86</ele>
        <time>2014-08-24T08:59:46Z</time>
      </trkpt>
      <trkpt lat="49.12746" lon="0.73723">
        <ele>86</ele>
        <time>2014-08-24T08:59:47Z</time>
      </trkpt>
      <trkpt lat="49.12747" lon="0.73723">
        <ele>86</ele>
        <time>2014-08-24T08:59:48Z</time>
      </trkpt>
      <trkpt lat="49.12748" lon="0.73724">
        <ele>86</ele>
        <time>2014-08-24T08:59:49Z</time>
      </trkpt>
      <trkpt lat="49.12749" lon="0.73724">
        <ele>86</ele>
        <time>2014-08-24T08:59:50Z</time>
      </trkpt>
      <trkpt lat="49.12752" lon="0.73725">
        <ele>87</ele>
        <time>2014-08-24T08:59:52Z</time>
      </trkpt>
      <trkpt lat="49.12754" lon="0.73722">
        <ele>86</ele>
        <time>2014-08-24T08:59:53Z</time>
      </trkpt>
      <trkpt lat="49.12756" lon="0.73721">
        <ele>86</ele>
        <time>2014-08-24T08:59:54Z</time>
      </trkpt>
      <trkpt lat="49.12759" lon="0.7372">
        <ele>86</ele>
        <time>2014-08-24T08:59:55Z</time>
      </trkpt>
      <trkpt lat="49.12761" lon="0.73719">
        <ele>86</ele>
        <time>2014-08-24T08:59:56Z</time>
      </trkpt>
      <trkpt lat="49.12766" lon="0.73711">
        <ele>85</ele>
        <time>2014-08-24T08:59:58Z</time>
      </trkpt>
      <trkpt lat="49.12768" lon="0.73706">
        <ele>85</ele>
        <time>2014-08-24T08:59:59Z</time>
      </trkpt>
      <trkpt lat="49.12771" lon="0.73702">
        <ele>84</ele>
        <time>2014-08-24T09:00:00Z</time>
      </trkpt>
      <trkpt lat="49.12774" lon="0.73697">
        <ele>84</ele>
        <time>2014-08-24T09:00:01Z</time>
      </trkpt>
      <trkpt lat="49.12778" lon="0.73697">
        <ele>84</ele>
        <time>2014-08-24T09:00:02Z</time>
      </trkpt>
      <trkpt lat="49.12782" lon="0.73696">
        <ele>84</ele>
        <time>2014-08-24T09:00:03Z</time>
      </trkpt>
      <trkpt lat="49.12785" lon="0.73697">
        <ele>84</ele>
        <time>2014-08-24T09:00:04Z</time>
      </trkpt>
      <trkpt lat="49.12787" lon="0.73699">
        <ele>85</ele>
        <time>2014-08-24T09:00:05Z</time>
      </trkpt>
      <trkpt lat="49.12792" lon="0.737">
        <ele>85</ele>
        <time>2014-08-24T09:00:08Z</time>
      </trkpt>
      <trkpt lat="49.12795" lon="0.73699">
        <ele>85</ele>
        <time>2014-08-24T09:00:09Z</time>
      </trkpt>
      <trkpt lat="49.12799" lon="0.73698">
        <ele>85</ele>
        <time>2014-08-24T09:00:10Z</time>
      </trkpt>
      <trkpt lat="49.12802" lon="0.73697">
        <ele>86</ele>
        <time>2014-08-24T09:00:11Z</time>
      </trkpt>
      <trkpt lat="49.12805" lon="0.73697">
        <ele>86</ele>
        <time>2014-08-24T09:00:12Z</time>
      </trkpt>
      <trkpt lat="49.12812" lon="0.73697">
        <ele>86</ele>
        <time>2014-08-24T09:00:15Z</time>
      </trkpt>
      <trkpt lat="49.12819" lon="0.73699">
        <ele>87</ele>
        <time>2014-08-24T09:00:19Z</time>
      </trkpt>
      <trkpt lat="49.12821" lon="0.737">
        <ele>87</ele>
        <time>2014-08-24T09:00:20Z</time>
      </trkpt>
      <trkpt lat="49.12822" lon="0.737">
        <ele>87</ele>
        <time>2014-08-24T09:00:21Z</time>
      </trkpt>
      <trkpt lat="49.12824" lon="0.73701">
        <ele>87</ele>
        <time>2014-08-24T09:00:22Z</time>
      </trkpt>
      <trkpt lat="49.12826" lon="0.73701">
        <ele>88</ele>
        <time>2014-08-24T09:00:23Z</time>
      </trkpt>
      <trkpt lat="49.12835" lon="0.73704">
        <ele>88</ele>
        <time>2014-08-24T09:00:29Z</time>
      </trkpt>
      <trkpt lat="49.12837" lon="0.73705">
        <ele>89</ele>
        <time>2014-08-24T09:00:30Z</time>
      </trkpt>
      <trkpt lat="49.12838" lon="0.73705">
        <ele>89</ele>
        <time>2014-08-24T09:00:31Z</time>
      </trkpt>
      <trkpt lat="49.1284" lon="0.73705">
        <ele>89</ele>
        <time>2014-08-24T09:00:32Z</time>
      </trkpt>
      <trkpt lat="49.12842" lon="0.73706">
        <ele>89</ele>
        <time>2014-08-24T09:00:33Z</time>
      </trkpt>
      <trkpt lat="49.12854" lon="0.73709">
        <ele>90</ele>
        <time>2014-08-24T09:00:40Z</time>
      </trkpt>
      <trkpt lat="49.12855" lon="0.73709">
        <ele>90</ele>
        <time>2014-08-24T09:00:41Z</time>
      </trkpt>
      <trkpt lat="49.12857" lon="0.73709">
        <ele>91</ele>
        <time>2014-08-24T09:00:42Z</time>
      </trkpt>
      <trkpt lat="49.12859" lon="0.7371">
        <ele>91</ele>
        <time>2014-08-24T09:00:43Z</time>
      </trkpt>
      <trkpt lat="49.1286" lon="0.7371">
        <ele>91</ele>
        <time>2014-08-24T09:00:44Z</time>
      </trkpt>
      <trkpt lat="49.12862" lon="0.73709">
        <ele>91</ele>
        <time>2014-08-24T09:00:45Z</time>
      </trkpt>
      <trkpt lat="49.12865" lon="0.73709">
        <ele>91</ele>
        <time>2014-08-24T09:00:47Z</time>
      </trkpt>
      <trkpt lat="49.12868" lon="0.73709">
        <ele>91</ele>
        <time>2014-08-24T09:00:49Z</time>
      </trkpt>
      <trkpt lat="49.12869" lon="0.73709">
        <ele>92</ele>
        <time>2014-08-24T09:00:50Z</time>
      </trkpt>
      <trkpt lat="49.1287" lon="0.73709">
        <ele>92</ele>
        <time>2014-08-24T09:00:51Z</time>
      </trkpt>
      <trkpt lat="49.12872" lon="0.73709">
        <ele>92</ele>
        <time>2014-08-24T09:00:52Z</time>
      </trkpt>
      <trkpt lat="49.12873" lon="0.73709">
        <ele>92</ele>
        <time>2014-08-24T09:00:53Z</time>
      </trkpt>
      <trkpt lat="49.12878" lon="0.7371">
        <ele>92</ele>
        <time>2014-08-24T09:00:56Z</time>
      </trkpt>
      <trkpt lat="49.12883" lon="0.7371">
        <ele>93</ele>
        <time>2014-08-24T09:01:00Z</time>
      </trkpt>
      <trkpt lat="49.12885" lon="0.73711">
        <ele>93</ele>
        <time>2014-08-24T09:01:01Z</time>
      </trkpt>
      <trkpt lat="49.12887" lon="0.73711">
        <ele>94</ele>
        <time>2014-08-24T09:01:02Z</time>
      </trkpt>
      <trkpt lat="49.12889" lon="0.73711">
        <ele>94</ele>
        <time>2014-08-24T09:01:03Z</time>
      </trkpt>
      <trkpt lat="49.12892" lon="0.73711">
        <ele>94</ele>
        <time>2014-08-24T09:01:04Z</time>
      </trkpt>
      <trkpt lat="49.12903" lon="0.73712">
        <ele>95</ele>
        <time>2014-08-24T09:01:11Z</time>
      </trkpt>
      <trkpt lat="49.12904" lon="0.73712">
        <ele>95</ele>
        <time>2014-08-24T09:01:12Z</time>
      </trkpt>
      <trkpt lat="49.12906" lon="0.73712">
        <ele>95</ele>
        <time>2014-08-24T09:01:13Z</time>
      </trkpt>
      <trkpt lat="49.12908" lon="0.73711">
        <ele>95</ele>
        <time>2014-08-24T09:01:14Z</time>
      </trkpt>
      <trkpt lat="49.12909" lon="0.7371">
        <ele>95</ele>
        <time>2014-08-24T09:01:15Z</time>
      </trkpt>
      <trkpt lat="49.12917" lon="0.73708">
        <ele>95</ele>
        <time>2014-08-24T09:01:18Z</time>
      </trkpt>
      <trkpt lat="49.12936" lon="0.73704">
        <ele>96</ele>
        <time>2014-08-24T09:01:25Z</time>
      </trkpt>
      <trkpt lat="49.12947" lon="0.73705">
        <ele>97</ele>
        <time>2014-08-24T09:01:30Z</time>
      </trkpt>
      <trkpt lat="49.12948" lon="0.73705">
        <ele>97</ele>
        <time>2014-08-24T09:01:31Z</time>
      </trkpt>
      <trkpt lat="49.1295" lon="0.73706">
        <ele>97</ele>
        <time>2014-08-24T09:01:32Z</time>
      </trkpt>
      <trkpt lat="49.12952" lon="0.73707">
        <ele>97</ele>
        <time>2014-08-24T09:01:33Z</time>
      </trkpt>
      <trkpt lat="49.12953" lon="0.73707">
        <ele>98</ele>
        <time>2014-08-24T09:01:34Z</time>
      </trkpt>
      <trkpt lat="49.12957" lon="0.73707">
        <ele>98</ele>
        <time>2014-08-24T09:01:36Z</time>
      </trkpt>
      <trkpt lat="49.12964" lon="0.7371">
        <ele>98</ele>
        <time>2014-08-24T09:01:41Z</time>
      </trkpt>
      <trkpt lat="49.12966" lon="0.7371">
        <ele>98</ele>
        <time>2014-08-24T09:01:42Z</time>
      </trkpt>
      <trkpt lat="49.12969" lon="0.73711">
        <ele>99</ele>
        <time>2014-08-24T09:01:44Z</time>
      </trkpt>
      <trkpt lat="49.1297" lon="0.73712">
        <ele>99</ele>
        <time>2014-08-24T09:01:45Z</time>
      </trkpt>
      <trkpt lat="49.12971" lon="0.73712">
        <ele>99</ele>
        <time>2014-08-24T09:01:46Z</time>
      </trkpt>
      <trkpt lat="49.12979" lon="0.73718">
        <ele>101</ele>
        <time>2014-08-24T09:01:52Z</time>
      </trkpt>
      <trkpt lat="49.12981" lon="0.73719">
        <ele>101</ele>
        <time>2014-08-24T09:01:53Z</time>
      </trkpt>
      <trkpt lat="49.12981" lon="0.7372">
        <ele>101</ele>
        <time>2014-08-24T09:01:54Z</time>
      </trkpt>
      <trkpt lat="49.12982" lon="0.73721">
        <ele>102</ele>
        <time>2014-08-24T09:01:55Z</time>
      </trkpt>
      <trkpt lat="49.12983" lon="0.73722">
        <ele>102</ele>
        <time>2014-08-24T09:01:56Z</time>
      </trkpt>
      <trkpt lat="49.12986" lon="0.73721">
        <ele>102</ele>
        <time>2014-08-24T09:01:58Z</time>
      </trkpt>
      <trkpt lat="49.12991" lon="0.73717">
        <ele>101</ele>
        <time>2014-08-24T09:02:00Z</time>
      </trkpt>
      <trkpt lat="49.13005" lon="0.73707">
        <ele>98</ele>
        <time>2014-08-24T09:02:06Z</time>
      </trkpt>
      <trkpt lat="49.13011" lon="0.73701">
        <ele>96</ele>
        <time>2014-08-24T09:02:09Z</time>
      </trkpt>
      <trkpt lat="49.13013" lon="0.73699">
        <ele>96</ele>
        <time>2014-08-24T09:02:10Z</time>
      </trkpt>
      <trkpt lat="49.13015" lon="0.73697">
        <ele>95</ele>
        <time>2014-08-24T09:02:11Z</time>
      </trkpt>
      <trkpt lat="49.13018" lon="0.73694">
        <ele>94</ele>
        <time>2014-08-24T09:02:12Z</time>
      </trkpt>
      <trkpt lat="49.13021" lon="0.73692">
        <ele>94</ele>
        <time>2014-08-24T09:02:13Z</time>
      </trkpt>
      <trkpt lat="49.13023" lon="0.73688">
        <ele>93</ele>
        <time>2014-08-24T09:02:14Z</time>
      </trkpt>
      <trkpt lat="49.13024" lon="0.73685">
        <ele>92</ele>
        <time>2014-08-24T09:02:15Z</time>
      </trkpt>
      <trkpt lat="49.13025" lon="0.73683">
        <ele>92</ele>
        <time>2014-08-24T09:02:16Z</time>
      </trkpt>
      <trkpt lat="49.13026" lon="0.73682">
        <ele>92</ele>
        <time>2014-08-24T09:02:17Z</time>
      </trkpt>
      <trkpt lat="49.13028" lon="0.73681">
        <ele>91</ele>
        <time>2014-08-24T09:02:18Z</time>
      </trkpt>
      <trkpt lat="49.1303" lon="0.7368">
        <ele>91</ele>
        <time>2014-08-24T09:02:19Z</time>
      </trkpt>
      <trkpt lat="49.13033" lon="0.73679">
        <ele>91</ele>
        <time>2014-08-24T09:02:20Z</time>
      </trkpt>
      <trkpt lat="49.13035" lon="0.73679">
        <ele>91</ele>
        <time>2014-08-24T09:02:21Z</time>
      </trkpt>
      <trkpt lat="49.13036" lon="0.73679">
        <ele>91</ele>
        <time>2014-08-24T09:02:22Z</time>
      </trkpt>
      <trkpt lat="49.13038" lon="0.73679">
        <ele>91</ele>
        <time>2014-08-24T09:02:24Z</time>
      </trkpt>
      <trkpt lat="49.13041" lon="0.73679">
        <ele>90</ele>
        <time>2014-08-24T09:02:26Z</time>
      </trkpt>
      <trkpt lat="49.13047" lon="0.7368">
        <ele>90</ele>
        <time>2014-08-24T09:02:30Z</time>
      </trkpt>
      <trkpt lat="49.13057" lon="0.7368">
        <ele>88</ele>
        <time>2014-08-24T09:02:36Z</time>
      </trkpt>
      <trkpt lat="49.13058" lon="0.73677">
        <ele>88</ele>
        <time>2014-08-24T09:02:39Z</time>
      </trkpt>
      <trkpt lat="49.1307" lon="0.73685">
        <ele>88</ele>
        <time>2014-08-24T09:02:54Z</time>
      </trkpt>
      <trkpt lat="49.13069" lon="0.73687">
        <ele>88</ele>
        <time>2014-08-24T09:02:55Z</time>
      </trkpt>
      <trkpt lat="49.13072" lon="0.7369">
        <ele>88</ele>
        <time>2014-08-24T09:02:58Z</time>
      </trkpt>
      <trkpt lat="49.13076" lon="0.73695">
        <ele>88</ele>
        <time>2014-08-24T09:03:03Z</time>
      </trkpt>
      <trkpt lat="49.13076" lon="0.73705">
        <ele>89</ele>
        <time>2014-08-24T09:03:09Z</time>
      </trkpt>
      <trkpt lat="49.13076" lon="0.7371">
        <ele>90</ele>
        <time>2014-08-24T09:03:11Z</time>
      </trkpt>
      <trkpt lat="49.13075" lon="0.73712">
        <ele>90</ele>
        <time>2014-08-24T09:03:12Z</time>
      </trkpt>
      <trkpt lat="49.13074" lon="0.73712">
        <ele>90</ele>
        <time>2014-08-24T09:03:13Z</time>
      </trkpt>
      <trkpt lat="49.13074" lon="0.73713">
        <ele>91</ele>
        <time>2014-08-24T09:03:14Z</time>
      </trkpt>
      <trkpt lat="49.13073" lon="0.73714">
        <ele>91</ele>
        <time>2014-08-24T09:03:15Z</time>
      </trkpt>
      <trkpt lat="49.13071" lon="0.73715">
        <ele>91</ele>
        <time>2014-08-24T09:03:17Z</time>
      </trkpt>
      <trkpt lat="49.1307" lon="0.73716">
        <ele>92</ele>
        <time>2014-08-24T09:03:18Z</time>
      </trkpt>
      <trkpt lat="49.13069" lon="0.73717">
        <ele>92</ele>
        <time>2014-08-24T09:03:19Z</time>
      </trkpt>
      <trkpt lat="49.13068" lon="0.73718">
        <ele>92</ele>
        <time>2014-08-24T09:03:20Z</time>
      </trkpt>
      <trkpt lat="49.13068" lon="0.73718">
        <ele>92</ele>
        <time>2014-08-24T09:03:21Z</time>
      </trkpt>
      <trkpt lat="49.13068" lon="0.73718">
        <ele>92</ele>
        <time>2014-08-24T09:03:22Z</time>
      </trkpt>
      <trkpt lat="49.13049" lon="0.73732">
        <ele>97</ele>
        <time>2014-08-24T09:03:45Z</time>
      </trkpt>
      <trkpt lat="49.13047" lon="0.73732">
        <ele>98</ele>
        <time>2014-08-24T09:03:46Z</time>
      </trkpt>
      <trkpt lat="49.13034" lon="0.73731">
        <ele>100</ele>
        <time>2014-08-24T09:03:52Z</time>
      </trkpt>
      <trkpt lat="49.13027" lon="0.73736">
        <ele>101</ele>
        <time>2014-08-24T09:03:56Z</time>
      </trkpt>
      <trkpt lat="49.13026" lon="0.73737">
        <ele>102</ele>
        <time>2014-08-24T09:03:57Z</time>
      </trkpt>
      <trkpt lat="49.13025" lon="0.73739">
        <ele>102</ele>
        <time>2014-08-24T09:03:58Z</time>
      </trkpt>
      <trkpt lat="49.13023" lon="0.73742">
        <ele>103</ele>
        <time>2014-08-24T09:03:59Z</time>
      </trkpt>
      <trkpt lat="49.13023" lon="0.73745">
        <ele>103</ele>
        <time>2014-08-24T09:04:00Z</time>
      </trkpt>
      <trkpt lat="49.13022" lon="0.73747">
        <ele>104</ele>
        <time>2014-08-24T09:04:01Z</time>
      </trkpt>
      <trkpt lat="49.13024" lon="0.73754">
        <ele>104</ele>
        <time>2014-08-24T09:04:04Z</time>
      </trkpt>
      <trkpt lat="49.13028" lon="0.73758">
        <ele>104</ele>
        <time>2014-08-24T09:04:06Z</time>
      </trkpt>
      <trkpt lat="49.13032" lon="0.73762">
        <ele>104</ele>
        <time>2014-08-24T09:04:08Z</time>
      </trkpt>
      <trkpt lat="49.13035" lon="0.73764">
        <ele>104</ele>
        <time>2014-08-24T09:04:09Z</time>
      </trkpt>
      <trkpt lat="49.13038" lon="0.73765">
        <ele>104</ele>
        <time>2014-08-24T09:04:10Z</time>
      </trkpt>
      <trkpt lat="49.1304" lon="0.73766">
        <ele>104</ele>
        <time>2014-08-24T09:04:11Z</time>
      </trkpt>
      <trkpt lat="49.13042" lon="0.73766">
        <ele>103</ele>
        <time>2014-08-24T09:04:12Z</time>
      </trkpt>
      <trkpt lat="49.1305" lon="0.73774">
        <ele>102</ele>
        <time>2014-08-24T09:04:16Z</time>
      </trkpt>
      <trkpt lat="49.13051" lon="0.73776">
        <ele>102</ele>
        <time>2014-08-24T09:04:17Z</time>
      </trkpt>
      <trkpt lat="49.13052" lon="0.73777">
        <ele>102</ele>
        <time>2014-08-24T09:04:18Z</time>
      </trkpt>
      <trkpt lat="49.13053" lon="0.73779">
        <ele>102</ele>
        <time>2014-08-24T09:04:19Z</time>
      </trkpt>
      <trkpt lat="49.13054" lon="0.73781">
        <ele>102</ele>
        <time>2014-08-24T09:04:20Z</time>
      </trkpt>
      <trkpt lat="49.13055" lon="0.73783">
        <ele>102</ele>
        <time>2014-08-24T09:04:21Z</time>
      </trkpt>
      <trkpt lat="49.13057" lon="0.73783">
        <ele>102</ele>
        <time>2014-08-24T09:04:22Z</time>
      </trkpt>
      <trkpt lat="49.13061" lon="0.73781">
        <ele>101</ele>
        <time>2014-08-24T09:04:23Z</time>
      </trkpt>
      <trkpt lat="49.13065" lon="0.73776">
        <ele>99</ele>
        <time>2014-08-24T09:04:24Z</time>
      </trkpt>
      <trkpt lat="49.13069" lon="0.73767">
        <ele>97</ele>
        <time>2014-08-24T09:04:25Z</time>
      </trkpt>
      <trkpt lat="49.13073" lon="0.73759">
        <ele>95</ele>
        <time>2014-08-24T09:04:26Z</time>
      </trkpt>
      <trkpt lat="49.13075" lon="0.73753">
        <ele>94</ele>
        <time>2014-08-24T09:04:27Z</time>
      </trkpt>
      <trkpt lat="49.13075" lon="0.73745">
        <ele>93</ele>
        <time>2014-08-24T09:04:28Z</time>
      </trkpt>
      <trkpt lat="49.13078" lon="0.7374">
        <ele>92</ele>
        <time>2014-08-24T09:04:29Z</time>
      </trkpt>
      <trkpt lat="49.13085" lon="0.73732">
        <ele>91</ele>
        <time>2014-08-24T09:04:30Z</time>
      </trkpt>
      <trkpt lat="49.1309" lon="0.73724">
        <ele>90</ele>
        <time>2014-08-24T09:04:31Z</time>
      </trkpt>
      <trkpt lat="49.13095" lon="0.73716">
        <ele>89</ele>
        <time>2014-08-24T09:04:32Z</time>
      </trkpt>
      <trkpt lat="49.13099" lon="0.73708">
        <ele>88</ele>
        <time>2014-08-24T09:04:33Z</time>
      </trkpt>
      <trkpt lat="49.13101" lon="0.73703">
        <ele>87</ele>
        <time>2014-08-24T09:04:34Z</time>
      </trkpt>
      <trkpt lat="49.13102" lon="0.73699">
        <ele>87</ele>
        <time>2014-08-24T09:04:35Z</time>
      </trkpt>
      <trkpt lat="49.13104" lon="0.73696">
        <ele>87</ele>
        <time>2014-08-24T09:04:36Z</time>
      </trkpt>
      <trkpt lat="49.13104" lon="0.73693">
        <ele>86</ele>
        <time>2014-08-24T09:04:37Z</time>
      </trkpt>
      <trkpt lat="49.13103" lon="0.73688">
        <ele>86</ele>
        <time>2014-08-24T09:04:38Z</time>
      </trkpt>
      <trkpt lat="49.13101" lon="0.73683">
        <ele>85</ele>
        <time>2014-08-24T09:04:39Z</time>
      </trkpt>
      <trkpt lat="49.13098" lon="0.73678">
        <ele>85</ele>
        <time>2014-08-24T09:04:40Z</time>
      </trkpt>
      <trkpt lat="49.13098" lon="0.73672">
        <ele>84</ele>
        <time>2014-08-24T09:04:41Z</time>
      </trkpt>
      <trkpt lat="49.1311" lon="0.7365">
        <ele>81</ele>
        <time>2014-08-24T09:04:45Z</time>
      </trkpt>
      <trkpt lat="49.13116" lon="0.73647">
        <ele>81</ele>
        <time>2014-08-24T09:04:46Z</time>
      </trkpt>
      <trkpt lat="49.13122" lon="0.73645">
        <ele>80</ele>
        <time>2014-08-24T09:04:47Z</time>
      </trkpt>
      <trkpt lat="49.13129" lon="0.73643">
        <ele>80</ele>
        <time>2014-08-24T09:04:48Z</time>
      </trkpt>
      <trkpt lat="49.13136" lon="0.7364">
        <ele>80</ele>
        <time>2014-08-24T09:04:49Z</time>
      </trkpt>
      <trkpt lat="49.13143" lon="0.73639">
        <ele>80</ele>
        <time>2014-08-24T09:04:50Z</time>
      </trkpt>
      <trkpt lat="49.13146" lon="0.73631">
        <ele>80</ele>
        <time>2014-08-24T09:04:51Z</time>
      </trkpt>
      <trkpt lat="49.13148" lon="0.73618">
        <ele>78</ele>
        <time>2014-08-24T09:04:52Z</time>
      </trkpt>
      <trkpt lat="49.13149" lon="0.73604">
        <ele>77</ele>
        <time>2014-08-24T09:04:53Z</time>
      </trkpt>
      <trkpt lat="49.13149" lon="0.7359">
        <ele>76</ele>
        <time>2014-08-24T09:04:54Z</time>
      </trkpt>
      <trkpt lat="49.13149" lon="0.73576">
        <ele>74</ele>
        <time>2014-08-24T09:04:55Z</time>
      </trkpt>
      <trkpt lat="49.13149" lon="0.73561">
        <ele>73</ele>
        <time>2014-08-24T09:04:56Z</time>
      </trkpt>
      <trkpt lat="49.13149" lon="0.73546">
        <ele>73</ele>
        <time>2014-08-24T09:04:57Z</time>
      </trkpt>
      <trkpt lat="49.13149" lon="0.73531">
        <ele>72</ele>
        <time>2014-08-24T09:04:58Z</time>
      </trkpt>
      <trkpt lat="49.13148" lon="0.73515">
        <ele>71</ele>
        <time>2014-08-24T09:04:59Z</time>
      </trkpt>
      <trkpt lat="49.13146" lon="0.735">
        <ele>70</ele>
        <time>2014-08-24T09:05:00Z</time>
      </trkpt>
      <trkpt lat="49.13144" lon="0.73483">
        <ele>70</ele>
        <time>2014-08-24T09:05:01Z</time>
      </trkpt>
      <trkpt lat="49.13141" lon="0.73467">
        <ele>69</ele>
        <time>2014-08-24T09:05:02Z</time>
      </trkpt>
      <trkpt lat="49.13137" lon="0.73454">
        <ele>69</ele>
        <time>2014-08-24T09:05:03Z</time>
      </trkpt>
      <trkpt lat="49.13134" lon="0.73445">
        <ele>68</ele>
        <time>2014-08-24T09:05:04Z</time>
      </trkpt>
      <trkpt lat="49.13132" lon="0.73439">
        <ele>68</ele>
        <time>2014-08-24T09:05:05Z</time>
      </trkpt>
      <trkpt lat="49.13131" lon="0.73435">
        <ele>68</ele>
        <time>2014-08-24T09:05:06Z</time>
      </trkpt>
      <trkpt lat="49.13129" lon="0.73432">
        <ele>68</ele>
        <time>2014-08-24T09:05:07Z</time>
      </trkpt>
      <trkpt lat="49.13127" lon="0.73428">
        <ele>68</ele>
        <time>2014-08-24T09:05:08Z</time>
      </trkpt>
      <trkpt lat="49.13125" lon="0.73424">
        <ele>68</ele>
        <time>2014-08-24T09:05:09Z</time>
      </trkpt>
      <trkpt lat="49.13123" lon="0.73419">
        <ele>68</ele>
        <time>2014-08-24T09:05:10Z</time>
      </trkpt>
      <trkpt lat="49.13122" lon="0.73413">
        <ele>68</ele>
        <time>2014-08-24T09:05:11Z</time>
      </trkpt>
      <trkpt lat="49.13119" lon="0.73399">
        <ele>67</ele>
        <time>2014-08-24T09:05:13Z</time>
      </trkpt>
      <trkpt lat="49.1311" lon="0.73348">
        <ele>67</ele>
        <time>2014-08-24T09:05:20Z</time>
      </trkpt>
      <trkpt lat="49.13108" lon="0.73336">
        <ele>67</ele>
        <time>2014-08-24T09:05:23Z</time>
      </trkpt>
      <trkpt lat="49.13108" lon="0.73332">
        <ele>66</ele>
        <time>2014-08-24T09:05:24Z</time>
      </trkpt>
      <trkpt lat="49.13104" lon="0.73329">
        <ele>66</ele>
        <time>2014-08-24T09:05:26Z</time>
      </trkpt>
      <trkpt lat="49.13097" lon="0.73331">
        <ele>66</ele>
        <time>2014-08-24T09:05:28Z</time>
      </trkpt>
      <trkpt lat="49.13068" lon="0.73337">
        <ele>67</ele>
        <time>2014-08-24T09:05:34Z</time>
      </trkpt>
      <trkpt lat="49.1304" lon="0.73342">
        <ele>67</ele>
        <time>2014-08-24T09:05:39Z</time>
      </trkpt>
      <trkpt lat="49.13029" lon="0.73344">
        <ele>67</ele>
        <time>2014-08-24T09:05:41Z</time>
      </trkpt>
      <trkpt lat="49.12985" lon="0.73353">
        <ele>67</ele>
        <time>2014-08-24T09:05:49Z</time>
      </trkpt>
      <trkpt lat="49.12958" lon="0.73357">
        <ele>67</ele>
        <time>2014-08-24T09:05:54Z</time>
      </trkpt>
      <trkpt lat="49.12953" lon="0.73344">
        <ele>67</ele>
        <time>2014-08-24T09:05:56Z</time>
      </trkpt>
      <trkpt lat="49.1295" lon="0.73329">
        <ele>67</ele>
        <time>2014-08-24T09:05:58Z</time>
      </trkpt>
      <trkpt lat="49.12946" lon="0.73296">
        <ele>67</ele>
        <time>2014-08-24T09:06:02Z</time>
      </trkpt>
      <trkpt lat="49.12944" lon="0.73287">
        <ele>67</ele>
        <time>2014-08-24T09:06:03Z</time>
      </trkpt>
      <trkpt lat="49.12937" lon="0.73261">
        <ele>67</ele>
        <time>2014-08-24T09:06:06Z</time>
      </trkpt>
      <trkpt lat="49.12934" lon="0.73253">
        <ele>67</ele>
        <time>2014-08-24T09:06:07Z</time>
      </trkpt>
      <trkpt lat="49.12931" lon="0.73246">
        <ele>67</ele>
        <time>2014-08-24T09:06:08Z</time>
      </trkpt>
      <trkpt lat="49.12918" lon="0.73227">
        <ele>67</ele>
        <time>2014-08-24T09:06:11Z</time>
      </trkpt>
      <trkpt lat="49.12915" lon="0.73222">
        <ele>67</ele>
        <time>2014-08-24T09:06:12Z</time>
      </trkpt>
      <trkpt lat="49.1291" lon="0.73218">
        <ele>67</ele>
        <time>2014-08-24T09:06:13Z</time>
      </trkpt>
      <trkpt lat="49.12901" lon="0.73213">
        <ele>67</ele>
        <time>2014-08-24T09:06:15Z</time>
      </trkpt>
      <trkpt lat="49.12891" lon="0.73211">
        <ele>67</ele>
        <time>2014-08-24T09:06:17Z</time>
      </trkpt>
      <trkpt lat="49.12879" lon="0.73204">
        <ele>67</ele>
        <time>2014-08-24T09:06:19Z</time>
      </trkpt>
      <trkpt lat="49.12876" lon="0.73198">
        <ele>67</ele>
        <time>2014-08-24T09:06:20Z</time>
      </trkpt>
      <trkpt lat="49.12876" lon="0.73177">
        <ele>67</ele>
        <time>2014-08-24T09:06:23Z</time>
      </trkpt>
      <trkpt lat="49.12877" lon="0.7317">
        <ele>67</ele>
        <time>2014-08-24T09:06:24Z</time>
      </trkpt>
      <trkpt lat="49.12881" lon="0.73142">
        <ele>67</ele>
        <time>2014-08-24T09:06:28Z</time>
      </trkpt>
      <trkpt lat="49.12881" lon="0.7312">
        <ele>67</ele>
        <time>2014-08-24T09:06:31Z</time>
      </trkpt>
      <trkpt lat="49.12881" lon="0.731">
        <ele>67</ele>
        <time>2014-08-24T09:06:34Z</time>
      </trkpt>
      <trkpt lat="49.12865" lon="0.73094">
        <ele>67</ele>
        <time>2014-08-24T09:06:38Z</time>
      </trkpt>
      <trkpt lat="49.12838" lon="0.73094">
        <ele>67</ele>
        <time>2014-08-24T09:06:43Z</time>
      </trkpt>
      <trkpt lat="49.12819" lon="0.73095">
        <ele>67</ele>
        <time>2014-08-24T09:06:47Z</time>
      </trkpt>
      <trkpt lat="49.12814" lon="0.73093">
        <ele>67</ele>
        <time>2014-08-24T09:06:48Z</time>
      </trkpt>
      <trkpt lat="49.12772" lon="0.73086">
        <ele>67</ele>
        <time>2014-08-24T09:06:54Z</time>
      </trkpt>
      <trkpt lat="49.1274" lon="0.73085">
        <ele>67</ele>
        <time>2014-08-24T09:07:00Z</time>
      </trkpt>
      <trkpt lat="49.12714" lon="0.7308">
        <ele>67</ele>
        <time>2014-08-24T09:07:05Z</time>
      </trkpt>
      <trkpt lat="49.1269" lon="0.73076">
        <ele>67</ele>
        <time>2014-08-24T09:07:10Z</time>
      </trkpt>
      <trkpt lat="49.12675" lon="0.73069">
        <ele>67</ele>
        <time>2014-08-24T09:07:13Z</time>
      </trkpt>
      <trkpt lat="49.12668" lon="0.73063">
        <ele>67</ele>
        <time>2014-08-24T09:07:15Z</time>
      </trkpt>
      <trkpt lat="49.12663" lon="0.73053">
        <ele>67</ele>
        <time>2014-08-24T09:07:17Z</time>
      </trkpt>
      <trkpt lat="49.12669" lon="0.73033">
        <ele>67</ele>
        <time>2014-08-24T09:07:20Z</time>
      </trkpt>
      <trkpt lat="49.12673" lon="0.7297">
        <ele>67</ele>
        <time>2014-08-24T09:07:29Z</time>
      </trkpt>
      <trkpt lat="49.12675" lon="0.72912">
        <ele>67</ele>
        <time>2014-08-24T09:07:37Z</time>
      </trkpt>
      <trkpt lat="49.12677" lon="0.72838">
        <ele>67</ele>
        <time>2014-08-24T09:07:46Z</time>
      </trkpt>
      <trkpt lat="49.12676" lon="0.7278">
        <ele>68</ele>
        <time>2014-08-24T09:07:53Z</time>
      </trkpt>
      <trkpt lat="49.12677" lon="0.72766">
        <ele>68</ele>
        <time>2014-08-24T09:07:55Z</time>
      </trkpt>
      <trkpt lat="49.12682" lon="0.72763">
        <ele>68</ele>
        <time>2014-08-24T09:07:56Z</time>
      </trkpt>
      <trkpt lat="49.12694" lon="0.72769">
        <ele>68</ele>
        <time>2014-08-24T09:07:58Z</time>
      </trkpt>
      <trkpt lat="49.12699" lon="0.72773">
        <ele>68</ele>
        <time>2014-08-24T09:07:59Z</time>
      </trkpt>
      <trkpt lat="49.12733" lon="0.72786">
        <ele>67</ele>
        <time>2014-08-24T09:08:05Z</time>
      </trkpt>
      <trkpt lat="49.12745" lon="0.72786">
        <ele>67</ele>
        <time>2014-08-24T09:08:07Z</time>
      </trkpt>
      <trkpt lat="49.1275" lon="0.72783">
        <ele>67</ele>
        <time>2014-08-24T09:08:08Z</time>
      </trkpt>
      <trkpt lat="49.12764" lon="0.72763">
        <ele>67</ele>
        <time>2014-08-24T09:08:11Z</time>
      </trkpt>
      <trkpt lat="49.12768" lon="0.72736">
        <ele>67</ele>
        <time>2014-08-24T09:08:14Z</time>
      </trkpt>
      <trkpt lat="49.12769" lon="0.72726">
        <ele>68</ele>
        <time>2014-08-24T09:08:15Z</time>
      </trkpt>
      <trkpt lat="49.12774" lon="0.72664">
        <ele>68</ele>
        <time>2014-08-24T09:08:22Z</time>
      </trkpt>
      <trkpt lat="49.12779" lon="0.72611">
        <ele>67</ele>
        <time>2014-08-24T09:08:28Z</time>
      </trkpt>
      <trkpt lat="49.12772" lon="0.72598">
        <ele>67</ele>
        <time>2014-08-24T09:08:30Z</time>
      </trkpt>
      <trkpt lat="49.12755" lon="0.72594">
        <ele>67</ele>
        <time>2014-08-24T09:08:33Z</time>
      </trkpt>
      <trkpt lat="49.1275" lon="0.7259">
        <ele>67</ele>
        <time>2014-08-24T09:08:34Z</time>
      </trkpt>
      <trkpt lat="49.12746" lon="0.72583">
        <ele>67</ele>
        <time>2014-08-24T09:08:35Z</time>
      </trkpt>
      <trkpt lat="49.1274" lon="0.7256">
        <ele>67</ele>
        <time>2014-08-24T09:08:38Z</time>
      </trkpt>
      <trkpt lat="49.12739" lon="0.72551">
        <ele>67</ele>
        <time>2014-08-24T09:08:39Z</time>
      </trkpt>
      <trkpt lat="49.12737" lon="0.72533">
        <ele>67</ele>
        <time>2014-08-24T09:08:41Z</time>
      </trkpt>
      <trkpt lat="49.12732" lon="0.72508">
        <ele>67</ele>
        <time>2014-08-24T09:08:44Z</time>
      </trkpt>
      <trkpt lat="49.12732" lon="0.72427">
        <ele>67</ele>
        <time>2014-08-24T09:08:53Z</time>
      </trkpt>
      <trkpt lat="49.1273" lon="0.72418">
        <ele>67</ele>
        <time>2014-08-24T09:08:54Z</time>
      </trkpt>
      <trkpt lat="49.12729" lon="0.72408">
        <ele>67</ele>
        <time>2014-08-24T09:08:55Z</time>
      </trkpt>
      <trkpt lat="49.12728" lon="0.724">
        <ele>67</ele>
        <time>2014-08-24T09:08:56Z</time>
      </trkpt>
      <trkpt lat="49.12727" lon="0.72391">
        <ele>67</ele>
        <time>2014-08-24T09:08:57Z</time>
      </trkpt>
      <trkpt lat="49.12724" lon="0.72359">
        <ele>67</ele>
        <time>2014-08-24T09:09:01Z</time>
      </trkpt>
      <trkpt lat="49.12722" lon="0.72318">
        <ele>67</ele>
        <time>2014-08-24T09:09:07Z</time>
      </trkpt>
      <trkpt lat="49.12724" lon="0.72281">
        <ele>67</ele>
        <time>2014-08-24T09:09:13Z</time>
      </trkpt>
      <trkpt lat="49.12734" lon="0.72254">
        <ele>68</ele>
        <time>2014-08-24T09:09:19Z</time>
      </trkpt>
      <trkpt lat="49.12749" lon="0.72235">
        <ele>68</ele>
        <time>2014-08-24T09:09:25Z</time>
      </trkpt>
      <trkpt lat="49.1275" lon="0.7223">
        <ele>68</ele>
        <time>2014-08-24T09:09:27Z</time>
      </trkpt>
      <trkpt lat="49.12739" lon="0.72198">
        <ele>70</ele>
        <time>2014-08-24T09:09:31Z</time>
      </trkpt>
      <trkpt lat="49.12734" lon="0.72196">
        <ele>70</ele>
        <time>2014-08-24T09:09:32Z</time>
      </trkpt>
      <trkpt lat="49.1273" lon="0.72194">
        <ele>71</ele>
        <time>2014-08-24T09:09:33Z</time>
      </trkpt>
      <trkpt lat="49.12724" lon="0.72195">
        <ele>71</ele>
        <time>2014-08-24T09:09:35Z</time>
      </trkpt>
      <trkpt lat="49.12716" lon="0.72195">
        <ele>72</ele>
        <time>2014-08-24T09:09:38Z</time>
      </trkpt>
      <trkpt lat="49.12714" lon="0.72194">
        <ele>72</ele>
        <time>2014-08-24T09:09:39Z</time>
      </trkpt>
      <trkpt lat="49.12711" lon="0.72194">
        <ele>72</ele>
        <time>2014-08-24T09:09:40Z</time>
      </trkpt>
      <trkpt lat="49.12709" lon="0.72194">
        <ele>72</ele>
        <time>2014-08-24T09:09:41Z</time>
      </trkpt>
      <trkpt lat="49.12706" lon="0.72195">
        <ele>72</ele>
        <time>2014-08-24T09:09:42Z</time>
      </trkpt>
      <trkpt lat="49.12694" lon="0.72195">
        <ele>73</ele>
        <time>2014-08-24T09:09:46Z</time>
      </trkpt>
      <trkpt lat="49.12678" lon="0.72195">
        <ele>74</ele>
        <time>2014-08-24T09:09:51Z</time>
      </trkpt>
      <trkpt lat="49.12675" lon="0.72194">
        <ele>74</ele>
        <time>2014-08-24T09:09:52Z</time>
      </trkpt>
      <trkpt lat="49.12672" lon="0.72195">
        <ele>74</ele>
        <time>2014-08-24T09:09:53Z</time>
      </trkpt>
      <trkpt lat="49.12668" lon="0.72196">
        <ele>74</ele>
        <time>2014-08-24T09:09:54Z</time>
      </trkpt>
      <trkpt lat="49.12664" lon="0.72198">
        <ele>74</ele>
        <time>2014-08-24T09:09:55Z</time>
      </trkpt>
      <trkpt lat="49.12637" lon="0.72199">
        <ele>75</ele>
        <time>2014-08-24T09:10:03Z</time>
      </trkpt>
      <trkpt lat="49.12633" lon="0.72199">
        <ele>75</ele>
        <time>2014-08-24T09:10:04Z</time>
      </trkpt>
      <trkpt lat="49.1263" lon="0.722">
        <ele>75</ele>
        <time>2014-08-24T09:10:05Z</time>
      </trkpt>
      <trkpt lat="49.12626" lon="0.72199">
        <ele>75</ele>
        <time>2014-08-24T09:10:06Z</time>
      </trkpt>
      <trkpt lat="49.12622" lon="0.72199">
        <ele>75</ele>
        <time>2014-08-24T09:10:07Z</time>
      </trkpt>
      <trkpt lat="49.12591" lon="0.72197">
        <ele>76</ele>
        <time>2014-08-24T09:10:15Z</time>
      </trkpt>
      <trkpt lat="49.12545" lon="0.72199">
        <ele>75</ele>
        <time>2014-08-24T09:10:25Z</time>
      </trkpt>
      <trkpt lat="49.12517" lon="0.72196">
        <ele>75</ele>
        <time>2014-08-24T09:10:32Z</time>
      </trkpt>
      <trkpt lat="49.12519" lon="0.72185">
        <ele>76</ele>
        <time>2014-08-24T09:10:34Z</time>
      </trkpt>
      <trkpt lat="49.12521" lon="0.7218">
        <ele>76</ele>
        <time>2014-08-24T09:10:35Z</time>
      </trkpt>
      <trkpt lat="49.12529" lon="0.72159">
        <ele>76</ele>
        <time>2014-08-24T09:10:41Z</time>
      </trkpt>
      <trkpt lat="49.12531" lon="0.72156">
        <ele>76</ele>
        <time>2014-08-24T09:10:42Z</time>
      </trkpt>
      <trkpt lat="49.12532" lon="0.72153">
        <ele>76</ele>
        <time>2014-08-24T09:10:43Z</time>
      </trkpt>
      <trkpt lat="49.12533" lon="0.72149">
        <ele>76</ele>
        <time>2014-08-24T09:10:44Z</time>
      </trkpt>
      <trkpt lat="49.12536" lon="0.72143">
        <ele>76</ele>
        <time>2014-08-24T09:10:46Z</time>
      </trkpt>
      <trkpt lat="49.12544" lon="0.72123">
        <ele>77</ele>
        <time>2014-08-24T09:10:52Z</time>
      </trkpt>
      <trkpt lat="49.12552" lon="0.72096">
        <ele>78</ele>
        <time>2014-08-24T09:11:00Z</time>
      </trkpt>
      <trkpt lat="49.12554" lon="0.72089">
        <ele>78</ele>
        <time>2014-08-24T09:11:02Z</time>
      </trkpt>
      <trkpt lat="49.12555" lon="0.72086">
        <ele>78</ele>
        <time>2014-08-24T09:11:03Z</time>
      </trkpt>
      <trkpt lat="49.12556" lon="0.72083">
        <ele>78</ele>
        <time>2014-08-24T09:11:04Z</time>
      </trkpt>
      <trkpt lat="49.12556" lon="0.7208">
        <ele>78</ele>
        <time>2014-08-24T09:11:05Z</time>
      </trkpt>
      <trkpt lat="49.12557" lon="0.72077">
        <ele>78</ele>
        <time>2014-08-24T09:11:06Z</time>
      </trkpt>
      <trkpt lat="49.12558" lon="0.72071">
        <ele>78</ele>
        <time>2014-08-24T09:11:08Z</time>
      </trkpt>
      <trkpt lat="49.12561" lon="0.72046">
        <ele>79</ele>
        <time>2014-08-24T09:11:17Z</time>
      </trkpt>
      <trkpt lat="49.12561" lon="0.72043">
        <ele>79</ele>
        <time>2014-08-24T09:11:18Z</time>
      </trkpt>
      <trkpt lat="49.12562" lon="0.72041">
        <ele>79</ele>
        <time>2014-08-24T09:11:19Z</time>
      </trkpt>
      <trkpt lat="49.12562" lon="0.72039">
        <ele>79</ele>
        <time>2014-08-24T09:11:20Z</time>
      </trkpt>
      <trkpt lat="49.12563" lon="0.72036">
        <ele>79</ele>
        <time>2014-08-24T09:11:21Z</time>
      </trkpt>
      <trkpt lat="49.12564" lon="0.72033">
        <ele>79</ele>
        <time>2014-08-24T09:11:22Z</time>
      </trkpt>
      <trkpt lat="49.12565" lon="0.72022">
        <ele>80</ele>
        <time>2014-08-24T09:11:26Z</time>
      </trkpt>
      <trkpt lat="49.12568" lon="0.72">
        <ele>82</ele>
        <time>2014-08-24T09:11:34Z</time>
      </trkpt>
      <trkpt lat="49.12568" lon="0.71998">
        <ele>82</ele>
        <time>2014-08-24T09:11:35Z</time>
      </trkpt>
      <trkpt lat="49.12569" lon="0.71995">
        <ele>82</ele>
        <time>2014-08-24T09:11:36Z</time>
      </trkpt>
      <trkpt lat="49.12569" lon="0.71992">
        <ele>82</ele>
        <time>2014-08-24T09:11:37Z</time>
      </trkpt>
      <trkpt lat="49.1257" lon="0.7199">
        <ele>83</ele>
        <time>2014-08-24T09:11:38Z</time>
      </trkpt>
      <trkpt lat="49.12576" lon="0.71968">
        <ele>85</ele>
        <time>2014-08-24T09:11:47Z</time>
      </trkpt>
      <trkpt lat="49.12577" lon="0.71966">
        <ele>85</ele>
        <time>2014-08-24T09:11:48Z</time>
      </trkpt>
      <trkpt lat="49.12578" lon="0.71963">
        <ele>86</ele>
        <time>2014-08-24T09:11:49Z</time>
      </trkpt>
      <trkpt lat="49.12578" lon="0.71961">
        <ele>86</ele>
        <time>2014-08-24T09:11:50Z</time>
      </trkpt>
      <trkpt lat="49.12579" lon="0.71959">
        <ele>86</ele>
        <time>2014-08-24T09:11:51Z</time>
      </trkpt>
      <trkpt lat="49.12582" lon="0.71951">
        <ele>87</ele>
        <time>2014-08-24T09:11:55Z</time>
      </trkpt>
      <trkpt lat="49.12585" lon="0.71945">
        <ele>88</ele>
        <time>2014-08-24T09:11:58Z</time>
      </trkpt>
      <trkpt lat="49.12586" lon="0.71944">
        <ele>88</ele>
        <time>2014-08-24T09:11:59Z</time>
      </trkpt>
      <trkpt lat="49.12587" lon="0.71942">
        <ele>88</ele>
        <time>2014-08-24T09:12:00Z</time>
      </trkpt>
      <trkpt lat="49.12587" lon="0.71942">
        <ele>88</ele>
        <time>2014-08-24T09:12:01Z</time>
      </trkpt>
      <trkpt lat="49.12588" lon="0.71941">
        <ele>89</ele>
        <time>2014-08-24T09:12:02Z</time>
      </trkpt>
      <trkpt lat="49.12589" lon="0.71939">
        <ele>89</ele>
        <time>2014-08-24T09:12:04Z</time>
      </trkpt>
      <trkpt lat="49.12595" lon="0.71932">
        <ele>91</ele>
        <time>2014-08-24T09:12:09Z</time>
      </trkpt>
      <trkpt lat="49.12597" lon="0.7193">
        <ele>91</ele>
        <time>2014-08-24T09:12:10Z</time>
      </trkpt>
      <trkpt lat="49.12598" lon="0.71928">
        <ele>92</ele>
        <time>2014-08-24T09:12:11Z</time>
      </trkpt>
      <trkpt lat="49.12599" lon="0.71926">
        <ele>92</ele>
        <time>2014-08-24T09:12:12Z</time>
      </trkpt>
      <trkpt lat="49.126" lon="0.71924">
        <ele>93</ele>
        <time>2014-08-24T09:12:13Z</time>
      </trkpt>
      <trkpt lat="49.12603" lon="0.7192">
        <ele>94</ele>
        <time>2014-08-24T09:12:17Z</time>
      </trkpt>
      <trkpt lat="49.12604" lon="0.71919">
        <ele>94</ele>
        <time>2014-08-24T09:12:18Z</time>
      </trkpt>
      <trkpt lat="49.12605" lon="0.71918">
        <ele>95</ele>
        <time>2014-08-24T09:12:19Z</time>
      </trkpt>
      <trkpt lat="49.12607" lon="0.71917">
        <ele>95</ele>
        <time>2014-08-24T09:12:20Z</time>
      </trkpt>
      <trkpt lat="49.12608" lon="0.71916">
        <ele>95</ele>
        <time>2014-08-24T09:12:21Z</time>
      </trkpt>
      <trkpt lat="49.12614" lon="0.71914">
        <ele>96</ele>
        <time>2014-08-24T09:12:26Z</time>
      </trkpt>
      <trkpt lat="49.12616" lon="0.71914">
        <ele>96</ele>
        <time>2014-08-24T09:12:28Z</time>
      </trkpt>
      <trkpt lat="49.12616" lon="0.71914">
        <ele>96</ele>
        <time>2014-08-24T09:12:29Z</time>
      </trkpt>
      <trkpt lat="49.12618" lon="0.71914">
        <ele>96</ele>
        <time>2014-08-24T09:12:30Z</time>
      </trkpt>
      <trkpt lat="49.12618" lon="0.71914">
        <ele>96</ele>
        <time>2014-08-24T09:12:31Z</time>
      </trkpt>
      <trkpt lat="49.12644" lon="0.71906">
        <ele>98</ele>
        <time>2014-08-24T09:12:53Z</time>
      </trkpt>
      <trkpt lat="49.12655" lon="0.71904">
        <ele>98</ele>
        <time>2014-08-24T09:13:00Z</time>
      </trkpt>
      <trkpt lat="49.12657" lon="0.71903">
        <ele>98</ele>
        <time>2014-08-24T09:13:01Z</time>
      </trkpt>
      <trkpt lat="49.12659" lon="0.71902">
        <ele>99</ele>
        <time>2014-08-24T09:13:02Z</time>
      </trkpt>
      <trkpt lat="49.12662" lon="0.71901">
        <ele>99</ele>
        <time>2014-08-24T09:13:03Z</time>
      </trkpt>
      <trkpt lat="49.12664" lon="0.719">
        <ele>99</ele>
        <time>2014-08-24T09:13:04Z</time>
      </trkpt>
      <trkpt lat="49.12671" lon="0.71896">
        <ele>100</ele>
        <time>2014-08-24T09:13:10Z</time>
      </trkpt>
      <trkpt lat="49.12672" lon="0.71896">
        <ele>100</ele>
        <time>2014-08-24T09:13:11Z</time>
      </trkpt>
      <trkpt lat="49.12674" lon="0.71894">
        <ele>100</ele>
        <time>2014-08-24T09:13:12Z</time>
      </trkpt>
      <trkpt lat="49.12675" lon="0.71893">
        <ele>100</ele>
        <time>2014-08-24T09:13:13Z</time>
      </trkpt>
      <trkpt lat="49.12676" lon="0.71892">
        <ele>100</ele>
        <time>2014-08-24T09:13:14Z</time>
      </trkpt>
      <trkpt lat="49.12678" lon="0.7189">
        <ele>101</ele>
        <time>2014-08-24T09:13:17Z</time>
      </trkpt>
      <trkpt lat="49.12681" lon="0.71886">
        <ele>102</ele>
        <time>2014-08-24T09:13:20Z</time>
      </trkpt>
      <trkpt lat="49.12682" lon="0.71885">
        <ele>102</ele>
        <time>2014-08-24T09:13:21Z</time>
      </trkpt>
      <trkpt lat="49.12683" lon="0.71884">
        <ele>102</ele>
        <time>2014-08-24T09:13:22Z</time>
      </trkpt>
      <trkpt lat="49.12684" lon="0.71883">
        <ele>102</ele>
        <time>2014-08-24T09:13:23Z</time>
      </trkpt>
      <trkpt lat="49.12684" lon="0.71882">
        <ele>103</ele>
        <time>2014-08-24T09:13:24Z</time>
      </trkpt>
      <trkpt lat="49.12686" lon="0.7188">
        <ele>103</ele>
        <time>2014-08-24T09:13:26Z</time>
      </trkpt>
      <trkpt lat="49.12688" lon="0.71877">
        <ele>104</ele>
        <time>2014-08-24T09:13:29Z</time>
      </trkpt>
      <trkpt lat="49.12689" lon="0.71876">
        <ele>104</ele>
        <time>2014-08-24T09:13:30Z</time>
      </trkpt>
      <trkpt lat="49.12689" lon="0.71874">
        <ele>104</ele>
        <time>2014-08-24T09:13:31Z</time>
      </trkpt>
      <trkpt lat="49.1269" lon="0.71873">
        <ele>104</ele>
        <time>2014-08-24T09:13:32Z</time>
      </trkpt>
      <trkpt lat="49.12691" lon="0.71872">
        <ele>105</ele>
        <time>2014-08-24T09:13:33Z</time>
      </trkpt>
      <trkpt lat="49.12696" lon="0.71864">
        <ele>106</ele>
        <time>2014-08-24T09:13:39Z</time>
      </trkpt>
      <trkpt lat="49.12697" lon="0.71862">
        <ele>107</ele>
        <time>2014-08-24T09:13:40Z</time>
      </trkpt>
      <trkpt lat="49.12698" lon="0.71861">
        <ele>107</ele>
        <time>2014-08-24T09:13:41Z</time>
      </trkpt>
      <trkpt lat="49.12699" lon="0.7186">
        <ele>108</ele>
        <time>2014-08-24T09:13:42Z</time>
      </trkpt>
      <trkpt lat="49.127" lon="0.71859">
        <ele>108</ele>
        <time>2014-08-24T09:13:43Z</time>
      </trkpt>
      <trkpt lat="49.12704" lon="0.71854">
        <ele>109</ele>
        <time>2014-08-24T09:13:48Z</time>
      </trkpt>
      <trkpt lat="49.12706" lon="0.71854">
        <ele>109</ele>
        <time>2014-08-24T09:13:49Z</time>
      </trkpt>
      <trkpt lat="49.12707" lon="0.71853">
        <ele>109</ele>
        <time>2014-08-24T09:13:50Z</time>
      </trkpt>
      <trkpt lat="49.12708" lon="0.71852">
        <ele>109</ele>
        <time>2014-08-24T09:13:51Z</time>
      </trkpt>
      <trkpt lat="49.12708" lon="0.71851">
        <ele>109</ele>
        <time>2014-08-24T09:13:52Z</time>
      </trkpt>
      <trkpt lat="49.12712" lon="0.71847">
        <ele>110</ele>
        <time>2014-08-24T09:13:57Z</time>
      </trkpt>
      <trkpt lat="49.12714" lon="0.71846">
        <ele>110</ele>
        <time>2014-08-24T09:13:59Z</time>
      </trkpt>
      <trkpt lat="49.12714" lon="0.71845">
        <ele>110</ele>
        <time>2014-08-24T09:14:00Z</time>
      </trkpt>
      <trkpt lat="49.12715" lon="0.71844">
        <ele>110</ele>
        <time>2014-08-24T09:14:01Z</time>
      </trkpt>
      <trkpt lat="49.12716" lon="0.71843">
        <ele>111</ele>
        <time>2014-08-24T09:14:02Z</time>
      </trkpt>
      <trkpt lat="49.12717" lon="0.71842">
        <ele>111</ele>
        <time>2014-08-24T09:14:03Z</time>
      </trkpt>
      <trkpt lat="49.1272" lon="0.71836">
        <ele>112</ele>
        <time>2014-08-24T09:14:08Z</time>
      </trkpt>
      <trkpt lat="49.12721" lon="0.71835">
        <ele>112</ele>
        <time>2014-08-24T09:14:09Z</time>
      </trkpt>
      <trkpt lat="49.12722" lon="0.71833">
        <ele>113</ele>
        <time>2014-08-24T09:14:10Z</time>
      </trkpt>
      <trkpt lat="49.12723" lon="0.71831">
        <ele>113</ele>
        <time>2014-08-24T09:14:11Z</time>
      </trkpt>
      <trkpt lat="49.12723" lon="0.71829">
        <ele>114</ele>
        <time>2014-08-24T09:14:12Z</time>
      </trkpt>
      <trkpt lat="49.12728" lon="0.71822">
        <ele>115</ele>
        <time>2014-08-24T09:14:17Z</time>
      </trkpt>
      <trkpt lat="49.12729" lon="0.71821">
        <ele>116</ele>
        <time>2014-08-24T09:14:18Z</time>
      </trkpt>
      <trkpt lat="49.1273" lon="0.7182">
        <ele>116</ele>
        <time>2014-08-24T09:14:19Z</time>
      </trkpt>
      <trkpt lat="49.12731" lon="0.71819">
        <ele>116</ele>
        <time>2014-08-24T09:14:20Z</time>
      </trkpt>
      <trkpt lat="49.12732" lon="0.71818">
        <ele>116</ele>
        <time>2014-08-24T09:14:21Z</time>
      </trkpt>
      <trkpt lat="49.12734" lon="0.71816">
        <ele>116</ele>
        <time>2014-08-24T09:14:24Z</time>
      </trkpt>
      <trkpt lat="49.12736" lon="0.71814">
        <ele>117</ele>
        <time>2014-08-24T09:14:27Z</time>
      </trkpt>
      <trkpt lat="49.12736" lon="0.71814">
        <ele>117</ele>
        <time>2014-08-24T09:14:28Z</time>
      </trkpt>
      <trkpt lat="49.12737" lon="0.71814">
        <ele>117</ele>
        <time>2014-08-24T09:14:29Z</time>
      </trkpt>
      <trkpt lat="49.12738" lon="0.71813">
        <ele>117</ele>
        <time>2014-08-24T09:14:30Z</time>
      </trkpt>
      <trkpt lat="49.12739" lon="0.71813">
        <ele>117</ele>
        <time>2014-08-24T09:14:31Z</time>
      </trkpt>
      <trkpt lat="49.1274" lon="0.71812">
        <ele>117</ele>
        <time>2014-08-24T09:14:34Z</time>
      </trkpt>
      <trkpt lat="49.12741" lon="0.71811">
        <ele>117</ele>
        <time>2014-08-24T09:14:35Z</time>
      </trkpt>
      <trkpt lat="49.12742" lon="0.71811">
        <ele>117</ele>
        <time>2014-08-24T09:14:36Z</time>
      </trkpt>
      <trkpt lat="49.12743" lon="0.7181">
        <ele>117</ele>
        <time>2014-08-24T09:14:37Z</time>
      </trkpt>
      <trkpt lat="49.12744" lon="0.71808">
        <ele>118</ele>
        <time>2014-08-24T09:14:38Z</time>
      </trkpt>
      <trkpt lat="49.12744" lon="0.71807">
        <ele>118</ele>
        <time>2014-08-24T09:14:39Z</time>
      </trkpt>
      <trkpt lat="49.12747" lon="0.71803">
        <ele>119</ele>
        <time>2014-08-24T09:14:43Z</time>
      </trkpt>
      <trkpt lat="49.12748" lon="0.71801">
        <ele>119</ele>
        <time>2014-08-24T09:14:44Z</time>
      </trkpt>
      <trkpt lat="49.12748" lon="0.718">
        <ele>119</ele>
        <time>2014-08-24T09:14:45Z</time>
      </trkpt>
      <trkpt lat="49.12749" lon="0.71798">
        <ele>119</ele>
        <time>2014-08-24T09:14:46Z</time>
      </trkpt>
      <trkpt lat="49.1275" lon="0.71797">
        <ele>120</ele>
        <time>2014-08-24T09:14:47Z</time>
      </trkpt>
      <trkpt lat="49.12753" lon="0.7179">
        <ele>120</ele>
        <time>2014-08-24T09:14:51Z</time>
      </trkpt>
      <trkpt lat="49.12753" lon="0.71789">
        <ele>121</ele>
        <time>2014-08-24T09:14:52Z</time>
      </trkpt>
      <trkpt lat="49.12754" lon="0.71785">
        <ele>121</ele>
        <time>2014-08-24T09:14:54Z</time>
      </trkpt>
      <trkpt lat="49.12755" lon="0.71781">
        <ele>122</ele>
        <time>2014-08-24T09:14:56Z</time>
      </trkpt>
      <trkpt lat="49.12757" lon="0.71768">
        <ele>124</ele>
        <time>2014-08-24T09:15:01Z</time>
      </trkpt>
      <trkpt lat="49.12757" lon="0.71766">
        <ele>124</ele>
        <time>2014-08-24T09:15:02Z</time>
      </trkpt>
      <trkpt lat="49.12756" lon="0.71764">
        <ele>124</ele>
        <time>2014-08-24T09:15:03Z</time>
      </trkpt>
      <trkpt lat="49.12756" lon="0.71763">
        <ele>125</ele>
        <time>2014-08-24T09:15:04Z</time>
      </trkpt>
      <trkpt lat="49.12755" lon="0.71761">
        <ele>125</ele>
        <time>2014-08-24T09:15:05Z</time>
      </trkpt>
      <trkpt lat="49.12749" lon="0.71751">
        <ele>127</ele>
        <time>2014-08-24T09:15:13Z</time>
      </trkpt>
      <trkpt lat="49.12747" lon="0.71749">
        <ele>127</ele>
        <time>2014-08-24T09:15:15Z</time>
      </trkpt>
      <trkpt lat="49.12746" lon="0.71748">
        <ele>127</ele>
        <time>2014-08-24T09:15:16Z</time>
      </trkpt>
      <trkpt lat="49.12746" lon="0.71747">
        <ele>127</ele>
        <time>2014-08-24T09:15:17Z</time>
      </trkpt>
      <trkpt lat="49.12745" lon="0.71745">
        <ele>128</ele>
        <time>2014-08-24T09:15:18Z</time>
      </trkpt>
      <trkpt lat="49.12746" lon="0.71742">
        <ele>128</ele>
        <time>2014-08-24T09:15:19Z</time>
      </trkpt>
      <trkpt lat="49.12745" lon="0.71732">
        <ele>129</ele>
        <time>2014-08-24T09:15:24Z</time>
      </trkpt>
      <trkpt lat="49.12737" lon="0.71704">
        <ele>131</ele>
        <time>2014-08-24T09:15:32Z</time>
      </trkpt>
      <trkpt lat="49.12736" lon="0.71701">
        <ele>131</ele>
        <time>2014-08-24T09:15:33Z</time>
      </trkpt>
      <trkpt lat="49.12736" lon="0.71698">
        <ele>131</ele>
        <time>2014-08-24T09:15:34Z</time>
      </trkpt>
      <trkpt lat="49.12735" lon="0.71694">
        <ele>131</ele>
        <time>2014-08-24T09:15:35Z</time>
      </trkpt>
      <trkpt lat="49.12735" lon="0.7169">
        <ele>132</ele>
        <time>2014-08-24T09:15:36Z</time>
      </trkpt>
      <trkpt lat="49.12734" lon="0.71687">
        <ele>132</ele>
        <time>2014-08-24T09:15:37Z</time>
      </trkpt>
      <trkpt lat="49.12735" lon="0.71676">
        <ele>133</ele>
        <time>2014-08-24T09:15:40Z</time>
      </trkpt>
      <trkpt lat="49.12734" lon="0.71654">
        <ele>133</ele>
        <time>2014-08-24T09:15:46Z</time>
      </trkpt>
      <trkpt lat="49.12733" lon="0.7163">
        <ele>133</ele>
        <time>2014-08-24T09:15:52Z</time>
      </trkpt>
      <trkpt lat="49.12736" lon="0.71609">
        <ele>134</ele>
        <time>2014-08-24T09:15:57Z</time>
      </trkpt>
      <trkpt lat="49.12742" lon="0.71572">
        <ele>135</ele>
        <time>2014-08-24T09:16:04Z</time>
      </trkpt>
      <trkpt lat="49.12748" lon="0.71558">
        <ele>135</ele>
        <time>2014-08-24T09:16:07Z</time>
      </trkpt>
      <trkpt lat="49.1275" lon="0.71554">
        <ele>135</ele>
        <time>2014-08-24T09:16:08Z</time>
      </trkpt>
      <trkpt lat="49.12752" lon="0.7155">
        <ele>135</ele>
        <time>2014-08-24T09:16:09Z</time>
      </trkpt>
      <trkpt lat="49.12755" lon="0.71546">
        <ele>135</ele>
        <time>2014-08-24T09:16:10Z</time>
      </trkpt>
      <trkpt lat="49.12757" lon="0.71542">
        <ele>135</ele>
        <time>2014-08-24T09:16:11Z</time>
      </trkpt>
      <trkpt lat="49.12769" lon="0.71519">
        <ele>136</ele>
        <time>2014-08-24T09:16:17Z</time>
      </trkpt>
      <trkpt lat="49.12777" lon="0.71501">
        <ele>135</ele>
        <time>2014-08-24T09:16:22Z</time>
      </trkpt>
      <trkpt lat="49.12788" lon="0.71483">
        <ele>135</ele>
        <time>2014-08-24T09:16:28Z</time>
      </trkpt>
      <trkpt lat="49.12801" lon="0.71464">
        <ele>135</ele>
        <time>2014-08-24T09:16:32Z</time>
      </trkpt>
      <trkpt lat="49.12817" lon="0.71442">
        <ele>136</ele>
        <time>2014-08-24T09:16:38Z</time>
      </trkpt>
      <trkpt lat="49.1282" lon="0.71438">
        <ele>136</ele>
        <time>2014-08-24T09:16:39Z</time>
      </trkpt>
      <trkpt lat="49.12822" lon="0.71435">
        <ele>136</ele>
        <time>2014-08-24T09:16:40Z</time>
      </trkpt>
      <trkpt lat="49.12824" lon="0.71432">
        <ele>136</ele>
        <time>2014-08-24T09:16:41Z</time>
      </trkpt>
      <trkpt lat="49.12826" lon="0.71429">
        <ele>136</ele>
        <time>2014-08-24T09:16:42Z</time>
      </trkpt>
      <trkpt lat="49.12829" lon="0.71426">
        <ele>136</ele>
        <time>2014-08-24T09:16:43Z</time>
      </trkpt>
      <trkpt lat="49.12843" lon="0.71408">
        <ele>136</ele>
        <time>2014-08-24T09:16:49Z</time>
      </trkpt>
      <trkpt lat="49.12858" lon="0.71385">
        <ele>136</ele>
        <time>2014-08-24T09:16:55Z</time>
      </trkpt>
      <trkpt lat="49.12872" lon="0.71359">
        <ele>136</ele>
        <time>2014-08-24T09:17:01Z</time>
      </trkpt>
      <trkpt lat="49.12878" lon="0.71332">
        <ele>135</ele>
        <time>2014-08-24T09:17:06Z</time>
      </trkpt>
      <trkpt lat="49.12892" lon="0.71304">
        <ele>135</ele>
        <time>2014-08-24T09:17:13Z</time>
      </trkpt>
      <trkpt lat="49.12907" lon="0.71281">
        <ele>135</ele>
        <time>2014-08-24T09:17:19Z</time>
      </trkpt>
      <trkpt lat="49.12923" lon="0.71249">
        <ele>135</ele>
        <time>2014-08-24T09:17:24Z</time>
      </trkpt>
      <trkpt lat="49.12925" lon="0.71241">
        <ele>135</ele>
        <time>2014-08-24T09:17:25Z</time>
      </trkpt>
      <trkpt lat="49.12933" lon="0.71209">
        <ele>134</ele>
        <time>2014-08-24T09:17:29Z</time>
      </trkpt>
      <trkpt lat="49.12936" lon="0.71168">
        <ele>133</ele>
        <time>2014-08-24T09:17:34Z</time>
      </trkpt>
      <trkpt lat="49.12936" lon="0.7116">
        <ele>133</ele>
        <time>2014-08-24T09:17:35Z</time>
      </trkpt>
      <trkpt lat="49.12937" lon="0.7115">
        <ele>133</ele>
        <time>2014-08-24T09:17:36Z</time>
      </trkpt>
      <trkpt lat="49.12937" lon="0.71141">
        <ele>132</ele>
        <time>2014-08-24T09:17:37Z</time>
      </trkpt>
      <trkpt lat="49.12938" lon="0.71132">
        <ele>132</ele>
        <time>2014-08-24T09:17:38Z</time>
      </trkpt>
      <trkpt lat="49.12938" lon="0.71123">
        <ele>132</ele>
        <time>2014-08-24T09:17:39Z</time>
      </trkpt>
      <trkpt lat="49.12939" lon="0.71113">
        <ele>131</ele>
        <time>2014-08-24T09:17:40Z</time>
      </trkpt>
      <trkpt lat="49.12939" lon="0.71104">
        <ele>131</ele>
        <time>2014-08-24T09:17:41Z</time>
      </trkpt>
      <trkpt lat="49.12939" lon="0.71095">
        <ele>131</ele>
        <time>2014-08-24T09:17:42Z</time>
      </trkpt>
      <trkpt lat="49.12939" lon="0.71085">
        <ele>130</ele>
        <time>2014-08-24T09:17:43Z</time>
      </trkpt>
      <trkpt lat="49.12939" lon="0.71075">
        <ele>130</ele>
        <time>2014-08-24T09:17:44Z</time>
      </trkpt>
      <trkpt lat="49.12939" lon="0.71063">
        <ele>129</ele>
        <time>2014-08-24T09:17:45Z</time>
      </trkpt>
      <trkpt lat="49.1294" lon="0.71052">
        <ele>128</ele>
        <time>2014-08-24T09:17:46Z</time>
      </trkpt>
      <trkpt lat="49.1294" lon="0.71041">
        <ele>128</ele>
        <time>2014-08-24T09:17:47Z</time>
      </trkpt>
      <trkpt lat="49.12941" lon="0.71031">
        <ele>127</ele>
        <time>2014-08-24T09:17:48Z</time>
      </trkpt>
      <trkpt lat="49.12941" lon="0.7102">
        <ele>127</ele>
        <time>2014-08-24T09:17:49Z</time>
      </trkpt>
      <trkpt lat="49.12942" lon="0.71009">
        <ele>126</ele>
        <time>2014-08-24T09:17:50Z</time>
      </trkpt>
      <trkpt lat="49.12943" lon="0.7099">
        <ele>125</ele>
        <time>2014-08-24T09:17:52Z</time>
      </trkpt>
      <trkpt lat="49.12945" lon="0.70981">
        <ele>125</ele>
        <time>2014-08-24T09:17:53Z</time>
      </trkpt>
      <trkpt lat="49.12947" lon="0.70971">
        <ele>124</ele>
        <time>2014-08-24T09:17:54Z</time>
      </trkpt>
      <trkpt lat="49.12948" lon="0.70962">
        <ele>124</ele>
        <time>2014-08-24T09:17:55Z</time>
      </trkpt>
      <trkpt lat="49.1295" lon="0.70952">
        <ele>124</ele>
        <time>2014-08-24T09:17:56Z</time>
      </trkpt>
      <trkpt lat="49.12955" lon="0.70932">
        <ele>123</ele>
        <time>2014-08-24T09:17:58Z</time>
      </trkpt>
      <trkpt lat="49.12955" lon="0.70921">
        <ele>123</ele>
        <time>2014-08-24T09:17:59Z</time>
      </trkpt>
      <trkpt lat="49.12955" lon="0.70911">
        <ele>123</ele>
        <time>2014-08-24T09:18:00Z</time>
      </trkpt>
      <trkpt lat="49.12952" lon="0.70899">
        <ele>123</ele>
        <time>2014-08-24T09:18:01Z</time>
      </trkpt>
      <trkpt lat="49.12948" lon="0.70887">
        <ele>123</ele>
        <time>2014-08-24T09:18:02Z</time>
      </trkpt>
      <trkpt lat="49.12946" lon="0.70875">
        <ele>122</ele>
        <time>2014-08-24T09:18:03Z</time>
      </trkpt>
      <trkpt lat="49.12944" lon="0.70861">
        <ele>122</ele>
        <time>2014-08-24T09:18:04Z</time>
      </trkpt>
      <trkpt lat="49.12943" lon="0.70848">
        <ele>122</ele>
        <time>2014-08-24T09:18:05Z</time>
      </trkpt>
      <trkpt lat="49.12943" lon="0.70836">
        <ele>121</ele>
        <time>2014-08-24T09:18:06Z</time>
      </trkpt>
      <trkpt lat="49.12944" lon="0.70825">
        <ele>121</ele>
        <time>2014-08-24T09:18:07Z</time>
      </trkpt>
      <trkpt lat="49.12945" lon="0.70815">
        <ele>120</ele>
        <time>2014-08-24T09:18:08Z</time>
      </trkpt>
      <trkpt lat="49.12949" lon="0.70806">
        <ele>119</ele>
        <time>2014-08-24T09:18:09Z</time>
      </trkpt>
      <trkpt lat="49.12954" lon="0.70795">
        <ele>118</ele>
        <time>2014-08-24T09:18:10Z</time>
      </trkpt>
      <trkpt lat="49.12958" lon="0.70784">
        <ele>117</ele>
        <time>2014-08-24T09:18:11Z</time>
      </trkpt>
      <trkpt lat="49.12961" lon="0.70774">
        <ele>116</ele>
        <time>2014-08-24T09:18:12Z</time>
      </trkpt>
      <trkpt lat="49.12966" lon="0.70764">
        <ele>115</ele>
        <time>2014-08-24T09:18:13Z</time>
      </trkpt>
      <trkpt lat="49.12971" lon="0.70752">
        <ele>113</ele>
        <time>2014-08-24T09:18:14Z</time>
      </trkpt>
      <trkpt lat="49.12975" lon="0.70739">
        <ele>112</ele>
        <time>2014-08-24T09:18:15Z</time>
      </trkpt>
      <trkpt lat="49.1298" lon="0.70726">
        <ele>111</ele>
        <time>2014-08-24T09:18:16Z</time>
      </trkpt>
      <trkpt lat="49.12984" lon="0.70714">
        <ele>110</ele>
        <time>2014-08-24T09:18:17Z</time>
      </trkpt>
      <trkpt lat="49.12988" lon="0.70703">
        <ele>109</ele>
        <time>2014-08-24T09:18:18Z</time>
      </trkpt>
      <trkpt lat="49.12991" lon="0.70693">
        <ele>108</ele>
        <time>2014-08-24T09:18:19Z</time>
      </trkpt>
      <trkpt lat="49.12995" lon="0.70685">
        <ele>108</ele>
        <time>2014-08-24T09:18:20Z</time>
      </trkpt>
      <trkpt lat="49.12998" lon="0.70676">
        <ele>108</ele>
        <time>2014-08-24T09:18:21Z</time>
      </trkpt>
      <trkpt lat="49.13001" lon="0.70669">
        <ele>108</ele>
        <time>2014-08-24T09:18:22Z</time>
      </trkpt>
      <trkpt lat="49.13004" lon="0.7066">
        <ele>108</ele>
        <time>2014-08-24T09:18:23Z</time>
      </trkpt>
      <trkpt lat="49.13009" lon="0.70653">
        <ele>108</ele>
        <time>2014-08-24T09:18:24Z</time>
      </trkpt>
      <trkpt lat="49.13013" lon="0.70647">
        <ele>108</ele>
        <time>2014-08-24T09:18:25Z</time>
      </trkpt>
      <trkpt lat="49.13017" lon="0.70641">
        <ele>108</ele>
        <time>2014-08-24T09:18:26Z</time>
      </trkpt>
      <trkpt lat="49.13032" lon="0.70613">
        <ele>108</ele>
        <time>2014-08-24T09:18:31Z</time>
      </trkpt>
      <trkpt lat="49.13036" lon="0.7061">
        <ele>108</ele>
        <time>2014-08-24T09:18:32Z</time>
      </trkpt>
      <trkpt lat="49.13047" lon="0.70607">
        <ele>108</ele>
        <time>2014-08-24T09:18:35Z</time>
      </trkpt>
      <trkpt lat="49.13053" lon="0.70601">
        <ele>108</ele>
        <time>2014-08-24T09:18:36Z</time>
      </trkpt>
      <trkpt lat="49.13061" lon="0.70593">
        <ele>107</ele>
        <time>2014-08-24T09:18:38Z</time>
      </trkpt>
      <trkpt lat="49.13066" lon="0.70589">
        <ele>107</ele>
        <time>2014-08-24T09:18:39Z</time>
      </trkpt>
      <trkpt lat="49.13071" lon="0.70586">
        <ele>107</ele>
        <time>2014-08-24T09:18:40Z</time>
      </trkpt>
      <trkpt lat="49.13076" lon="0.70584">
        <ele>107</ele>
        <time>2014-08-24T09:18:41Z</time>
      </trkpt>
      <trkpt lat="49.13091" lon="0.70568">
        <ele>107</ele>
        <time>2014-08-24T09:18:45Z</time>
      </trkpt>
      <trkpt lat="49.13106" lon="0.70549">
        <ele>109</ele>
        <time>2014-08-24T09:18:50Z</time>
      </trkpt>
      <trkpt lat="49.13115" lon="0.70523">
        <ele>110</ele>
        <time>2014-08-24T09:18:56Z</time>
      </trkpt>
      <trkpt lat="49.13119" lon="0.70499">
        <ele>111</ele>
        <time>2014-08-24T09:19:02Z</time>
      </trkpt>
      <trkpt lat="49.13119" lon="0.70495">
        <ele>111</ele>
        <time>2014-08-24T09:19:03Z</time>
      </trkpt>
      <trkpt lat="49.1312" lon="0.70491">
        <ele>111</ele>
        <time>2014-08-24T09:19:04Z</time>
      </trkpt>
      <trkpt lat="49.13121" lon="0.70487">
        <ele>112</ele>
        <time>2014-08-24T09:19:05Z</time>
      </trkpt>
      <trkpt lat="49.13122" lon="0.70483">
        <ele>112</ele>
        <time>2014-08-24T09:19:06Z</time>
      </trkpt>
      <trkpt lat="49.13128" lon="0.70459">
        <ele>113</ele>
        <time>2014-08-24T09:19:12Z</time>
      </trkpt>
      <trkpt lat="49.13132" lon="0.70447">
        <ele>115</ele>
        <time>2014-08-24T09:19:17Z</time>
      </trkpt>
      <trkpt lat="49.13132" lon="0.70445">
        <ele>115</ele>
        <time>2014-08-24T09:19:18Z</time>
      </trkpt>
      <trkpt lat="49.13133" lon="0.70443">
        <ele>115</ele>
        <time>2014-08-24T09:19:19Z</time>
      </trkpt>
      <trkpt lat="49.13134" lon="0.70441">
        <ele>115</ele>
        <time>2014-08-24T09:19:20Z</time>
      </trkpt>
      <trkpt lat="49.13135" lon="0.70439">
        <ele>115</ele>
        <time>2014-08-24T09:19:21Z</time>
      </trkpt>
      <trkpt lat="49.13136" lon="0.70436">
        <ele>116</ele>
        <time>2014-08-24T09:19:22Z</time>
      </trkpt>
      <trkpt lat="49.13137" lon="0.70433">
        <ele>116</ele>
        <time>2014-08-24T09:19:23Z</time>
      </trkpt>
      <trkpt lat="49.13138" lon="0.70427">
        <ele>116</ele>
        <time>2014-08-24T09:19:25Z</time>
      </trkpt>
      <trkpt lat="49.13138" lon="0.70425">
        <ele>117</ele>
        <time>2014-08-24T09:19:26Z</time>
      </trkpt>
      <trkpt lat="49.13139" lon="0.70422">
        <ele>117</ele>
        <time>2014-08-24T09:19:27Z</time>
      </trkpt>
      <trkpt lat="49.1314" lon="0.70419">
        <ele>117</ele>
        <time>2014-08-24T09:19:28Z</time>
      </trkpt>
      <trkpt lat="49.13142" lon="0.70416">
        <ele>117</ele>
        <time>2014-08-24T09:19:29Z</time>
      </trkpt>
      <trkpt lat="49.13143" lon="0.70413">
        <ele>117</ele>
        <time>2014-08-24T09:19:30Z</time>
      </trkpt>
      <trkpt lat="49.1315" lon="0.70397">
        <ele>118</ele>
        <time>2014-08-24T09:19:36Z</time>
      </trkpt>
      <trkpt lat="49.1315" lon="0.70396">
        <ele>118</ele>
        <time>2014-08-24T09:19:37Z</time>
      </trkpt>
      <trkpt lat="49.13151" lon="0.70393">
        <ele>119</ele>
        <time>2014-08-24T09:19:38Z</time>
      </trkpt>
      <trkpt lat="49.13152" lon="0.7039">
        <ele>119</ele>
        <time>2014-08-24T09:19:39Z</time>
      </trkpt>
      <trkpt lat="49.13153" lon="0.70388">
        <ele>119</ele>
        <time>2014-08-24T09:19:40Z</time>
      </trkpt>
      <trkpt lat="49.13157" lon="0.7038">
        <ele>120</ele>
        <time>2014-08-24T09:19:44Z</time>
      </trkpt>
      <trkpt lat="49.13158" lon="0.70378">
        <ele>120</ele>
        <time>2014-08-24T09:19:45Z</time>
      </trkpt>
      <trkpt lat="49.1316" lon="0.70376">
        <ele>120</ele>
        <time>2014-08-24T09:19:46Z</time>
      </trkpt>
      <trkpt lat="49.13161" lon="0.70373">
        <ele>120</ele>
        <time>2014-08-24T09:19:47Z</time>
      </trkpt>
      <trkpt lat="49.13162" lon="0.70371">
        <ele>120</ele>
        <time>2014-08-24T09:19:48Z</time>
      </trkpt>
      <trkpt lat="49.13165" lon="0.70363">
        <ele>121</ele>
        <time>2014-08-24T09:19:51Z</time>
      </trkpt>
      <trkpt lat="49.13167" lon="0.70357">
        <ele>121</ele>
        <time>2014-08-24T09:19:54Z</time>
      </trkpt>
      <trkpt lat="49.13168" lon="0.70355">
        <ele>121</ele>
        <time>2014-08-24T09:19:55Z</time>
      </trkpt>
      <trkpt lat="49.13169" lon="0.70353">
        <ele>122</ele>
        <time>2014-08-24T09:19:56Z</time>
      </trkpt>
      <trkpt lat="49.1317" lon="0.70352">
        <ele>122</ele>
        <time>2014-08-24T09:19:57Z</time>
      </trkpt>
      <trkpt lat="49.13171" lon="0.7035">
        <ele>122</ele>
        <time>2014-08-24T09:19:58Z</time>
      </trkpt>
      <trkpt lat="49.13182" lon="0.70334">
        <ele>123</ele>
        <time>2014-08-24T09:20:04Z</time>
      </trkpt>
      <trkpt lat="49.13185" lon="0.70329">
        <ele>123</ele>
        <time>2014-08-24T09:20:06Z</time>
      </trkpt>
      <trkpt lat="49.13185" lon="0.70326">
        <ele>123</ele>
        <time>2014-08-24T09:20:07Z</time>
      </trkpt>
      <trkpt lat="49.13187" lon="0.70323">
        <ele>123</ele>
        <time>2014-08-24T09:20:08Z</time>
      </trkpt>
      <trkpt lat="49.13188" lon="0.70319">
        <ele>123</ele>
        <time>2014-08-24T09:20:09Z</time>
      </trkpt>
      <trkpt lat="49.13189" lon="0.70317">
        <ele>123</ele>
        <time>2014-08-24T09:20:10Z</time>
      </trkpt>
      <trkpt lat="49.13191" lon="0.70313">
        <ele>123</ele>
        <time>2014-08-24T09:20:12Z</time>
      </trkpt>
      <trkpt lat="49.13199" lon="0.70291">
        <ele>124</ele>
        <time>2014-08-24T09:20:19Z</time>
      </trkpt>
      <trkpt lat="49.132" lon="0.70289">
        <ele>124</ele>
        <time>2014-08-24T09:20:20Z</time>
      </trkpt>
      <trkpt lat="49.13201" lon="0.70286">
        <ele>124</ele>
        <time>2014-08-24T09:20:21Z</time>
      </trkpt>
      <trkpt lat="49.13202" lon="0.70283">
        <ele>124</ele>
        <time>2014-08-24T09:20:22Z</time>
      </trkpt>
      <trkpt lat="49.13203" lon="0.70281">
        <ele>124</ele>
        <time>2014-08-24T09:20:23Z</time>
      </trkpt>
      <trkpt lat="49.13209" lon="0.70263">
        <ele>125</ele>
        <time>2014-08-24T09:20:29Z</time>
      </trkpt>
      <trkpt lat="49.13219" lon="0.70235">
        <ele>126</ele>
        <time>2014-08-24T09:20:37Z</time>
      </trkpt>
      <trkpt lat="49.1322" lon="0.70229">
        <ele>126</ele>
        <time>2014-08-24T09:20:38Z</time>
      </trkpt>
      <trkpt lat="49.13221" lon="0.70224">
        <ele>126</ele>
        <time>2014-08-24T09:20:39Z</time>
      </trkpt>
      <trkpt lat="49.13221" lon="0.70218">
        <ele>126</ele>
        <time>2014-08-24T09:20:40Z</time>
      </trkpt>
      <trkpt lat="49.1322" lon="0.70214">
        <ele>126</ele>
        <time>2014-08-24T09:20:41Z</time>
      </trkpt>
      <trkpt lat="49.13226" lon="0.70197">
        <ele>125</ele>
        <time>2014-08-24T09:20:45Z</time>
      </trkpt>
      <trkpt lat="49.13233" lon="0.70164">
        <ele>125</ele>
        <time>2014-08-24T09:20:53Z</time>
      </trkpt>
      <trkpt lat="49.13238" lon="0.70148">
        <ele>124</ele>
        <time>2014-08-24T09:20:58Z</time>
      </trkpt>
      <trkpt lat="49.13251" lon="0.70114">
        <ele>126</ele>
        <time>2014-08-24T09:21:03Z</time>
      </trkpt>
      <trkpt lat="49.13264" lon="0.70064">
        <ele>129</ele>
        <time>2014-08-24T09:21:10Z</time>
      </trkpt>
      <trkpt lat="49.13266" lon="0.70052">
        <ele>129</ele>
        <time>2014-08-24T09:21:11Z</time>
      </trkpt>
      <trkpt lat="49.13268" lon="0.70045">
        <ele>129</ele>
        <time>2014-08-24T09:21:12Z</time>
      </trkpt>
      <trkpt lat="49.13269" lon="0.70039">
        <ele>129</ele>
        <time>2014-08-24T09:21:13Z</time>
      </trkpt>
      <trkpt lat="49.13271" lon="0.70034">
        <ele>130</ele>
        <time>2014-08-24T09:21:14Z</time>
      </trkpt>
      <trkpt lat="49.13271" lon="0.70029">
        <ele>130</ele>
        <time>2014-08-24T09:21:15Z</time>
      </trkpt>
      <trkpt lat="49.13273" lon="0.70016">
        <ele>130</ele>
        <time>2014-08-24T09:21:18Z</time>
      </trkpt>
      <trkpt lat="49.13272" lon="0.69985">
        <ele>130</ele>
        <time>2014-08-24T09:21:24Z</time>
      </trkpt>
      <trkpt lat="49.13271" lon="0.69956">
        <ele>131</ele>
        <time>2014-08-24T09:21:30Z</time>
      </trkpt>
      <trkpt lat="49.13271" lon="0.69951">
        <ele>131</ele>
        <time>2014-08-24T09:21:31Z</time>
      </trkpt>
      <trkpt lat="49.13271" lon="0.69946">
        <ele>131</ele>
        <time>2014-08-24T09:21:32Z</time>
      </trkpt>
      <trkpt lat="49.13271" lon="0.69941">
        <ele>131</ele>
        <time>2014-08-24T09:21:33Z</time>
      </trkpt>
      <trkpt lat="49.13271" lon="0.69936">
        <ele>131</ele>
        <time>2014-08-24T09:21:34Z</time>
      </trkpt>
      <trkpt lat="49.1327" lon="0.6991">
        <ele>131</ele>
        <time>2014-08-24T09:21:39Z</time>
      </trkpt>
      <trkpt lat="49.13265" lon="0.69863">
        <ele>132</ele>
        <time>2014-08-24T09:21:48Z</time>
      </trkpt>
      <trkpt lat="49.13264" lon="0.69828">
        <ele>132</ele>
        <time>2014-08-24T09:21:55Z</time>
      </trkpt>
      <trkpt lat="49.13264" lon="0.69812">
        <ele>132</ele>
        <time>2014-08-24T09:21:58Z</time>
      </trkpt>
      <trkpt lat="49.13264" lon="0.69806">
        <ele>132</ele>
        <time>2014-08-24T09:21:59Z</time>
      </trkpt>
      <trkpt lat="49.13264" lon="0.69801">
        <ele>132</ele>
        <time>2014-08-24T09:22:00Z</time>
      </trkpt>
      <trkpt lat="49.13265" lon="0.69795">
        <ele>132</ele>
        <time>2014-08-24T09:22:01Z</time>
      </trkpt>
      <trkpt lat="49.13265" lon="0.6979">
        <ele>133</ele>
        <time>2014-08-24T09:22:02Z</time>
      </trkpt>
      <trkpt lat="49.13266" lon="0.69778">
        <ele>133</ele>
        <time>2014-08-24T09:22:04Z</time>
      </trkpt>
      <trkpt lat="49.13264" lon="0.6974">
        <ele>133</ele>
        <time>2014-08-24T09:22:11Z</time>
      </trkpt>
      <trkpt lat="49.13245" lon="0.69723">
        <ele>132</ele>
        <time>2014-08-24T09:22:16Z</time>
      </trkpt>
      <trkpt lat="49.13221" lon="0.69703">
        <ele>131</ele>
        <time>2014-08-24T09:22:23Z</time>
      </trkpt>
      <trkpt lat="49.13209" lon="0.69693">
        <ele>130</ele>
        <time>2014-08-24T09:22:26Z</time>
      </trkpt>
      <trkpt lat="49.13202" lon="0.69684">
        <ele>130</ele>
        <time>2014-08-24T09:22:28Z</time>
      </trkpt>
      <trkpt lat="49.13199" lon="0.69679">
        <ele>130</ele>
        <time>2014-08-24T09:22:29Z</time>
      </trkpt>
      <trkpt lat="49.13197" lon="0.69674">
        <ele>130</ele>
        <time>2014-08-24T09:22:30Z</time>
      </trkpt>
      <trkpt lat="49.13195" lon="0.69667">
        <ele>130</ele>
        <time>2014-08-24T09:22:31Z</time>
      </trkpt>
      <trkpt lat="49.13193" lon="0.69661">
        <ele>130</ele>
        <time>2014-08-24T09:22:32Z</time>
      </trkpt>
      <trkpt lat="49.1319" lon="0.69651">
        <ele>130</ele>
        <time>2014-08-24T09:22:34Z</time>
      </trkpt>
      <trkpt lat="49.13185" lon="0.69638">
        <ele>130</ele>
        <time>2014-08-24T09:22:39Z</time>
      </trkpt>
      <trkpt lat="49.13184" lon="0.69627">
        <ele>130</ele>
        <time>2014-08-24T09:22:43Z</time>
      </trkpt>
      <trkpt lat="49.13182" lon="0.69625">
        <ele>130</ele>
        <time>2014-08-24T09:22:44Z</time>
      </trkpt>
      <trkpt lat="49.13181" lon="0.69621">
        <ele>130</ele>
        <time>2014-08-24T09:22:45Z</time>
      </trkpt>
      <trkpt lat="49.13179" lon="0.69618">
        <ele>130</ele>
        <time>2014-08-24T09:22:46Z</time>
      </trkpt>
      <trkpt lat="49.13178" lon="0.69614">
        <ele>130</ele>
        <time>2014-08-24T09:22:47Z</time>
      </trkpt>
      <trkpt lat="49.13173" lon="0.69593">
        <ele>131</ele>
        <time>2014-08-24T09:22:53Z</time>
      </trkpt>
      <trkpt lat="49.13171" lon="0.69586">
        <ele>131</ele>
        <time>2014-08-24T09:22:55Z</time>
      </trkpt>
      <trkpt lat="49.13169" lon="0.69584">
        <ele>131</ele>
        <time>2014-08-24T09:22:56Z</time>
      </trkpt>
      <trkpt lat="49.13168" lon="0.6958">
        <ele>131</ele>
        <time>2014-08-24T09:22:57Z</time>
      </trkpt>
      <trkpt lat="49.13167" lon="0.69576">
        <ele>131</ele>
        <time>2014-08-24T09:22:58Z</time>
      </trkpt>
      <trkpt lat="49.13166" lon="0.69572">
        <ele>131</ele>
        <time>2014-08-24T09:22:59Z</time>
      </trkpt>
      <trkpt lat="49.13159" lon="0.69548">
        <ele>132</ele>
        <time>2014-08-24T09:23:05Z</time>
      </trkpt>
      <trkpt lat="49.13154" lon="0.69527">
        <ele>133</ele>
        <time>2014-08-24T09:23:10Z</time>
      </trkpt>
      <trkpt lat="49.13153" lon="0.69505">
        <ele>134</ele>
        <time>2014-08-24T09:23:14Z</time>
      </trkpt>
      <trkpt lat="49.13155" lon="0.69497">
        <ele>134</ele>
        <time>2014-08-24T09:23:15Z</time>
      </trkpt>
      <trkpt lat="49.13154" lon="0.69492">
        <ele>135</ele>
        <time>2014-08-24T09:23:16Z</time>
      </trkpt>
      <trkpt lat="49.13152" lon="0.69485">
        <ele>135</ele>
        <time>2014-08-24T09:23:17Z</time>
      </trkpt>
      <trkpt lat="49.13149" lon="0.69479">
        <ele>135</ele>
        <time>2014-08-24T09:23:18Z</time>
      </trkpt>
      <trkpt lat="49.13137" lon="0.69453">
        <ele>136</ele>
        <time>2014-08-24T09:23:23Z</time>
      </trkpt>
      <trkpt lat="49.13121" lon="0.69423">
        <ele>136</ele>
        <time>2014-08-24T09:23:29Z</time>
      </trkpt>
      <trkpt lat="49.13107" lon="0.69386">
        <ele>136</ele>
        <time>2014-08-24T09:23:36Z</time>
      </trkpt>
      <trkpt lat="49.13094" lon="0.69339">
        <ele>136</ele>
        <time>2014-08-24T09:23:44Z</time>
      </trkpt>
      <trkpt lat="49.13077" lon="0.6927">
        <ele>135</ele>
        <time>2014-08-24T09:23:53Z</time>
      </trkpt>
      <trkpt lat="49.13064" lon="0.69221">
        <ele>135</ele>
        <time>2014-08-24T09:24:00Z</time>
      </trkpt>
      <trkpt lat="49.13062" lon="0.69215">
        <ele>135</ele>
        <time>2014-08-24T09:24:01Z</time>
      </trkpt>
      <trkpt lat="49.1306" lon="0.69208">
        <ele>135</ele>
        <time>2014-08-24T09:24:02Z</time>
      </trkpt>
      <trkpt lat="49.13058" lon="0.69201">
        <ele>135</ele>
        <time>2014-08-24T09:24:03Z</time>
      </trkpt>
      <trkpt lat="49.13056" lon="0.69195">
        <ele>135</ele>
        <time>2014-08-24T09:24:04Z</time>
      </trkpt>
      <trkpt lat="49.13054" lon="0.69189">
        <ele>134</ele>
        <time>2014-08-24T09:24:05Z</time>
      </trkpt>
      <trkpt lat="49.13052" lon="0.69183">
        <ele>134</ele>
        <time>2014-08-24T09:24:06Z</time>
      </trkpt>
      <trkpt lat="49.13047" lon="0.69165">
        <ele>134</ele>
        <time>2014-08-24T09:24:09Z</time>
      </trkpt>
      <trkpt lat="49.13043" lon="0.69139">
        <ele>134</ele>
        <time>2014-08-24T09:24:14Z</time>
      </trkpt>
      <trkpt lat="49.13037" lon="0.69106">
        <ele>133</ele>
        <time>2014-08-24T09:24:19Z</time>
      </trkpt>
      <trkpt lat="49.13033" lon="0.69092">
        <ele>133</ele>
        <time>2014-08-24T09:24:21Z</time>
      </trkpt>
      <trkpt lat="49.13031" lon="0.69085">
        <ele>133</ele>
        <time>2014-08-24T09:24:22Z</time>
      </trkpt>
      <trkpt lat="49.13029" lon="0.69079">
        <ele>133</ele>
        <time>2014-08-24T09:24:23Z</time>
      </trkpt>
      <trkpt lat="49.13028" lon="0.69074">
        <ele>133</ele>
        <time>2014-08-24T09:24:24Z</time>
      </trkpt>
      <trkpt lat="49.13026" lon="0.69068">
        <ele>133</ele>
        <time>2014-08-24T09:24:25Z</time>
      </trkpt>
      <trkpt lat="49.13018" lon="0.69034">
        <ele>133</ele>
        <time>2014-08-24T09:24:32Z</time>
      </trkpt>
      <trkpt lat="49.13012" lon="0.69006">
        <ele>134</ele>
        <time>2014-08-24T09:24:39Z</time>
      </trkpt>
      <trkpt lat="49.13007" lon="0.68979">
        <ele>134</ele>
        <time>2014-08-24T09:24:46Z</time>
      </trkpt>
      <trkpt lat="49.13006" lon="0.68975">
        <ele>134</ele>
        <time>2014-08-24T09:24:47Z</time>
      </trkpt>
      <trkpt lat="49.13007" lon="0.6897">
        <ele>134</ele>
        <time>2014-08-24T09:24:48Z</time>
      </trkpt>
      <trkpt lat="49.13006" lon="0.68967">
        <ele>134</ele>
        <time>2014-08-24T09:24:49Z</time>
      </trkpt>
      <trkpt lat="49.13006" lon="0.68962">
        <ele>134</ele>
        <time>2014-08-24T09:24:50Z</time>
      </trkpt>
      <trkpt lat="49.13003" lon="0.68939">
        <ele>135</ele>
        <time>2014-08-24T09:24:56Z</time>
      </trkpt>
      <trkpt lat="49.13" lon="0.6891">
        <ele>135</ele>
        <time>2014-08-24T09:25:03Z</time>
      </trkpt>
      <trkpt lat="49.12997" lon="0.68886">
        <ele>136</ele>
        <time>2014-08-24T09:25:09Z</time>
      </trkpt>
      <trkpt lat="49.12996" lon="0.68882">
        <ele>136</ele>
        <time>2014-08-24T09:25:10Z</time>
      </trkpt>
      <trkpt lat="49.12996" lon="0.68878">
        <ele>136</ele>
        <time>2014-08-24T09:25:11Z</time>
      </trkpt>
      <trkpt lat="49.12996" lon="0.68874">
        <ele>136</ele>
        <time>2014-08-24T09:25:12Z</time>
      </trkpt>
      <trkpt lat="49.12995" lon="0.6887">
        <ele>136</ele>
        <time>2014-08-24T09:25:13Z</time>
      </trkpt>
      <trkpt lat="49.12989" lon="0.68826">
        <ele>137</ele>
        <time>2014-08-24T09:25:23Z</time>
      </trkpt>
      <trkpt lat="49.12987" lon="0.68784">
        <ele>137</ele>
        <time>2014-08-24T09:25:32Z</time>
      </trkpt>
      <trkpt lat="49.12986" lon="0.68733">
        <ele>139</ele>
        <time>2014-08-24T09:25:43Z</time>
      </trkpt>
      <trkpt lat="49.12987" lon="0.68698">
        <ele>139</ele>
        <time>2014-08-24T09:25:50Z</time>
      </trkpt>
      <trkpt lat="49.12988" lon="0.68694">
        <ele>139</ele>
        <time>2014-08-24T09:25:51Z</time>
      </trkpt>
      <trkpt lat="49.12988" lon="0.6869">
        <ele>139</ele>
        <time>2014-08-24T09:25:52Z</time>
      </trkpt>
      <trkpt lat="49.12988" lon="0.68686">
        <ele>139</ele>
        <time>2014-08-24T09:25:53Z</time>
      </trkpt>
      <trkpt lat="49.12988" lon="0.68682">
        <ele>139</ele>
        <time>2014-08-24T09:25:54Z</time>
      </trkpt>
      <trkpt lat="49.12988" lon="0.6866">
        <ele>140</ele>
        <time>2014-08-24T09:25:59Z</time>
      </trkpt>
      <trkpt lat="49.12993" lon="0.68615">
        <ele>140</ele>
        <time>2014-08-24T09:26:10Z</time>
      </trkpt>
      <trkpt lat="49.12999" lon="0.68583">
        <ele>141</ele>
        <time>2014-08-24T09:26:18Z</time>
      </trkpt>
      <trkpt lat="49.13001" lon="0.68576">
        <ele>141</ele>
        <time>2014-08-24T09:26:20Z</time>
      </trkpt>
      <trkpt lat="49.13002" lon="0.68571">
        <ele>141</ele>
        <time>2014-08-24T09:26:21Z</time>
      </trkpt>
      <trkpt lat="49.13004" lon="0.68566">
        <ele>141</ele>
        <time>2014-08-24T09:26:22Z</time>
      </trkpt>
      <trkpt lat="49.13005" lon="0.68562">
        <ele>141</ele>
        <time>2014-08-24T09:26:23Z</time>
      </trkpt>
      <trkpt lat="49.13006" lon="0.68557">
        <ele>141</ele>
        <time>2014-08-24T09:26:24Z</time>
      </trkpt>
      <trkpt lat="49.1301" lon="0.68544">
        <ele>141</ele>
        <time>2014-08-24T09:26:27Z</time>
      </trkpt>
      <trkpt lat="49.1302" lon="0.68512">
        <ele>142</ele>
        <time>2014-08-24T09:26:35Z</time>
      </trkpt>
      <trkpt lat="49.13024" lon="0.68477">
        <ele>142</ele>
        <time>2014-08-24T09:26:42Z</time>
      </trkpt>
      <trkpt lat="49.13018" lon="0.68447">
        <ele>142</ele>
        <time>2014-08-24T09:26:49Z</time>
      </trkpt>
      <trkpt lat="49.13006" lon="0.68431">
        <ele>142</ele>
        <time>2014-08-24T09:26:54Z</time>
      </trkpt>
      <trkpt lat="49.12997" lon="0.68424">
        <ele>142</ele>
        <time>2014-08-24T09:26:57Z</time>
      </trkpt>
      <trkpt lat="49.12993" lon="0.68421">
        <ele>142</ele>
        <time>2014-08-24T09:26:58Z</time>
      </trkpt>
      <trkpt lat="49.12979" lon="0.68403">
        <ele>142</ele>
        <time>2014-08-24T09:27:04Z</time>
      </trkpt>
      <trkpt lat="49.12963" lon="0.6841">
        <ele>142</ele>
        <time>2014-08-24T09:27:08Z</time>
      </trkpt>
      <trkpt lat="49.12936" lon="0.68425">
        <ele>141</ele>
        <time>2014-08-24T09:27:14Z</time>
      </trkpt>
      <trkpt lat="49.12922" lon="0.68434">
        <ele>141</ele>
        <time>2014-08-24T09:27:17Z</time>
      </trkpt>
      <trkpt lat="49.1291" lon="0.68438">
        <ele>141</ele>
        <time>2014-08-24T09:27:19Z</time>
      </trkpt>
      <trkpt lat="49.12872" lon="0.68442">
        <ele>140</ele>
        <time>2014-08-24T09:27:24Z</time>
      </trkpt>
      <trkpt lat="49.12851" lon="0.68445">
        <ele>139</ele>
        <time>2014-08-24T09:27:27Z</time>
      </trkpt>
      <trkpt lat="49.12834" lon="0.68454">
        <ele>139</ele>
        <time>2014-08-24T09:27:30Z</time>
      </trkpt>
      <trkpt lat="49.1283" lon="0.68459">
        <ele>139</ele>
        <time>2014-08-24T09:27:31Z</time>
      </trkpt>
      <trkpt lat="49.12827" lon="0.68465">
        <ele>139</ele>
        <time>2014-08-24T09:27:32Z</time>
      </trkpt>
      <trkpt lat="49.12824" lon="0.68474">
        <ele>139</ele>
        <time>2014-08-24T09:27:33Z</time>
      </trkpt>
      <trkpt lat="49.12821" lon="0.68483">
        <ele>138</ele>
        <time>2014-08-24T09:27:34Z</time>
      </trkpt>
      <trkpt lat="49.12817" lon="0.68492">
        <ele>138</ele>
        <time>2014-08-24T09:27:35Z</time>
      </trkpt>
      <trkpt lat="49.128" lon="0.68525">
        <ele>137</ele>
        <time>2014-08-24T09:27:39Z</time>
      </trkpt>
      <trkpt lat="49.12788" lon="0.6855">
        <ele>136</ele>
        <time>2014-08-24T09:27:42Z</time>
      </trkpt>
      <trkpt lat="49.12783" lon="0.6856">
        <ele>136</ele>
        <time>2014-08-24T09:27:43Z</time>
      </trkpt>
      <trkpt lat="49.12779" lon="0.68569">
        <ele>135</ele>
        <time>2014-08-24T09:27:44Z</time>
      </trkpt>
      <trkpt lat="49.12775" lon="0.68577">
        <ele>135</ele>
        <time>2014-08-24T09:27:45Z</time>
      </trkpt>
      <trkpt lat="49.1277" lon="0.68584">
        <ele>134</ele>
        <time>2014-08-24T09:27:46Z</time>
      </trkpt>
      <trkpt lat="49.12766" lon="0.68591">
        <ele>134</ele>
        <time>2014-08-24T09:27:47Z</time>
      </trkpt>
      <trkpt lat="49.1276" lon="0.68599">
        <ele>133</ele>
        <time>2014-08-24T09:27:48Z</time>
      </trkpt>
      <trkpt lat="49.12754" lon="0.68607">
        <ele>132</ele>
        <time>2014-08-24T09:27:49Z</time>
      </trkpt>
      <trkpt lat="49.1275" lon="0.68615">
        <ele>132</ele>
        <time>2014-08-24T09:27:50Z</time>
      </trkpt>
      <trkpt lat="49.12744" lon="0.68624">
        <ele>131</ele>
        <time>2014-08-24T09:27:51Z</time>
      </trkpt>
      <trkpt lat="49.12739" lon="0.68631">
        <ele>131</ele>
        <time>2014-08-24T09:27:52Z</time>
      </trkpt>
      <trkpt lat="49.12733" lon="0.6864">
        <ele>131</ele>
        <time>2014-08-24T09:27:53Z</time>
      </trkpt>
      <trkpt lat="49.12727" lon="0.68643">
        <ele>130</ele>
        <time>2014-08-24T09:27:54Z</time>
      </trkpt>
      <trkpt lat="49.1272" lon="0.68647">
        <ele>130</ele>
        <time>2014-08-24T09:27:55Z</time>
      </trkpt>
      <trkpt lat="49.12714" lon="0.68649">
        <ele>130</ele>
        <time>2014-08-24T09:27:56Z</time>
      </trkpt>
      <trkpt lat="49.12708" lon="0.68652">
        <ele>129</ele>
        <time>2014-08-24T09:27:57Z</time>
      </trkpt>
      <trkpt lat="49.12697" lon="0.68656">
        <ele>129</ele>
        <time>2014-08-24T09:27:59Z</time>
      </trkpt>
      <trkpt lat="49.1266" lon="0.68675">
        <ele>131</ele>
        <time>2014-08-24T09:28:06Z</time>
      </trkpt>
      <trkpt lat="49.12622" lon="0.68684">
        <ele>131</ele>
        <time>2014-08-24T09:28:14Z</time>
      </trkpt>
      <trkpt lat="49.12595" lon="0.68689">
        <ele>132</ele>
        <time>2014-08-24T09:28:21Z</time>
      </trkpt>
      <trkpt lat="49.12592" lon="0.6869">
        <ele>132</ele>
        <time>2014-08-24T09:28:22Z</time>
      </trkpt>
      <trkpt lat="49.12589" lon="0.68691">
        <ele>132</ele>
        <time>2014-08-24T09:28:23Z</time>
      </trkpt>
      <trkpt lat="49.12585" lon="0.68692">
        <ele>133</ele>
        <time>2014-08-24T09:28:24Z</time>
      </trkpt>
      <trkpt lat="49.12582" lon="0.68693">
        <ele>133</ele>
        <time>2014-08-24T09:28:25Z</time>
      </trkpt>
      <trkpt lat="49.12564" lon="0.68701">
        <ele>133</ele>
        <time>2014-08-24T09:28:31Z</time>
      </trkpt>
      <trkpt lat="49.12552" lon="0.68708">
        <ele>134</ele>
        <time>2014-08-24T09:28:35Z</time>
      </trkpt>
      <trkpt lat="49.12549" lon="0.6871">
        <ele>134</ele>
        <time>2014-08-24T09:28:36Z</time>
      </trkpt>
      <trkpt lat="49.12547" lon="0.68711">
        <ele>134</ele>
        <time>2014-08-24T09:28:37Z</time>
      </trkpt>
      <trkpt lat="49.12544" lon="0.68712">
        <ele>135</ele>
        <time>2014-08-24T09:28:38Z</time>
      </trkpt>
      <trkpt lat="49.12541" lon="0.68714">
        <ele>135</ele>
        <time>2014-08-24T09:28:39Z</time>
      </trkpt>
      <trkpt lat="49.12529" lon="0.6872">
        <ele>135</ele>
        <time>2014-08-24T09:28:43Z</time>
      </trkpt>
      <trkpt lat="49.12527" lon="0.68722">
        <ele>136</ele>
        <time>2014-08-24T09:28:44Z</time>
      </trkpt>
      <trkpt lat="49.12525" lon="0.68723">
        <ele>136</ele>
        <time>2014-08-24T09:28:45Z</time>
      </trkpt>
      <trkpt lat="49.12522" lon="0.68725">
        <ele>136</ele>
        <time>2014-08-24T09:28:46Z</time>
      </trkpt>
      <trkpt lat="49.1252" lon="0.68726">
        <ele>136</ele>
        <time>2014-08-24T09:28:47Z</time>
      </trkpt>
      <trkpt lat="49.12518" lon="0.68727">
        <ele>136</ele>
        <time>2014-08-24T09:28:48Z</time>
      </trkpt>
      <trkpt lat="49.12514" lon="0.6873">
        <ele>136</ele>
        <time>2014-08-24T09:28:50Z</time>
      </trkpt>
      <trkpt lat="49.12508" lon="0.68735">
        <ele>137</ele>
        <time>2014-08-24T09:28:53Z</time>
      </trkpt>
      <trkpt lat="49.12505" lon="0.68737">
        <ele>137</ele>
        <time>2014-08-24T09:28:54Z</time>
      </trkpt>
      <trkpt lat="49.12505" lon="0.6874">
        <ele>137</ele>
        <time>2014-08-24T09:28:55Z</time>
      </trkpt>
      <trkpt lat="49.12503" lon="0.68742">
        <ele>137</ele>
        <time>2014-08-24T09:28:56Z</time>
      </trkpt>
      <trkpt lat="49.12501" lon="0.68744">
        <ele>138</ele>
        <time>2014-08-24T09:28:57Z</time>
      </trkpt>
      <trkpt lat="49.12481" lon="0.68759">
        <ele>139</ele>
        <time>2014-08-24T09:29:05Z</time>
      </trkpt>
      <trkpt lat="49.12478" lon="0.6876">
        <ele>139</ele>
        <time>2014-08-24T09:29:06Z</time>
      </trkpt>
      <trkpt lat="49.12475" lon="0.68762">
        <ele>139</ele>
        <time>2014-08-24T09:29:07Z</time>
      </trkpt>
      <trkpt lat="49.12472" lon="0.68764">
        <ele>140</ele>
        <time>2014-08-24T09:29:08Z</time>
      </trkpt>
      <trkpt lat="49.12468" lon="0.68766">
        <ele>140</ele>
        <time>2014-08-24T09:29:09Z</time>
      </trkpt>
      <trkpt lat="49.12449" lon="0.68778">
        <ele>140</ele>
        <time>2014-08-24T09:29:15Z</time>
      </trkpt>
      <trkpt lat="49.12395" lon="0.68808">
        <ele>141</ele>
        <time>2014-08-24T09:29:31Z</time>
      </trkpt>
      <trkpt lat="49.12378" lon="0.68818">
        <ele>142</ele>
        <time>2014-08-24T09:29:36Z</time>
      </trkpt>
      <trkpt lat="49.12362" lon="0.68828">
        <ele>142</ele>
        <time>2014-08-24T09:29:41Z</time>
      </trkpt>
      <trkpt lat="49.1236" lon="0.6883">
        <ele>143</ele>
        <time>2014-08-24T09:29:42Z</time>
      </trkpt>
      <trkpt lat="49.12356" lon="0.68832">
        <ele>143</ele>
        <time>2014-08-24T09:29:43Z</time>
      </trkpt>
      <trkpt lat="49.12353" lon="0.68834">
        <ele>143</ele>
        <time>2014-08-24T09:29:44Z</time>
      </trkpt>
      <trkpt lat="49.12347" lon="0.68839">
        <ele>143</ele>
        <time>2014-08-24T09:29:47Z</time>
      </trkpt>
      <trkpt lat="49.12344" lon="0.68841">
        <ele>143</ele>
        <time>2014-08-24T09:29:48Z</time>
      </trkpt>
      <trkpt lat="49.12318" lon="0.6886">
        <ele>144</ele>
        <time>2014-08-24T09:29:57Z</time>
      </trkpt>
      <trkpt lat="49.12306" lon="0.68869">
        <ele>145</ele>
        <time>2014-08-24T09:30:01Z</time>
      </trkpt>
      <trkpt lat="49.12304" lon="0.68872">
        <ele>145</ele>
        <time>2014-08-24T09:30:02Z</time>
      </trkpt>
      <trkpt lat="49.12301" lon="0.68874">
        <ele>145</ele>
        <time>2014-08-24T09:30:03Z</time>
      </trkpt>
      <trkpt lat="49.12298" lon="0.68876">
        <ele>145</ele>
        <time>2014-08-24T09:30:04Z</time>
      </trkpt>
      <trkpt lat="49.12295" lon="0.68878">
        <ele>145</ele>
        <time>2014-08-24T09:30:05Z</time>
      </trkpt>
      <trkpt lat="49.12253" lon="0.6891">
        <ele>147</ele>
        <time>2014-08-24T09:30:20Z</time>
      </trkpt>
      <trkpt lat="49.12243" lon="0.68916">
        <ele>147</ele>
        <time>2014-08-24T09:30:23Z</time>
      </trkpt>
      <trkpt lat="49.1224" lon="0.68918">
        <ele>147</ele>
        <time>2014-08-24T09:30:24Z</time>
      </trkpt>
      <trkpt lat="49.12237" lon="0.6892">
        <ele>147</ele>
        <time>2014-08-24T09:30:25Z</time>
      </trkpt>
      <trkpt lat="49.12233" lon="0.68922">
        <ele>147</ele>
        <time>2014-08-24T09:30:26Z</time>
      </trkpt>
      <trkpt lat="49.1223" lon="0.68924">
        <ele>147</ele>
        <time>2014-08-24T09:30:27Z</time>
      </trkpt>
      <trkpt lat="49.1221" lon="0.68936">
        <ele>148</ele>
        <time>2014-08-24T09:30:33Z</time>
      </trkpt>
      <trkpt lat="49.12167" lon="0.68959">
        <ele>148</ele>
        <time>2014-08-24T09:30:45Z</time>
      </trkpt>
      <trkpt lat="49.12139" lon="0.68973">
        <ele>148</ele>
        <time>2014-08-24T09:30:52Z</time>
      </trkpt>
      <trkpt lat="49.12135" lon="0.68975">
        <ele>148</ele>
        <time>2014-08-24T09:30:53Z</time>
      </trkpt>
      <trkpt lat="49.12093" lon="0.69">
        <ele>149</ele>
        <time>2014-08-24T09:31:03Z</time>
      </trkpt>
      <trkpt lat="49.12042" lon="0.69037">
        <ele>148</ele>
        <time>2014-08-24T09:31:15Z</time>
      </trkpt>
      <trkpt lat="49.12001" lon="0.6908">
        <ele>148</ele>
        <time>2014-08-24T09:31:25Z</time>
      </trkpt>
      <trkpt lat="49.1198" lon="0.69106">
        <ele>148</ele>
        <time>2014-08-24T09:31:30Z</time>
      </trkpt>
      <trkpt lat="49.11976" lon="0.69111">
        <ele>148</ele>
        <time>2014-08-24T09:31:31Z</time>
      </trkpt>
      <trkpt lat="49.11939" lon="0.69157">
        <ele>148</ele>
        <time>2014-08-24T09:31:39Z</time>
      </trkpt>
      <trkpt lat="49.11935" lon="0.69163">
        <ele>148</ele>
        <time>2014-08-24T09:31:40Z</time>
      </trkpt>
      <trkpt lat="49.11905" lon="0.69206">
        <ele>147</ele>
        <time>2014-08-24T09:31:47Z</time>
      </trkpt>
      <trkpt lat="49.119" lon="0.69213">
        <ele>147</ele>
        <time>2014-08-24T09:31:48Z</time>
      </trkpt>
      <trkpt lat="49.11895" lon="0.69219">
        <ele>147</ele>
        <time>2014-08-24T09:31:49Z</time>
      </trkpt>
      <trkpt lat="49.11891" lon="0.69225">
        <ele>147</ele>
        <time>2014-08-24T09:31:50Z</time>
      </trkpt>
      <trkpt lat="49.11886" lon="0.69231">
        <ele>147</ele>
        <time>2014-08-24T09:31:51Z</time>
      </trkpt>
      <trkpt lat="49.11882" lon="0.69238">
        <ele>147</ele>
        <time>2014-08-24T09:31:52Z</time>
      </trkpt>
      <trkpt lat="49.11874" lon="0.69251">
        <ele>147</ele>
        <time>2014-08-24T09:31:54Z</time>
      </trkpt>
      <trkpt lat="49.11844" lon="0.69297">
        <ele>146</ele>
        <time>2014-08-24T09:32:02Z</time>
      </trkpt>
      <trkpt lat="49.11803" lon="0.69362">
        <ele>144</ele>
        <time>2014-08-24T09:32:12Z</time>
      </trkpt>
      <trkpt lat="49.11798" lon="0.69369">
        <ele>144</ele>
        <time>2014-08-24T09:32:13Z</time>
      </trkpt>
      <trkpt lat="49.11768" lon="0.69416">
        <ele>144</ele>
        <time>2014-08-24T09:32:20Z</time>
      </trkpt>
      <trkpt lat="49.11756" lon="0.69438">
        <ele>144</ele>
        <time>2014-08-24T09:32:23Z</time>
      </trkpt>
      <trkpt lat="49.11751" lon="0.69445">
        <ele>144</ele>
        <time>2014-08-24T09:32:24Z</time>
      </trkpt>
      <trkpt lat="49.11747" lon="0.69452">
        <ele>144</ele>
        <time>2014-08-24T09:32:25Z</time>
      </trkpt>
      <trkpt lat="49.11742" lon="0.69459">
        <ele>144</ele>
        <time>2014-08-24T09:32:26Z</time>
      </trkpt>
      <trkpt lat="49.11738" lon="0.69465">
        <ele>144</ele>
        <time>2014-08-24T09:32:27Z</time>
      </trkpt>
      <trkpt lat="49.11733" lon="0.69471">
        <ele>144</ele>
        <time>2014-08-24T09:32:28Z</time>
      </trkpt>
      <trkpt lat="49.11722" lon="0.69487">
        <ele>144</ele>
        <time>2014-08-24T09:32:31Z</time>
      </trkpt>
      <trkpt lat="49.11714" lon="0.695">
        <ele>144</ele>
        <time>2014-08-24T09:32:33Z</time>
      </trkpt>
      <trkpt lat="49.11687" lon="0.69539">
        <ele>144</ele>
        <time>2014-08-24T09:32:40Z</time>
      </trkpt>
      <trkpt lat="49.11662" lon="0.69572">
        <ele>145</ele>
        <time>2014-08-24T09:32:46Z</time>
      </trkpt>
      <trkpt lat="49.1165" lon="0.6959">
        <ele>146</ele>
        <time>2014-08-24T09:32:49Z</time>
      </trkpt>
      <trkpt lat="49.11639" lon="0.6961">
        <ele>145</ele>
        <time>2014-08-24T09:32:52Z</time>
      </trkpt>
      <trkpt lat="49.11633" lon="0.69625">
        <ele>145</ele>
        <time>2014-08-24T09:32:54Z</time>
      </trkpt>
      <trkpt lat="49.11616" lon="0.69683">
        <ele>145</ele>
        <time>2014-08-24T09:33:01Z</time>
      </trkpt>
      <trkpt lat="49.11595" lon="0.69752">
        <ele>145</ele>
        <time>2014-08-24T09:33:09Z</time>
      </trkpt>
      <trkpt lat="49.11588" lon="0.69778">
        <ele>145</ele>
        <time>2014-08-24T09:33:12Z</time>
      </trkpt>
      <trkpt lat="49.11583" lon="0.69802">
        <ele>145</ele>
        <time>2014-08-24T09:33:15Z</time>
      </trkpt>
      <trkpt lat="49.1157" lon="0.6985">
        <ele>145</ele>
        <time>2014-08-24T09:33:22Z</time>
      </trkpt>
      <trkpt lat="49.1156" lon="0.69887">
        <ele>146</ele>
        <time>2014-08-24T09:33:28Z</time>
      </trkpt>
      <trkpt lat="49.11559" lon="0.69893">
        <ele>146</ele>
        <time>2014-08-24T09:33:29Z</time>
      </trkpt>
      <trkpt lat="49.11558" lon="0.69899">
        <ele>146</ele>
        <time>2014-08-24T09:33:30Z</time>
      </trkpt>
      <trkpt lat="49.11555" lon="0.69904">
        <ele>147</ele>
        <time>2014-08-24T09:33:31Z</time>
      </trkpt>
      <trkpt lat="49.11553" lon="0.69909">
        <ele>147</ele>
        <time>2014-08-24T09:33:32Z</time>
      </trkpt>
      <trkpt lat="49.11542" lon="0.69938">
        <ele>147</ele>
        <time>2014-08-24T09:33:38Z</time>
      </trkpt>
      <trkpt lat="49.11528" lon="0.69972">
        <ele>148</ele>
        <time>2014-08-24T09:33:46Z</time>
      </trkpt>
      <trkpt lat="49.11515" lon="0.70006">
        <ele>149</ele>
        <time>2014-08-24T09:33:54Z</time>
      </trkpt>
      <trkpt lat="49.11512" lon="0.70011">
        <ele>149</ele>
        <time>2014-08-24T09:33:55Z</time>
      </trkpt>
      <trkpt lat="49.11509" lon="0.70016">
        <ele>149</ele>
        <time>2014-08-24T09:33:56Z</time>
      </trkpt>
      <trkpt lat="49.11506" lon="0.7002">
        <ele>149</ele>
        <time>2014-08-24T09:33:57Z</time>
      </trkpt>
      <trkpt lat="49.11503" lon="0.70024">
        <ele>149</ele>
        <time>2014-08-24T09:33:58Z</time>
      </trkpt>
      <trkpt lat="49.11501" lon="0.70028">
        <ele>150</ele>
        <time>2014-08-24T09:33:59Z</time>
      </trkpt>
      <trkpt lat="49.115" lon="0.70031">
        <ele>150</ele>
        <time>2014-08-24T09:34:00Z</time>
      </trkpt>
      <trkpt lat="49.11488" lon="0.70054">
        <ele>150</ele>
        <time>2014-08-24T09:34:06Z</time>
      </trkpt>
      <trkpt lat="49.11474" lon="0.70076">
        <ele>151</ele>
        <time>2014-08-24T09:34:12Z</time>
      </trkpt>
      <trkpt lat="49.11471" lon="0.70079">
        <ele>151</ele>
        <time>2014-08-24T09:34:13Z</time>
      </trkpt>
      <trkpt lat="49.11468" lon="0.70082">
        <ele>151</ele>
        <time>2014-08-24T09:34:14Z</time>
      </trkpt>
      <trkpt lat="49.11466" lon="0.70085">
        <ele>151</ele>
        <time>2014-08-24T09:34:15Z</time>
      </trkpt>
      <trkpt lat="49.11463" lon="0.70088">
        <ele>151</ele>
        <time>2014-08-24T09:34:16Z</time>
      </trkpt>
      <trkpt lat="49.11456" lon="0.70095">
        <ele>151</ele>
        <time>2014-08-24T09:34:18Z</time>
      </trkpt>
      <trkpt lat="49.1144" lon="0.70109">
        <ele>152</ele>
        <time>2014-08-24T09:34:24Z</time>
      </trkpt>
      <trkpt lat="49.11419" lon="0.70126">
        <ele>152</ele>
        <time>2014-08-24T09:34:30Z</time>
      </trkpt>
      <trkpt lat="49.11409" lon="0.70137">
        <ele>152</ele>
        <time>2014-08-24T09:34:33Z</time>
      </trkpt>
      <trkpt lat="49.11406" lon="0.7014">
        <ele>152</ele>
        <time>2014-08-24T09:34:34Z</time>
      </trkpt>
      <trkpt lat="49.11403" lon="0.70144">
        <ele>152</ele>
        <time>2014-08-24T09:34:35Z</time>
      </trkpt>
      <trkpt lat="49.11401" lon="0.70147">
        <ele>152</ele>
        <time>2014-08-24T09:34:36Z</time>
      </trkpt>
      <trkpt lat="49.11397" lon="0.70152">
        <ele>152</ele>
        <time>2014-08-24T09:34:37Z</time>
      </trkpt>
      <trkpt lat="49.11383" lon="0.70167">
        <ele>152</ele>
        <time>2014-08-24T09:34:42Z</time>
      </trkpt>
      <trkpt lat="49.1137" lon="0.70193">
        <ele>153</ele>
        <time>2014-08-24T09:34:48Z</time>
      </trkpt>
      <trkpt lat="49.11347" lon="0.70249">
        <ele>152</ele>
        <time>2014-08-24T09:34:58Z</time>
      </trkpt>
      <trkpt lat="49.11338" lon="0.70269">
        <ele>152</ele>
        <time>2014-08-24T09:35:02Z</time>
      </trkpt>
      <trkpt lat="49.11335" lon="0.7027">
        <ele>151</ele>
        <time>2014-08-24T09:35:03Z</time>
      </trkpt>
      <trkpt lat="49.11316" lon="0.70273">
        <ele>150</ele>
        <time>2014-08-24T09:35:07Z</time>
      </trkpt>
      <trkpt lat="49.11305" lon="0.70275">
        <ele>149</ele>
        <time>2014-08-24T09:35:09Z</time>
      </trkpt>
      <trkpt lat="49.11294" lon="0.70286">
        <ele>149</ele>
        <time>2014-08-24T09:35:11Z</time>
      </trkpt>
      <trkpt lat="49.11287" lon="0.7031">
        <ele>147</ele>
        <time>2014-08-24T09:35:14Z</time>
      </trkpt>
      <trkpt lat="49.11285" lon="0.70319">
        <ele>147</ele>
        <time>2014-08-24T09:35:15Z</time>
      </trkpt>
      <trkpt lat="49.11282" lon="0.70325">
        <ele>146</ele>
        <time>2014-08-24T09:35:16Z</time>
      </trkpt>
      <trkpt lat="49.11279" lon="0.70329">
        <ele>146</ele>
        <time>2014-08-24T09:35:17Z</time>
      </trkpt>
      <trkpt lat="49.11276" lon="0.70332">
        <ele>145</ele>
        <time>2014-08-24T09:35:18Z</time>
      </trkpt>
      <trkpt lat="49.11272" lon="0.70335">
        <ele>144</ele>
        <time>2014-08-24T09:35:19Z</time>
      </trkpt>
      <trkpt lat="49.11269" lon="0.70336">
        <ele>143</ele>
        <time>2014-08-24T09:35:20Z</time>
      </trkpt>
      <trkpt lat="49.11266" lon="0.70339">
        <ele>142</ele>
        <time>2014-08-24T09:35:21Z</time>
      </trkpt>
      <trkpt lat="49.11263" lon="0.70339">
        <ele>141</ele>
        <time>2014-08-24T09:35:22Z</time>
      </trkpt>
      <trkpt lat="49.1126" lon="0.7034">
        <ele>140</ele>
        <time>2014-08-24T09:35:23Z</time>
      </trkpt>
      <trkpt lat="49.11256" lon="0.70339">
        <ele>140</ele>
        <time>2014-08-24T09:35:24Z</time>
      </trkpt>
      <trkpt lat="49.11251" lon="0.70338">
        <ele>138</ele>
        <time>2014-08-24T09:35:25Z</time>
      </trkpt>
      <trkpt lat="49.11247" lon="0.70337">
        <ele>138</ele>
        <time>2014-08-24T09:35:26Z</time>
      </trkpt>
      <trkpt lat="49.11241" lon="0.70339">
        <ele>136</ele>
        <time>2014-08-24T09:35:27Z</time>
      </trkpt>
      <trkpt lat="49.11236" lon="0.70341">
        <ele>135</ele>
        <time>2014-08-24T09:35:28Z</time>
      </trkpt>
      <trkpt lat="49.11232" lon="0.70344">
        <ele>133</ele>
        <time>2014-08-24T09:35:29Z</time>
      </trkpt>
      <trkpt lat="49.11227" lon="0.70346">
        <ele>131</ele>
        <time>2014-08-24T09:35:30Z</time>
      </trkpt>
      <trkpt lat="49.11223" lon="0.70347">
        <ele>130</ele>
        <time>2014-08-24T09:35:31Z</time>
      </trkpt>
      <trkpt lat="49.11218" lon="0.70347">
        <ele>128</ele>
        <time>2014-08-24T09:35:32Z</time>
      </trkpt>
      <trkpt lat="49.11212" lon="0.70346">
        <ele>126</ele>
        <time>2014-08-24T09:35:33Z</time>
      </trkpt>
      <trkpt lat="49.11207" lon="0.70345">
        <ele>125</ele>
        <time>2014-08-24T09:35:34Z</time>
      </trkpt>
      <trkpt lat="49.11202" lon="0.70346">
        <ele>123</ele>
        <time>2014-08-24T09:35:35Z</time>
      </trkpt>
      <trkpt lat="49.11197" lon="0.70347">
        <ele>121</ele>
        <time>2014-08-24T09:35:36Z</time>
      </trkpt>
      <trkpt lat="49.11192" lon="0.70353">
        <ele>120</ele>
        <time>2014-08-24T09:35:37Z</time>
      </trkpt>
      <trkpt lat="49.11189" lon="0.70357">
        <ele>119</ele>
        <time>2014-08-24T09:35:38Z</time>
      </trkpt>
      <trkpt lat="49.11184" lon="0.70364">
        <ele>117</ele>
        <time>2014-08-24T09:35:39Z</time>
      </trkpt>
      <trkpt lat="49.11181" lon="0.70368">
        <ele>117</ele>
        <time>2014-08-24T09:35:40Z</time>
      </trkpt>
      <trkpt lat="49.11181" lon="0.70375">
        <ele>116</ele>
        <time>2014-08-24T09:35:41Z</time>
      </trkpt>
      <trkpt lat="49.1118" lon="0.70382">
        <ele>116</ele>
        <time>2014-08-24T09:35:42Z</time>
      </trkpt>
      <trkpt lat="49.11178" lon="0.7039">
        <ele>115</ele>
        <time>2014-08-24T09:35:43Z</time>
      </trkpt>
      <trkpt lat="49.11177" lon="0.70398">
        <ele>114</ele>
        <time>2014-08-24T09:35:44Z</time>
      </trkpt>
      <trkpt lat="49.11176" lon="0.70405">
        <ele>114</ele>
        <time>2014-08-24T09:35:45Z</time>
      </trkpt>
      <trkpt lat="49.11173" lon="0.70416">
        <ele>113</ele>
        <time>2014-08-24T09:35:46Z</time>
      </trkpt>
      <trkpt lat="49.11171" lon="0.70427">
        <ele>112</ele>
        <time>2014-08-24T09:35:47Z</time>
      </trkpt>
      <trkpt lat="49.1117" lon="0.70436">
        <ele>111</ele>
        <time>2014-08-24T09:35:48Z</time>
      </trkpt>
      <trkpt lat="49.11172" lon="0.70441">
        <ele>111</ele>
        <time>2014-08-24T09:35:49Z</time>
      </trkpt>
      <trkpt lat="49.11172" lon="0.70446">
        <ele>110</ele>
        <time>2014-08-24T09:35:50Z</time>
      </trkpt>
      <trkpt lat="49.11171" lon="0.70448">
        <ele>110</ele>
        <time>2014-08-24T09:35:51Z</time>
      </trkpt>
      <trkpt lat="49.11172" lon="0.7045">
        <ele>110</ele>
        <time>2014-08-24T09:35:52Z</time>
      </trkpt>
      <trkpt lat="49.11172" lon="0.70451">
        <ele>110</ele>
        <time>2014-08-24T09:35:53Z</time>
      </trkpt>
      <trkpt lat="49.11174" lon="0.70454">
        <ele>111</ele>
        <time>2014-08-24T09:35:55Z</time>
      </trkpt>
      <trkpt lat="49.11177" lon="0.70474">
        <ele>110</ele>
        <time>2014-08-24T09:36:01Z</time>
      </trkpt>
      <trkpt lat="49.11172" lon="0.705">
        <ele>107</ele>
        <time>2014-08-24T09:36:05Z</time>
      </trkpt>
      <trkpt lat="49.1117" lon="0.70516">
        <ele>106</ele>
        <time>2014-08-24T09:36:07Z</time>
      </trkpt>
      <trkpt lat="49.1117" lon="0.70524">
        <ele>105</ele>
        <time>2014-08-24T09:36:08Z</time>
      </trkpt>
      <trkpt lat="49.11167" lon="0.70535">
        <ele>103</ele>
        <time>2014-08-24T09:36:09Z</time>
      </trkpt>
      <trkpt lat="49.11165" lon="0.70544">
        <ele>102</ele>
        <time>2014-08-24T09:36:10Z</time>
      </trkpt>
      <trkpt lat="49.11165" lon="0.70555">
        <ele>102</ele>
        <time>2014-08-24T09:36:11Z</time>
      </trkpt>
      <trkpt lat="49.11166" lon="0.70565">
        <ele>102</ele>
        <time>2014-08-24T09:36:12Z</time>
      </trkpt>
      <trkpt lat="49.11164" lon="0.70578">
        <ele>100</ele>
        <time>2014-08-24T09:36:13Z</time>
      </trkpt>
      <trkpt lat="49.11162" lon="0.70589">
        <ele>99</ele>
        <time>2014-08-24T09:36:14Z</time>
      </trkpt>
      <trkpt lat="49.11161" lon="0.706">
        <ele>99</ele>
        <time>2014-08-24T09:36:15Z</time>
      </trkpt>
      <trkpt lat="49.11162" lon="0.7061">
        <ele>99</ele>
        <time>2014-08-24T09:36:16Z</time>
      </trkpt>
      <trkpt lat="49.11162" lon="0.70619">
        <ele>98</ele>
        <time>2014-08-24T09:36:17Z</time>
      </trkpt>
      <trkpt lat="49.11163" lon="0.70629">
        <ele>98</ele>
        <time>2014-08-24T09:36:18Z</time>
      </trkpt>
      <trkpt lat="49.11163" lon="0.70638">
        <ele>98</ele>
        <time>2014-08-24T09:36:19Z</time>
      </trkpt>
      <trkpt lat="49.11163" lon="0.70669">
        <ele>97</ele>
        <time>2014-08-24T09:36:22Z</time>
      </trkpt>
      <trkpt lat="49.11163" lon="0.70677">
        <ele>97</ele>
        <time>2014-08-24T09:36:23Z</time>
      </trkpt>
      <trkpt lat="49.11163" lon="0.70685">
        <ele>96</ele>
        <time>2014-08-24T09:36:24Z</time>
      </trkpt>
      <trkpt lat="49.11162" lon="0.70692">
        <ele>96</ele>
        <time>2014-08-24T09:36:25Z</time>
      </trkpt>
      <trkpt lat="49.11162" lon="0.707">
        <ele>96</ele>
        <time>2014-08-24T09:36:26Z</time>
      </trkpt>
      <trkpt lat="49.11161" lon="0.70709">
        <ele>95</ele>
        <time>2014-08-24T09:36:27Z</time>
      </trkpt>
      <trkpt lat="49.11159" lon="0.70724">
        <ele>95</ele>
        <time>2014-08-24T09:36:29Z</time>
      </trkpt>
      <trkpt lat="49.11158" lon="0.70744">
        <ele>94</ele>
        <time>2014-08-24T09:36:32Z</time>
      </trkpt>
      <trkpt lat="49.11165" lon="0.70757">
        <ele>96</ele>
        <time>2014-08-24T09:36:36Z</time>
      </trkpt>
      <trkpt lat="49.11166" lon="0.7076">
        <ele>97</ele>
        <time>2014-08-24T09:36:37Z</time>
      </trkpt>
      <trkpt lat="49.11169" lon="0.70769">
        <ele>98</ele>
        <time>2014-08-24T09:36:40Z</time>
      </trkpt>
      <trkpt lat="49.11169" lon="0.70772">
        <ele>98</ele>
        <time>2014-08-24T09:36:41Z</time>
      </trkpt>
      <trkpt lat="49.11169" lon="0.70774">
        <ele>98</ele>
        <time>2014-08-24T09:36:42Z</time>
      </trkpt>
      <trkpt lat="49.11167" lon="0.70776">
        <ele>97</ele>
        <time>2014-08-24T09:36:43Z</time>
      </trkpt>
      <trkpt lat="49.11164" lon="0.70777">
        <ele>96</ele>
        <time>2014-08-24T09:36:44Z</time>
      </trkpt>
      <trkpt lat="49.11158" lon="0.70777">
        <ele>94</ele>
        <time>2014-08-24T09:36:45Z</time>
      </trkpt>
      <trkpt lat="49.1115" lon="0.70777">
        <ele>93</ele>
        <time>2014-08-24T09:36:46Z</time>
      </trkpt>
      <trkpt lat="49.11143" lon="0.70778">
        <ele>92</ele>
        <time>2014-08-24T09:36:47Z</time>
      </trkpt>
      <trkpt lat="49.11132" lon="0.70782">
        <ele>90</ele>
        <time>2014-08-24T09:36:48Z</time>
      </trkpt>
      <trkpt lat="49.11123" lon="0.70795">
        <ele>89</ele>
        <time>2014-08-24T09:36:49Z</time>
      </trkpt>
      <trkpt lat="49.11114" lon="0.70807">
        <ele>88</ele>
        <time>2014-08-24T09:36:50Z</time>
      </trkpt>
      <trkpt lat="49.11105" lon="0.70818">
        <ele>87</ele>
        <time>2014-08-24T09:36:51Z</time>
      </trkpt>
      <trkpt lat="49.11097" lon="0.70828">
        <ele>86</ele>
        <time>2014-08-24T09:36:52Z</time>
      </trkpt>
      <trkpt lat="49.11088" lon="0.70838">
        <ele>85</ele>
        <time>2014-08-24T09:36:53Z</time>
      </trkpt>
      <trkpt lat="49.11079" lon="0.70849">
        <ele>84</ele>
        <time>2014-08-24T09:36:54Z</time>
      </trkpt>
      <trkpt lat="49.1107" lon="0.70859">
        <ele>83</ele>
        <time>2014-08-24T09:36:55Z</time>
      </trkpt>
      <trkpt lat="49.11062" lon="0.70868">
        <ele>83</ele>
        <time>2014-08-24T09:36:56Z</time>
      </trkpt>
      <trkpt lat="49.11055" lon="0.70877">
        <ele>83</ele>
        <time>2014-08-24T09:36:57Z</time>
      </trkpt>
      <trkpt lat="49.11046" lon="0.70886">
        <ele>83</ele>
        <time>2014-08-24T09:36:58Z</time>
      </trkpt>
      <trkpt lat="49.11039" lon="0.70896">
        <ele>82</ele>
        <time>2014-08-24T09:36:59Z</time>
      </trkpt>
      <trkpt lat="49.11031" lon="0.70904">
        <ele>82</ele>
        <time>2014-08-24T09:37:00Z</time>
      </trkpt>
      <trkpt lat="49.11023" lon="0.70913">
        <ele>82</ele>
        <time>2014-08-24T09:37:01Z</time>
      </trkpt>
      <trkpt lat="49.11016" lon="0.70922">
        <ele>82</ele>
        <time>2014-08-24T09:37:02Z</time>
      </trkpt>
      <trkpt lat="49.10987" lon="0.70952">
        <ele>81</ele>
        <time>2014-08-24T09:37:06Z</time>
      </trkpt>
      <trkpt lat="49.10981" lon="0.7096">
        <ele>81</ele>
        <time>2014-08-24T09:37:07Z</time>
      </trkpt>
      <trkpt lat="49.10974" lon="0.70967">
        <ele>81</ele>
        <time>2014-08-24T09:37:08Z</time>
      </trkpt>
      <trkpt lat="49.10968" lon="0.70974">
        <ele>81</ele>
        <time>2014-08-24T09:37:09Z</time>
      </trkpt>
      <trkpt lat="49.10963" lon="0.70979">
        <ele>81</ele>
        <time>2014-08-24T09:37:10Z</time>
      </trkpt>
      <trkpt lat="49.10959" lon="0.70983">
        <ele>81</ele>
        <time>2014-08-24T09:37:11Z</time>
      </trkpt>
      <trkpt lat="49.10954" lon="0.70989">
        <ele>80</ele>
        <time>2014-08-24T09:37:13Z</time>
      </trkpt>
      <trkpt lat="49.10951" lon="0.70989">
        <ele>80</ele>
        <time>2014-08-24T09:37:14Z</time>
      </trkpt>
      <trkpt lat="49.10948" lon="0.70991">
        <ele>80</ele>
        <time>2014-08-24T09:37:15Z</time>
      </trkpt>
      <trkpt lat="49.10946" lon="0.70995">
        <ele>80</ele>
        <time>2014-08-24T09:37:16Z</time>
      </trkpt>
      <trkpt lat="49.10944" lon="0.71003">
        <ele>80</ele>
        <time>2014-08-24T09:37:18Z</time>
      </trkpt>
      <trkpt lat="49.10942" lon="0.71004">
        <ele>80</ele>
        <time>2014-08-24T09:37:19Z</time>
      </trkpt>
      <trkpt lat="49.1094" lon="0.71003">
        <ele>80</ele>
        <time>2014-08-24T09:37:20Z</time>
      </trkpt>
      <trkpt lat="49.10939" lon="0.70996">
        <ele>80</ele>
        <time>2014-08-24T09:37:22Z</time>
      </trkpt>
      <trkpt lat="49.10939" lon="0.70992">
        <ele>80</ele>
        <time>2014-08-24T09:37:23Z</time>
      </trkpt>
      <trkpt lat="49.10938" lon="0.70983">
        <ele>80</ele>
        <time>2014-08-24T09:37:26Z</time>
      </trkpt>
      <trkpt lat="49.10933" lon="0.70976">
        <ele>80</ele>
        <time>2014-08-24T09:37:29Z</time>
      </trkpt>
      <trkpt lat="49.10926" lon="0.70952">
        <ele>80</ele>
        <time>2014-08-24T09:37:36Z</time>
      </trkpt>
      <trkpt lat="49.10924" lon="0.70946">
        <ele>80</ele>
        <time>2014-08-24T09:37:38Z</time>
      </trkpt>
      <trkpt lat="49.10913" lon="0.70916">
        <ele>80</ele>
        <time>2014-08-24T09:37:46Z</time>
      </trkpt>
      <trkpt lat="49.10899" lon="0.70881">
        <ele>80</ele>
        <time>2014-08-24T09:37:55Z</time>
      </trkpt>
      <trkpt lat="49.1089" lon="0.70855">
        <ele>80</ele>
        <time>2014-08-24T09:38:01Z</time>
      </trkpt>
      <trkpt lat="49.10885" lon="0.70839">
        <ele>80</ele>
        <time>2014-08-24T09:38:05Z</time>
      </trkpt>
      <trkpt lat="49.10876" lon="0.70818">
        <ele>80</ele>
        <time>2014-08-24T09:38:13Z</time>
      </trkpt>
      <trkpt lat="49.10872" lon="0.7081">
        <ele>81</ele>
        <time>2014-08-24T09:38:16Z</time>
      </trkpt>
      <trkpt lat="49.10868" lon="0.70803">
        <ele>81</ele>
        <time>2014-08-24T09:38:19Z</time>
      </trkpt>
      <trkpt lat="49.10867" lon="0.70796">
        <ele>81</ele>
        <time>2014-08-24T09:38:22Z</time>
      </trkpt>
      <trkpt lat="49.10869" lon="0.70793">
        <ele>81</ele>
        <time>2014-08-24T09:38:26Z</time>
      </trkpt>
    </trkseg>
  </trk>
</gpx>